<?xml version="1.0" encoding="UTF-8" standalone="no" ?>
<gpx xmlns="http://www.topografix.com/GPX/1/1" xmlns:xsi="http://www.w3.org/2001/XMLSchema-instance" xsi:schemaLocation="http://www.topografix.com/GPX/1/1 http://www.topografix.com/GPX/1/1/gpx.xsd" version="1.1" creator="VisuGPX - https://www.visugpx.com">
  <metadata>
    <name>30 NOV 2019 Les Coulmes à partir de st André en Royans</name>
    <desc><![CDATA[Rando du Club Alpin de Valence conduite par Pascale, exceptionnellement un samedi, petit créneau de beau temps entre les pluies des jours qui précèdent et qui suivent : quatre participants.
Mon GPS met longtemps à trouver l'altitude exact au départ. Elle est sous-estimée jusqu'aux Petites Roches. Se fier au dénivelé de descente.]]></desc>
  </metadata>
  <trk>
    <name><![CDATA[30-NOV-19 14:59:43]]></name>
    <trkseg>
      <trkpt lat="45.08606" lon="5.33957">
        <ele>317.85</ele>
        <time>2019-11-30T07:34:20Z</time>
      </trkpt>
      <trkpt lat="45.08597" lon="5.33962">
        <ele>318.81</ele>
        <time>2019-11-30T07:34:30Z</time>
      </trkpt>
      <trkpt lat="45.08591" lon="5.33965">
        <ele>319.3</ele>
        <time>2019-11-30T07:34:37Z</time>
      </trkpt>
      <trkpt lat="45.0859" lon="5.33968">
        <ele>319.78</ele>
        <time>2019-11-30T07:34:39Z</time>
      </trkpt>
      <trkpt lat="45.0859" lon="5.33973">
        <ele>319.78</ele>
        <time>2019-11-30T07:34:42Z</time>
      </trkpt>
      <trkpt lat="45.08586" lon="5.33994">
        <ele>321.7</ele>
        <time>2019-11-30T07:34:55Z</time>
      </trkpt>
      <trkpt lat="45.08585" lon="5.33996">
        <ele>321.7</ele>
        <time>2019-11-30T07:34:56Z</time>
      </trkpt>
      <trkpt lat="45.08582" lon="5.34007">
        <ele>323.62</ele>
        <time>2019-11-30T07:35:03Z</time>
      </trkpt>
      <trkpt lat="45.08581" lon="5.3401">
        <ele>322.66</ele>
        <time>2019-11-30T07:35:05Z</time>
      </trkpt>
      <trkpt lat="45.08577" lon="5.34028">
        <ele>324.1</ele>
        <time>2019-11-30T07:35:18Z</time>
      </trkpt>
      <trkpt lat="45.08575" lon="5.34042">
        <ele>325.54</ele>
        <time>2019-11-30T07:35:29Z</time>
      </trkpt>
      <trkpt lat="45.08572" lon="5.34052">
        <ele>326.5</ele>
        <time>2019-11-30T07:35:40Z</time>
      </trkpt>
      <trkpt lat="45.08571" lon="5.34056">
        <ele>326.99</ele>
        <time>2019-11-30T07:35:56Z</time>
      </trkpt>
      <trkpt lat="45.08573" lon="5.34055">
        <ele>327.95</ele>
        <time>2019-11-30T07:36:12Z</time>
      </trkpt>
      <trkpt lat="45.08574" lon="5.34057">
        <ele>328.43</ele>
        <time>2019-11-30T07:36:25Z</time>
      </trkpt>
      <trkpt lat="45.08575" lon="5.34072">
        <ele>330.35</ele>
        <time>2019-11-30T07:36:39Z</time>
      </trkpt>
      <trkpt lat="45.08574" lon="5.34073">
        <ele>330.35</ele>
        <time>2019-11-30T07:36:40Z</time>
      </trkpt>
      <trkpt lat="45.08573" lon="5.34083">
        <ele>335.16</ele>
        <time>2019-11-30T07:36:52Z</time>
      </trkpt>
      <trkpt lat="45.08573" lon="5.34084">
        <ele>332.75</ele>
        <time>2019-11-30T07:36:54Z</time>
      </trkpt>
      <trkpt lat="45.08573" lon="5.34093">
        <ele>335.16</ele>
        <time>2019-11-30T07:37:06Z</time>
      </trkpt>
      <trkpt lat="45.08576" lon="5.34109">
        <ele>335.64</ele>
        <time>2019-11-30T07:37:18Z</time>
      </trkpt>
      <trkpt lat="45.08577" lon="5.34112">
        <ele>337.08</ele>
        <time>2019-11-30T07:37:20Z</time>
      </trkpt>
      <trkpt lat="45.08577" lon="5.34124">
        <ele>338.52</ele>
        <time>2019-11-30T07:37:29Z</time>
      </trkpt>
      <trkpt lat="45.08576" lon="5.34138">
        <ele>340.92</ele>
        <time>2019-11-30T07:37:41Z</time>
      </trkpt>
      <trkpt lat="45.08573" lon="5.34149">
        <ele>342.37</ele>
        <time>2019-11-30T07:37:52Z</time>
      </trkpt>
      <trkpt lat="45.08572" lon="5.34161">
        <ele>343.33</ele>
        <time>2019-11-30T07:38:03Z</time>
      </trkpt>
      <trkpt lat="45.08568" lon="5.34172">
        <ele>345.73</ele>
        <time>2019-11-30T07:38:16Z</time>
      </trkpt>
      <trkpt lat="45.08567" lon="5.34181">
        <ele>347.65</ele>
        <time>2019-11-30T07:38:26Z</time>
      </trkpt>
      <trkpt lat="45.08564" lon="5.34189">
        <ele>348.62</ele>
        <time>2019-11-30T07:38:36Z</time>
      </trkpt>
      <trkpt lat="45.08562" lon="5.34196">
        <ele>350.06</ele>
        <time>2019-11-30T07:38:45Z</time>
      </trkpt>
      <trkpt lat="45.08561" lon="5.3421">
        <ele>352.46</ele>
        <time>2019-11-30T07:38:55Z</time>
      </trkpt>
      <trkpt lat="45.08556" lon="5.34223">
        <ele>353.9</ele>
        <time>2019-11-30T07:39:06Z</time>
      </trkpt>
      <trkpt lat="45.08555" lon="5.34234">
        <ele>356.31</ele>
        <time>2019-11-30T07:39:15Z</time>
      </trkpt>
      <trkpt lat="45.0855" lon="5.34239">
        <ele>358.23</ele>
        <time>2019-11-30T07:39:24Z</time>
      </trkpt>
      <trkpt lat="45.08543" lon="5.34242">
        <ele>359.67</ele>
        <time>2019-11-30T07:39:34Z</time>
      </trkpt>
      <trkpt lat="45.08543" lon="5.34242">
        <ele>360.15</ele>
        <time>2019-11-30T07:39:35Z</time>
      </trkpt>
      <trkpt lat="45.08536" lon="5.34245">
        <ele>361.59</ele>
        <time>2019-11-30T07:39:43Z</time>
      </trkpt>
      <trkpt lat="45.0853" lon="5.34251">
        <ele>364.48</ele>
        <time>2019-11-30T07:39:52Z</time>
      </trkpt>
      <trkpt lat="45.08529" lon="5.34263">
        <ele>365.92</ele>
        <time>2019-11-30T07:40:02Z</time>
      </trkpt>
      <trkpt lat="45.08527" lon="5.34273">
        <ele>367.36</ele>
        <time>2019-11-30T07:40:13Z</time>
      </trkpt>
      <trkpt lat="45.08527" lon="5.34278">
        <ele>369.76</ele>
        <time>2019-11-30T07:40:18Z</time>
      </trkpt>
      <trkpt lat="45.08529" lon="5.34295">
        <ele>371.69</ele>
        <time>2019-11-30T07:40:29Z</time>
      </trkpt>
      <trkpt lat="45.08533" lon="5.34311">
        <ele>374.09</ele>
        <time>2019-11-30T07:40:41Z</time>
      </trkpt>
      <trkpt lat="45.08534" lon="5.34319">
        <ele>376.97</ele>
        <time>2019-11-30T07:40:50Z</time>
      </trkpt>
      <trkpt lat="45.08536" lon="5.34333">
        <ele>379.38</ele>
        <time>2019-11-30T07:41:02Z</time>
      </trkpt>
      <trkpt lat="45.08537" lon="5.34345">
        <ele>382.26</ele>
        <time>2019-11-30T07:41:15Z</time>
      </trkpt>
      <trkpt lat="45.08536" lon="5.34355">
        <ele>384.18</ele>
        <time>2019-11-30T07:41:25Z</time>
      </trkpt>
      <trkpt lat="45.08535" lon="5.34365">
        <ele>387.07</ele>
        <time>2019-11-30T07:41:36Z</time>
      </trkpt>
      <trkpt lat="45.08532" lon="5.34371">
        <ele>389.95</ele>
        <time>2019-11-30T07:41:48Z</time>
      </trkpt>
      <trkpt lat="45.0853" lon="5.34381">
        <ele>392.36</ele>
        <time>2019-11-30T07:42:00Z</time>
      </trkpt>
      <trkpt lat="45.0853" lon="5.34388">
        <ele>394.76</ele>
        <time>2019-11-30T07:42:10Z</time>
      </trkpt>
      <trkpt lat="45.08529" lon="5.34394">
        <ele>396.68</ele>
        <time>2019-11-30T07:42:19Z</time>
      </trkpt>
      <trkpt lat="45.08526" lon="5.34399">
        <ele>399.57</ele>
        <time>2019-11-30T07:42:30Z</time>
      </trkpt>
      <trkpt lat="45.08522" lon="5.34404">
        <ele>401.49</ele>
        <time>2019-11-30T07:42:42Z</time>
      </trkpt>
      <trkpt lat="45.08518" lon="5.34414">
        <ele>403.41</ele>
        <time>2019-11-30T07:42:52Z</time>
      </trkpt>
      <trkpt lat="45.08516" lon="5.34417">
        <ele>405.33</ele>
        <time>2019-11-30T07:43:03Z</time>
      </trkpt>
      <trkpt lat="45.08517" lon="5.3442">
        <ele>406.29</ele>
        <time>2019-11-30T07:43:16Z</time>
      </trkpt>
      <trkpt lat="45.08519" lon="5.34424">
        <ele>406.29</ele>
        <time>2019-11-30T07:43:34Z</time>
      </trkpt>
      <trkpt lat="45.08522" lon="5.34431">
        <ele>406.29</ele>
        <time>2019-11-30T07:43:52Z</time>
      </trkpt>
      <trkpt lat="45.08523" lon="5.34433">
        <ele>406.77</ele>
        <time>2019-11-30T07:44:10Z</time>
      </trkpt>
      <trkpt lat="45.08523" lon="5.34434">
        <ele>407.74</ele>
        <time>2019-11-30T07:44:33Z</time>
      </trkpt>
      <trkpt lat="45.08523" lon="5.34434">
        <ele>407.74</ele>
        <time>2019-11-30T07:44:56Z</time>
      </trkpt>
      <trkpt lat="45.08525" lon="5.34434">
        <ele>407.74</ele>
        <time>2019-11-30T07:44:59Z</time>
      </trkpt>
      <trkpt lat="45.08531" lon="5.34437">
        <ele>407.74</ele>
        <time>2019-11-30T07:45:10Z</time>
      </trkpt>
      <trkpt lat="45.08536" lon="5.34439">
        <ele>408.22</ele>
        <time>2019-11-30T07:45:16Z</time>
      </trkpt>
      <trkpt lat="45.08549" lon="5.34445">
        <ele>407.26</ele>
        <time>2019-11-30T07:45:28Z</time>
      </trkpt>
      <trkpt lat="45.08561" lon="5.34451">
        <ele>406.77</ele>
        <time>2019-11-30T07:45:37Z</time>
      </trkpt>
      <trkpt lat="45.08564" lon="5.34452">
        <ele>407.26</ele>
        <time>2019-11-30T07:45:40Z</time>
      </trkpt>
      <trkpt lat="45.08574" lon="5.34454">
        <ele>406.77</ele>
        <time>2019-11-30T07:45:50Z</time>
      </trkpt>
      <trkpt lat="45.08581" lon="5.34453">
        <ele>406.29</ele>
        <time>2019-11-30T07:45:57Z</time>
      </trkpt>
      <trkpt lat="45.08592" lon="5.34458">
        <ele>405.81</ele>
        <time>2019-11-30T07:46:06Z</time>
      </trkpt>
      <trkpt lat="45.08607" lon="5.34465">
        <ele>405.81</ele>
        <time>2019-11-30T07:46:17Z</time>
      </trkpt>
      <trkpt lat="45.08617" lon="5.34469">
        <ele>404.85</ele>
        <time>2019-11-30T07:46:25Z</time>
      </trkpt>
      <trkpt lat="45.08623" lon="5.34472">
        <ele>404.85</ele>
        <time>2019-11-30T07:46:29Z</time>
      </trkpt>
      <trkpt lat="45.08635" lon="5.34478">
        <ele>404.85</ele>
        <time>2019-11-30T07:46:40Z</time>
      </trkpt>
      <trkpt lat="45.08637" lon="5.34479">
        <ele>405.33</ele>
        <time>2019-11-30T07:46:42Z</time>
      </trkpt>
      <trkpt lat="45.08644" lon="5.34482">
        <ele>405.33</ele>
        <time>2019-11-30T07:46:49Z</time>
      </trkpt>
      <trkpt lat="45.08654" lon="5.34488">
        <ele>405.81</ele>
        <time>2019-11-30T07:46:58Z</time>
      </trkpt>
      <trkpt lat="45.08665" lon="5.34495">
        <ele>407.74</ele>
        <time>2019-11-30T07:47:10Z</time>
      </trkpt>
      <trkpt lat="45.08672" lon="5.34499">
        <ele>408.22</ele>
        <time>2019-11-30T07:47:20Z</time>
      </trkpt>
      <trkpt lat="45.08683" lon="5.345">
        <ele>408.7</ele>
        <time>2019-11-30T07:47:30Z</time>
      </trkpt>
      <trkpt lat="45.08693" lon="5.34502">
        <ele>408.7</ele>
        <time>2019-11-30T07:47:39Z</time>
      </trkpt>
      <trkpt lat="45.08707" lon="5.34501">
        <ele>408.7</ele>
        <time>2019-11-30T07:47:49Z</time>
      </trkpt>
      <trkpt lat="45.08717" lon="5.34497">
        <ele>407.74</ele>
        <time>2019-11-30T07:47:59Z</time>
      </trkpt>
      <trkpt lat="45.08729" lon="5.34489">
        <ele>407.26</ele>
        <time>2019-11-30T07:48:08Z</time>
      </trkpt>
      <trkpt lat="45.08743" lon="5.34488">
        <ele>407.74</ele>
        <time>2019-11-30T07:48:18Z</time>
      </trkpt>
      <trkpt lat="45.08744" lon="5.34488">
        <ele>407.74</ele>
        <time>2019-11-30T07:48:19Z</time>
      </trkpt>
      <trkpt lat="45.08747" lon="5.34489">
        <ele>403.89</ele>
        <time>2019-11-30T07:48:23Z</time>
      </trkpt>
      <trkpt lat="45.08747" lon="5.34489">
        <ele>408.22</ele>
        <time>2019-11-30T07:48:24Z</time>
      </trkpt>
      <trkpt lat="45.08749" lon="5.34487">
        <ele>407.26</ele>
        <time>2019-11-30T07:48:35Z</time>
      </trkpt>
      <trkpt lat="45.08749" lon="5.34485">
        <ele>407.74</ele>
        <time>2019-11-30T07:48:46Z</time>
      </trkpt>
      <trkpt lat="45.0875" lon="5.34486">
        <ele>408.7</ele>
        <time>2019-11-30T07:49:04Z</time>
      </trkpt>
      <trkpt lat="45.0875" lon="5.34486">
        <ele>408.7</ele>
        <time>2019-11-30T07:49:19Z</time>
      </trkpt>
      <trkpt lat="45.08755" lon="5.34485">
        <ele>408.7</ele>
        <time>2019-11-30T07:49:35Z</time>
      </trkpt>
      <trkpt lat="45.08767" lon="5.34489">
        <ele>408.7</ele>
        <time>2019-11-30T07:49:45Z</time>
      </trkpt>
      <trkpt lat="45.08779" lon="5.34492">
        <ele>407.74</ele>
        <time>2019-11-30T07:49:56Z</time>
      </trkpt>
      <trkpt lat="45.08789" lon="5.34493">
        <ele>407.26</ele>
        <time>2019-11-30T07:50:06Z</time>
      </trkpt>
      <trkpt lat="45.08799" lon="5.34487">
        <ele>407.26</ele>
        <time>2019-11-30T07:50:16Z</time>
      </trkpt>
      <trkpt lat="45.0881" lon="5.34486">
        <ele>407.74</ele>
        <time>2019-11-30T07:50:25Z</time>
      </trkpt>
      <trkpt lat="45.0882" lon="5.34489">
        <ele>407.26</ele>
        <time>2019-11-30T07:50:34Z</time>
      </trkpt>
      <trkpt lat="45.08832" lon="5.34485">
        <ele>406.77</ele>
        <time>2019-11-30T07:50:46Z</time>
      </trkpt>
      <trkpt lat="45.08846" lon="5.34482">
        <ele>406.77</ele>
        <time>2019-11-30T07:50:55Z</time>
      </trkpt>
      <trkpt lat="45.08862" lon="5.34478">
        <ele>406.77</ele>
        <time>2019-11-30T07:51:06Z</time>
      </trkpt>
      <trkpt lat="45.08871" lon="5.34471">
        <ele>406.77</ele>
        <time>2019-11-30T07:51:16Z</time>
      </trkpt>
      <trkpt lat="45.08883" lon="5.34471">
        <ele>406.29</ele>
        <time>2019-11-30T07:51:26Z</time>
      </trkpt>
      <trkpt lat="45.08886" lon="5.3447">
        <ele>407.26</ele>
        <time>2019-11-30T07:51:28Z</time>
      </trkpt>
      <trkpt lat="45.08903" lon="5.34469">
        <ele>406.77</ele>
        <time>2019-11-30T07:51:40Z</time>
      </trkpt>
      <trkpt lat="45.08912" lon="5.34468">
        <ele>407.74</ele>
        <time>2019-11-30T07:51:47Z</time>
      </trkpt>
      <trkpt lat="45.08914" lon="5.34469">
        <ele>407.74</ele>
        <time>2019-11-30T07:51:49Z</time>
      </trkpt>
      <trkpt lat="45.08919" lon="5.34468">
        <ele>407.74</ele>
        <time>2019-11-30T07:51:56Z</time>
      </trkpt>
      <trkpt lat="45.08931" lon="5.34467">
        <ele>408.22</ele>
        <time>2019-11-30T07:52:07Z</time>
      </trkpt>
      <trkpt lat="45.08933" lon="5.34466">
        <ele>408.7</ele>
        <time>2019-11-30T07:52:09Z</time>
      </trkpt>
      <trkpt lat="45.08946" lon="5.34469">
        <ele>409.18</ele>
        <time>2019-11-30T07:52:20Z</time>
      </trkpt>
      <trkpt lat="45.08946" lon="5.34469">
        <ele>409.18</ele>
        <time>2019-11-30T07:52:21Z</time>
      </trkpt>
      <trkpt lat="45.08953" lon="5.34465">
        <ele>409.66</ele>
        <time>2019-11-30T07:52:28Z</time>
      </trkpt>
      <trkpt lat="45.08966" lon="5.34465">
        <ele>411.1</ele>
        <time>2019-11-30T07:52:38Z</time>
      </trkpt>
      <trkpt lat="45.08966" lon="5.34466">
        <ele>411.1</ele>
        <time>2019-11-30T07:52:39Z</time>
      </trkpt>
      <trkpt lat="45.08975" lon="5.34467">
        <ele>411.58</ele>
        <time>2019-11-30T07:52:48Z</time>
      </trkpt>
      <trkpt lat="45.0899" lon="5.34463">
        <ele>411.58</ele>
        <time>2019-11-30T07:52:58Z</time>
      </trkpt>
      <trkpt lat="45.08996" lon="5.34462">
        <ele>412.54</ele>
        <time>2019-11-30T07:53:04Z</time>
      </trkpt>
      <trkpt lat="45.09009" lon="5.34455">
        <ele>412.54</ele>
        <time>2019-11-30T07:53:15Z</time>
      </trkpt>
      <trkpt lat="45.09023" lon="5.34448">
        <ele>412.54</ele>
        <time>2019-11-30T07:53:26Z</time>
      </trkpt>
      <trkpt lat="45.09029" lon="5.34441">
        <ele>413.02</ele>
        <time>2019-11-30T07:53:32Z</time>
      </trkpt>
      <trkpt lat="45.09031" lon="5.34438">
        <ele>413.02</ele>
        <time>2019-11-30T07:53:34Z</time>
      </trkpt>
      <trkpt lat="45.09043" lon="5.34428">
        <ele>413.5</ele>
        <time>2019-11-30T07:53:47Z</time>
      </trkpt>
      <trkpt lat="45.09046" lon="5.34426">
        <ele>413.02</ele>
        <time>2019-11-30T07:53:50Z</time>
      </trkpt>
      <trkpt lat="45.09047" lon="5.34424">
        <ele>412.06</ele>
        <time>2019-11-30T07:53:52Z</time>
      </trkpt>
      <trkpt lat="45.09062" lon="5.34411">
        <ele>411.1</ele>
        <time>2019-11-30T07:54:04Z</time>
      </trkpt>
      <trkpt lat="45.09075" lon="5.344">
        <ele>409.66</ele>
        <time>2019-11-30T07:54:16Z</time>
      </trkpt>
      <trkpt lat="45.09082" lon="5.34397">
        <ele>409.18</ele>
        <time>2019-11-30T07:54:22Z</time>
      </trkpt>
      <trkpt lat="45.09095" lon="5.34396">
        <ele>408.22</ele>
        <time>2019-11-30T07:54:33Z</time>
      </trkpt>
      <trkpt lat="45.09105" lon="5.34396">
        <ele>405.33</ele>
        <time>2019-11-30T07:54:43Z</time>
      </trkpt>
      <trkpt lat="45.09118" lon="5.34394">
        <ele>404.37</ele>
        <time>2019-11-30T07:54:55Z</time>
      </trkpt>
      <trkpt lat="45.09131" lon="5.34393">
        <ele>402.93</ele>
        <time>2019-11-30T07:55:05Z</time>
      </trkpt>
      <trkpt lat="45.0914" lon="5.34392">
        <ele>400.53</ele>
        <time>2019-11-30T07:55:14Z</time>
      </trkpt>
      <trkpt lat="45.09144" lon="5.34391">
        <ele>399.57</ele>
        <time>2019-11-30T07:55:18Z</time>
      </trkpt>
      <trkpt lat="45.09146" lon="5.34391">
        <ele>399.57</ele>
        <time>2019-11-30T07:55:20Z</time>
      </trkpt>
      <trkpt lat="45.0915" lon="5.34391">
        <ele>399.08</ele>
        <time>2019-11-30T07:55:23Z</time>
      </trkpt>
      <trkpt lat="45.09153" lon="5.34392">
        <ele>398.6</ele>
        <time>2019-11-30T07:55:26Z</time>
      </trkpt>
      <trkpt lat="45.09162" lon="5.34388">
        <ele>396.68</ele>
        <time>2019-11-30T07:55:36Z</time>
      </trkpt>
      <trkpt lat="45.09166" lon="5.34384">
        <ele>395.24</ele>
        <time>2019-11-30T07:55:40Z</time>
      </trkpt>
      <trkpt lat="45.09173" lon="5.34383">
        <ele>394.28</ele>
        <time>2019-11-30T07:55:48Z</time>
      </trkpt>
      <trkpt lat="45.09176" lon="5.34383">
        <ele>393.32</ele>
        <time>2019-11-30T07:55:52Z</time>
      </trkpt>
      <trkpt lat="45.09188" lon="5.34387">
        <ele>391.87</ele>
        <time>2019-11-30T07:56:02Z</time>
      </trkpt>
      <trkpt lat="45.09202" lon="5.34388">
        <ele>390.43</ele>
        <time>2019-11-30T07:56:14Z</time>
      </trkpt>
      <trkpt lat="45.09206" lon="5.34389">
        <ele>389.47</ele>
        <time>2019-11-30T07:56:17Z</time>
      </trkpt>
      <trkpt lat="45.09221" lon="5.34399">
        <ele>389.47</ele>
        <time>2019-11-30T07:56:29Z</time>
      </trkpt>
      <trkpt lat="45.09223" lon="5.344">
        <ele>388.99</ele>
        <time>2019-11-30T07:56:31Z</time>
      </trkpt>
      <trkpt lat="45.09237" lon="5.34403">
        <ele>388.99</ele>
        <time>2019-11-30T07:56:44Z</time>
      </trkpt>
      <trkpt lat="45.09244" lon="5.34406">
        <ele>389.47</ele>
        <time>2019-11-30T07:56:50Z</time>
      </trkpt>
      <trkpt lat="45.09262" lon="5.34398">
        <ele>388.51</ele>
        <time>2019-11-30T07:57:01Z</time>
      </trkpt>
      <trkpt lat="45.09273" lon="5.34384">
        <ele>387.55</ele>
        <time>2019-11-30T07:57:11Z</time>
      </trkpt>
      <trkpt lat="45.09277" lon="5.34379">
        <ele>388.03</ele>
        <time>2019-11-30T07:57:15Z</time>
      </trkpt>
      <trkpt lat="45.09284" lon="5.34366">
        <ele>387.55</ele>
        <time>2019-11-30T07:57:25Z</time>
      </trkpt>
      <trkpt lat="45.09287" lon="5.34364">
        <ele>387.07</ele>
        <time>2019-11-30T07:57:28Z</time>
      </trkpt>
      <trkpt lat="45.09297" lon="5.34356">
        <ele>388.03</ele>
        <time>2019-11-30T07:57:38Z</time>
      </trkpt>
      <trkpt lat="45.0931" lon="5.34348">
        <ele>388.03</ele>
        <time>2019-11-30T07:57:50Z</time>
      </trkpt>
      <trkpt lat="45.09315" lon="5.34344">
        <ele>387.55</ele>
        <time>2019-11-30T07:57:59Z</time>
      </trkpt>
      <trkpt lat="45.09316" lon="5.34344">
        <ele>387.55</ele>
        <time>2019-11-30T07:58:00Z</time>
      </trkpt>
      <trkpt lat="45.09328" lon="5.34347">
        <ele>388.03</ele>
        <time>2019-11-30T07:58:12Z</time>
      </trkpt>
      <trkpt lat="45.09334" lon="5.34351">
        <ele>388.51</ele>
        <time>2019-11-30T07:58:19Z</time>
      </trkpt>
      <trkpt lat="45.09346" lon="5.34358">
        <ele>387.55</ele>
        <time>2019-11-30T07:58:30Z</time>
      </trkpt>
      <trkpt lat="45.09348" lon="5.34359">
        <ele>387.55</ele>
        <time>2019-11-30T07:58:31Z</time>
      </trkpt>
      <trkpt lat="45.09363" lon="5.3437">
        <ele>388.51</ele>
        <time>2019-11-30T07:58:44Z</time>
      </trkpt>
      <trkpt lat="45.09366" lon="5.34378">
        <ele>388.03</ele>
        <time>2019-11-30T07:58:53Z</time>
      </trkpt>
      <trkpt lat="45.09372" lon="5.34392">
        <ele>387.55</ele>
        <time>2019-11-30T07:59:02Z</time>
      </trkpt>
      <trkpt lat="45.09375" lon="5.34396">
        <ele>387.55</ele>
        <time>2019-11-30T07:59:06Z</time>
      </trkpt>
      <trkpt lat="45.09384" lon="5.34402">
        <ele>387.07</ele>
        <time>2019-11-30T07:59:16Z</time>
      </trkpt>
      <trkpt lat="45.09398" lon="5.34411">
        <ele>387.07</ele>
        <time>2019-11-30T07:59:26Z</time>
      </trkpt>
      <trkpt lat="45.09404" lon="5.34414">
        <ele>386.59</ele>
        <time>2019-11-30T07:59:32Z</time>
      </trkpt>
      <trkpt lat="45.0942" lon="5.34409">
        <ele>387.55</ele>
        <time>2019-11-30T07:59:43Z</time>
      </trkpt>
      <trkpt lat="45.09425" lon="5.34405">
        <ele>387.07</ele>
        <time>2019-11-30T07:59:53Z</time>
      </trkpt>
      <trkpt lat="45.09432" lon="5.34409">
        <ele>388.99</ele>
        <time>2019-11-30T08:00:05Z</time>
      </trkpt>
      <trkpt lat="45.09445" lon="5.34408">
        <ele>389.95</ele>
        <time>2019-11-30T08:00:17Z</time>
      </trkpt>
      <trkpt lat="45.09458" lon="5.34419">
        <ele>390.91</ele>
        <time>2019-11-30T08:00:29Z</time>
      </trkpt>
      <trkpt lat="45.09468" lon="5.34425">
        <ele>392.36</ele>
        <time>2019-11-30T08:00:37Z</time>
      </trkpt>
      <trkpt lat="45.09478" lon="5.34433">
        <ele>394.28</ele>
        <time>2019-11-30T08:00:48Z</time>
      </trkpt>
      <trkpt lat="45.09483" lon="5.34441">
        <ele>394.76</ele>
        <time>2019-11-30T08:00:58Z</time>
      </trkpt>
      <trkpt lat="45.09491" lon="5.34448">
        <ele>396.68</ele>
        <time>2019-11-30T08:01:08Z</time>
      </trkpt>
      <trkpt lat="45.095" lon="5.34457">
        <ele>397.64</ele>
        <time>2019-11-30T08:01:19Z</time>
      </trkpt>
      <trkpt lat="45.09503" lon="5.34458">
        <ele>397.64</ele>
        <time>2019-11-30T08:01:21Z</time>
      </trkpt>
      <trkpt lat="45.09514" lon="5.34468">
        <ele>398.12</ele>
        <time>2019-11-30T08:01:34Z</time>
      </trkpt>
      <trkpt lat="45.09518" lon="5.34472">
        <ele>397.64</ele>
        <time>2019-11-30T08:01:39Z</time>
      </trkpt>
      <trkpt lat="45.09531" lon="5.34476">
        <ele>399.08</ele>
        <time>2019-11-30T08:01:51Z</time>
      </trkpt>
      <trkpt lat="45.09542" lon="5.34487">
        <ele>399.57</ele>
        <time>2019-11-30T08:02:02Z</time>
      </trkpt>
      <trkpt lat="45.09549" lon="5.345">
        <ele>401.01</ele>
        <time>2019-11-30T08:02:13Z</time>
      </trkpt>
      <trkpt lat="45.0955" lon="5.34506">
        <ele>401.49</ele>
        <time>2019-11-30T08:02:24Z</time>
      </trkpt>
      <trkpt lat="45.09554" lon="5.34518">
        <ele>401.97</ele>
        <time>2019-11-30T08:02:34Z</time>
      </trkpt>
      <trkpt lat="45.09558" lon="5.34527">
        <ele>402.45</ele>
        <time>2019-11-30T08:02:39Z</time>
      </trkpt>
      <trkpt lat="45.09559" lon="5.34532">
        <ele>402.45</ele>
        <time>2019-11-30T08:02:43Z</time>
      </trkpt>
      <trkpt lat="45.09562" lon="5.34549">
        <ele>403.41</ele>
        <time>2019-11-30T08:02:54Z</time>
      </trkpt>
      <trkpt lat="45.09564" lon="5.34559">
        <ele>403.89</ele>
        <time>2019-11-30T08:03:01Z</time>
      </trkpt>
      <trkpt lat="45.09565" lon="5.34565">
        <ele>403.89</ele>
        <time>2019-11-30T08:03:04Z</time>
      </trkpt>
      <trkpt lat="45.09566" lon="5.34568">
        <ele>404.37</ele>
        <time>2019-11-30T08:03:06Z</time>
      </trkpt>
      <trkpt lat="45.09577" lon="5.34583">
        <ele>404.37</ele>
        <time>2019-11-30T08:03:17Z</time>
      </trkpt>
      <trkpt lat="45.09587" lon="5.34598">
        <ele>404.37</ele>
        <time>2019-11-30T08:03:28Z</time>
      </trkpt>
      <trkpt lat="45.09595" lon="5.34608">
        <ele>404.85</ele>
        <time>2019-11-30T08:03:38Z</time>
      </trkpt>
      <trkpt lat="45.09603" lon="5.34619">
        <ele>403.89</ele>
        <time>2019-11-30T08:03:48Z</time>
      </trkpt>
      <trkpt lat="45.09611" lon="5.34627">
        <ele>402.93</ele>
        <time>2019-11-30T08:03:58Z</time>
      </trkpt>
      <trkpt lat="45.09614" lon="5.3463">
        <ele>402.93</ele>
        <time>2019-11-30T08:04:00Z</time>
      </trkpt>
      <trkpt lat="45.09619" lon="5.34634">
        <ele>402.93</ele>
        <time>2019-11-30T08:04:04Z</time>
      </trkpt>
      <trkpt lat="45.09627" lon="5.34638">
        <ele>402.45</ele>
        <time>2019-11-30T08:04:09Z</time>
      </trkpt>
      <trkpt lat="45.09635" lon="5.34628">
        <ele>402.45</ele>
        <time>2019-11-30T08:04:20Z</time>
      </trkpt>
      <trkpt lat="45.09645" lon="5.34615">
        <ele>403.41</ele>
        <time>2019-11-30T08:04:30Z</time>
      </trkpt>
      <trkpt lat="45.09653" lon="5.34608">
        <ele>404.37</ele>
        <time>2019-11-30T08:04:40Z</time>
      </trkpt>
      <trkpt lat="45.0966" lon="5.34602">
        <ele>405.33</ele>
        <time>2019-11-30T08:04:47Z</time>
      </trkpt>
      <trkpt lat="45.09668" lon="5.34597">
        <ele>406.77</ele>
        <time>2019-11-30T08:04:56Z</time>
      </trkpt>
      <trkpt lat="45.09675" lon="5.34593">
        <ele>407.26</ele>
        <time>2019-11-30T08:05:03Z</time>
      </trkpt>
      <trkpt lat="45.09686" lon="5.34588">
        <ele>409.66</ele>
        <time>2019-11-30T08:05:14Z</time>
      </trkpt>
      <trkpt lat="45.09697" lon="5.34588">
        <ele>410.14</ele>
        <time>2019-11-30T08:05:25Z</time>
      </trkpt>
      <trkpt lat="45.09702" lon="5.34589">
        <ele>410.62</ele>
        <time>2019-11-30T08:05:31Z</time>
      </trkpt>
      <trkpt lat="45.09711" lon="5.34589">
        <ele>411.1</ele>
        <time>2019-11-30T08:05:40Z</time>
      </trkpt>
      <trkpt lat="45.09714" lon="5.34589">
        <ele>412.54</ele>
        <time>2019-11-30T08:05:43Z</time>
      </trkpt>
      <trkpt lat="45.09726" lon="5.34584">
        <ele>413.5</ele>
        <time>2019-11-30T08:05:55Z</time>
      </trkpt>
      <trkpt lat="45.09729" lon="5.34583">
        <ele>413.5</ele>
        <time>2019-11-30T08:05:57Z</time>
      </trkpt>
      <trkpt lat="45.09732" lon="5.34582">
        <ele>413.98</ele>
        <time>2019-11-30T08:06:00Z</time>
      </trkpt>
      <trkpt lat="45.09736" lon="5.34581">
        <ele>413.98</ele>
        <time>2019-11-30T08:06:03Z</time>
      </trkpt>
      <trkpt lat="45.09744" lon="5.34579">
        <ele>414.47</ele>
        <time>2019-11-30T08:06:12Z</time>
      </trkpt>
      <trkpt lat="45.09758" lon="5.34575">
        <ele>415.43</ele>
        <time>2019-11-30T08:06:25Z</time>
      </trkpt>
      <trkpt lat="45.09766" lon="5.34575">
        <ele>416.39</ele>
        <time>2019-11-30T08:06:35Z</time>
      </trkpt>
      <trkpt lat="45.09771" lon="5.34577">
        <ele>416.39</ele>
        <time>2019-11-30T08:06:42Z</time>
      </trkpt>
      <trkpt lat="45.09782" lon="5.34583">
        <ele>415.91</ele>
        <time>2019-11-30T08:06:53Z</time>
      </trkpt>
      <trkpt lat="45.09788" lon="5.34587">
        <ele>415.91</ele>
        <time>2019-11-30T08:06:59Z</time>
      </trkpt>
      <trkpt lat="45.09799" lon="5.34599">
        <ele>415.91</ele>
        <time>2019-11-30T08:07:10Z</time>
      </trkpt>
      <trkpt lat="45.09809" lon="5.34609">
        <ele>415.43</ele>
        <time>2019-11-30T08:07:19Z</time>
      </trkpt>
      <trkpt lat="45.09811" lon="5.34612">
        <ele>415.91</ele>
        <time>2019-11-30T08:07:21Z</time>
      </trkpt>
      <trkpt lat="45.09822" lon="5.34623">
        <ele>414.47</ele>
        <time>2019-11-30T08:07:33Z</time>
      </trkpt>
      <trkpt lat="45.09826" lon="5.34627">
        <ele>414.47</ele>
        <time>2019-11-30T08:07:37Z</time>
      </trkpt>
      <trkpt lat="45.09838" lon="5.34646">
        <ele>414.47</ele>
        <time>2019-11-30T08:07:50Z</time>
      </trkpt>
      <trkpt lat="45.09844" lon="5.3466">
        <ele>412.54</ele>
        <time>2019-11-30T08:07:59Z</time>
      </trkpt>
      <trkpt lat="45.0985" lon="5.34677">
        <ele>412.54</ele>
        <time>2019-11-30T08:08:10Z</time>
      </trkpt>
      <trkpt lat="45.0986" lon="5.34687">
        <ele>412.54</ele>
        <time>2019-11-30T08:08:20Z</time>
      </trkpt>
      <trkpt lat="45.09871" lon="5.34702">
        <ele>412.54</ele>
        <time>2019-11-30T08:08:32Z</time>
      </trkpt>
      <trkpt lat="45.09883" lon="5.34714">
        <ele>413.5</ele>
        <time>2019-11-30T08:08:43Z</time>
      </trkpt>
      <trkpt lat="45.09888" lon="5.34718">
        <ele>413.98</ele>
        <time>2019-11-30T08:08:48Z</time>
      </trkpt>
      <trkpt lat="45.09895" lon="5.34726">
        <ele>414.95</ele>
        <time>2019-11-30T08:08:54Z</time>
      </trkpt>
      <trkpt lat="45.09896" lon="5.34729">
        <ele>414.47</ele>
        <time>2019-11-30T08:08:56Z</time>
      </trkpt>
      <trkpt lat="45.09902" lon="5.34733">
        <ele>413.98</ele>
        <time>2019-11-30T08:09:01Z</time>
      </trkpt>
      <trkpt lat="45.09916" lon="5.34745">
        <ele>413.02</ele>
        <time>2019-11-30T08:09:14Z</time>
      </trkpt>
      <trkpt lat="45.09929" lon="5.34758">
        <ele>412.06</ele>
        <time>2019-11-30T08:09:27Z</time>
      </trkpt>
      <trkpt lat="45.09942" lon="5.34764">
        <ele>411.58</ele>
        <time>2019-11-30T08:09:39Z</time>
      </trkpt>
      <trkpt lat="45.09944" lon="5.34766">
        <ele>411.58</ele>
        <time>2019-11-30T08:09:41Z</time>
      </trkpt>
      <trkpt lat="45.09957" lon="5.34782">
        <ele>411.58</ele>
        <time>2019-11-30T08:09:53Z</time>
      </trkpt>
      <trkpt lat="45.09971" lon="5.34791">
        <ele>411.58</ele>
        <time>2019-11-30T08:10:04Z</time>
      </trkpt>
      <trkpt lat="45.09971" lon="5.34792">
        <ele>412.06</ele>
        <time>2019-11-30T08:10:05Z</time>
      </trkpt>
      <trkpt lat="45.09981" lon="5.34796">
        <ele>411.58</ele>
        <time>2019-11-30T08:10:14Z</time>
      </trkpt>
      <trkpt lat="45.09993" lon="5.34804">
        <ele>412.06</ele>
        <time>2019-11-30T08:10:26Z</time>
      </trkpt>
      <trkpt lat="45.10002" lon="5.34814">
        <ele>412.54</ele>
        <time>2019-11-30T08:10:36Z</time>
      </trkpt>
      <trkpt lat="45.1001" lon="5.34817">
        <ele>412.54</ele>
        <time>2019-11-30T08:10:43Z</time>
      </trkpt>
      <trkpt lat="45.10016" lon="5.3482">
        <ele>412.54</ele>
        <time>2019-11-30T08:10:48Z</time>
      </trkpt>
      <trkpt lat="45.10029" lon="5.34829">
        <ele>412.54</ele>
        <time>2019-11-30T08:11:00Z</time>
      </trkpt>
      <trkpt lat="45.10042" lon="5.34836">
        <ele>412.54</ele>
        <time>2019-11-30T08:11:11Z</time>
      </trkpt>
      <trkpt lat="45.10047" lon="5.34838">
        <ele>413.02</ele>
        <time>2019-11-30T08:11:17Z</time>
      </trkpt>
      <trkpt lat="45.10052" lon="5.34843">
        <ele>412.54</ele>
        <time>2019-11-30T08:11:22Z</time>
      </trkpt>
      <trkpt lat="45.10067" lon="5.34853">
        <ele>413.02</ele>
        <time>2019-11-30T08:11:34Z</time>
      </trkpt>
      <trkpt lat="45.1008" lon="5.34867">
        <ele>413.5</ele>
        <time>2019-11-30T08:11:47Z</time>
      </trkpt>
      <trkpt lat="45.10084" lon="5.34871">
        <ele>413.5</ele>
        <time>2019-11-30T08:11:51Z</time>
      </trkpt>
      <trkpt lat="45.10096" lon="5.34888">
        <ele>413.02</ele>
        <time>2019-11-30T08:12:03Z</time>
      </trkpt>
      <trkpt lat="45.10111" lon="5.34898">
        <ele>413.5</ele>
        <time>2019-11-30T08:12:16Z</time>
      </trkpt>
      <trkpt lat="45.10123" lon="5.34901">
        <ele>413.98</ele>
        <time>2019-11-30T08:12:26Z</time>
      </trkpt>
      <trkpt lat="45.10127" lon="5.34901">
        <ele>413.98</ele>
        <time>2019-11-30T08:12:29Z</time>
      </trkpt>
      <trkpt lat="45.10139" lon="5.34906">
        <ele>413.98</ele>
        <time>2019-11-30T08:12:41Z</time>
      </trkpt>
      <trkpt lat="45.10153" lon="5.34916">
        <ele>414.95</ele>
        <time>2019-11-30T08:12:53Z</time>
      </trkpt>
      <trkpt lat="45.10159" lon="5.34923">
        <ele>415.43</ele>
        <time>2019-11-30T08:12:59Z</time>
      </trkpt>
      <trkpt lat="45.10166" lon="5.34931">
        <ele>415.43</ele>
        <time>2019-11-30T08:13:06Z</time>
      </trkpt>
      <trkpt lat="45.10175" lon="5.34947">
        <ele>415.43</ele>
        <time>2019-11-30T08:13:18Z</time>
      </trkpt>
      <trkpt lat="45.10179" lon="5.34965">
        <ele>415.91</ele>
        <time>2019-11-30T08:13:28Z</time>
      </trkpt>
      <trkpt lat="45.10179" lon="5.34967">
        <ele>416.39</ele>
        <time>2019-11-30T08:13:29Z</time>
      </trkpt>
      <trkpt lat="45.10185" lon="5.34987">
        <ele>416.39</ele>
        <time>2019-11-30T08:13:41Z</time>
      </trkpt>
      <trkpt lat="45.10188" lon="5.34999">
        <ele>416.87</ele>
        <time>2019-11-30T08:13:49Z</time>
      </trkpt>
      <trkpt lat="45.10194" lon="5.35012">
        <ele>416.87</ele>
        <time>2019-11-30T08:14:01Z</time>
      </trkpt>
      <trkpt lat="45.10196" lon="5.35016">
        <ele>416.87</ele>
        <time>2019-11-30T08:14:05Z</time>
      </trkpt>
      <trkpt lat="45.10204" lon="5.3503">
        <ele>416.87</ele>
        <time>2019-11-30T08:14:17Z</time>
      </trkpt>
      <trkpt lat="45.10212" lon="5.35043">
        <ele>417.35</ele>
        <time>2019-11-30T08:14:27Z</time>
      </trkpt>
      <trkpt lat="45.1022" lon="5.35057">
        <ele>418.31</ele>
        <time>2019-11-30T08:14:36Z</time>
      </trkpt>
      <trkpt lat="45.10228" lon="5.35072">
        <ele>419.27</ele>
        <time>2019-11-30T08:14:47Z</time>
      </trkpt>
      <trkpt lat="45.10239" lon="5.3509">
        <ele>420.71</ele>
        <time>2019-11-30T08:15:00Z</time>
      </trkpt>
      <trkpt lat="45.10248" lon="5.35104">
        <ele>420.23</ele>
        <time>2019-11-30T08:15:10Z</time>
      </trkpt>
      <trkpt lat="45.10257" lon="5.35117">
        <ele>420.71</ele>
        <time>2019-11-30T08:15:20Z</time>
      </trkpt>
      <trkpt lat="45.10269" lon="5.35131">
        <ele>422.16</ele>
        <time>2019-11-30T08:15:32Z</time>
      </trkpt>
      <trkpt lat="45.1028" lon="5.35144">
        <ele>422.16</ele>
        <time>2019-11-30T08:15:43Z</time>
      </trkpt>
      <trkpt lat="45.10283" lon="5.35148">
        <ele>422.16</ele>
        <time>2019-11-30T08:15:46Z</time>
      </trkpt>
      <trkpt lat="45.10287" lon="5.35153">
        <ele>423.12</ele>
        <time>2019-11-30T08:15:50Z</time>
      </trkpt>
      <trkpt lat="45.10293" lon="5.35158">
        <ele>423.12</ele>
        <time>2019-11-30T08:15:55Z</time>
      </trkpt>
      <trkpt lat="45.10305" lon="5.35173">
        <ele>423.6</ele>
        <time>2019-11-30T08:16:08Z</time>
      </trkpt>
      <trkpt lat="45.10311" lon="5.35181">
        <ele>424.08</ele>
        <time>2019-11-30T08:16:15Z</time>
      </trkpt>
      <trkpt lat="45.10323" lon="5.3519">
        <ele>425.04</ele>
        <time>2019-11-30T08:16:27Z</time>
      </trkpt>
      <trkpt lat="45.10329" lon="5.35198">
        <ele>425.04</ele>
        <time>2019-11-30T08:16:32Z</time>
      </trkpt>
      <trkpt lat="45.1034" lon="5.35208">
        <ele>426</ele>
        <time>2019-11-30T08:16:42Z</time>
      </trkpt>
      <trkpt lat="45.10353" lon="5.35215">
        <ele>427.92</ele>
        <time>2019-11-30T08:16:54Z</time>
      </trkpt>
      <trkpt lat="45.10365" lon="5.35222">
        <ele>428.4</ele>
        <time>2019-11-30T08:17:05Z</time>
      </trkpt>
      <trkpt lat="45.10376" lon="5.35228">
        <ele>428.89</ele>
        <time>2019-11-30T08:17:15Z</time>
      </trkpt>
      <trkpt lat="45.10387" lon="5.35235">
        <ele>430.81</ele>
        <time>2019-11-30T08:17:25Z</time>
      </trkpt>
      <trkpt lat="45.10398" lon="5.3524">
        <ele>431.29</ele>
        <time>2019-11-30T08:17:36Z</time>
      </trkpt>
      <trkpt lat="45.10408" lon="5.35242">
        <ele>432.73</ele>
        <time>2019-11-30T08:17:46Z</time>
      </trkpt>
      <trkpt lat="45.10411" lon="5.35244">
        <ele>432.73</ele>
        <time>2019-11-30T08:17:49Z</time>
      </trkpt>
      <trkpt lat="45.10417" lon="5.35243">
        <ele>433.21</ele>
        <time>2019-11-30T08:17:55Z</time>
      </trkpt>
      <trkpt lat="45.10421" lon="5.35243">
        <ele>434.17</ele>
        <time>2019-11-30T08:17:59Z</time>
      </trkpt>
      <trkpt lat="45.10428" lon="5.35241">
        <ele>434.17</ele>
        <time>2019-11-30T08:18:04Z</time>
      </trkpt>
      <trkpt lat="45.10441" lon="5.35241">
        <ele>435.13</ele>
        <time>2019-11-30T08:18:13Z</time>
      </trkpt>
      <trkpt lat="45.10452" lon="5.35235">
        <ele>436.1</ele>
        <time>2019-11-30T08:18:21Z</time>
      </trkpt>
      <trkpt lat="45.10458" lon="5.35232">
        <ele>436.58</ele>
        <time>2019-11-30T08:18:26Z</time>
      </trkpt>
      <trkpt lat="45.10461" lon="5.35232">
        <ele>437.06</ele>
        <time>2019-11-30T08:18:28Z</time>
      </trkpt>
      <trkpt lat="45.10475" lon="5.35211">
        <ele>438.02</ele>
        <time>2019-11-30T08:18:41Z</time>
      </trkpt>
      <trkpt lat="45.10481" lon="5.352">
        <ele>438.98</ele>
        <time>2019-11-30T08:18:49Z</time>
      </trkpt>
      <trkpt lat="45.10482" lon="5.35196">
        <ele>439.46</ele>
        <time>2019-11-30T08:18:51Z</time>
      </trkpt>
      <trkpt lat="45.10484" lon="5.35192">
        <ele>439.46</ele>
        <time>2019-11-30T08:18:54Z</time>
      </trkpt>
      <trkpt lat="45.10487" lon="5.3519">
        <ele>439.94</ele>
        <time>2019-11-30T08:18:56Z</time>
      </trkpt>
      <trkpt lat="45.10489" lon="5.35189">
        <ele>439.46</ele>
        <time>2019-11-30T08:18:58Z</time>
      </trkpt>
      <trkpt lat="45.10493" lon="5.35185">
        <ele>440.42</ele>
        <time>2019-11-30T08:19:02Z</time>
      </trkpt>
      <trkpt lat="45.10495" lon="5.35183">
        <ele>440.42</ele>
        <time>2019-11-30T08:19:04Z</time>
      </trkpt>
      <trkpt lat="45.10506" lon="5.35172">
        <ele>441.86</ele>
        <time>2019-11-30T08:19:14Z</time>
      </trkpt>
      <trkpt lat="45.10519" lon="5.35162">
        <ele>442.34</ele>
        <time>2019-11-30T08:19:26Z</time>
      </trkpt>
      <trkpt lat="45.10531" lon="5.35154">
        <ele>442.34</ele>
        <time>2019-11-30T08:19:37Z</time>
      </trkpt>
      <trkpt lat="45.10546" lon="5.35145">
        <ele>442.34</ele>
        <time>2019-11-30T08:19:48Z</time>
      </trkpt>
      <trkpt lat="45.10564" lon="5.35136">
        <ele>443.31</ele>
        <time>2019-11-30T08:20:02Z</time>
      </trkpt>
      <trkpt lat="45.10577" lon="5.3513">
        <ele>443.79</ele>
        <time>2019-11-30T08:20:13Z</time>
      </trkpt>
      <trkpt lat="45.10578" lon="5.3513">
        <ele>444.27</ele>
        <time>2019-11-30T08:20:14Z</time>
      </trkpt>
      <trkpt lat="45.10583" lon="5.3513">
        <ele>444.27</ele>
        <time>2019-11-30T08:20:20Z</time>
      </trkpt>
      <trkpt lat="45.10584" lon="5.3514">
        <ele>445.71</ele>
        <time>2019-11-30T08:20:30Z</time>
      </trkpt>
      <trkpt lat="45.10588" lon="5.35154">
        <ele>447.15</ele>
        <time>2019-11-30T08:20:40Z</time>
      </trkpt>
      <trkpt lat="45.10591" lon="5.35168">
        <ele>448.11</ele>
        <time>2019-11-30T08:20:50Z</time>
      </trkpt>
      <trkpt lat="45.10594" lon="5.35185">
        <ele>450.03</ele>
        <time>2019-11-30T08:21:01Z</time>
      </trkpt>
      <trkpt lat="45.10596" lon="5.35203">
        <ele>451.48</ele>
        <time>2019-11-30T08:21:12Z</time>
      </trkpt>
      <trkpt lat="45.10596" lon="5.35209">
        <ele>452.44</ele>
        <time>2019-11-30T08:21:17Z</time>
      </trkpt>
      <trkpt lat="45.10596" lon="5.35224">
        <ele>453.4</ele>
        <time>2019-11-30T08:21:27Z</time>
      </trkpt>
      <trkpt lat="45.10602" lon="5.35242">
        <ele>454.84</ele>
        <time>2019-11-30T08:21:38Z</time>
      </trkpt>
      <trkpt lat="45.10604" lon="5.35249">
        <ele>455.8</ele>
        <time>2019-11-30T08:21:44Z</time>
      </trkpt>
      <trkpt lat="45.10607" lon="5.35254">
        <ele>456.28</ele>
        <time>2019-11-30T08:21:48Z</time>
      </trkpt>
      <trkpt lat="45.10615" lon="5.35275">
        <ele>457.72</ele>
        <time>2019-11-30T08:22:00Z</time>
      </trkpt>
      <trkpt lat="45.10622" lon="5.3529">
        <ele>458.69</ele>
        <time>2019-11-30T08:22:11Z</time>
      </trkpt>
      <trkpt lat="45.10629" lon="5.35303">
        <ele>460.13</ele>
        <time>2019-11-30T08:22:22Z</time>
      </trkpt>
      <trkpt lat="45.10634" lon="5.35316">
        <ele>460.61</ele>
        <time>2019-11-30T08:22:31Z</time>
      </trkpt>
      <trkpt lat="45.10636" lon="5.35324">
        <ele>461.09</ele>
        <time>2019-11-30T08:22:36Z</time>
      </trkpt>
      <trkpt lat="45.10634" lon="5.35338">
        <ele>463.01</ele>
        <time>2019-11-30T08:22:47Z</time>
      </trkpt>
      <trkpt lat="45.10627" lon="5.35343">
        <ele>464.45</ele>
        <time>2019-11-30T08:22:57Z</time>
      </trkpt>
      <trkpt lat="45.10626" lon="5.35344">
        <ele>464.45</ele>
        <time>2019-11-30T08:23:13Z</time>
      </trkpt>
      <trkpt lat="45.10621" lon="5.35348">
        <ele>465.42</ele>
        <time>2019-11-30T08:23:31Z</time>
      </trkpt>
      <trkpt lat="45.10609" lon="5.35356">
        <ele>465.9</ele>
        <time>2019-11-30T08:23:43Z</time>
      </trkpt>
      <trkpt lat="45.10602" lon="5.3537">
        <ele>467.82</ele>
        <time>2019-11-30T08:23:54Z</time>
      </trkpt>
      <trkpt lat="45.10599" lon="5.35378">
        <ele>467.82</ele>
        <time>2019-11-30T08:24:00Z</time>
      </trkpt>
      <trkpt lat="45.1059" lon="5.35389">
        <ele>468.3</ele>
        <time>2019-11-30T08:24:10Z</time>
      </trkpt>
      <trkpt lat="45.10582" lon="5.35401">
        <ele>469.26</ele>
        <time>2019-11-30T08:24:20Z</time>
      </trkpt>
      <trkpt lat="45.1058" lon="5.35403">
        <ele>468.78</ele>
        <time>2019-11-30T08:24:22Z</time>
      </trkpt>
      <trkpt lat="45.10579" lon="5.35418">
        <ele>469.74</ele>
        <time>2019-11-30T08:24:31Z</time>
      </trkpt>
      <trkpt lat="45.10581" lon="5.35432">
        <ele>471.66</ele>
        <time>2019-11-30T08:24:41Z</time>
      </trkpt>
      <trkpt lat="45.10585" lon="5.35448">
        <ele>472.63</ele>
        <time>2019-11-30T08:24:52Z</time>
      </trkpt>
      <trkpt lat="45.1059" lon="5.35463">
        <ele>473.59</ele>
        <time>2019-11-30T08:25:02Z</time>
      </trkpt>
      <trkpt lat="45.10596" lon="5.35476">
        <ele>474.55</ele>
        <time>2019-11-30T08:25:11Z</time>
      </trkpt>
      <trkpt lat="45.10599" lon="5.35489">
        <ele>474.07</ele>
        <time>2019-11-30T08:25:18Z</time>
      </trkpt>
      <trkpt lat="45.10601" lon="5.35504">
        <ele>474.55</ele>
        <time>2019-11-30T08:25:28Z</time>
      </trkpt>
      <trkpt lat="45.10602" lon="5.35512">
        <ele>474.55</ele>
        <time>2019-11-30T08:25:36Z</time>
      </trkpt>
      <trkpt lat="45.10603" lon="5.35521">
        <ele>474.07</ele>
        <time>2019-11-30T08:25:43Z</time>
      </trkpt>
      <trkpt lat="45.10599" lon="5.35538">
        <ele>472.63</ele>
        <time>2019-11-30T08:25:54Z</time>
      </trkpt>
      <trkpt lat="45.10598" lon="5.35543">
        <ele>472.14</ele>
        <time>2019-11-30T08:25:59Z</time>
      </trkpt>
      <trkpt lat="45.10593" lon="5.35551">
        <ele>470.22</ele>
        <time>2019-11-30T08:26:09Z</time>
      </trkpt>
      <trkpt lat="45.10588" lon="5.35563">
        <ele>468.78</ele>
        <time>2019-11-30T08:26:20Z</time>
      </trkpt>
      <trkpt lat="45.10584" lon="5.35571">
        <ele>467.82</ele>
        <time>2019-11-30T08:26:27Z</time>
      </trkpt>
      <trkpt lat="45.10579" lon="5.35592">
        <ele>465.9</ele>
        <time>2019-11-30T08:26:39Z</time>
      </trkpt>
      <trkpt lat="45.10579" lon="5.3561">
        <ele>463.49</ele>
        <time>2019-11-30T08:26:50Z</time>
      </trkpt>
      <trkpt lat="45.1058" lon="5.35627">
        <ele>464.93</ele>
        <time>2019-11-30T08:27:02Z</time>
      </trkpt>
      <trkpt lat="45.10581" lon="5.35635">
        <ele>463.01</ele>
        <time>2019-11-30T08:27:10Z</time>
      </trkpt>
      <trkpt lat="45.10579" lon="5.35644">
        <ele>464.45</ele>
        <time>2019-11-30T08:27:20Z</time>
      </trkpt>
      <trkpt lat="45.1058" lon="5.35646">
        <ele>464.45</ele>
        <time>2019-11-30T08:27:22Z</time>
      </trkpt>
      <trkpt lat="45.10579" lon="5.3566">
        <ele>465.9</ele>
        <time>2019-11-30T08:27:32Z</time>
      </trkpt>
      <trkpt lat="45.10571" lon="5.35676">
        <ele>467.82</ele>
        <time>2019-11-30T08:27:42Z</time>
      </trkpt>
      <trkpt lat="45.10564" lon="5.35691">
        <ele>467.82</ele>
        <time>2019-11-30T08:27:52Z</time>
      </trkpt>
      <trkpt lat="45.10562" lon="5.35697">
        <ele>467.82</ele>
        <time>2019-11-30T08:27:56Z</time>
      </trkpt>
      <trkpt lat="45.1056" lon="5.35709">
        <ele>465.9</ele>
        <time>2019-11-30T08:28:06Z</time>
      </trkpt>
      <trkpt lat="45.10564" lon="5.35718">
        <ele>464.45</ele>
        <time>2019-11-30T08:28:17Z</time>
      </trkpt>
      <trkpt lat="45.10567" lon="5.35723">
        <ele>463.01</ele>
        <time>2019-11-30T08:28:26Z</time>
      </trkpt>
      <trkpt lat="45.10569" lon="5.35726">
        <ele>461.09</ele>
        <time>2019-11-30T08:28:37Z</time>
      </trkpt>
      <trkpt lat="45.10569" lon="5.35729">
        <ele>460.61</ele>
        <time>2019-11-30T08:28:41Z</time>
      </trkpt>
      <trkpt lat="45.10572" lon="5.35734">
        <ele>459.17</ele>
        <time>2019-11-30T08:28:50Z</time>
      </trkpt>
      <trkpt lat="45.10575" lon="5.35738">
        <ele>458.69</ele>
        <time>2019-11-30T08:29:02Z</time>
      </trkpt>
      <trkpt lat="45.10577" lon="5.35741">
        <ele>457.24</ele>
        <time>2019-11-30T08:29:13Z</time>
      </trkpt>
      <trkpt lat="45.10587" lon="5.35755">
        <ele>456.28</ele>
        <time>2019-11-30T08:29:23Z</time>
      </trkpt>
      <trkpt lat="45.10605" lon="5.35773">
        <ele>454.36</ele>
        <time>2019-11-30T08:29:35Z</time>
      </trkpt>
      <trkpt lat="45.10606" lon="5.35774">
        <ele>453.4</ele>
        <time>2019-11-30T08:29:44Z</time>
      </trkpt>
      <trkpt lat="45.10606" lon="5.35775">
        <ele>453.4</ele>
        <time>2019-11-30T08:29:45Z</time>
      </trkpt>
      <trkpt lat="45.10606" lon="5.35779">
        <ele>451.96</ele>
        <time>2019-11-30T08:29:55Z</time>
      </trkpt>
      <trkpt lat="45.1061" lon="5.3579">
        <ele>452.44</ele>
        <time>2019-11-30T08:30:03Z</time>
      </trkpt>
      <trkpt lat="45.10614" lon="5.35797">
        <ele>452.92</ele>
        <time>2019-11-30T08:30:06Z</time>
      </trkpt>
      <trkpt lat="45.10623" lon="5.35819">
        <ele>451.48</ele>
        <time>2019-11-30T08:30:16Z</time>
      </trkpt>
      <trkpt lat="45.10627" lon="5.3583">
        <ele>451</ele>
        <time>2019-11-30T08:30:24Z</time>
      </trkpt>
      <trkpt lat="45.10629" lon="5.35836">
        <ele>450.52</ele>
        <time>2019-11-30T08:30:27Z</time>
      </trkpt>
      <trkpt lat="45.10629" lon="5.35846">
        <ele>450.52</ele>
        <time>2019-11-30T08:30:37Z</time>
      </trkpt>
      <trkpt lat="45.10629" lon="5.35849">
        <ele>449.55</ele>
        <time>2019-11-30T08:30:41Z</time>
      </trkpt>
      <trkpt lat="45.10626" lon="5.35857">
        <ele>448.11</ele>
        <time>2019-11-30T08:30:51Z</time>
      </trkpt>
      <trkpt lat="45.10627" lon="5.35861">
        <ele>446.67</ele>
        <time>2019-11-30T08:30:55Z</time>
      </trkpt>
      <trkpt lat="45.10636" lon="5.35875">
        <ele>444.75</ele>
        <time>2019-11-30T08:31:06Z</time>
      </trkpt>
      <trkpt lat="45.10641" lon="5.35881">
        <ele>443.31</ele>
        <time>2019-11-30T08:31:17Z</time>
      </trkpt>
      <trkpt lat="45.10641" lon="5.35882">
        <ele>442.82</ele>
        <time>2019-11-30T08:31:21Z</time>
      </trkpt>
      <trkpt lat="45.10646" lon="5.35895">
        <ele>442.34</ele>
        <time>2019-11-30T08:31:34Z</time>
      </trkpt>
      <trkpt lat="45.10647" lon="5.359">
        <ele>442.34</ele>
        <time>2019-11-30T08:31:46Z</time>
      </trkpt>
      <trkpt lat="45.10647" lon="5.359">
        <ele>434.17</ele>
        <time>2019-11-30T08:31:48Z</time>
      </trkpt>
      <trkpt lat="45.10647" lon="5.359">
        <ele>443.79</ele>
        <time>2019-11-30T08:31:49Z</time>
      </trkpt>
      <trkpt lat="45.10646" lon="5.35901">
        <ele>442.82</ele>
        <time>2019-11-30T08:32:10Z</time>
      </trkpt>
      <trkpt lat="45.10644" lon="5.35902">
        <ele>444.27</ele>
        <time>2019-11-30T08:32:25Z</time>
      </trkpt>
      <trkpt lat="45.10647" lon="5.35905">
        <ele>446.67</ele>
        <time>2019-11-30T08:32:37Z</time>
      </trkpt>
      <trkpt lat="45.10651" lon="5.35908">
        <ele>450.03</ele>
        <time>2019-11-30T08:32:47Z</time>
      </trkpt>
      <trkpt lat="45.10656" lon="5.35903">
        <ele>452.44</ele>
        <time>2019-11-30T08:32:58Z</time>
      </trkpt>
      <trkpt lat="45.10657" lon="5.35901">
        <ele>453.88</ele>
        <time>2019-11-30T08:33:05Z</time>
      </trkpt>
      <trkpt lat="45.10657" lon="5.35901">
        <ele>456.28</ele>
        <time>2019-11-30T08:33:14Z</time>
      </trkpt>
      <trkpt lat="45.10657" lon="5.35901">
        <ele>458.21</ele>
        <time>2019-11-30T08:33:25Z</time>
      </trkpt>
      <trkpt lat="45.10657" lon="5.35903">
        <ele>459.65</ele>
        <time>2019-11-30T08:33:33Z</time>
      </trkpt>
      <trkpt lat="45.10659" lon="5.3591">
        <ele>462.05</ele>
        <time>2019-11-30T08:33:43Z</time>
      </trkpt>
      <trkpt lat="45.10662" lon="5.35918">
        <ele>463.97</ele>
        <time>2019-11-30T08:33:53Z</time>
      </trkpt>
      <trkpt lat="45.10671" lon="5.35918">
        <ele>467.34</ele>
        <time>2019-11-30T08:34:07Z</time>
      </trkpt>
      <trkpt lat="45.10678" lon="5.35914">
        <ele>469.74</ele>
        <time>2019-11-30T08:34:17Z</time>
      </trkpt>
      <trkpt lat="45.1068" lon="5.35913">
        <ele>470.7</ele>
        <time>2019-11-30T08:34:23Z</time>
      </trkpt>
      <trkpt lat="45.10683" lon="5.35911">
        <ele>472.63</ele>
        <time>2019-11-30T08:34:36Z</time>
      </trkpt>
      <trkpt lat="45.10686" lon="5.3591">
        <ele>474.55</ele>
        <time>2019-11-30T08:34:51Z</time>
      </trkpt>
      <trkpt lat="45.10691" lon="5.35909">
        <ele>475.51</ele>
        <time>2019-11-30T08:34:58Z</time>
      </trkpt>
      <trkpt lat="45.10694" lon="5.35907">
        <ele>476.47</ele>
        <time>2019-11-30T08:35:11Z</time>
      </trkpt>
      <trkpt lat="45.10696" lon="5.35904">
        <ele>477.43</ele>
        <time>2019-11-30T08:35:23Z</time>
      </trkpt>
      <trkpt lat="45.10699" lon="5.35902">
        <ele>476.95</ele>
        <time>2019-11-30T08:35:41Z</time>
      </trkpt>
      <trkpt lat="45.10702" lon="5.359">
        <ele>476.47</ele>
        <time>2019-11-30T08:36:04Z</time>
      </trkpt>
      <trkpt lat="45.10703" lon="5.35899">
        <ele>478.87</ele>
        <time>2019-11-30T08:36:12Z</time>
      </trkpt>
      <trkpt lat="45.10703" lon="5.35899">
        <ele>476.95</ele>
        <time>2019-11-30T08:36:15Z</time>
      </trkpt>
      <trkpt lat="45.10703" lon="5.35898">
        <ele>476.47</ele>
        <time>2019-11-30T08:36:26Z</time>
      </trkpt>
      <trkpt lat="45.10704" lon="5.35899">
        <ele>476.95</ele>
        <time>2019-11-30T08:36:32Z</time>
      </trkpt>
      <trkpt lat="45.10713" lon="5.35896">
        <ele>476.47</ele>
        <time>2019-11-30T08:36:42Z</time>
      </trkpt>
      <trkpt lat="45.10723" lon="5.35888">
        <ele>477.43</ele>
        <time>2019-11-30T08:36:52Z</time>
      </trkpt>
      <trkpt lat="45.1073" lon="5.35888">
        <ele>479.35</ele>
        <time>2019-11-30T08:37:00Z</time>
      </trkpt>
      <trkpt lat="45.10736" lon="5.35886">
        <ele>482.24</ele>
        <time>2019-11-30T08:37:09Z</time>
      </trkpt>
      <trkpt lat="45.10748" lon="5.35873">
        <ele>482.24</ele>
        <time>2019-11-30T08:37:21Z</time>
      </trkpt>
      <trkpt lat="45.10751" lon="5.35867">
        <ele>479.84</ele>
        <time>2019-11-30T08:37:33Z</time>
      </trkpt>
      <trkpt lat="45.10753" lon="5.35852">
        <ele>480.32</ele>
        <time>2019-11-30T08:37:40Z</time>
      </trkpt>
      <trkpt lat="45.10757" lon="5.35828">
        <ele>479.35</ele>
        <time>2019-11-30T08:37:51Z</time>
      </trkpt>
      <trkpt lat="45.10758" lon="5.35819">
        <ele>479.84</ele>
        <time>2019-11-30T08:37:57Z</time>
      </trkpt>
      <trkpt lat="45.10764" lon="5.35808">
        <ele>480.32</ele>
        <time>2019-11-30T08:38:06Z</time>
      </trkpt>
      <trkpt lat="45.10768" lon="5.35801">
        <ele>481.28</ele>
        <time>2019-11-30T08:38:11Z</time>
      </trkpt>
      <trkpt lat="45.1078" lon="5.35788">
        <ele>481.28</ele>
        <time>2019-11-30T08:38:22Z</time>
      </trkpt>
      <trkpt lat="45.10789" lon="5.35785">
        <ele>482.24</ele>
        <time>2019-11-30T08:38:32Z</time>
      </trkpt>
      <trkpt lat="45.10796" lon="5.35778">
        <ele>482.24</ele>
        <time>2019-11-30T08:38:39Z</time>
      </trkpt>
      <trkpt lat="45.10805" lon="5.35769">
        <ele>482.72</ele>
        <time>2019-11-30T08:38:48Z</time>
      </trkpt>
      <trkpt lat="45.10813" lon="5.35764">
        <ele>484.64</ele>
        <time>2019-11-30T08:38:57Z</time>
      </trkpt>
      <trkpt lat="45.10815" lon="5.35765">
        <ele>485.12</ele>
        <time>2019-11-30T08:38:59Z</time>
      </trkpt>
      <trkpt lat="45.10825" lon="5.35763">
        <ele>486.56</ele>
        <time>2019-11-30T08:39:09Z</time>
      </trkpt>
      <trkpt lat="45.10832" lon="5.35762">
        <ele>487.53</ele>
        <time>2019-11-30T08:39:16Z</time>
      </trkpt>
      <trkpt lat="45.10843" lon="5.35763">
        <ele>489.45</ele>
        <time>2019-11-30T08:39:26Z</time>
      </trkpt>
      <trkpt lat="45.10844" lon="5.35763">
        <ele>488.49</ele>
        <time>2019-11-30T08:39:27Z</time>
      </trkpt>
      <trkpt lat="45.10853" lon="5.35765">
        <ele>490.89</ele>
        <time>2019-11-30T08:39:37Z</time>
      </trkpt>
      <trkpt lat="45.10854" lon="5.35764">
        <ele>492.33</ele>
        <time>2019-11-30T08:39:48Z</time>
      </trkpt>
      <trkpt lat="45.10855" lon="5.35763">
        <ele>491.85</ele>
        <time>2019-11-30T08:39:57Z</time>
      </trkpt>
      <trkpt lat="45.10856" lon="5.35764">
        <ele>492.33</ele>
        <time>2019-11-30T08:40:18Z</time>
      </trkpt>
      <trkpt lat="45.10856" lon="5.35764">
        <ele>492.33</ele>
        <time>2019-11-30T08:40:32Z</time>
      </trkpt>
      <trkpt lat="45.10859" lon="5.35763">
        <ele>491.85</ele>
        <time>2019-11-30T08:40:46Z</time>
      </trkpt>
      <trkpt lat="45.10863" lon="5.3576">
        <ele>491.37</ele>
        <time>2019-11-30T08:40:58Z</time>
      </trkpt>
      <trkpt lat="45.10864" lon="5.35758">
        <ele>491.37</ele>
        <time>2019-11-30T08:41:14Z</time>
      </trkpt>
      <trkpt lat="45.10863" lon="5.35758">
        <ele>490.41</ele>
        <time>2019-11-30T08:41:23Z</time>
      </trkpt>
      <trkpt lat="45.10863" lon="5.35759">
        <ele>489.93</ele>
        <time>2019-11-30T08:41:47Z</time>
      </trkpt>
      <trkpt lat="45.10863" lon="5.35759">
        <ele>490.41</ele>
        <time>2019-11-30T08:42:07Z</time>
      </trkpt>
      <trkpt lat="45.10862" lon="5.35758">
        <ele>491.37</ele>
        <time>2019-11-30T08:42:15Z</time>
      </trkpt>
      <trkpt lat="45.10863" lon="5.35757">
        <ele>491.37</ele>
        <time>2019-11-30T08:42:32Z</time>
      </trkpt>
      <trkpt lat="45.10863" lon="5.35757">
        <ele>491.37</ele>
        <time>2019-11-30T08:42:51Z</time>
      </trkpt>
      <trkpt lat="45.10864" lon="5.35756">
        <ele>491.85</ele>
        <time>2019-11-30T08:43:07Z</time>
      </trkpt>
      <trkpt lat="45.10864" lon="5.35756">
        <ele>491.37</ele>
        <time>2019-11-30T08:43:33Z</time>
      </trkpt>
      <trkpt lat="45.10864" lon="5.35755">
        <ele>491.37</ele>
        <time>2019-11-30T08:43:49Z</time>
      </trkpt>
      <trkpt lat="45.10863" lon="5.35754">
        <ele>491.85</ele>
        <time>2019-11-30T08:44:14Z</time>
      </trkpt>
      <trkpt lat="45.10863" lon="5.35753">
        <ele>491.37</ele>
        <time>2019-11-30T08:44:39Z</time>
      </trkpt>
      <trkpt lat="45.10862" lon="5.35754">
        <ele>491.37</ele>
        <time>2019-11-30T08:44:59Z</time>
      </trkpt>
      <trkpt lat="45.10863" lon="5.35753">
        <ele>491.37</ele>
        <time>2019-11-30T08:45:20Z</time>
      </trkpt>
      <trkpt lat="45.10863" lon="5.35755">
        <ele>491.37</ele>
        <time>2019-11-30T08:45:35Z</time>
      </trkpt>
      <trkpt lat="45.10862" lon="5.35756">
        <ele>491.37</ele>
        <time>2019-11-30T08:45:38Z</time>
      </trkpt>
      <trkpt lat="45.10864" lon="5.35757">
        <ele>490.89</ele>
        <time>2019-11-30T08:45:40Z</time>
      </trkpt>
      <trkpt lat="45.10875" lon="5.35763">
        <ele>492.33</ele>
        <time>2019-11-30T08:45:51Z</time>
      </trkpt>
      <trkpt lat="45.10886" lon="5.35764">
        <ele>492.81</ele>
        <time>2019-11-30T08:46:01Z</time>
      </trkpt>
      <trkpt lat="45.10899" lon="5.35764">
        <ele>493.77</ele>
        <time>2019-11-30T08:46:12Z</time>
      </trkpt>
      <trkpt lat="45.10906" lon="5.35761">
        <ele>494.74</ele>
        <time>2019-11-30T08:46:19Z</time>
      </trkpt>
      <trkpt lat="45.10919" lon="5.35765">
        <ele>496.18</ele>
        <time>2019-11-30T08:46:31Z</time>
      </trkpt>
      <trkpt lat="45.1093" lon="5.35769">
        <ele>497.14</ele>
        <time>2019-11-30T08:46:41Z</time>
      </trkpt>
      <trkpt lat="45.10933" lon="5.3577">
        <ele>497.14</ele>
        <time>2019-11-30T08:46:43Z</time>
      </trkpt>
      <trkpt lat="45.10943" lon="5.35773">
        <ele>498.58</ele>
        <time>2019-11-30T08:46:53Z</time>
      </trkpt>
      <trkpt lat="45.10951" lon="5.35773">
        <ele>500.02</ele>
        <time>2019-11-30T08:47:02Z</time>
      </trkpt>
      <trkpt lat="45.10959" lon="5.35772">
        <ele>501.46</ele>
        <time>2019-11-30T08:47:10Z</time>
      </trkpt>
      <trkpt lat="45.10968" lon="5.35774">
        <ele>502.43</ele>
        <time>2019-11-30T08:47:18Z</time>
      </trkpt>
      <trkpt lat="45.1097" lon="5.35776">
        <ele>502.91</ele>
        <time>2019-11-30T08:47:20Z</time>
      </trkpt>
      <trkpt lat="45.10982" lon="5.35788">
        <ele>504.35</ele>
        <time>2019-11-30T08:47:31Z</time>
      </trkpt>
      <trkpt lat="45.10993" lon="5.35802">
        <ele>504.35</ele>
        <time>2019-11-30T08:47:42Z</time>
      </trkpt>
      <trkpt lat="45.11005" lon="5.35811">
        <ele>504.35</ele>
        <time>2019-11-30T08:47:54Z</time>
      </trkpt>
      <trkpt lat="45.11014" lon="5.35821">
        <ele>505.31</ele>
        <time>2019-11-30T08:48:05Z</time>
      </trkpt>
      <trkpt lat="45.11015" lon="5.35823">
        <ele>506.27</ele>
        <time>2019-11-30T08:48:07Z</time>
      </trkpt>
      <trkpt lat="45.11024" lon="5.35838">
        <ele>507.71</ele>
        <time>2019-11-30T08:48:19Z</time>
      </trkpt>
      <trkpt lat="45.11024" lon="5.35843">
        <ele>506.75</ele>
        <time>2019-11-30T08:48:23Z</time>
      </trkpt>
      <trkpt lat="45.11026" lon="5.35851">
        <ele>508.19</ele>
        <time>2019-11-30T08:48:27Z</time>
      </trkpt>
      <trkpt lat="45.1104" lon="5.35869">
        <ele>508.19</ele>
        <time>2019-11-30T08:48:41Z</time>
      </trkpt>
      <trkpt lat="45.11056" lon="5.35881">
        <ele>509.16</ele>
        <time>2019-11-30T08:48:53Z</time>
      </trkpt>
      <trkpt lat="45.11071" lon="5.35889">
        <ele>509.64</ele>
        <time>2019-11-30T08:49:06Z</time>
      </trkpt>
      <trkpt lat="45.1109" lon="5.35891">
        <ele>509.64</ele>
        <time>2019-11-30T08:49:19Z</time>
      </trkpt>
      <trkpt lat="45.11101" lon="5.35894">
        <ele>510.12</ele>
        <time>2019-11-30T08:49:28Z</time>
      </trkpt>
      <trkpt lat="45.11105" lon="5.35896">
        <ele>510.6</ele>
        <time>2019-11-30T08:49:32Z</time>
      </trkpt>
      <trkpt lat="45.11121" lon="5.35911">
        <ele>511.56</ele>
        <time>2019-11-30T08:49:44Z</time>
      </trkpt>
      <trkpt lat="45.11128" lon="5.35921">
        <ele>511.56</ele>
        <time>2019-11-30T08:49:54Z</time>
      </trkpt>
      <trkpt lat="45.11128" lon="5.35922">
        <ele>512.04</ele>
        <time>2019-11-30T08:49:55Z</time>
      </trkpt>
      <trkpt lat="45.11137" lon="5.35938">
        <ele>512.52</ele>
        <time>2019-11-30T08:50:05Z</time>
      </trkpt>
      <trkpt lat="45.11147" lon="5.35956">
        <ele>512.52</ele>
        <time>2019-11-30T08:50:19Z</time>
      </trkpt>
      <trkpt lat="45.11154" lon="5.3597">
        <ele>513</ele>
        <time>2019-11-30T08:50:29Z</time>
      </trkpt>
      <trkpt lat="45.1116" lon="5.3598">
        <ele>511.56</ele>
        <time>2019-11-30T08:50:38Z</time>
      </trkpt>
      <trkpt lat="45.11167" lon="5.35987">
        <ele>511.08</ele>
        <time>2019-11-30T08:50:51Z</time>
      </trkpt>
      <trkpt lat="45.11168" lon="5.35987">
        <ele>510.6</ele>
        <time>2019-11-30T08:50:56Z</time>
      </trkpt>
      <trkpt lat="45.11174" lon="5.35992">
        <ele>510.12</ele>
        <time>2019-11-30T08:51:02Z</time>
      </trkpt>
      <trkpt lat="45.11181" lon="5.35995">
        <ele>509.64</ele>
        <time>2019-11-30T08:51:09Z</time>
      </trkpt>
      <trkpt lat="45.11193" lon="5.36005">
        <ele>509.16</ele>
        <time>2019-11-30T08:51:19Z</time>
      </trkpt>
      <trkpt lat="45.11194" lon="5.36008">
        <ele>508.67</ele>
        <time>2019-11-30T08:51:30Z</time>
      </trkpt>
      <trkpt lat="45.11193" lon="5.36008">
        <ele>509.16</ele>
        <time>2019-11-30T08:51:40Z</time>
      </trkpt>
      <trkpt lat="45.11189" lon="5.3601">
        <ele>509.64</ele>
        <time>2019-11-30T08:51:45Z</time>
      </trkpt>
      <trkpt lat="45.11178" lon="5.36014">
        <ele>510.12</ele>
        <time>2019-11-30T08:51:56Z</time>
      </trkpt>
      <trkpt lat="45.11171" lon="5.36017">
        <ele>511.08</ele>
        <time>2019-11-30T08:52:07Z</time>
      </trkpt>
      <trkpt lat="45.11166" lon="5.36018">
        <ele>510.6</ele>
        <time>2019-11-30T08:52:18Z</time>
      </trkpt>
      <trkpt lat="45.11155" lon="5.36018">
        <ele>512.52</ele>
        <time>2019-11-30T08:52:29Z</time>
      </trkpt>
      <trkpt lat="45.11148" lon="5.36016">
        <ele>513</ele>
        <time>2019-11-30T08:52:38Z</time>
      </trkpt>
      <trkpt lat="45.11139" lon="5.36016">
        <ele>514.92</ele>
        <time>2019-11-30T08:52:47Z</time>
      </trkpt>
      <trkpt lat="45.11134" lon="5.36015">
        <ele>514.92</ele>
        <time>2019-11-30T08:52:56Z</time>
      </trkpt>
      <trkpt lat="45.11111" lon="5.36015">
        <ele>516.85</ele>
        <time>2019-11-30T08:53:10Z</time>
      </trkpt>
      <trkpt lat="45.11109" lon="5.36016">
        <ele>517.33</ele>
        <time>2019-11-30T08:53:12Z</time>
      </trkpt>
      <trkpt lat="45.11101" lon="5.3602">
        <ele>517.81</ele>
        <time>2019-11-30T08:53:21Z</time>
      </trkpt>
      <trkpt lat="45.11095" lon="5.36024">
        <ele>518.29</ele>
        <time>2019-11-30T08:53:30Z</time>
      </trkpt>
      <trkpt lat="45.11092" lon="5.36029">
        <ele>520.69</ele>
        <time>2019-11-30T08:53:43Z</time>
      </trkpt>
      <trkpt lat="45.11087" lon="5.36033">
        <ele>521.17</ele>
        <time>2019-11-30T08:53:55Z</time>
      </trkpt>
      <trkpt lat="45.11086" lon="5.36034">
        <ele>522.13</ele>
        <time>2019-11-30T08:53:59Z</time>
      </trkpt>
      <trkpt lat="45.1108" lon="5.3604">
        <ele>523.09</ele>
        <time>2019-11-30T08:54:07Z</time>
      </trkpt>
      <trkpt lat="45.11076" lon="5.36044">
        <ele>524.06</ele>
        <time>2019-11-30T08:54:17Z</time>
      </trkpt>
      <trkpt lat="45.11071" lon="5.3605">
        <ele>525.98</ele>
        <time>2019-11-30T08:54:27Z</time>
      </trkpt>
      <trkpt lat="45.11061" lon="5.3606">
        <ele>529.34</ele>
        <time>2019-11-30T08:54:40Z</time>
      </trkpt>
      <trkpt lat="45.11054" lon="5.36067">
        <ele>531.27</ele>
        <time>2019-11-30T08:54:52Z</time>
      </trkpt>
      <trkpt lat="45.11053" lon="5.36068">
        <ele>532.71</ele>
        <time>2019-11-30T08:55:02Z</time>
      </trkpt>
      <trkpt lat="45.11048" lon="5.36075">
        <ele>535.11</ele>
        <time>2019-11-30T08:55:13Z</time>
      </trkpt>
      <trkpt lat="45.11044" lon="5.36081">
        <ele>536.55</ele>
        <time>2019-11-30T08:55:23Z</time>
      </trkpt>
      <trkpt lat="45.11041" lon="5.36085">
        <ele>537.99</ele>
        <time>2019-11-30T08:55:36Z</time>
      </trkpt>
      <trkpt lat="45.11035" lon="5.36089">
        <ele>540.88</ele>
        <time>2019-11-30T08:55:48Z</time>
      </trkpt>
      <trkpt lat="45.11029" lon="5.3609">
        <ele>541.84</ele>
        <time>2019-11-30T08:55:58Z</time>
      </trkpt>
      <trkpt lat="45.11022" lon="5.36088">
        <ele>544.72</ele>
        <time>2019-11-30T08:56:09Z</time>
      </trkpt>
      <trkpt lat="45.11013" lon="5.36084">
        <ele>546.17</ele>
        <time>2019-11-30T08:56:20Z</time>
      </trkpt>
      <trkpt lat="45.11007" lon="5.36082">
        <ele>547.13</ele>
        <time>2019-11-30T08:56:33Z</time>
      </trkpt>
      <trkpt lat="45.11003" lon="5.36081">
        <ele>547.61</ele>
        <time>2019-11-30T08:56:39Z</time>
      </trkpt>
      <trkpt lat="45.10994" lon="5.36081">
        <ele>550.49</ele>
        <time>2019-11-30T08:56:51Z</time>
      </trkpt>
      <trkpt lat="45.10989" lon="5.36081">
        <ele>551.93</ele>
        <time>2019-11-30T08:57:01Z</time>
      </trkpt>
      <trkpt lat="45.10981" lon="5.36082">
        <ele>553.86</ele>
        <time>2019-11-30T08:57:13Z</time>
      </trkpt>
      <trkpt lat="45.10979" lon="5.36082">
        <ele>554.82</ele>
        <time>2019-11-30T08:57:23Z</time>
      </trkpt>
      <trkpt lat="45.10976" lon="5.36082">
        <ele>556.74</ele>
        <time>2019-11-30T08:57:38Z</time>
      </trkpt>
      <trkpt lat="45.10975" lon="5.36081">
        <ele>558.66</ele>
        <time>2019-11-30T08:57:49Z</time>
      </trkpt>
      <trkpt lat="45.10972" lon="5.36075">
        <ele>561.55</ele>
        <time>2019-11-30T08:58:01Z</time>
      </trkpt>
      <trkpt lat="45.10971" lon="5.36071">
        <ele>562.51</ele>
        <time>2019-11-30T08:58:12Z</time>
      </trkpt>
      <trkpt lat="45.10965" lon="5.36066">
        <ele>563.47</ele>
        <time>2019-11-30T08:58:22Z</time>
      </trkpt>
      <trkpt lat="45.10961" lon="5.36065">
        <ele>564.43</ele>
        <time>2019-11-30T08:58:34Z</time>
      </trkpt>
      <trkpt lat="45.10956" lon="5.36066">
        <ele>564.91</ele>
        <time>2019-11-30T08:58:48Z</time>
      </trkpt>
      <trkpt lat="45.10952" lon="5.3607">
        <ele>565.87</ele>
        <time>2019-11-30T08:58:59Z</time>
      </trkpt>
      <trkpt lat="45.10948" lon="5.36078">
        <ele>567.8</ele>
        <time>2019-11-30T08:59:11Z</time>
      </trkpt>
      <trkpt lat="45.10946" lon="5.36082">
        <ele>569.72</ele>
        <time>2019-11-30T08:59:21Z</time>
      </trkpt>
      <trkpt lat="45.10944" lon="5.36089">
        <ele>571.16</ele>
        <time>2019-11-30T08:59:30Z</time>
      </trkpt>
      <trkpt lat="45.1094" lon="5.36099">
        <ele>573.08</ele>
        <time>2019-11-30T08:59:42Z</time>
      </trkpt>
      <trkpt lat="45.10938" lon="5.36104">
        <ele>575.01</ele>
        <time>2019-11-30T08:59:51Z</time>
      </trkpt>
      <trkpt lat="45.10938" lon="5.36112">
        <ele>576.93</ele>
        <time>2019-11-30T09:00:00Z</time>
      </trkpt>
      <trkpt lat="45.10937" lon="5.36117">
        <ele>577.89</ele>
        <time>2019-11-30T09:00:08Z</time>
      </trkpt>
      <trkpt lat="45.1094" lon="5.36128">
        <ele>580.29</ele>
        <time>2019-11-30T09:00:19Z</time>
      </trkpt>
      <trkpt lat="45.10944" lon="5.36138">
        <ele>582.22</ele>
        <time>2019-11-30T09:00:30Z</time>
      </trkpt>
      <trkpt lat="45.10944" lon="5.36144">
        <ele>584.62</ele>
        <time>2019-11-30T09:00:42Z</time>
      </trkpt>
      <trkpt lat="45.10945" lon="5.36157">
        <ele>586.54</ele>
        <time>2019-11-30T09:00:51Z</time>
      </trkpt>
      <trkpt lat="45.10948" lon="5.36169">
        <ele>588.46</ele>
        <time>2019-11-30T09:01:00Z</time>
      </trkpt>
      <trkpt lat="45.10944" lon="5.36176">
        <ele>590.39</ele>
        <time>2019-11-30T09:01:09Z</time>
      </trkpt>
      <trkpt lat="45.10939" lon="5.36182">
        <ele>591.35</ele>
        <time>2019-11-30T09:01:17Z</time>
      </trkpt>
      <trkpt lat="45.10934" lon="5.36191">
        <ele>593.27</ele>
        <time>2019-11-30T09:01:27Z</time>
      </trkpt>
      <trkpt lat="45.10935" lon="5.36198">
        <ele>593.75</ele>
        <time>2019-11-30T09:01:38Z</time>
      </trkpt>
      <trkpt lat="45.10933" lon="5.36206">
        <ele>595.19</ele>
        <time>2019-11-30T09:01:49Z</time>
      </trkpt>
      <trkpt lat="45.10926" lon="5.36218">
        <ele>597.12</ele>
        <time>2019-11-30T09:02:00Z</time>
      </trkpt>
      <trkpt lat="45.1092" lon="5.36225">
        <ele>598.08</ele>
        <time>2019-11-30T09:02:11Z</time>
      </trkpt>
      <trkpt lat="45.10914" lon="5.36232">
        <ele>600</ele>
        <time>2019-11-30T09:02:22Z</time>
      </trkpt>
      <trkpt lat="45.10907" lon="5.36236">
        <ele>600.96</ele>
        <time>2019-11-30T09:02:31Z</time>
      </trkpt>
      <trkpt lat="45.10898" lon="5.36241">
        <ele>602.4</ele>
        <time>2019-11-30T09:02:43Z</time>
      </trkpt>
      <trkpt lat="45.1089" lon="5.36244">
        <ele>603.85</ele>
        <time>2019-11-30T09:02:56Z</time>
      </trkpt>
      <trkpt lat="45.1088" lon="5.36245">
        <ele>605.29</ele>
        <time>2019-11-30T09:03:07Z</time>
      </trkpt>
      <trkpt lat="45.10877" lon="5.36245">
        <ele>605.29</ele>
        <time>2019-11-30T09:03:11Z</time>
      </trkpt>
      <trkpt lat="45.10871" lon="5.36247">
        <ele>605.77</ele>
        <time>2019-11-30T09:03:17Z</time>
      </trkpt>
      <trkpt lat="45.10864" lon="5.36249">
        <ele>605.29</ele>
        <time>2019-11-30T09:03:26Z</time>
      </trkpt>
      <trkpt lat="45.1086" lon="5.36251">
        <ele>605.77</ele>
        <time>2019-11-30T09:03:29Z</time>
      </trkpt>
      <trkpt lat="45.10848" lon="5.36259">
        <ele>605.29</ele>
        <time>2019-11-30T09:03:40Z</time>
      </trkpt>
      <trkpt lat="45.10839" lon="5.36265">
        <ele>605.29</ele>
        <time>2019-11-30T09:03:50Z</time>
      </trkpt>
      <trkpt lat="45.10835" lon="5.36269">
        <ele>604.81</ele>
        <time>2019-11-30T09:03:54Z</time>
      </trkpt>
      <trkpt lat="45.10833" lon="5.36271">
        <ele>604.33</ele>
        <time>2019-11-30T09:03:57Z</time>
      </trkpt>
      <trkpt lat="45.10831" lon="5.36273">
        <ele>604.33</ele>
        <time>2019-11-30T09:03:59Z</time>
      </trkpt>
      <trkpt lat="45.10823" lon="5.36285">
        <ele>603.85</ele>
        <time>2019-11-30T09:04:10Z</time>
      </trkpt>
      <trkpt lat="45.10819" lon="5.36296">
        <ele>602.88</ele>
        <time>2019-11-30T09:04:19Z</time>
      </trkpt>
      <trkpt lat="45.10818" lon="5.36301">
        <ele>600</ele>
        <time>2019-11-30T09:04:27Z</time>
      </trkpt>
      <trkpt lat="45.10818" lon="5.36301">
        <ele>603.36</ele>
        <time>2019-11-30T09:04:28Z</time>
      </trkpt>
      <trkpt lat="45.10818" lon="5.36313">
        <ele>602.88</ele>
        <time>2019-11-30T09:04:38Z</time>
      </trkpt>
      <trkpt lat="45.10816" lon="5.36325">
        <ele>603.36</ele>
        <time>2019-11-30T09:04:47Z</time>
      </trkpt>
      <trkpt lat="45.10814" lon="5.36338">
        <ele>605.77</ele>
        <time>2019-11-30T09:04:59Z</time>
      </trkpt>
      <trkpt lat="45.10809" lon="5.36349">
        <ele>607.21</ele>
        <time>2019-11-30T09:05:08Z</time>
      </trkpt>
      <trkpt lat="45.10806" lon="5.36359">
        <ele>608.17</ele>
        <time>2019-11-30T09:05:17Z</time>
      </trkpt>
      <trkpt lat="45.10805" lon="5.36365">
        <ele>609.13</ele>
        <time>2019-11-30T09:05:23Z</time>
      </trkpt>
      <trkpt lat="45.10804" lon="5.3637">
        <ele>609.61</ele>
        <time>2019-11-30T09:05:28Z</time>
      </trkpt>
      <trkpt lat="45.108" lon="5.36383">
        <ele>611.54</ele>
        <time>2019-11-30T09:05:39Z</time>
      </trkpt>
      <trkpt lat="45.10797" lon="5.36392">
        <ele>612.5</ele>
        <time>2019-11-30T09:05:48Z</time>
      </trkpt>
      <trkpt lat="45.10794" lon="5.36397">
        <ele>613.94</ele>
        <time>2019-11-30T09:05:54Z</time>
      </trkpt>
      <trkpt lat="45.10793" lon="5.36405">
        <ele>614.9</ele>
        <time>2019-11-30T09:06:03Z</time>
      </trkpt>
      <trkpt lat="45.1079" lon="5.36414">
        <ele>617.3</ele>
        <time>2019-11-30T09:06:13Z</time>
      </trkpt>
      <trkpt lat="45.10788" lon="5.36421">
        <ele>618.26</ele>
        <time>2019-11-30T09:06:23Z</time>
      </trkpt>
      <trkpt lat="45.10786" lon="5.36427">
        <ele>619.71</ele>
        <time>2019-11-30T09:06:31Z</time>
      </trkpt>
      <trkpt lat="45.10782" lon="5.36434">
        <ele>621.15</ele>
        <time>2019-11-30T09:06:43Z</time>
      </trkpt>
      <trkpt lat="45.1078" lon="5.36445">
        <ele>623.07</ele>
        <time>2019-11-30T09:06:55Z</time>
      </trkpt>
      <trkpt lat="45.10781" lon="5.36451">
        <ele>625.96</ele>
        <time>2019-11-30T09:07:05Z</time>
      </trkpt>
      <trkpt lat="45.10781" lon="5.36459">
        <ele>627.4</ele>
        <time>2019-11-30T09:07:14Z</time>
      </trkpt>
      <trkpt lat="45.10777" lon="5.36463">
        <ele>629.8</ele>
        <time>2019-11-30T09:07:25Z</time>
      </trkpt>
      <trkpt lat="45.10774" lon="5.36464">
        <ele>631.72</ele>
        <time>2019-11-30T09:07:35Z</time>
      </trkpt>
      <trkpt lat="45.1077" lon="5.36467">
        <ele>633.65</ele>
        <time>2019-11-30T09:07:46Z</time>
      </trkpt>
      <trkpt lat="45.10762" lon="5.36473">
        <ele>635.57</ele>
        <time>2019-11-30T09:07:58Z</time>
      </trkpt>
      <trkpt lat="45.10757" lon="5.36476">
        <ele>637.49</ele>
        <time>2019-11-30T09:08:08Z</time>
      </trkpt>
      <trkpt lat="45.10753" lon="5.36481">
        <ele>639.41</ele>
        <time>2019-11-30T09:08:17Z</time>
      </trkpt>
      <trkpt lat="45.10748" lon="5.36488">
        <ele>640.86</ele>
        <time>2019-11-30T09:08:27Z</time>
      </trkpt>
      <trkpt lat="45.10741" lon="5.36493">
        <ele>642.78</ele>
        <time>2019-11-30T09:08:36Z</time>
      </trkpt>
      <trkpt lat="45.10735" lon="5.36503">
        <ele>645.18</ele>
        <time>2019-11-30T09:08:47Z</time>
      </trkpt>
      <trkpt lat="45.10731" lon="5.36513">
        <ele>646.14</ele>
        <time>2019-11-30T09:08:57Z</time>
      </trkpt>
      <trkpt lat="45.10728" lon="5.36523">
        <ele>648.55</ele>
        <time>2019-11-30T09:09:07Z</time>
      </trkpt>
      <trkpt lat="45.10725" lon="5.36534">
        <ele>649.99</ele>
        <time>2019-11-30T09:09:18Z</time>
      </trkpt>
      <trkpt lat="45.10722" lon="5.36546">
        <ele>651.43</ele>
        <time>2019-11-30T09:09:28Z</time>
      </trkpt>
      <trkpt lat="45.1072" lon="5.36552">
        <ele>651.91</ele>
        <time>2019-11-30T09:09:37Z</time>
      </trkpt>
      <trkpt lat="45.10717" lon="5.36561">
        <ele>652.87</ele>
        <time>2019-11-30T09:09:46Z</time>
      </trkpt>
      <trkpt lat="45.10714" lon="5.36573">
        <ele>654.8</ele>
        <time>2019-11-30T09:09:56Z</time>
      </trkpt>
      <trkpt lat="45.10713" lon="5.36578">
        <ele>654.8</ele>
        <time>2019-11-30T09:09:59Z</time>
      </trkpt>
      <trkpt lat="45.1071" lon="5.3659">
        <ele>656.24</ele>
        <time>2019-11-30T09:10:09Z</time>
      </trkpt>
      <trkpt lat="45.10705" lon="5.36601">
        <ele>657.2</ele>
        <time>2019-11-30T09:10:19Z</time>
      </trkpt>
      <trkpt lat="45.10702" lon="5.36611">
        <ele>658.64</ele>
        <time>2019-11-30T09:10:28Z</time>
      </trkpt>
      <trkpt lat="45.10701" lon="5.36619">
        <ele>659.6</ele>
        <time>2019-11-30T09:10:37Z</time>
      </trkpt>
      <trkpt lat="45.10695" lon="5.36631">
        <ele>661.52</ele>
        <time>2019-11-30T09:10:49Z</time>
      </trkpt>
      <trkpt lat="45.10695" lon="5.36633">
        <ele>662.01</ele>
        <time>2019-11-30T09:10:52Z</time>
      </trkpt>
      <trkpt lat="45.10694" lon="5.36636">
        <ele>662.01</ele>
        <time>2019-11-30T09:10:54Z</time>
      </trkpt>
      <trkpt lat="45.10689" lon="5.36644">
        <ele>663.45</ele>
        <time>2019-11-30T09:11:03Z</time>
      </trkpt>
      <trkpt lat="45.10686" lon="5.36652">
        <ele>665.37</ele>
        <time>2019-11-30T09:11:13Z</time>
      </trkpt>
      <trkpt lat="45.10681" lon="5.36659">
        <ele>666.81</ele>
        <time>2019-11-30T09:11:23Z</time>
      </trkpt>
      <trkpt lat="45.10678" lon="5.36666">
        <ele>668.73</ele>
        <time>2019-11-30T09:11:33Z</time>
      </trkpt>
      <trkpt lat="45.10676" lon="5.36668">
        <ele>669.22</ele>
        <time>2019-11-30T09:11:36Z</time>
      </trkpt>
      <trkpt lat="45.10669" lon="5.36678">
        <ele>671.14</ele>
        <time>2019-11-30T09:11:48Z</time>
      </trkpt>
      <trkpt lat="45.10663" lon="5.36687">
        <ele>672.58</ele>
        <time>2019-11-30T09:11:59Z</time>
      </trkpt>
      <trkpt lat="45.10657" lon="5.36694">
        <ele>674.5</ele>
        <time>2019-11-30T09:12:09Z</time>
      </trkpt>
      <trkpt lat="45.10652" lon="5.36702">
        <ele>675.94</ele>
        <time>2019-11-30T09:12:19Z</time>
      </trkpt>
      <trkpt lat="45.10649" lon="5.3671">
        <ele>677.39</ele>
        <time>2019-11-30T09:12:27Z</time>
      </trkpt>
      <trkpt lat="45.10645" lon="5.36714">
        <ele>678.35</ele>
        <time>2019-11-30T09:12:31Z</time>
      </trkpt>
      <trkpt lat="45.1064" lon="5.36725">
        <ele>679.31</ele>
        <time>2019-11-30T09:12:41Z</time>
      </trkpt>
      <trkpt lat="45.10635" lon="5.36736">
        <ele>680.75</ele>
        <time>2019-11-30T09:12:52Z</time>
      </trkpt>
      <trkpt lat="45.10633" lon="5.36738">
        <ele>681.23</ele>
        <time>2019-11-30T09:12:54Z</time>
      </trkpt>
      <trkpt lat="45.10628" lon="5.3675">
        <ele>682.19</ele>
        <time>2019-11-30T09:13:05Z</time>
      </trkpt>
      <trkpt lat="45.10624" lon="5.36762">
        <ele>683.63</ele>
        <time>2019-11-30T09:13:15Z</time>
      </trkpt>
      <trkpt lat="45.10624" lon="5.36763">
        <ele>683.15</ele>
        <time>2019-11-30T09:13:16Z</time>
      </trkpt>
      <trkpt lat="45.10621" lon="5.36775">
        <ele>684.12</ele>
        <time>2019-11-30T09:13:25Z</time>
      </trkpt>
      <trkpt lat="45.10618" lon="5.36787">
        <ele>685.56</ele>
        <time>2019-11-30T09:13:35Z</time>
      </trkpt>
      <trkpt lat="45.10616" lon="5.36794">
        <ele>687</ele>
        <time>2019-11-30T09:13:40Z</time>
      </trkpt>
      <trkpt lat="45.10615" lon="5.36798">
        <ele>687</ele>
        <time>2019-11-30T09:13:43Z</time>
      </trkpt>
      <trkpt lat="45.10615" lon="5.36812">
        <ele>688.44</ele>
        <time>2019-11-30T09:13:53Z</time>
      </trkpt>
      <trkpt lat="45.10614" lon="5.36817">
        <ele>688.92</ele>
        <time>2019-11-30T09:13:57Z</time>
      </trkpt>
      <trkpt lat="45.10613" lon="5.36823">
        <ele>689.4</ele>
        <time>2019-11-30T09:14:01Z</time>
      </trkpt>
      <trkpt lat="45.10612" lon="5.36826">
        <ele>689.4</ele>
        <time>2019-11-30T09:14:03Z</time>
      </trkpt>
      <trkpt lat="45.10612" lon="5.3683">
        <ele>689.88</ele>
        <time>2019-11-30T09:14:06Z</time>
      </trkpt>
      <trkpt lat="45.10612" lon="5.36836">
        <ele>690.84</ele>
        <time>2019-11-30T09:14:10Z</time>
      </trkpt>
      <trkpt lat="45.1061" lon="5.36849">
        <ele>692.29</ele>
        <time>2019-11-30T09:14:21Z</time>
      </trkpt>
      <trkpt lat="45.10608" lon="5.36858">
        <ele>693.25</ele>
        <time>2019-11-30T09:14:29Z</time>
      </trkpt>
      <trkpt lat="45.10606" lon="5.36867">
        <ele>694.69</ele>
        <time>2019-11-30T09:14:37Z</time>
      </trkpt>
      <trkpt lat="45.10606" lon="5.36877">
        <ele>695.65</ele>
        <time>2019-11-30T09:14:48Z</time>
      </trkpt>
      <trkpt lat="45.10602" lon="5.3689">
        <ele>697.09</ele>
        <time>2019-11-30T09:14:58Z</time>
      </trkpt>
      <trkpt lat="45.106" lon="5.36899">
        <ele>699.5</ele>
        <time>2019-11-30T09:15:08Z</time>
      </trkpt>
      <trkpt lat="45.10596" lon="5.36909">
        <ele>701.9</ele>
        <time>2019-11-30T09:15:20Z</time>
      </trkpt>
      <trkpt lat="45.10593" lon="5.36914">
        <ele>703.82</ele>
        <time>2019-11-30T09:15:29Z</time>
      </trkpt>
      <trkpt lat="45.1059" lon="5.3692">
        <ele>705.26</ele>
        <time>2019-11-30T09:15:38Z</time>
      </trkpt>
      <trkpt lat="45.10585" lon="5.36926">
        <ele>707.19</ele>
        <time>2019-11-30T09:15:47Z</time>
      </trkpt>
      <trkpt lat="45.10578" lon="5.36928">
        <ele>709.59</ele>
        <time>2019-11-30T09:15:57Z</time>
      </trkpt>
      <trkpt lat="45.10571" lon="5.3693">
        <ele>711.03</ele>
        <time>2019-11-30T09:16:06Z</time>
      </trkpt>
      <trkpt lat="45.10568" lon="5.36944">
        <ele>712.47</ele>
        <time>2019-11-30T09:16:15Z</time>
      </trkpt>
      <trkpt lat="45.10572" lon="5.36954">
        <ele>714.4</ele>
        <time>2019-11-30T09:16:23Z</time>
      </trkpt>
      <trkpt lat="45.10573" lon="5.36965">
        <ele>715.84</ele>
        <time>2019-11-30T09:16:33Z</time>
      </trkpt>
      <trkpt lat="45.10572" lon="5.36971">
        <ele>716.8</ele>
        <time>2019-11-30T09:16:39Z</time>
      </trkpt>
      <trkpt lat="45.10569" lon="5.36976">
        <ele>719.2</ele>
        <time>2019-11-30T09:16:50Z</time>
      </trkpt>
      <trkpt lat="45.10562" lon="5.36985">
        <ele>721.61</ele>
        <time>2019-11-30T09:17:01Z</time>
      </trkpt>
      <trkpt lat="45.10555" lon="5.3699">
        <ele>723.53</ele>
        <time>2019-11-30T09:17:13Z</time>
      </trkpt>
      <trkpt lat="45.10552" lon="5.37001">
        <ele>725.45</ele>
        <time>2019-11-30T09:17:22Z</time>
      </trkpt>
      <trkpt lat="45.10552" lon="5.37014">
        <ele>727.37</ele>
        <time>2019-11-30T09:17:32Z</time>
      </trkpt>
      <trkpt lat="45.10553" lon="5.37024">
        <ele>728.82</ele>
        <time>2019-11-30T09:17:41Z</time>
      </trkpt>
      <trkpt lat="45.10553" lon="5.37029">
        <ele>730.26</ele>
        <time>2019-11-30T09:17:45Z</time>
      </trkpt>
      <trkpt lat="45.10553" lon="5.37031">
        <ele>730.74</ele>
        <time>2019-11-30T09:17:47Z</time>
      </trkpt>
      <trkpt lat="45.10556" lon="5.37041">
        <ele>732.66</ele>
        <time>2019-11-30T09:17:57Z</time>
      </trkpt>
      <trkpt lat="45.10558" lon="5.37049">
        <ele>734.1</ele>
        <time>2019-11-30T09:18:04Z</time>
      </trkpt>
      <trkpt lat="45.10554" lon="5.3706">
        <ele>736.99</ele>
        <time>2019-11-30T09:18:15Z</time>
      </trkpt>
      <trkpt lat="45.10549" lon="5.37064">
        <ele>738.91</ele>
        <time>2019-11-30T09:18:24Z</time>
      </trkpt>
      <trkpt lat="45.10543" lon="5.37064">
        <ele>741.31</ele>
        <time>2019-11-30T09:18:35Z</time>
      </trkpt>
      <trkpt lat="45.10536" lon="5.37068">
        <ele>743.24</ele>
        <time>2019-11-30T09:18:44Z</time>
      </trkpt>
      <trkpt lat="45.10532" lon="5.37073">
        <ele>744.68</ele>
        <time>2019-11-30T09:18:49Z</time>
      </trkpt>
      <trkpt lat="45.10523" lon="5.3708">
        <ele>746.12</ele>
        <time>2019-11-30T09:19:00Z</time>
      </trkpt>
      <trkpt lat="45.10521" lon="5.37086">
        <ele>747.08</ele>
        <time>2019-11-30T09:19:11Z</time>
      </trkpt>
      <trkpt lat="45.10522" lon="5.37089">
        <ele>746.6</ele>
        <time>2019-11-30T09:19:33Z</time>
      </trkpt>
      <trkpt lat="45.10518" lon="5.37091">
        <ele>747.08</ele>
        <time>2019-11-30T09:19:40Z</time>
      </trkpt>
      <trkpt lat="45.10515" lon="5.37093">
        <ele>747.08</ele>
        <time>2019-11-30T09:19:43Z</time>
      </trkpt>
      <trkpt lat="45.10505" lon="5.37096">
        <ele>748.04</ele>
        <time>2019-11-30T09:19:53Z</time>
      </trkpt>
      <trkpt lat="45.10503" lon="5.37096">
        <ele>748.52</ele>
        <time>2019-11-30T09:19:55Z</time>
      </trkpt>
      <trkpt lat="45.105" lon="5.371">
        <ele>749</ele>
        <time>2019-11-30T09:19:59Z</time>
      </trkpt>
      <trkpt lat="45.10496" lon="5.37107">
        <ele>749.97</ele>
        <time>2019-11-30T09:20:07Z</time>
      </trkpt>
      <trkpt lat="45.10496" lon="5.37121">
        <ele>751.41</ele>
        <time>2019-11-30T09:20:16Z</time>
      </trkpt>
      <trkpt lat="45.10497" lon="5.37132">
        <ele>752.37</ele>
        <time>2019-11-30T09:20:24Z</time>
      </trkpt>
      <trkpt lat="45.10498" lon="5.3715">
        <ele>754.77</ele>
        <time>2019-11-30T09:20:37Z</time>
      </trkpt>
      <trkpt lat="45.10499" lon="5.37161">
        <ele>755.25</ele>
        <time>2019-11-30T09:20:44Z</time>
      </trkpt>
      <trkpt lat="45.10497" lon="5.37174">
        <ele>757.18</ele>
        <time>2019-11-30T09:20:54Z</time>
      </trkpt>
      <trkpt lat="45.10495" lon="5.37184">
        <ele>758.14</ele>
        <time>2019-11-30T09:21:04Z</time>
      </trkpt>
      <trkpt lat="45.10496" lon="5.37189">
        <ele>758.14</ele>
        <time>2019-11-30T09:21:07Z</time>
      </trkpt>
      <trkpt lat="45.10497" lon="5.37197">
        <ele>758.62</ele>
        <time>2019-11-30T09:21:13Z</time>
      </trkpt>
      <trkpt lat="45.10497" lon="5.37205">
        <ele>759.58</ele>
        <time>2019-11-30T09:21:19Z</time>
      </trkpt>
      <trkpt lat="45.10497" lon="5.37217">
        <ele>760.54</ele>
        <time>2019-11-30T09:21:28Z</time>
      </trkpt>
      <trkpt lat="45.10498" lon="5.37225">
        <ele>761.5</ele>
        <time>2019-11-30T09:21:33Z</time>
      </trkpt>
      <trkpt lat="45.10496" lon="5.3724">
        <ele>762.94</ele>
        <time>2019-11-30T09:21:45Z</time>
      </trkpt>
      <trkpt lat="45.10497" lon="5.37253">
        <ele>763.9</ele>
        <time>2019-11-30T09:21:54Z</time>
      </trkpt>
      <trkpt lat="45.10497" lon="5.37256">
        <ele>764.39</ele>
        <time>2019-11-30T09:21:56Z</time>
      </trkpt>
      <trkpt lat="45.10499" lon="5.37271">
        <ele>765.35</ele>
        <time>2019-11-30T09:22:06Z</time>
      </trkpt>
      <trkpt lat="45.10501" lon="5.37285">
        <ele>767.27</ele>
        <time>2019-11-30T09:22:16Z</time>
      </trkpt>
      <trkpt lat="45.10501" lon="5.37299">
        <ele>768.23</ele>
        <time>2019-11-30T09:22:26Z</time>
      </trkpt>
      <trkpt lat="45.10501" lon="5.373">
        <ele>768.71</ele>
        <time>2019-11-30T09:22:27Z</time>
      </trkpt>
      <trkpt lat="45.10498" lon="5.37314">
        <ele>770.63</ele>
        <time>2019-11-30T09:22:38Z</time>
      </trkpt>
      <trkpt lat="45.10495" lon="5.37327">
        <ele>772.56</ele>
        <time>2019-11-30T09:22:48Z</time>
      </trkpt>
      <trkpt lat="45.10494" lon="5.37336">
        <ele>774</ele>
        <time>2019-11-30T09:22:57Z</time>
      </trkpt>
      <trkpt lat="45.10494" lon="5.37339">
        <ele>774.96</ele>
        <time>2019-11-30T09:22:59Z</time>
      </trkpt>
      <trkpt lat="45.10494" lon="5.37349">
        <ele>775.92</ele>
        <time>2019-11-30T09:23:08Z</time>
      </trkpt>
      <trkpt lat="45.10494" lon="5.37361">
        <ele>777.36</ele>
        <time>2019-11-30T09:23:17Z</time>
      </trkpt>
      <trkpt lat="45.10493" lon="5.37367">
        <ele>778.32</ele>
        <time>2019-11-30T09:23:23Z</time>
      </trkpt>
      <trkpt lat="45.10492" lon="5.3738">
        <ele>780.25</ele>
        <time>2019-11-30T09:23:34Z</time>
      </trkpt>
      <trkpt lat="45.10489" lon="5.37391">
        <ele>781.21</ele>
        <time>2019-11-30T09:23:44Z</time>
      </trkpt>
      <trkpt lat="45.10484" lon="5.37407">
        <ele>782.17</ele>
        <time>2019-11-30T09:23:56Z</time>
      </trkpt>
      <trkpt lat="45.10484" lon="5.37412">
        <ele>782.65</ele>
        <time>2019-11-30T09:23:59Z</time>
      </trkpt>
      <trkpt lat="45.10478" lon="5.37426">
        <ele>783.61</ele>
        <time>2019-11-30T09:24:09Z</time>
      </trkpt>
      <trkpt lat="45.10475" lon="5.37441">
        <ele>785.05</ele>
        <time>2019-11-30T09:24:20Z</time>
      </trkpt>
      <trkpt lat="45.10474" lon="5.37453">
        <ele>786.5</ele>
        <time>2019-11-30T09:24:29Z</time>
      </trkpt>
      <trkpt lat="45.10475" lon="5.37467">
        <ele>788.42</ele>
        <time>2019-11-30T09:24:39Z</time>
      </trkpt>
      <trkpt lat="45.10474" lon="5.37472">
        <ele>789.38</ele>
        <time>2019-11-30T09:24:43Z</time>
      </trkpt>
      <trkpt lat="45.10475" lon="5.37486">
        <ele>791.3</ele>
        <time>2019-11-30T09:24:54Z</time>
      </trkpt>
      <trkpt lat="45.10474" lon="5.37497">
        <ele>792.74</ele>
        <time>2019-11-30T09:25:05Z</time>
      </trkpt>
      <trkpt lat="45.10471" lon="5.37499">
        <ele>794.67</ele>
        <time>2019-11-30T09:25:13Z</time>
      </trkpt>
      <trkpt lat="45.10469" lon="5.375">
        <ele>794.67</ele>
        <time>2019-11-30T09:25:26Z</time>
      </trkpt>
      <trkpt lat="45.10469" lon="5.37498">
        <ele>795.15</ele>
        <time>2019-11-30T09:25:44Z</time>
      </trkpt>
      <trkpt lat="45.10468" lon="5.37498">
        <ele>794.19</ele>
        <time>2019-11-30T09:26:00Z</time>
      </trkpt>
      <trkpt lat="45.10468" lon="5.37498">
        <ele>793.71</ele>
        <time>2019-11-30T09:26:14Z</time>
      </trkpt>
      <trkpt lat="45.1047" lon="5.37496">
        <ele>793.22</ele>
        <time>2019-11-30T09:26:45Z</time>
      </trkpt>
      <trkpt lat="45.1047" lon="5.37496">
        <ele>793.22</ele>
        <time>2019-11-30T09:27:14Z</time>
      </trkpt>
      <trkpt lat="45.1047" lon="5.37496">
        <ele>792.74</ele>
        <time>2019-11-30T09:27:34Z</time>
      </trkpt>
      <trkpt lat="45.1047" lon="5.37497">
        <ele>792.74</ele>
        <time>2019-11-30T09:28:04Z</time>
      </trkpt>
      <trkpt lat="45.1047" lon="5.37497">
        <ele>792.74</ele>
        <time>2019-11-30T09:28:25Z</time>
      </trkpt>
      <trkpt lat="45.1047" lon="5.37497">
        <ele>792.74</ele>
        <time>2019-11-30T09:28:50Z</time>
      </trkpt>
      <trkpt lat="45.1047" lon="5.37497">
        <ele>793.22</ele>
        <time>2019-11-30T09:29:12Z</time>
      </trkpt>
      <trkpt lat="45.1047" lon="5.37497">
        <ele>792.74</ele>
        <time>2019-11-30T09:29:33Z</time>
      </trkpt>
      <trkpt lat="45.1047" lon="5.37497">
        <ele>792.74</ele>
        <time>2019-11-30T09:30:00Z</time>
      </trkpt>
      <trkpt lat="45.1047" lon="5.37497">
        <ele>792.74</ele>
        <time>2019-11-30T09:30:25Z</time>
      </trkpt>
      <trkpt lat="45.1047" lon="5.37497">
        <ele>792.74</ele>
        <time>2019-11-30T09:30:43Z</time>
      </trkpt>
      <trkpt lat="45.1047" lon="5.37495">
        <ele>792.74</ele>
        <time>2019-11-30T09:31:14Z</time>
      </trkpt>
      <trkpt lat="45.1047" lon="5.37496">
        <ele>792.74</ele>
        <time>2019-11-30T09:31:45Z</time>
      </trkpt>
      <trkpt lat="45.1047" lon="5.37496">
        <ele>792.74</ele>
        <time>2019-11-30T09:32:11Z</time>
      </trkpt>
      <trkpt lat="45.10469" lon="5.37496">
        <ele>793.71</ele>
        <time>2019-11-30T09:32:19Z</time>
      </trkpt>
      <trkpt lat="45.10467" lon="5.37495">
        <ele>793.71</ele>
        <time>2019-11-30T09:32:21Z</time>
      </trkpt>
      <trkpt lat="45.10465" lon="5.37494">
        <ele>793.71</ele>
        <time>2019-11-30T09:32:23Z</time>
      </trkpt>
      <trkpt lat="45.10462" lon="5.37493">
        <ele>794.19</ele>
        <time>2019-11-30T09:32:26Z</time>
      </trkpt>
      <trkpt lat="45.10451" lon="5.37489">
        <ele>795.15</ele>
        <time>2019-11-30T09:32:36Z</time>
      </trkpt>
      <trkpt lat="45.10439" lon="5.37483">
        <ele>796.11</ele>
        <time>2019-11-30T09:32:46Z</time>
      </trkpt>
      <trkpt lat="45.1043" lon="5.37472">
        <ele>797.55</ele>
        <time>2019-11-30T09:32:55Z</time>
      </trkpt>
      <trkpt lat="45.10423" lon="5.37462">
        <ele>798.51</ele>
        <time>2019-11-30T09:33:03Z</time>
      </trkpt>
      <trkpt lat="45.10414" lon="5.37446">
        <ele>799.47</ele>
        <time>2019-11-30T09:33:16Z</time>
      </trkpt>
      <trkpt lat="45.10405" lon="5.37432">
        <ele>800.92</ele>
        <time>2019-11-30T09:33:28Z</time>
      </trkpt>
      <trkpt lat="45.10399" lon="5.37424">
        <ele>801.88</ele>
        <time>2019-11-30T09:33:38Z</time>
      </trkpt>
      <trkpt lat="45.10398" lon="5.37422">
        <ele>801.88</ele>
        <time>2019-11-30T09:33:44Z</time>
      </trkpt>
      <trkpt lat="45.10396" lon="5.37418">
        <ele>802.36</ele>
        <time>2019-11-30T09:33:47Z</time>
      </trkpt>
      <trkpt lat="45.10387" lon="5.37404">
        <ele>803.8</ele>
        <time>2019-11-30T09:33:59Z</time>
      </trkpt>
      <trkpt lat="45.1038" lon="5.3739">
        <ele>804.28</ele>
        <time>2019-11-30T09:34:10Z</time>
      </trkpt>
      <trkpt lat="45.10372" lon="5.37376">
        <ele>806.2</ele>
        <time>2019-11-30T09:34:21Z</time>
      </trkpt>
      <trkpt lat="45.10365" lon="5.37365">
        <ele>806.68</ele>
        <time>2019-11-30T09:34:30Z</time>
      </trkpt>
      <trkpt lat="45.1036" lon="5.37347">
        <ele>807.64</ele>
        <time>2019-11-30T09:34:42Z</time>
      </trkpt>
      <trkpt lat="45.1036" lon="5.37346">
        <ele>807.64</ele>
        <time>2019-11-30T09:34:43Z</time>
      </trkpt>
      <trkpt lat="45.10358" lon="5.37331">
        <ele>808.61</ele>
        <time>2019-11-30T09:34:52Z</time>
      </trkpt>
      <trkpt lat="45.10352" lon="5.37318">
        <ele>809.09</ele>
        <time>2019-11-30T09:35:03Z</time>
      </trkpt>
      <trkpt lat="45.10349" lon="5.37324">
        <ele>810.53</ele>
        <time>2019-11-30T09:35:12Z</time>
      </trkpt>
      <trkpt lat="45.10349" lon="5.37324">
        <ele>810.05</ele>
        <time>2019-11-30T09:35:23Z</time>
      </trkpt>
      <trkpt lat="45.10348" lon="5.37325">
        <ele>810.53</ele>
        <time>2019-11-30T09:35:39Z</time>
      </trkpt>
      <trkpt lat="45.10348" lon="5.37327">
        <ele>810.53</ele>
        <time>2019-11-30T09:35:51Z</time>
      </trkpt>
      <trkpt lat="45.10347" lon="5.37328">
        <ele>811.01</ele>
        <time>2019-11-30T09:36:03Z</time>
      </trkpt>
      <trkpt lat="45.10347" lon="5.37329">
        <ele>810.53</ele>
        <time>2019-11-30T09:36:23Z</time>
      </trkpt>
      <trkpt lat="45.10342" lon="5.37339">
        <ele>811.97</ele>
        <time>2019-11-30T09:36:33Z</time>
      </trkpt>
      <trkpt lat="45.10341" lon="5.37343">
        <ele>812.45</ele>
        <time>2019-11-30T09:36:36Z</time>
      </trkpt>
      <trkpt lat="45.10338" lon="5.37353">
        <ele>813.41</ele>
        <time>2019-11-30T09:36:46Z</time>
      </trkpt>
      <trkpt lat="45.10331" lon="5.37361">
        <ele>814.85</ele>
        <time>2019-11-30T09:36:57Z</time>
      </trkpt>
      <trkpt lat="45.10325" lon="5.37368">
        <ele>816.3</ele>
        <time>2019-11-30T09:37:05Z</time>
      </trkpt>
      <trkpt lat="45.1032" lon="5.37376">
        <ele>817.26</ele>
        <time>2019-11-30T09:37:15Z</time>
      </trkpt>
      <trkpt lat="45.10317" lon="5.37384">
        <ele>818.22</ele>
        <time>2019-11-30T09:37:25Z</time>
      </trkpt>
      <trkpt lat="45.10311" lon="5.37389">
        <ele>819.18</ele>
        <time>2019-11-30T09:37:37Z</time>
      </trkpt>
      <trkpt lat="45.10305" lon="5.37397">
        <ele>821.1</ele>
        <time>2019-11-30T09:37:48Z</time>
      </trkpt>
      <trkpt lat="45.10301" lon="5.37404">
        <ele>822.06</ele>
        <time>2019-11-30T09:37:57Z</time>
      </trkpt>
      <trkpt lat="45.10298" lon="5.37411">
        <ele>822.55</ele>
        <time>2019-11-30T09:38:07Z</time>
      </trkpt>
      <trkpt lat="45.10293" lon="5.37424">
        <ele>824.47</ele>
        <time>2019-11-30T09:38:19Z</time>
      </trkpt>
      <trkpt lat="45.1029" lon="5.37427">
        <ele>825.43</ele>
        <time>2019-11-30T09:38:22Z</time>
      </trkpt>
      <trkpt lat="45.10284" lon="5.37436">
        <ele>826.87</ele>
        <time>2019-11-30T09:38:33Z</time>
      </trkpt>
      <trkpt lat="45.10282" lon="5.37445">
        <ele>828.31</ele>
        <time>2019-11-30T09:38:43Z</time>
      </trkpt>
      <trkpt lat="45.10279" lon="5.3745">
        <ele>830.24</ele>
        <time>2019-11-30T09:38:53Z</time>
      </trkpt>
      <trkpt lat="45.10275" lon="5.37457">
        <ele>831.2</ele>
        <time>2019-11-30T09:39:01Z</time>
      </trkpt>
      <trkpt lat="45.10269" lon="5.37469">
        <ele>833.12</ele>
        <time>2019-11-30T09:39:13Z</time>
      </trkpt>
      <trkpt lat="45.10265" lon="5.37476">
        <ele>834.08</ele>
        <time>2019-11-30T09:39:22Z</time>
      </trkpt>
      <trkpt lat="45.1026" lon="5.37483">
        <ele>836</ele>
        <time>2019-11-30T09:39:32Z</time>
      </trkpt>
      <trkpt lat="45.10259" lon="5.37484">
        <ele>836.96</ele>
        <time>2019-11-30T09:39:34Z</time>
      </trkpt>
      <trkpt lat="45.10254" lon="5.37493">
        <ele>838.89</ele>
        <time>2019-11-30T09:39:44Z</time>
      </trkpt>
      <trkpt lat="45.10249" lon="5.37495">
        <ele>839.85</ele>
        <time>2019-11-30T09:39:54Z</time>
      </trkpt>
      <trkpt lat="45.10244" lon="5.37499">
        <ele>840.81</ele>
        <time>2019-11-30T09:40:03Z</time>
      </trkpt>
      <trkpt lat="45.10238" lon="5.37506">
        <ele>842.25</ele>
        <time>2019-11-30T09:40:12Z</time>
      </trkpt>
      <trkpt lat="45.10231" lon="5.3751">
        <ele>843.69</ele>
        <time>2019-11-30T09:40:22Z</time>
      </trkpt>
      <trkpt lat="45.10226" lon="5.37515">
        <ele>845.14</ele>
        <time>2019-11-30T09:40:31Z</time>
      </trkpt>
      <trkpt lat="45.10222" lon="5.3752">
        <ele>846.58</ele>
        <time>2019-11-30T09:40:40Z</time>
      </trkpt>
      <trkpt lat="45.10217" lon="5.37522">
        <ele>848.5</ele>
        <time>2019-11-30T09:40:50Z</time>
      </trkpt>
      <trkpt lat="45.10212" lon="5.37523">
        <ele>850.42</ele>
        <time>2019-11-30T09:40:58Z</time>
      </trkpt>
      <trkpt lat="45.10211" lon="5.37524">
        <ele>850.9</ele>
        <time>2019-11-30T09:41:00Z</time>
      </trkpt>
      <trkpt lat="45.10203" lon="5.37524">
        <ele>852.35</ele>
        <time>2019-11-30T09:41:11Z</time>
      </trkpt>
      <trkpt lat="45.10198" lon="5.37523">
        <ele>854.27</ele>
        <time>2019-11-30T09:41:20Z</time>
      </trkpt>
      <trkpt lat="45.10192" lon="5.37523">
        <ele>856.19</ele>
        <time>2019-11-30T09:41:31Z</time>
      </trkpt>
      <trkpt lat="45.10187" lon="5.37521">
        <ele>858.11</ele>
        <time>2019-11-30T09:41:40Z</time>
      </trkpt>
      <trkpt lat="45.10184" lon="5.37521">
        <ele>858.59</ele>
        <time>2019-11-30T09:41:44Z</time>
      </trkpt>
      <trkpt lat="45.10176" lon="5.3752">
        <ele>860.52</ele>
        <time>2019-11-30T09:41:54Z</time>
      </trkpt>
      <trkpt lat="45.10176" lon="5.37519">
        <ele>861</ele>
        <time>2019-11-30T09:41:56Z</time>
      </trkpt>
      <trkpt lat="45.10169" lon="5.37518">
        <ele>861.96</ele>
        <time>2019-11-30T09:42:05Z</time>
      </trkpt>
      <trkpt lat="45.10165" lon="5.37519">
        <ele>863.88</ele>
        <time>2019-11-30T09:42:14Z</time>
      </trkpt>
      <trkpt lat="45.10161" lon="5.37526">
        <ele>865.8</ele>
        <time>2019-11-30T09:42:25Z</time>
      </trkpt>
      <trkpt lat="45.10161" lon="5.37532">
        <ele>867.73</ele>
        <time>2019-11-30T09:42:35Z</time>
      </trkpt>
      <trkpt lat="45.10162" lon="5.3754">
        <ele>869.17</ele>
        <time>2019-11-30T09:42:44Z</time>
      </trkpt>
      <trkpt lat="45.1016" lon="5.37549">
        <ele>870.61</ele>
        <time>2019-11-30T09:42:54Z</time>
      </trkpt>
      <trkpt lat="45.1016" lon="5.37555">
        <ele>872.05</ele>
        <time>2019-11-30T09:43:03Z</time>
      </trkpt>
      <trkpt lat="45.10161" lon="5.37556">
        <ele>872.53</ele>
        <time>2019-11-30T09:43:17Z</time>
      </trkpt>
      <trkpt lat="45.10161" lon="5.37556">
        <ele>873.5</ele>
        <time>2019-11-30T09:43:25Z</time>
      </trkpt>
      <trkpt lat="45.1016" lon="5.37555">
        <ele>876.38</ele>
        <time>2019-11-30T09:43:37Z</time>
      </trkpt>
      <trkpt lat="45.10154" lon="5.37555">
        <ele>877.82</ele>
        <time>2019-11-30T09:43:46Z</time>
      </trkpt>
      <trkpt lat="45.10149" lon="5.37554">
        <ele>879.26</ele>
        <time>2019-11-30T09:43:56Z</time>
      </trkpt>
      <trkpt lat="45.10144" lon="5.37551">
        <ele>881.19</ele>
        <time>2019-11-30T09:44:04Z</time>
      </trkpt>
      <trkpt lat="45.10139" lon="5.37548">
        <ele>881.19</ele>
        <time>2019-11-30T09:44:10Z</time>
      </trkpt>
      <trkpt lat="45.10131" lon="5.37551">
        <ele>883.11</ele>
        <time>2019-11-30T09:44:20Z</time>
      </trkpt>
      <trkpt lat="45.10125" lon="5.37549">
        <ele>885.03</ele>
        <time>2019-11-30T09:44:30Z</time>
      </trkpt>
      <trkpt lat="45.10121" lon="5.37553">
        <ele>886.95</ele>
        <time>2019-11-30T09:44:41Z</time>
      </trkpt>
      <trkpt lat="45.10117" lon="5.37552">
        <ele>888.4</ele>
        <time>2019-11-30T09:44:49Z</time>
      </trkpt>
      <trkpt lat="45.1011" lon="5.37551">
        <ele>889.36</ele>
        <time>2019-11-30T09:44:57Z</time>
      </trkpt>
      <trkpt lat="45.10106" lon="5.37551">
        <ele>889.84</ele>
        <time>2019-11-30T09:45:02Z</time>
      </trkpt>
      <trkpt lat="45.10104" lon="5.37555">
        <ele>892.24</ele>
        <time>2019-11-30T09:45:12Z</time>
      </trkpt>
      <trkpt lat="45.10099" lon="5.37558">
        <ele>894.16</ele>
        <time>2019-11-30T09:45:23Z</time>
      </trkpt>
      <trkpt lat="45.10095" lon="5.37559">
        <ele>895.12</ele>
        <time>2019-11-30T09:45:31Z</time>
      </trkpt>
      <trkpt lat="45.10089" lon="5.37558">
        <ele>897.05</ele>
        <time>2019-11-30T09:45:40Z</time>
      </trkpt>
      <trkpt lat="45.10085" lon="5.37557">
        <ele>898.49</ele>
        <time>2019-11-30T09:45:51Z</time>
      </trkpt>
      <trkpt lat="45.1008" lon="5.37556">
        <ele>901.37</ele>
        <time>2019-11-30T09:46:03Z</time>
      </trkpt>
      <trkpt lat="45.10072" lon="5.37556">
        <ele>902.33</ele>
        <time>2019-11-30T09:46:12Z</time>
      </trkpt>
      <trkpt lat="45.10066" lon="5.37555">
        <ele>904.74</ele>
        <time>2019-11-30T09:46:21Z</time>
      </trkpt>
      <trkpt lat="45.1006" lon="5.37553">
        <ele>905.22</ele>
        <time>2019-11-30T09:46:29Z</time>
      </trkpt>
      <trkpt lat="45.1006" lon="5.37551">
        <ele>906.66</ele>
        <time>2019-11-30T09:46:34Z</time>
      </trkpt>
      <trkpt lat="45.10054" lon="5.37551">
        <ele>908.1</ele>
        <time>2019-11-30T09:46:44Z</time>
      </trkpt>
      <trkpt lat="45.1005" lon="5.37553">
        <ele>909.54</ele>
        <time>2019-11-30T09:46:53Z</time>
      </trkpt>
      <trkpt lat="45.10042" lon="5.37552">
        <ele>910.99</ele>
        <time>2019-11-30T09:47:02Z</time>
      </trkpt>
      <trkpt lat="45.10039" lon="5.37552">
        <ele>912.43</ele>
        <time>2019-11-30T09:47:07Z</time>
      </trkpt>
      <trkpt lat="45.10033" lon="5.3755">
        <ele>913.87</ele>
        <time>2019-11-30T09:47:14Z</time>
      </trkpt>
      <trkpt lat="45.10031" lon="5.3755">
        <ele>915.31</ele>
        <time>2019-11-30T09:47:22Z</time>
      </trkpt>
      <trkpt lat="45.10026" lon="5.37553">
        <ele>916.75</ele>
        <time>2019-11-30T09:47:32Z</time>
      </trkpt>
      <trkpt lat="45.10021" lon="5.37555">
        <ele>918.2</ele>
        <time>2019-11-30T09:47:43Z</time>
      </trkpt>
      <trkpt lat="45.10016" lon="5.37554">
        <ele>919.64</ele>
        <time>2019-11-30T09:47:51Z</time>
      </trkpt>
      <trkpt lat="45.1001" lon="5.37555">
        <ele>921.56</ele>
        <time>2019-11-30T09:48:00Z</time>
      </trkpt>
      <trkpt lat="45.10004" lon="5.37558">
        <ele>923.48</ele>
        <time>2019-11-30T09:48:11Z</time>
      </trkpt>
      <trkpt lat="45.1" lon="5.37561">
        <ele>924.93</ele>
        <time>2019-11-30T09:48:19Z</time>
      </trkpt>
      <trkpt lat="45.09995" lon="5.37558">
        <ele>926.85</ele>
        <time>2019-11-30T09:48:29Z</time>
      </trkpt>
      <trkpt lat="45.09989" lon="5.37555">
        <ele>927.81</ele>
        <time>2019-11-30T09:48:38Z</time>
      </trkpt>
      <trkpt lat="45.09984" lon="5.37554">
        <ele>929.73</ele>
        <time>2019-11-30T09:48:48Z</time>
      </trkpt>
      <trkpt lat="45.09978" lon="5.37556">
        <ele>931.65</ele>
        <time>2019-11-30T09:48:59Z</time>
      </trkpt>
      <trkpt lat="45.09974" lon="5.37557">
        <ele>932.62</ele>
        <time>2019-11-30T09:49:08Z</time>
      </trkpt>
      <trkpt lat="45.0997" lon="5.37557">
        <ele>934.54</ele>
        <time>2019-11-30T09:49:18Z</time>
      </trkpt>
      <trkpt lat="45.09966" lon="5.37559">
        <ele>935.5</ele>
        <time>2019-11-30T09:49:27Z</time>
      </trkpt>
      <trkpt lat="45.09959" lon="5.37564">
        <ele>936.94</ele>
        <time>2019-11-30T09:49:37Z</time>
      </trkpt>
      <trkpt lat="45.09953" lon="5.37563">
        <ele>938.86</ele>
        <time>2019-11-30T09:49:47Z</time>
      </trkpt>
      <trkpt lat="45.09953" lon="5.37564">
        <ele>938.86</ele>
        <time>2019-11-30T09:49:49Z</time>
      </trkpt>
      <trkpt lat="45.09947" lon="5.37568">
        <ele>940.79</ele>
        <time>2019-11-30T09:49:59Z</time>
      </trkpt>
      <trkpt lat="45.0994" lon="5.3757">
        <ele>942.71</ele>
        <time>2019-11-30T09:50:08Z</time>
      </trkpt>
      <trkpt lat="45.09935" lon="5.37573">
        <ele>944.63</ele>
        <time>2019-11-30T09:50:20Z</time>
      </trkpt>
      <trkpt lat="45.09932" lon="5.37575">
        <ele>945.59</ele>
        <time>2019-11-30T09:50:26Z</time>
      </trkpt>
      <trkpt lat="45.09927" lon="5.37581">
        <ele>947.04</ele>
        <time>2019-11-30T09:50:36Z</time>
      </trkpt>
      <trkpt lat="45.09921" lon="5.37586">
        <ele>949.44</ele>
        <time>2019-11-30T09:50:50Z</time>
      </trkpt>
      <trkpt lat="45.09918" lon="5.37594">
        <ele>951.36</ele>
        <time>2019-11-30T09:51:01Z</time>
      </trkpt>
      <trkpt lat="45.09919" lon="5.37607">
        <ele>951.84</ele>
        <time>2019-11-30T09:51:11Z</time>
      </trkpt>
      <trkpt lat="45.09913" lon="5.37612">
        <ele>952.8</ele>
        <time>2019-11-30T09:51:23Z</time>
      </trkpt>
      <trkpt lat="45.09914" lon="5.37612">
        <ele>952.8</ele>
        <time>2019-11-30T09:51:41Z</time>
      </trkpt>
      <trkpt lat="45.09914" lon="5.37611">
        <ele>952.8</ele>
        <time>2019-11-30T09:52:01Z</time>
      </trkpt>
      <trkpt lat="45.09915" lon="5.37611">
        <ele>953.28</ele>
        <time>2019-11-30T09:52:26Z</time>
      </trkpt>
      <trkpt lat="45.09914" lon="5.37611">
        <ele>953.77</ele>
        <time>2019-11-30T09:52:44Z</time>
      </trkpt>
      <trkpt lat="45.09919" lon="5.37614">
        <ele>952.32</ele>
        <time>2019-11-30T09:52:55Z</time>
      </trkpt>
      <trkpt lat="45.0992" lon="5.37615">
        <ele>952.32</ele>
        <time>2019-11-30T09:52:56Z</time>
      </trkpt>
      <trkpt lat="45.09923" lon="5.37617">
        <ele>951.84</ele>
        <time>2019-11-30T09:52:59Z</time>
      </trkpt>
      <trkpt lat="45.09925" lon="5.3762">
        <ele>951.36</ele>
        <time>2019-11-30T09:53:02Z</time>
      </trkpt>
      <trkpt lat="45.09928" lon="5.37625">
        <ele>951.36</ele>
        <time>2019-11-30T09:53:07Z</time>
      </trkpt>
      <trkpt lat="45.0993" lon="5.3763">
        <ele>950.88</ele>
        <time>2019-11-30T09:53:11Z</time>
      </trkpt>
      <trkpt lat="45.09936" lon="5.37653">
        <ele>949.44</ele>
        <time>2019-11-30T09:53:25Z</time>
      </trkpt>
      <trkpt lat="45.09941" lon="5.37673">
        <ele>948.48</ele>
        <time>2019-11-30T09:53:37Z</time>
      </trkpt>
      <trkpt lat="45.09945" lon="5.37698">
        <ele>947.04</ele>
        <time>2019-11-30T09:53:51Z</time>
      </trkpt>
      <trkpt lat="45.09954" lon="5.37715">
        <ele>946.56</ele>
        <time>2019-11-30T09:54:02Z</time>
      </trkpt>
      <trkpt lat="45.09963" lon="5.37727">
        <ele>945.11</ele>
        <time>2019-11-30T09:54:11Z</time>
      </trkpt>
      <trkpt lat="45.09976" lon="5.37737">
        <ele>943.19</ele>
        <time>2019-11-30T09:54:23Z</time>
      </trkpt>
      <trkpt lat="45.09988" lon="5.37747">
        <ele>942.71</ele>
        <time>2019-11-30T09:54:33Z</time>
      </trkpt>
      <trkpt lat="45.10003" lon="5.37758">
        <ele>941.27</ele>
        <time>2019-11-30T09:54:45Z</time>
      </trkpt>
      <trkpt lat="45.10016" lon="5.37764">
        <ele>939.83</ele>
        <time>2019-11-30T09:54:56Z</time>
      </trkpt>
      <trkpt lat="45.10029" lon="5.37767">
        <ele>940.79</ele>
        <time>2019-11-30T09:55:06Z</time>
      </trkpt>
      <trkpt lat="45.10045" lon="5.37776">
        <ele>941.27</ele>
        <time>2019-11-30T09:55:20Z</time>
      </trkpt>
      <trkpt lat="45.10052" lon="5.3778">
        <ele>942.23</ele>
        <time>2019-11-30T09:55:26Z</time>
      </trkpt>
      <trkpt lat="45.10065" lon="5.37791">
        <ele>942.71</ele>
        <time>2019-11-30T09:55:38Z</time>
      </trkpt>
      <trkpt lat="45.10074" lon="5.37806">
        <ele>942.71</ele>
        <time>2019-11-30T09:55:49Z</time>
      </trkpt>
      <trkpt lat="45.10084" lon="5.3782">
        <ele>943.67</ele>
        <time>2019-11-30T09:56:00Z</time>
      </trkpt>
      <trkpt lat="45.10089" lon="5.37832">
        <ele>943.67</ele>
        <time>2019-11-30T09:56:08Z</time>
      </trkpt>
      <trkpt lat="45.10093" lon="5.37842">
        <ele>943.67</ele>
        <time>2019-11-30T09:56:15Z</time>
      </trkpt>
      <trkpt lat="45.10095" lon="5.3785">
        <ele>944.15</ele>
        <time>2019-11-30T09:56:20Z</time>
      </trkpt>
      <trkpt lat="45.10099" lon="5.3787">
        <ele>943.67</ele>
        <time>2019-11-30T09:56:32Z</time>
      </trkpt>
      <trkpt lat="45.101" lon="5.37887">
        <ele>943.67</ele>
        <time>2019-11-30T09:56:42Z</time>
      </trkpt>
      <trkpt lat="45.10099" lon="5.37896">
        <ele>944.63</ele>
        <time>2019-11-30T09:56:47Z</time>
      </trkpt>
      <trkpt lat="45.10092" lon="5.37916">
        <ele>944.63</ele>
        <time>2019-11-30T09:56:59Z</time>
      </trkpt>
      <trkpt lat="45.10082" lon="5.37934">
        <ele>945.11</ele>
        <time>2019-11-30T09:57:11Z</time>
      </trkpt>
      <trkpt lat="45.10074" lon="5.37952">
        <ele>947.04</ele>
        <time>2019-11-30T09:57:23Z</time>
      </trkpt>
      <trkpt lat="45.10071" lon="5.37963">
        <ele>947.52</ele>
        <time>2019-11-30T09:57:30Z</time>
      </trkpt>
      <trkpt lat="45.10069" lon="5.37965">
        <ele>947.52</ele>
        <time>2019-11-30T09:57:32Z</time>
      </trkpt>
      <trkpt lat="45.10067" lon="5.37971">
        <ele>948.48</ele>
        <time>2019-11-30T09:57:37Z</time>
      </trkpt>
      <trkpt lat="45.10061" lon="5.37989">
        <ele>950.4</ele>
        <time>2019-11-30T09:57:49Z</time>
      </trkpt>
      <trkpt lat="45.10059" lon="5.37994">
        <ele>950.4</ele>
        <time>2019-11-30T09:57:52Z</time>
      </trkpt>
      <trkpt lat="45.10057" lon="5.38004">
        <ele>950.88</ele>
        <time>2019-11-30T09:57:59Z</time>
      </trkpt>
      <trkpt lat="45.1005" lon="5.38017">
        <ele>951.84</ele>
        <time>2019-11-30T09:58:09Z</time>
      </trkpt>
      <trkpt lat="45.10043" lon="5.38023">
        <ele>952.32</ele>
        <time>2019-11-30T09:58:16Z</time>
      </trkpt>
      <trkpt lat="45.1003" lon="5.38033">
        <ele>952.32</ele>
        <time>2019-11-30T09:58:28Z</time>
      </trkpt>
      <trkpt lat="45.10019" lon="5.38042">
        <ele>952.32</ele>
        <time>2019-11-30T09:58:38Z</time>
      </trkpt>
      <trkpt lat="45.10012" lon="5.38049">
        <ele>953.28</ele>
        <time>2019-11-30T09:58:45Z</time>
      </trkpt>
      <trkpt lat="45.10008" lon="5.38052">
        <ele>952.8</ele>
        <time>2019-11-30T09:58:49Z</time>
      </trkpt>
      <trkpt lat="45.10001" lon="5.38055">
        <ele>952.8</ele>
        <time>2019-11-30T09:58:55Z</time>
      </trkpt>
      <trkpt lat="45.09987" lon="5.38065">
        <ele>951.84</ele>
        <time>2019-11-30T09:59:07Z</time>
      </trkpt>
      <trkpt lat="45.09978" lon="5.38072">
        <ele>951.36</ele>
        <time>2019-11-30T09:59:15Z</time>
      </trkpt>
      <trkpt lat="45.09975" lon="5.38078">
        <ele>951.36</ele>
        <time>2019-11-30T09:59:19Z</time>
      </trkpt>
      <trkpt lat="45.09966" lon="5.38092">
        <ele>951.36</ele>
        <time>2019-11-30T09:59:30Z</time>
      </trkpt>
      <trkpt lat="45.09958" lon="5.381">
        <ele>952.32</ele>
        <time>2019-11-30T09:59:38Z</time>
      </trkpt>
      <trkpt lat="45.09946" lon="5.3811">
        <ele>951.84</ele>
        <time>2019-11-30T09:59:50Z</time>
      </trkpt>
      <trkpt lat="45.09941" lon="5.38112">
        <ele>952.32</ele>
        <time>2019-11-30T09:59:54Z</time>
      </trkpt>
      <trkpt lat="45.09927" lon="5.3812">
        <ele>953.28</ele>
        <time>2019-11-30T10:00:06Z</time>
      </trkpt>
      <trkpt lat="45.09913" lon="5.3813">
        <ele>953.77</ele>
        <time>2019-11-30T10:00:19Z</time>
      </trkpt>
      <trkpt lat="45.09912" lon="5.38131">
        <ele>954.25</ele>
        <time>2019-11-30T10:00:20Z</time>
      </trkpt>
      <trkpt lat="45.09909" lon="5.38133">
        <ele>954.25</ele>
        <time>2019-11-30T10:00:23Z</time>
      </trkpt>
      <trkpt lat="45.09902" lon="5.3814">
        <ele>954.25</ele>
        <time>2019-11-30T10:00:29Z</time>
      </trkpt>
      <trkpt lat="45.099" lon="5.38143">
        <ele>954.73</ele>
        <time>2019-11-30T10:00:31Z</time>
      </trkpt>
      <trkpt lat="45.09888" lon="5.38151">
        <ele>954.25</ele>
        <time>2019-11-30T10:00:41Z</time>
      </trkpt>
      <trkpt lat="45.09884" lon="5.38154">
        <ele>954.25</ele>
        <time>2019-11-30T10:00:44Z</time>
      </trkpt>
      <trkpt lat="45.09873" lon="5.38163">
        <ele>954.73</ele>
        <time>2019-11-30T10:00:54Z</time>
      </trkpt>
      <trkpt lat="45.09865" lon="5.38171">
        <ele>953.77</ele>
        <time>2019-11-30T10:01:01Z</time>
      </trkpt>
      <trkpt lat="45.09862" lon="5.38173">
        <ele>953.28</ele>
        <time>2019-11-30T10:01:04Z</time>
      </trkpt>
      <trkpt lat="45.09852" lon="5.38182">
        <ele>952.8</ele>
        <time>2019-11-30T10:01:14Z</time>
      </trkpt>
      <trkpt lat="45.09844" lon="5.38188">
        <ele>952.8</ele>
        <time>2019-11-30T10:01:20Z</time>
      </trkpt>
      <trkpt lat="45.09835" lon="5.38201">
        <ele>953.28</ele>
        <time>2019-11-30T10:01:29Z</time>
      </trkpt>
      <trkpt lat="45.09828" lon="5.38216">
        <ele>953.77</ele>
        <time>2019-11-30T10:01:40Z</time>
      </trkpt>
      <trkpt lat="45.09819" lon="5.38226">
        <ele>954.25</ele>
        <time>2019-11-30T10:01:49Z</time>
      </trkpt>
      <trkpt lat="45.09815" lon="5.38233">
        <ele>953.77</ele>
        <time>2019-11-30T10:01:53Z</time>
      </trkpt>
      <trkpt lat="45.09803" lon="5.38248">
        <ele>955.21</ele>
        <time>2019-11-30T10:02:04Z</time>
      </trkpt>
      <trkpt lat="45.09799" lon="5.38257">
        <ele>955.69</ele>
        <time>2019-11-30T10:02:12Z</time>
      </trkpt>
      <trkpt lat="45.09795" lon="5.38264">
        <ele>956.65</ele>
        <time>2019-11-30T10:02:18Z</time>
      </trkpt>
      <trkpt lat="45.09785" lon="5.38276">
        <ele>957.13</ele>
        <time>2019-11-30T10:02:29Z</time>
      </trkpt>
      <trkpt lat="45.09776" lon="5.38288">
        <ele>958.09</ele>
        <time>2019-11-30T10:02:39Z</time>
      </trkpt>
      <trkpt lat="45.09776" lon="5.38289">
        <ele>958.09</ele>
        <time>2019-11-30T10:02:40Z</time>
      </trkpt>
      <trkpt lat="45.09772" lon="5.38296">
        <ele>957.61</ele>
        <time>2019-11-30T10:02:44Z</time>
      </trkpt>
      <trkpt lat="45.09759" lon="5.38308">
        <ele>957.13</ele>
        <time>2019-11-30T10:02:55Z</time>
      </trkpt>
      <trkpt lat="45.0975" lon="5.38312">
        <ele>956.65</ele>
        <time>2019-11-30T10:03:04Z</time>
      </trkpt>
      <trkpt lat="45.09748" lon="5.38313">
        <ele>956.65</ele>
        <time>2019-11-30T10:03:06Z</time>
      </trkpt>
      <trkpt lat="45.09739" lon="5.38315">
        <ele>956.17</ele>
        <time>2019-11-30T10:03:11Z</time>
      </trkpt>
      <trkpt lat="45.0973" lon="5.38321">
        <ele>956.65</ele>
        <time>2019-11-30T10:03:20Z</time>
      </trkpt>
      <trkpt lat="45.09725" lon="5.38324">
        <ele>956.17</ele>
        <time>2019-11-30T10:03:23Z</time>
      </trkpt>
      <trkpt lat="45.09718" lon="5.38331">
        <ele>956.17</ele>
        <time>2019-11-30T10:03:29Z</time>
      </trkpt>
      <trkpt lat="45.09715" lon="5.38333">
        <ele>956.17</ele>
        <time>2019-11-30T10:03:31Z</time>
      </trkpt>
      <trkpt lat="45.0971" lon="5.38337">
        <ele>956.17</ele>
        <time>2019-11-30T10:03:35Z</time>
      </trkpt>
      <trkpt lat="45.09705" lon="5.38342">
        <ele>956.17</ele>
        <time>2019-11-30T10:03:39Z</time>
      </trkpt>
      <trkpt lat="45.09696" lon="5.38362">
        <ele>955.69</ele>
        <time>2019-11-30T10:03:52Z</time>
      </trkpt>
      <trkpt lat="45.09691" lon="5.38388">
        <ele>954.25</ele>
        <time>2019-11-30T10:04:05Z</time>
      </trkpt>
      <trkpt lat="45.09692" lon="5.38395">
        <ele>953.77</ele>
        <time>2019-11-30T10:04:08Z</time>
      </trkpt>
      <trkpt lat="45.09693" lon="5.38399">
        <ele>953.77</ele>
        <time>2019-11-30T10:04:10Z</time>
      </trkpt>
      <trkpt lat="45.09696" lon="5.38408">
        <ele>952.8</ele>
        <time>2019-11-30T10:04:15Z</time>
      </trkpt>
      <trkpt lat="45.09698" lon="5.38412">
        <ele>952.8</ele>
        <time>2019-11-30T10:04:18Z</time>
      </trkpt>
      <trkpt lat="45.09706" lon="5.38422">
        <ele>952.32</ele>
        <time>2019-11-30T10:04:26Z</time>
      </trkpt>
      <trkpt lat="45.0971" lon="5.38425">
        <ele>951.84</ele>
        <time>2019-11-30T10:04:30Z</time>
      </trkpt>
      <trkpt lat="45.09716" lon="5.38435">
        <ele>950.4</ele>
        <time>2019-11-30T10:04:39Z</time>
      </trkpt>
      <trkpt lat="45.0972" lon="5.38438">
        <ele>949.44</ele>
        <time>2019-11-30T10:04:43Z</time>
      </trkpt>
      <trkpt lat="45.09732" lon="5.38437">
        <ele>947.52</ele>
        <time>2019-11-30T10:04:56Z</time>
      </trkpt>
      <trkpt lat="45.09745" lon="5.38442">
        <ele>945.59</ele>
        <time>2019-11-30T10:05:07Z</time>
      </trkpt>
      <trkpt lat="45.09745" lon="5.38442">
        <ele>945.59</ele>
        <time>2019-11-30T10:05:08Z</time>
      </trkpt>
      <trkpt lat="45.09753" lon="5.38457">
        <ele>944.15</ele>
        <time>2019-11-30T10:05:20Z</time>
      </trkpt>
      <trkpt lat="45.09754" lon="5.3846">
        <ele>943.67</ele>
        <time>2019-11-30T10:05:22Z</time>
      </trkpt>
      <trkpt lat="45.09756" lon="5.38467">
        <ele>943.19</ele>
        <time>2019-11-30T10:05:26Z</time>
      </trkpt>
      <trkpt lat="45.09757" lon="5.38472">
        <ele>943.19</ele>
        <time>2019-11-30T10:05:29Z</time>
      </trkpt>
      <trkpt lat="45.0976" lon="5.38483">
        <ele>943.19</ele>
        <time>2019-11-30T10:05:36Z</time>
      </trkpt>
      <trkpt lat="45.09762" lon="5.38491">
        <ele>943.19</ele>
        <time>2019-11-30T10:05:41Z</time>
      </trkpt>
      <trkpt lat="45.09765" lon="5.38511">
        <ele>944.15</ele>
        <time>2019-11-30T10:05:52Z</time>
      </trkpt>
      <trkpt lat="45.09766" lon="5.38519">
        <ele>944.15</ele>
        <time>2019-11-30T10:06:04Z</time>
      </trkpt>
      <trkpt lat="45.09767" lon="5.3852">
        <ele>945.11</ele>
        <time>2019-11-30T10:06:16Z</time>
      </trkpt>
      <trkpt lat="45.09767" lon="5.38521">
        <ele>945.11</ele>
        <time>2019-11-30T10:06:37Z</time>
      </trkpt>
      <trkpt lat="45.09769" lon="5.38523">
        <ele>945.11</ele>
        <time>2019-11-30T10:06:46Z</time>
      </trkpt>
      <trkpt lat="45.09777" lon="5.38523">
        <ele>945.59</ele>
        <time>2019-11-30T10:06:52Z</time>
      </trkpt>
      <trkpt lat="45.09785" lon="5.38527">
        <ele>946.56</ele>
        <time>2019-11-30T10:06:59Z</time>
      </trkpt>
      <trkpt lat="45.09796" lon="5.38533">
        <ele>948</ele>
        <time>2019-11-30T10:07:08Z</time>
      </trkpt>
      <trkpt lat="45.09801" lon="5.38535">
        <ele>948.96</ele>
        <time>2019-11-30T10:07:12Z</time>
      </trkpt>
      <trkpt lat="45.09812" lon="5.38542">
        <ele>949.92</ele>
        <time>2019-11-30T10:07:23Z</time>
      </trkpt>
      <trkpt lat="45.09824" lon="5.38552">
        <ele>950.88</ele>
        <time>2019-11-30T10:07:35Z</time>
      </trkpt>
      <trkpt lat="45.09826" lon="5.38554">
        <ele>951.36</ele>
        <time>2019-11-30T10:07:37Z</time>
      </trkpt>
      <trkpt lat="45.09829" lon="5.38556">
        <ele>952.8</ele>
        <time>2019-11-30T10:07:41Z</time>
      </trkpt>
      <trkpt lat="45.09841" lon="5.38564">
        <ele>954.25</ele>
        <time>2019-11-30T10:07:53Z</time>
      </trkpt>
      <trkpt lat="45.09854" lon="5.38566">
        <ele>954.73</ele>
        <time>2019-11-30T10:08:05Z</time>
      </trkpt>
      <trkpt lat="45.09866" lon="5.38566">
        <ele>955.69</ele>
        <time>2019-11-30T10:08:15Z</time>
      </trkpt>
      <trkpt lat="45.09877" lon="5.38565">
        <ele>956.17</ele>
        <time>2019-11-30T10:08:25Z</time>
      </trkpt>
      <trkpt lat="45.09883" lon="5.38564">
        <ele>956.17</ele>
        <time>2019-11-30T10:08:29Z</time>
      </trkpt>
      <trkpt lat="45.09894" lon="5.38564">
        <ele>957.13</ele>
        <time>2019-11-30T10:08:40Z</time>
      </trkpt>
      <trkpt lat="45.09904" lon="5.38563">
        <ele>957.61</ele>
        <time>2019-11-30T10:08:49Z</time>
      </trkpt>
      <trkpt lat="45.09916" lon="5.38563">
        <ele>956.17</ele>
        <time>2019-11-30T10:09:02Z</time>
      </trkpt>
      <trkpt lat="45.09927" lon="5.38561">
        <ele>955.69</ele>
        <time>2019-11-30T10:09:13Z</time>
      </trkpt>
      <trkpt lat="45.09938" lon="5.38557">
        <ele>956.17</ele>
        <time>2019-11-30T10:09:24Z</time>
      </trkpt>
      <trkpt lat="45.0994" lon="5.38556">
        <ele>955.69</ele>
        <time>2019-11-30T10:09:26Z</time>
      </trkpt>
      <trkpt lat="45.09943" lon="5.38555">
        <ele>955.69</ele>
        <time>2019-11-30T10:09:28Z</time>
      </trkpt>
      <trkpt lat="45.09956" lon="5.38552">
        <ele>955.69</ele>
        <time>2019-11-30T10:09:38Z</time>
      </trkpt>
      <trkpt lat="45.09965" lon="5.38549">
        <ele>955.69</ele>
        <time>2019-11-30T10:09:45Z</time>
      </trkpt>
      <trkpt lat="45.0998" lon="5.38538">
        <ele>956.17</ele>
        <time>2019-11-30T10:09:58Z</time>
      </trkpt>
      <trkpt lat="45.09982" lon="5.38538">
        <ele>956.17</ele>
        <time>2019-11-30T10:10:00Z</time>
      </trkpt>
      <trkpt lat="45.09986" lon="5.38536">
        <ele>955.69</ele>
        <time>2019-11-30T10:10:03Z</time>
      </trkpt>
      <trkpt lat="45.09994" lon="5.38534">
        <ele>955.69</ele>
        <time>2019-11-30T10:10:10Z</time>
      </trkpt>
      <trkpt lat="45.10002" lon="5.38536">
        <ele>955.69</ele>
        <time>2019-11-30T10:10:17Z</time>
      </trkpt>
      <trkpt lat="45.10016" lon="5.38537">
        <ele>955.69</ele>
        <time>2019-11-30T10:10:30Z</time>
      </trkpt>
      <trkpt lat="45.10027" lon="5.38537">
        <ele>955.69</ele>
        <time>2019-11-30T10:10:39Z</time>
      </trkpt>
      <trkpt lat="45.10032" lon="5.38536">
        <ele>955.69</ele>
        <time>2019-11-30T10:10:47Z</time>
      </trkpt>
      <trkpt lat="45.10034" lon="5.38537">
        <ele>956.17</ele>
        <time>2019-11-30T10:10:49Z</time>
      </trkpt>
      <trkpt lat="45.10039" lon="5.38538">
        <ele>955.69</ele>
        <time>2019-11-30T10:10:54Z</time>
      </trkpt>
      <trkpt lat="45.1005" lon="5.38538">
        <ele>956.65</ele>
        <time>2019-11-30T10:11:04Z</time>
      </trkpt>
      <trkpt lat="45.10062" lon="5.38536">
        <ele>956.17</ele>
        <time>2019-11-30T10:11:15Z</time>
      </trkpt>
      <trkpt lat="45.10074" lon="5.38537">
        <ele>956.17</ele>
        <time>2019-11-30T10:11:25Z</time>
      </trkpt>
      <trkpt lat="45.10083" lon="5.38538">
        <ele>957.13</ele>
        <time>2019-11-30T10:11:34Z</time>
      </trkpt>
      <trkpt lat="45.10095" lon="5.3854">
        <ele>956.65</ele>
        <time>2019-11-30T10:11:45Z</time>
      </trkpt>
      <trkpt lat="45.10105" lon="5.3854">
        <ele>956.65</ele>
        <time>2019-11-30T10:11:54Z</time>
      </trkpt>
      <trkpt lat="45.10118" lon="5.38539">
        <ele>957.13</ele>
        <time>2019-11-30T10:12:05Z</time>
      </trkpt>
      <trkpt lat="45.10122" lon="5.38539">
        <ele>957.61</ele>
        <time>2019-11-30T10:12:09Z</time>
      </trkpt>
      <trkpt lat="45.10128" lon="5.38537">
        <ele>957.61</ele>
        <time>2019-11-30T10:12:14Z</time>
      </trkpt>
      <trkpt lat="45.10138" lon="5.38536">
        <ele>958.57</ele>
        <time>2019-11-30T10:12:23Z</time>
      </trkpt>
      <trkpt lat="45.10141" lon="5.38535">
        <ele>958.09</ele>
        <time>2019-11-30T10:12:26Z</time>
      </trkpt>
      <trkpt lat="45.10153" lon="5.38532">
        <ele>959.05</ele>
        <time>2019-11-30T10:12:36Z</time>
      </trkpt>
      <trkpt lat="45.10167" lon="5.38531">
        <ele>958.57</ele>
        <time>2019-11-30T10:12:47Z</time>
      </trkpt>
      <trkpt lat="45.1018" lon="5.38531">
        <ele>959.53</ele>
        <time>2019-11-30T10:12:57Z</time>
      </trkpt>
      <trkpt lat="45.10192" lon="5.38533">
        <ele>960.01</ele>
        <time>2019-11-30T10:13:07Z</time>
      </trkpt>
      <trkpt lat="45.10206" lon="5.38535">
        <ele>959.53</ele>
        <time>2019-11-30T10:13:18Z</time>
      </trkpt>
      <trkpt lat="45.1022" lon="5.38538">
        <ele>960.98</ele>
        <time>2019-11-30T10:13:29Z</time>
      </trkpt>
      <trkpt lat="45.10232" lon="5.3854">
        <ele>961.46</ele>
        <time>2019-11-30T10:13:39Z</time>
      </trkpt>
      <trkpt lat="45.10246" lon="5.38544">
        <ele>961.94</ele>
        <time>2019-11-30T10:13:51Z</time>
      </trkpt>
      <trkpt lat="45.10258" lon="5.38546">
        <ele>962.9</ele>
        <time>2019-11-30T10:14:01Z</time>
      </trkpt>
      <trkpt lat="45.10273" lon="5.38549">
        <ele>963.38</ele>
        <time>2019-11-30T10:14:12Z</time>
      </trkpt>
      <trkpt lat="45.10284" lon="5.38551">
        <ele>963.86</ele>
        <time>2019-11-30T10:14:22Z</time>
      </trkpt>
      <trkpt lat="45.10296" lon="5.38554">
        <ele>964.34</ele>
        <time>2019-11-30T10:14:32Z</time>
      </trkpt>
      <trkpt lat="45.10307" lon="5.38558">
        <ele>965.78</ele>
        <time>2019-11-30T10:14:42Z</time>
      </trkpt>
      <trkpt lat="45.1032" lon="5.38564">
        <ele>966.26</ele>
        <time>2019-11-30T10:14:55Z</time>
      </trkpt>
      <trkpt lat="45.10333" lon="5.38569">
        <ele>967.7</ele>
        <time>2019-11-30T10:15:06Z</time>
      </trkpt>
      <trkpt lat="45.10344" lon="5.38575">
        <ele>968.18</ele>
        <time>2019-11-30T10:15:16Z</time>
      </trkpt>
      <trkpt lat="45.10351" lon="5.38579">
        <ele>968.67</ele>
        <time>2019-11-30T10:15:23Z</time>
      </trkpt>
      <trkpt lat="45.10359" lon="5.38586">
        <ele>969.63</ele>
        <time>2019-11-30T10:15:31Z</time>
      </trkpt>
      <trkpt lat="45.10365" lon="5.38592">
        <ele>970.11</ele>
        <time>2019-11-30T10:15:37Z</time>
      </trkpt>
      <trkpt lat="45.10372" lon="5.38604">
        <ele>970.59</ele>
        <time>2019-11-30T10:15:47Z</time>
      </trkpt>
      <trkpt lat="45.10379" lon="5.38614">
        <ele>971.55</ele>
        <time>2019-11-30T10:15:56Z</time>
      </trkpt>
      <trkpt lat="45.10386" lon="5.38623">
        <ele>971.55</ele>
        <time>2019-11-30T10:16:04Z</time>
      </trkpt>
      <trkpt lat="45.10393" lon="5.38635">
        <ele>972.03</ele>
        <time>2019-11-30T10:16:14Z</time>
      </trkpt>
      <trkpt lat="45.10396" lon="5.38638">
        <ele>971.55</ele>
        <time>2019-11-30T10:16:17Z</time>
      </trkpt>
      <trkpt lat="45.10404" lon="5.3865">
        <ele>972.51</ele>
        <time>2019-11-30T10:16:27Z</time>
      </trkpt>
      <trkpt lat="45.10414" lon="5.38662">
        <ele>972.03</ele>
        <time>2019-11-30T10:16:37Z</time>
      </trkpt>
      <trkpt lat="45.10424" lon="5.38674">
        <ele>972.03</ele>
        <time>2019-11-30T10:16:47Z</time>
      </trkpt>
      <trkpt lat="45.10433" lon="5.38687">
        <ele>972.03</ele>
        <time>2019-11-30T10:16:59Z</time>
      </trkpt>
      <trkpt lat="45.10434" lon="5.38689">
        <ele>971.55</ele>
        <time>2019-11-30T10:17:01Z</time>
      </trkpt>
      <trkpt lat="45.10444" lon="5.387">
        <ele>971.55</ele>
        <time>2019-11-30T10:17:12Z</time>
      </trkpt>
      <trkpt lat="45.10443" lon="5.387">
        <ele>971.07</ele>
        <time>2019-11-30T10:17:17Z</time>
      </trkpt>
      <trkpt lat="45.10449" lon="5.38707">
        <ele>971.07</ele>
        <time>2019-11-30T10:17:25Z</time>
      </trkpt>
      <trkpt lat="45.10451" lon="5.3871">
        <ele>971.07</ele>
        <time>2019-11-30T10:17:28Z</time>
      </trkpt>
      <trkpt lat="45.10458" lon="5.38723">
        <ele>971.07</ele>
        <time>2019-11-30T10:17:38Z</time>
      </trkpt>
      <trkpt lat="45.10467" lon="5.38736">
        <ele>970.59</ele>
        <time>2019-11-30T10:17:49Z</time>
      </trkpt>
      <trkpt lat="45.10474" lon="5.38745">
        <ele>970.59</ele>
        <time>2019-11-30T10:17:57Z</time>
      </trkpt>
      <trkpt lat="45.10478" lon="5.38749">
        <ele>970.59</ele>
        <time>2019-11-30T10:18:01Z</time>
      </trkpt>
      <trkpt lat="45.10489" lon="5.38761">
        <ele>971.07</ele>
        <time>2019-11-30T10:18:12Z</time>
      </trkpt>
      <trkpt lat="45.10496" lon="5.38773">
        <ele>972.51</ele>
        <time>2019-11-30T10:18:23Z</time>
      </trkpt>
      <trkpt lat="45.105" lon="5.38783">
        <ele>974.43</ele>
        <time>2019-11-30T10:18:33Z</time>
      </trkpt>
      <trkpt lat="45.10501" lon="5.38797">
        <ele>976.36</ele>
        <time>2019-11-30T10:18:44Z</time>
      </trkpt>
      <trkpt lat="45.10506" lon="5.38812">
        <ele>977.8</ele>
        <time>2019-11-30T10:18:56Z</time>
      </trkpt>
      <trkpt lat="45.10513" lon="5.38827">
        <ele>979.72</ele>
        <time>2019-11-30T10:19:08Z</time>
      </trkpt>
      <trkpt lat="45.10515" lon="5.38833">
        <ele>979.72</ele>
        <time>2019-11-30T10:19:13Z</time>
      </trkpt>
      <trkpt lat="45.10521" lon="5.38849">
        <ele>980.68</ele>
        <time>2019-11-30T10:19:26Z</time>
      </trkpt>
      <trkpt lat="45.10526" lon="5.38861">
        <ele>981.64</ele>
        <time>2019-11-30T10:19:36Z</time>
      </trkpt>
      <trkpt lat="45.10536" lon="5.38877">
        <ele>983.09</ele>
        <time>2019-11-30T10:19:46Z</time>
      </trkpt>
      <trkpt lat="45.10545" lon="5.38886">
        <ele>984.53</ele>
        <time>2019-11-30T10:19:56Z</time>
      </trkpt>
      <trkpt lat="45.10548" lon="5.38891">
        <ele>985.49</ele>
        <time>2019-11-30T10:20:01Z</time>
      </trkpt>
      <trkpt lat="45.10553" lon="5.38903">
        <ele>985.97</ele>
        <time>2019-11-30T10:20:12Z</time>
      </trkpt>
      <trkpt lat="45.10558" lon="5.38918">
        <ele>986.45</ele>
        <time>2019-11-30T10:20:23Z</time>
      </trkpt>
      <trkpt lat="45.10566" lon="5.38929">
        <ele>985.97</ele>
        <time>2019-11-30T10:20:33Z</time>
      </trkpt>
      <trkpt lat="45.10581" lon="5.38943">
        <ele>984.53</ele>
        <time>2019-11-30T10:20:46Z</time>
      </trkpt>
      <trkpt lat="45.10592" lon="5.38949">
        <ele>984.53</ele>
        <time>2019-11-30T10:20:57Z</time>
      </trkpt>
      <trkpt lat="45.10595" lon="5.3895">
        <ele>984.53</ele>
        <time>2019-11-30T10:21:00Z</time>
      </trkpt>
      <trkpt lat="45.10602" lon="5.38956">
        <ele>983.57</ele>
        <time>2019-11-30T10:21:06Z</time>
      </trkpt>
      <trkpt lat="45.10604" lon="5.38958">
        <ele>984.05</ele>
        <time>2019-11-30T10:21:08Z</time>
      </trkpt>
      <trkpt lat="45.10611" lon="5.38973">
        <ele>983.57</ele>
        <time>2019-11-30T10:21:20Z</time>
      </trkpt>
      <trkpt lat="45.10611" lon="5.38975">
        <ele>983.57</ele>
        <time>2019-11-30T10:21:21Z</time>
      </trkpt>
      <trkpt lat="45.10615" lon="5.38987">
        <ele>983.09</ele>
        <time>2019-11-30T10:21:29Z</time>
      </trkpt>
      <trkpt lat="45.10626" lon="5.39001">
        <ele>982.6</ele>
        <time>2019-11-30T10:21:42Z</time>
      </trkpt>
      <trkpt lat="45.10629" lon="5.39003">
        <ele>982.12</ele>
        <time>2019-11-30T10:21:45Z</time>
      </trkpt>
      <trkpt lat="45.10641" lon="5.3901">
        <ele>981.16</ele>
        <time>2019-11-30T10:21:54Z</time>
      </trkpt>
      <trkpt lat="45.10652" lon="5.39016">
        <ele>981.16</ele>
        <time>2019-11-30T10:22:03Z</time>
      </trkpt>
      <trkpt lat="45.10658" lon="5.39018">
        <ele>981.64</ele>
        <time>2019-11-30T10:22:09Z</time>
      </trkpt>
      <trkpt lat="45.10661" lon="5.3902">
        <ele>981.64</ele>
        <time>2019-11-30T10:22:12Z</time>
      </trkpt>
      <trkpt lat="45.10673" lon="5.39028">
        <ele>981.64</ele>
        <time>2019-11-30T10:22:23Z</time>
      </trkpt>
      <trkpt lat="45.10679" lon="5.39041">
        <ele>981.16</ele>
        <time>2019-11-30T10:22:33Z</time>
      </trkpt>
      <trkpt lat="45.10688" lon="5.39055">
        <ele>982.12</ele>
        <time>2019-11-30T10:22:43Z</time>
      </trkpt>
      <trkpt lat="45.10697" lon="5.39066">
        <ele>982.12</ele>
        <time>2019-11-30T10:22:52Z</time>
      </trkpt>
      <trkpt lat="45.107" lon="5.39072">
        <ele>982.12</ele>
        <time>2019-11-30T10:22:56Z</time>
      </trkpt>
      <trkpt lat="45.10707" lon="5.39083">
        <ele>982.12</ele>
        <time>2019-11-30T10:23:05Z</time>
      </trkpt>
      <trkpt lat="45.10716" lon="5.39096">
        <ele>984.05</ele>
        <time>2019-11-30T10:23:16Z</time>
      </trkpt>
      <trkpt lat="45.10726" lon="5.39104">
        <ele>984.53</ele>
        <time>2019-11-30T10:23:26Z</time>
      </trkpt>
      <trkpt lat="45.10735" lon="5.39111">
        <ele>985.49</ele>
        <time>2019-11-30T10:23:36Z</time>
      </trkpt>
      <trkpt lat="45.10738" lon="5.39114">
        <ele>985.49</ele>
        <time>2019-11-30T10:23:40Z</time>
      </trkpt>
      <trkpt lat="45.10746" lon="5.39121">
        <ele>986.45</ele>
        <time>2019-11-30T10:23:47Z</time>
      </trkpt>
      <trkpt lat="45.10748" lon="5.39124">
        <ele>986.45</ele>
        <time>2019-11-30T10:23:50Z</time>
      </trkpt>
      <trkpt lat="45.10755" lon="5.39128">
        <ele>987.41</ele>
        <time>2019-11-30T10:23:57Z</time>
      </trkpt>
      <trkpt lat="45.1076" lon="5.39129">
        <ele>987.89</ele>
        <time>2019-11-30T10:24:01Z</time>
      </trkpt>
      <trkpt lat="45.10768" lon="5.39128">
        <ele>987.89</ele>
        <time>2019-11-30T10:24:08Z</time>
      </trkpt>
      <trkpt lat="45.10778" lon="5.39128">
        <ele>988.85</ele>
        <time>2019-11-30T10:24:20Z</time>
      </trkpt>
      <trkpt lat="45.10788" lon="5.39133">
        <ele>989.33</ele>
        <time>2019-11-30T10:24:32Z</time>
      </trkpt>
      <trkpt lat="45.10797" lon="5.3914">
        <ele>990.3</ele>
        <time>2019-11-30T10:24:43Z</time>
      </trkpt>
      <trkpt lat="45.10806" lon="5.39147">
        <ele>990.78</ele>
        <time>2019-11-30T10:24:52Z</time>
      </trkpt>
      <trkpt lat="45.10816" lon="5.39154">
        <ele>992.22</ele>
        <time>2019-11-30T10:25:03Z</time>
      </trkpt>
      <trkpt lat="45.10827" lon="5.39161">
        <ele>993.18</ele>
        <time>2019-11-30T10:25:14Z</time>
      </trkpt>
      <trkpt lat="45.10833" lon="5.39164">
        <ele>993.66</ele>
        <time>2019-11-30T10:25:20Z</time>
      </trkpt>
      <trkpt lat="45.10838" lon="5.39171">
        <ele>994.14</ele>
        <time>2019-11-30T10:25:26Z</time>
      </trkpt>
      <trkpt lat="45.1084" lon="5.39173">
        <ele>994.14</ele>
        <time>2019-11-30T10:25:28Z</time>
      </trkpt>
      <trkpt lat="45.10844" lon="5.3918">
        <ele>994.14</ele>
        <time>2019-11-30T10:25:33Z</time>
      </trkpt>
      <trkpt lat="45.10848" lon="5.39182">
        <ele>994.62</ele>
        <time>2019-11-30T10:25:36Z</time>
      </trkpt>
      <trkpt lat="45.1085" lon="5.39184">
        <ele>994.62</ele>
        <time>2019-11-30T10:25:38Z</time>
      </trkpt>
      <trkpt lat="45.10864" lon="5.39194">
        <ele>995.1</ele>
        <time>2019-11-30T10:25:50Z</time>
      </trkpt>
      <trkpt lat="45.10878" lon="5.39202">
        <ele>995.58</ele>
        <time>2019-11-30T10:26:01Z</time>
      </trkpt>
      <trkpt lat="45.10887" lon="5.39209">
        <ele>996.06</ele>
        <time>2019-11-30T10:26:10Z</time>
      </trkpt>
      <trkpt lat="45.10897" lon="5.39215">
        <ele>997.02</ele>
        <time>2019-11-30T10:26:19Z</time>
      </trkpt>
      <trkpt lat="45.10904" lon="5.39225">
        <ele>998.47</ele>
        <time>2019-11-30T10:26:28Z</time>
      </trkpt>
      <trkpt lat="45.10907" lon="5.39229">
        <ele>998.47</ele>
        <time>2019-11-30T10:26:32Z</time>
      </trkpt>
      <trkpt lat="45.1091" lon="5.39232">
        <ele>999.43</ele>
        <time>2019-11-30T10:26:35Z</time>
      </trkpt>
      <trkpt lat="45.10912" lon="5.39236">
        <ele>998.95</ele>
        <time>2019-11-30T10:26:38Z</time>
      </trkpt>
      <trkpt lat="45.10917" lon="5.39237">
        <ele>1000.39</ele>
        <time>2019-11-30T10:26:42Z</time>
      </trkpt>
      <trkpt lat="45.10929" lon="5.39252">
        <ele>1001.35</ele>
        <time>2019-11-30T10:26:55Z</time>
      </trkpt>
      <trkpt lat="45.10937" lon="5.39263">
        <ele>1001.35</ele>
        <time>2019-11-30T10:27:05Z</time>
      </trkpt>
      <trkpt lat="45.10944" lon="5.39273">
        <ele>1002.79</ele>
        <time>2019-11-30T10:27:15Z</time>
      </trkpt>
      <trkpt lat="45.10948" lon="5.3928">
        <ele>1003.27</ele>
        <time>2019-11-30T10:27:21Z</time>
      </trkpt>
      <trkpt lat="45.10956" lon="5.39294">
        <ele>1004.23</ele>
        <time>2019-11-30T10:27:34Z</time>
      </trkpt>
      <trkpt lat="45.10961" lon="5.39299">
        <ele>1005.2</ele>
        <time>2019-11-30T10:27:39Z</time>
      </trkpt>
      <trkpt lat="45.10972" lon="5.39311">
        <ele>1006.16</ele>
        <time>2019-11-30T10:27:50Z</time>
      </trkpt>
      <trkpt lat="45.10983" lon="5.39321">
        <ele>1006.64</ele>
        <time>2019-11-30T10:28:01Z</time>
      </trkpt>
      <trkpt lat="45.10994" lon="5.39327">
        <ele>1006.16</ele>
        <time>2019-11-30T10:28:10Z</time>
      </trkpt>
      <trkpt lat="45.11006" lon="5.39333">
        <ele>1007.12</ele>
        <time>2019-11-30T10:28:20Z</time>
      </trkpt>
      <trkpt lat="45.11017" lon="5.39338">
        <ele>1008.08</ele>
        <time>2019-11-30T10:28:29Z</time>
      </trkpt>
      <trkpt lat="45.11029" lon="5.39344">
        <ele>1009.04</ele>
        <time>2019-11-30T10:28:38Z</time>
      </trkpt>
      <trkpt lat="45.11035" lon="5.39348">
        <ele>1009.04</ele>
        <time>2019-11-30T10:28:43Z</time>
      </trkpt>
      <trkpt lat="45.11044" lon="5.39355">
        <ele>1009.52</ele>
        <time>2019-11-30T10:28:53Z</time>
      </trkpt>
      <trkpt lat="45.11053" lon="5.39363">
        <ele>1010.48</ele>
        <time>2019-11-30T10:29:03Z</time>
      </trkpt>
      <trkpt lat="45.11064" lon="5.39368">
        <ele>1010.96</ele>
        <time>2019-11-30T10:29:12Z</time>
      </trkpt>
      <trkpt lat="45.11074" lon="5.39376">
        <ele>1011.44</ele>
        <time>2019-11-30T10:29:21Z</time>
      </trkpt>
      <trkpt lat="45.11075" lon="5.39377">
        <ele>1011.93</ele>
        <time>2019-11-30T10:29:22Z</time>
      </trkpt>
      <trkpt lat="45.11087" lon="5.39386">
        <ele>1012.89</ele>
        <time>2019-11-30T10:29:33Z</time>
      </trkpt>
      <trkpt lat="45.11097" lon="5.39396">
        <ele>1012.89</ele>
        <time>2019-11-30T10:29:43Z</time>
      </trkpt>
      <trkpt lat="45.11106" lon="5.39409">
        <ele>1012.41</ele>
        <time>2019-11-30T10:29:53Z</time>
      </trkpt>
      <trkpt lat="45.11111" lon="5.39417">
        <ele>1012.89</ele>
        <time>2019-11-30T10:29:59Z</time>
      </trkpt>
      <trkpt lat="45.11117" lon="5.39426">
        <ele>1012.89</ele>
        <time>2019-11-30T10:30:05Z</time>
      </trkpt>
      <trkpt lat="45.11121" lon="5.39431">
        <ele>1012.89</ele>
        <time>2019-11-30T10:30:09Z</time>
      </trkpt>
      <trkpt lat="45.1113" lon="5.39446">
        <ele>1013.85</ele>
        <time>2019-11-30T10:30:20Z</time>
      </trkpt>
      <trkpt lat="45.11135" lon="5.39463">
        <ele>1013.37</ele>
        <time>2019-11-30T10:30:30Z</time>
      </trkpt>
      <trkpt lat="45.11138" lon="5.3948">
        <ele>1014.33</ele>
        <time>2019-11-30T10:30:40Z</time>
      </trkpt>
      <trkpt lat="45.11143" lon="5.39495">
        <ele>1014.33</ele>
        <time>2019-11-30T10:30:50Z</time>
      </trkpt>
      <trkpt lat="45.1115" lon="5.39512">
        <ele>1013.85</ele>
        <time>2019-11-30T10:30:59Z</time>
      </trkpt>
      <trkpt lat="45.11155" lon="5.3953">
        <ele>1012.89</ele>
        <time>2019-11-30T10:31:11Z</time>
      </trkpt>
      <trkpt lat="45.11157" lon="5.39544">
        <ele>1011.93</ele>
        <time>2019-11-30T10:31:20Z</time>
      </trkpt>
      <trkpt lat="45.11158" lon="5.39549">
        <ele>1011.44</ele>
        <time>2019-11-30T10:31:23Z</time>
      </trkpt>
      <trkpt lat="45.11164" lon="5.39564">
        <ele>1010.48</ele>
        <time>2019-11-30T10:31:34Z</time>
      </trkpt>
      <trkpt lat="45.11167" lon="5.3957">
        <ele>1009.52</ele>
        <time>2019-11-30T10:31:38Z</time>
      </trkpt>
      <trkpt lat="45.11169" lon="5.39573">
        <ele>1009.52</ele>
        <time>2019-11-30T10:31:40Z</time>
      </trkpt>
      <trkpt lat="45.11178" lon="5.39586">
        <ele>1008.56</ele>
        <time>2019-11-30T10:31:50Z</time>
      </trkpt>
      <trkpt lat="45.1118" lon="5.39593">
        <ele>1008.56</ele>
        <time>2019-11-30T10:31:54Z</time>
      </trkpt>
      <trkpt lat="45.11194" lon="5.39613">
        <ele>1008.56</ele>
        <time>2019-11-30T10:32:07Z</time>
      </trkpt>
      <trkpt lat="45.11199" lon="5.39627">
        <ele>1007.6</ele>
        <time>2019-11-30T10:32:15Z</time>
      </trkpt>
      <trkpt lat="45.11204" lon="5.39636">
        <ele>1007.6</ele>
        <time>2019-11-30T10:32:21Z</time>
      </trkpt>
      <trkpt lat="45.11213" lon="5.39653">
        <ele>1008.56</ele>
        <time>2019-11-30T10:32:32Z</time>
      </trkpt>
      <trkpt lat="45.11221" lon="5.39665">
        <ele>1010</ele>
        <time>2019-11-30T10:32:42Z</time>
      </trkpt>
      <trkpt lat="45.11234" lon="5.39675">
        <ele>1011.44</ele>
        <time>2019-11-30T10:32:55Z</time>
      </trkpt>
      <trkpt lat="45.11244" lon="5.39678">
        <ele>1013.37</ele>
        <time>2019-11-30T10:33:05Z</time>
      </trkpt>
      <trkpt lat="45.11256" lon="5.39683">
        <ele>1014.81</ele>
        <time>2019-11-30T10:33:16Z</time>
      </trkpt>
      <trkpt lat="45.11266" lon="5.3969">
        <ele>1015.77</ele>
        <time>2019-11-30T10:33:26Z</time>
      </trkpt>
      <trkpt lat="45.11273" lon="5.39695">
        <ele>1015.77</ele>
        <time>2019-11-30T10:33:34Z</time>
      </trkpt>
      <trkpt lat="45.11283" lon="5.39704">
        <ele>1016.73</ele>
        <time>2019-11-30T10:33:43Z</time>
      </trkpt>
      <trkpt lat="45.11287" lon="5.39708">
        <ele>1016.73</ele>
        <time>2019-11-30T10:33:47Z</time>
      </trkpt>
      <trkpt lat="45.11292" lon="5.39715">
        <ele>1017.21</ele>
        <time>2019-11-30T10:33:53Z</time>
      </trkpt>
      <trkpt lat="45.11302" lon="5.39726">
        <ele>1016.73</ele>
        <time>2019-11-30T10:34:03Z</time>
      </trkpt>
      <trkpt lat="45.11307" lon="5.39737">
        <ele>1016.73</ele>
        <time>2019-11-30T10:34:10Z</time>
      </trkpt>
      <trkpt lat="45.11314" lon="5.39749">
        <ele>1015.29</ele>
        <time>2019-11-30T10:34:20Z</time>
      </trkpt>
      <trkpt lat="45.11322" lon="5.39767">
        <ele>1015.77</ele>
        <time>2019-11-30T10:34:31Z</time>
      </trkpt>
      <trkpt lat="45.11331" lon="5.39784">
        <ele>1014.33</ele>
        <time>2019-11-30T10:34:41Z</time>
      </trkpt>
      <trkpt lat="45.11338" lon="5.39793">
        <ele>1013.37</ele>
        <time>2019-11-30T10:34:50Z</time>
      </trkpt>
      <trkpt lat="45.11348" lon="5.39805">
        <ele>1011.44</ele>
        <time>2019-11-30T10:35:00Z</time>
      </trkpt>
      <trkpt lat="45.11358" lon="5.39818">
        <ele>1010</ele>
        <time>2019-11-30T10:35:10Z</time>
      </trkpt>
      <trkpt lat="45.11365" lon="5.39828">
        <ele>1009.04</ele>
        <time>2019-11-30T10:35:18Z</time>
      </trkpt>
      <trkpt lat="45.11375" lon="5.39838">
        <ele>1007.6</ele>
        <time>2019-11-30T10:35:28Z</time>
      </trkpt>
      <trkpt lat="45.11375" lon="5.39843">
        <ele>1007.6</ele>
        <time>2019-11-30T10:35:40Z</time>
      </trkpt>
      <trkpt lat="45.11378" lon="5.39843">
        <ele>1008.08</ele>
        <time>2019-11-30T10:35:52Z</time>
      </trkpt>
      <trkpt lat="45.11385" lon="5.39852">
        <ele>1008.08</ele>
        <time>2019-11-30T10:36:00Z</time>
      </trkpt>
      <trkpt lat="45.11392" lon="5.3986">
        <ele>1008.56</ele>
        <time>2019-11-30T10:36:09Z</time>
      </trkpt>
      <trkpt lat="45.11395" lon="5.39864">
        <ele>1008.56</ele>
        <time>2019-11-30T10:36:12Z</time>
      </trkpt>
      <trkpt lat="45.11406" lon="5.3988">
        <ele>1009.52</ele>
        <time>2019-11-30T10:36:25Z</time>
      </trkpt>
      <trkpt lat="45.11417" lon="5.39892">
        <ele>1010.48</ele>
        <time>2019-11-30T10:36:37Z</time>
      </trkpt>
      <trkpt lat="45.11422" lon="5.39895">
        <ele>1010.96</ele>
        <time>2019-11-30T10:36:41Z</time>
      </trkpt>
      <trkpt lat="45.11424" lon="5.39896">
        <ele>1010.48</ele>
        <time>2019-11-30T10:36:43Z</time>
      </trkpt>
      <trkpt lat="45.1144" lon="5.39905">
        <ele>1011.44</ele>
        <time>2019-11-30T10:36:56Z</time>
      </trkpt>
      <trkpt lat="45.11452" lon="5.39912">
        <ele>1011.44</ele>
        <time>2019-11-30T10:37:07Z</time>
      </trkpt>
      <trkpt lat="45.11469" lon="5.39922">
        <ele>1011.93</ele>
        <time>2019-11-30T10:37:21Z</time>
      </trkpt>
      <trkpt lat="45.1148" lon="5.39933">
        <ele>1012.41</ele>
        <time>2019-11-30T10:37:33Z</time>
      </trkpt>
      <trkpt lat="45.11494" lon="5.39943">
        <ele>1010.48</ele>
        <time>2019-11-30T10:37:45Z</time>
      </trkpt>
      <trkpt lat="45.11499" lon="5.39947">
        <ele>1010.48</ele>
        <time>2019-11-30T10:37:49Z</time>
      </trkpt>
      <trkpt lat="45.1151" lon="5.39964">
        <ele>1010</ele>
        <time>2019-11-30T10:38:00Z</time>
      </trkpt>
      <trkpt lat="45.11521" lon="5.3998">
        <ele>1009.04</ele>
        <time>2019-11-30T10:38:13Z</time>
      </trkpt>
      <trkpt lat="45.11525" lon="5.39985">
        <ele>1009.52</ele>
        <time>2019-11-30T10:38:18Z</time>
      </trkpt>
      <trkpt lat="45.11529" lon="5.39989">
        <ele>1009.04</ele>
        <time>2019-11-30T10:38:22Z</time>
      </trkpt>
      <trkpt lat="45.11543" lon="5.39998">
        <ele>1010.48</ele>
        <time>2019-11-30T10:38:34Z</time>
      </trkpt>
      <trkpt lat="45.11551" lon="5.40005">
        <ele>1010.96</ele>
        <time>2019-11-30T10:38:44Z</time>
      </trkpt>
      <trkpt lat="45.11552" lon="5.40007">
        <ele>1011.44</ele>
        <time>2019-11-30T10:38:46Z</time>
      </trkpt>
      <trkpt lat="45.11553" lon="5.4001">
        <ele>1011.44</ele>
        <time>2019-11-30T10:38:48Z</time>
      </trkpt>
      <trkpt lat="45.11557" lon="5.40012">
        <ele>1011.93</ele>
        <time>2019-11-30T10:38:57Z</time>
      </trkpt>
      <trkpt lat="45.11559" lon="5.40013">
        <ele>1011.93</ele>
        <time>2019-11-30T10:39:10Z</time>
      </trkpt>
      <trkpt lat="45.1156" lon="5.40013">
        <ele>1012.41</ele>
        <time>2019-11-30T10:39:26Z</time>
      </trkpt>
      <trkpt lat="45.11559" lon="5.40014">
        <ele>1011.93</ele>
        <time>2019-11-30T10:39:44Z</time>
      </trkpt>
      <trkpt lat="45.11558" lon="5.40015">
        <ele>1011.93</ele>
        <time>2019-11-30T10:40:01Z</time>
      </trkpt>
      <trkpt lat="45.1156" lon="5.40018">
        <ele>1012.41</ele>
        <time>2019-11-30T10:40:14Z</time>
      </trkpt>
      <trkpt lat="45.1156" lon="5.40018">
        <ele>1012.41</ele>
        <time>2019-11-30T10:40:33Z</time>
      </trkpt>
      <trkpt lat="45.1156" lon="5.40018">
        <ele>1012.41</ele>
        <time>2019-11-30T10:40:52Z</time>
      </trkpt>
      <trkpt lat="45.1156" lon="5.40018">
        <ele>1011.44</ele>
        <time>2019-11-30T10:41:14Z</time>
      </trkpt>
      <trkpt lat="45.1156" lon="5.40019">
        <ele>1011.93</ele>
        <time>2019-11-30T10:41:32Z</time>
      </trkpt>
      <trkpt lat="45.1156" lon="5.40018">
        <ele>1011.93</ele>
        <time>2019-11-30T10:41:56Z</time>
      </trkpt>
      <trkpt lat="45.1156" lon="5.40019">
        <ele>1011.44</ele>
        <time>2019-11-30T10:42:20Z</time>
      </trkpt>
      <trkpt lat="45.1156" lon="5.40019">
        <ele>1011.93</ele>
        <time>2019-11-30T10:42:39Z</time>
      </trkpt>
      <trkpt lat="45.1156" lon="5.40019">
        <ele>1011.44</ele>
        <time>2019-11-30T10:42:57Z</time>
      </trkpt>
      <trkpt lat="45.11561" lon="5.40018">
        <ele>1011.44</ele>
        <time>2019-11-30T10:43:12Z</time>
      </trkpt>
      <trkpt lat="45.11559" lon="5.40018">
        <ele>1011.93</ele>
        <time>2019-11-30T10:43:29Z</time>
      </trkpt>
      <trkpt lat="45.11558" lon="5.40024">
        <ele>1012.41</ele>
        <time>2019-11-30T10:43:41Z</time>
      </trkpt>
      <trkpt lat="45.11558" lon="5.40026">
        <ele>1012.41</ele>
        <time>2019-11-30T10:43:44Z</time>
      </trkpt>
      <trkpt lat="45.11559" lon="5.40029">
        <ele>1012.41</ele>
        <time>2019-11-30T10:43:47Z</time>
      </trkpt>
      <trkpt lat="45.11559" lon="5.40032">
        <ele>1012.41</ele>
        <time>2019-11-30T10:43:49Z</time>
      </trkpt>
      <trkpt lat="45.1156" lon="5.40034">
        <ele>1012.89</ele>
        <time>2019-11-30T10:43:51Z</time>
      </trkpt>
      <trkpt lat="45.11563" lon="5.40049">
        <ele>1012.89</ele>
        <time>2019-11-30T10:44:02Z</time>
      </trkpt>
      <trkpt lat="45.11566" lon="5.40058">
        <ele>1013.85</ele>
        <time>2019-11-30T10:44:09Z</time>
      </trkpt>
      <trkpt lat="45.11567" lon="5.40074">
        <ele>1014.33</ele>
        <time>2019-11-30T10:44:19Z</time>
      </trkpt>
      <trkpt lat="45.11568" lon="5.40081">
        <ele>1013.85</ele>
        <time>2019-11-30T10:44:24Z</time>
      </trkpt>
      <trkpt lat="45.11573" lon="5.40097">
        <ele>1013.37</ele>
        <time>2019-11-30T10:44:34Z</time>
      </trkpt>
      <trkpt lat="45.11578" lon="5.4011">
        <ele>1012.89</ele>
        <time>2019-11-30T10:44:44Z</time>
      </trkpt>
      <trkpt lat="45.11579" lon="5.40111">
        <ele>1013.37</ele>
        <time>2019-11-30T10:44:45Z</time>
      </trkpt>
      <trkpt lat="45.11583" lon="5.40117">
        <ele>1012.41</ele>
        <time>2019-11-30T10:44:50Z</time>
      </trkpt>
      <trkpt lat="45.11594" lon="5.4013">
        <ele>1012.41</ele>
        <time>2019-11-30T10:45:00Z</time>
      </trkpt>
      <trkpt lat="45.11598" lon="5.40136">
        <ele>1011.93</ele>
        <time>2019-11-30T10:45:05Z</time>
      </trkpt>
      <trkpt lat="45.11603" lon="5.40144">
        <ele>1011.93</ele>
        <time>2019-11-30T10:45:10Z</time>
      </trkpt>
      <trkpt lat="45.11609" lon="5.40151">
        <ele>1011.44</ele>
        <time>2019-11-30T10:45:15Z</time>
      </trkpt>
      <trkpt lat="45.11618" lon="5.40167">
        <ele>1011.44</ele>
        <time>2019-11-30T10:45:26Z</time>
      </trkpt>
      <trkpt lat="45.11626" lon="5.40184">
        <ele>1011.93</ele>
        <time>2019-11-30T10:45:36Z</time>
      </trkpt>
      <trkpt lat="45.11632" lon="5.40195">
        <ele>1012.41</ele>
        <time>2019-11-30T10:45:43Z</time>
      </trkpt>
      <trkpt lat="45.1164" lon="5.40217">
        <ele>1011.93</ele>
        <time>2019-11-30T10:45:56Z</time>
      </trkpt>
      <trkpt lat="45.11646" lon="5.40226">
        <ele>1011.44</ele>
        <time>2019-11-30T10:46:03Z</time>
      </trkpt>
      <trkpt lat="45.11648" lon="5.4023">
        <ele>1011.44</ele>
        <time>2019-11-30T10:46:06Z</time>
      </trkpt>
      <trkpt lat="45.11655" lon="5.4025">
        <ele>1011.93</ele>
        <time>2019-11-30T10:46:18Z</time>
      </trkpt>
      <trkpt lat="45.11663" lon="5.40268">
        <ele>1011.93</ele>
        <time>2019-11-30T10:46:29Z</time>
      </trkpt>
      <trkpt lat="45.11663" lon="5.40283">
        <ele>1011.93</ele>
        <time>2019-11-30T10:46:38Z</time>
      </trkpt>
      <trkpt lat="45.11661" lon="5.4029">
        <ele>1012.41</ele>
        <time>2019-11-30T10:46:43Z</time>
      </trkpt>
      <trkpt lat="45.11656" lon="5.40299">
        <ele>1012.41</ele>
        <time>2019-11-30T10:46:51Z</time>
      </trkpt>
      <trkpt lat="45.11648" lon="5.40315">
        <ele>1013.37</ele>
        <time>2019-11-30T10:47:03Z</time>
      </trkpt>
      <trkpt lat="45.11642" lon="5.40324">
        <ele>1013.85</ele>
        <time>2019-11-30T10:47:13Z</time>
      </trkpt>
      <trkpt lat="45.11643" lon="5.40326">
        <ele>1015.29</ele>
        <time>2019-11-30T10:47:24Z</time>
      </trkpt>
      <trkpt lat="45.11635" lon="5.40334">
        <ele>1014.81</ele>
        <time>2019-11-30T10:47:34Z</time>
      </trkpt>
      <trkpt lat="45.1163" lon="5.40342">
        <ele>1015.29</ele>
        <time>2019-11-30T10:47:41Z</time>
      </trkpt>
      <trkpt lat="45.11627" lon="5.40346">
        <ele>1015.77</ele>
        <time>2019-11-30T10:47:45Z</time>
      </trkpt>
      <trkpt lat="45.11625" lon="5.4035">
        <ele>1014.81</ele>
        <time>2019-11-30T10:47:56Z</time>
      </trkpt>
      <trkpt lat="45.11624" lon="5.40353">
        <ele>1015.29</ele>
        <time>2019-11-30T10:47:59Z</time>
      </trkpt>
      <trkpt lat="45.11624" lon="5.40367">
        <ele>1014.33</ele>
        <time>2019-11-30T10:48:10Z</time>
      </trkpt>
      <trkpt lat="45.11626" lon="5.40387">
        <ele>1014.81</ele>
        <time>2019-11-30T10:48:21Z</time>
      </trkpt>
      <trkpt lat="45.11622" lon="5.40398">
        <ele>1014.33</ele>
        <time>2019-11-30T10:48:31Z</time>
      </trkpt>
      <trkpt lat="45.11615" lon="5.40401">
        <ele>1013.85</ele>
        <time>2019-11-30T10:48:40Z</time>
      </trkpt>
      <trkpt lat="45.11614" lon="5.40402">
        <ele>1014.33</ele>
        <time>2019-11-30T10:48:41Z</time>
      </trkpt>
      <trkpt lat="45.11609" lon="5.40404">
        <ele>1013.85</ele>
        <time>2019-11-30T10:48:48Z</time>
      </trkpt>
      <trkpt lat="45.11618" lon="5.4042">
        <ele>1013.85</ele>
        <time>2019-11-30T10:49:00Z</time>
      </trkpt>
      <trkpt lat="45.11622" lon="5.40426">
        <ele>1013.85</ele>
        <time>2019-11-30T10:49:06Z</time>
      </trkpt>
      <trkpt lat="45.11627" lon="5.4044">
        <ele>1014.33</ele>
        <time>2019-11-30T10:49:18Z</time>
      </trkpt>
      <trkpt lat="45.1163" lon="5.40445">
        <ele>1014.81</ele>
        <time>2019-11-30T10:49:31Z</time>
      </trkpt>
      <trkpt lat="45.11631" lon="5.40448">
        <ele>1014.33</ele>
        <time>2019-11-30T10:49:36Z</time>
      </trkpt>
      <trkpt lat="45.11634" lon="5.40452">
        <ele>1013.85</ele>
        <time>2019-11-30T10:49:39Z</time>
      </trkpt>
      <trkpt lat="45.11643" lon="5.40468">
        <ele>1013.85</ele>
        <time>2019-11-30T10:49:50Z</time>
      </trkpt>
      <trkpt lat="45.1165" lon="5.40488">
        <ele>1013.37</ele>
        <time>2019-11-30T10:50:00Z</time>
      </trkpt>
      <trkpt lat="45.11651" lon="5.40494">
        <ele>1013.37</ele>
        <time>2019-11-30T10:50:04Z</time>
      </trkpt>
      <trkpt lat="45.1165" lon="5.40511">
        <ele>1013.37</ele>
        <time>2019-11-30T10:50:15Z</time>
      </trkpt>
      <trkpt lat="45.11649" lon="5.40512">
        <ele>1013.37</ele>
        <time>2019-11-30T10:50:28Z</time>
      </trkpt>
      <trkpt lat="45.11647" lon="5.40512">
        <ele>1012.41</ele>
        <time>2019-11-30T10:50:31Z</time>
      </trkpt>
      <trkpt lat="45.11638" lon="5.40513">
        <ele>1011.44</ele>
        <time>2019-11-30T10:50:41Z</time>
      </trkpt>
      <trkpt lat="45.11631" lon="5.40518">
        <ele>1009.52</ele>
        <time>2019-11-30T10:50:51Z</time>
      </trkpt>
      <trkpt lat="45.11625" lon="5.40525">
        <ele>1008.08</ele>
        <time>2019-11-30T10:51:00Z</time>
      </trkpt>
      <trkpt lat="45.11623" lon="5.40527">
        <ele>1006.64</ele>
        <time>2019-11-30T10:51:03Z</time>
      </trkpt>
      <trkpt lat="45.11621" lon="5.40529">
        <ele>1006.64</ele>
        <time>2019-11-30T10:51:05Z</time>
      </trkpt>
      <trkpt lat="45.11612" lon="5.40537">
        <ele>1005.2</ele>
        <time>2019-11-30T10:51:13Z</time>
      </trkpt>
      <trkpt lat="45.11608" lon="5.40539">
        <ele>1005.2</ele>
        <time>2019-11-30T10:51:17Z</time>
      </trkpt>
      <trkpt lat="45.11602" lon="5.40543">
        <ele>1005.2</ele>
        <time>2019-11-30T10:51:22Z</time>
      </trkpt>
      <trkpt lat="45.1159" lon="5.40551">
        <ele>1003.27</ele>
        <time>2019-11-30T10:51:34Z</time>
      </trkpt>
      <trkpt lat="45.11581" lon="5.4056">
        <ele>1001.83</ele>
        <time>2019-11-30T10:51:44Z</time>
      </trkpt>
      <trkpt lat="45.11568" lon="5.4057">
        <ele>1000.87</ele>
        <time>2019-11-30T10:51:55Z</time>
      </trkpt>
      <trkpt lat="45.11563" lon="5.40574">
        <ele>1000.87</ele>
        <time>2019-11-30T10:52:00Z</time>
      </trkpt>
      <trkpt lat="45.11548" lon="5.40585">
        <ele>999.43</ele>
        <time>2019-11-30T10:52:13Z</time>
      </trkpt>
      <trkpt lat="45.11537" lon="5.40589">
        <ele>998.47</ele>
        <time>2019-11-30T10:52:24Z</time>
      </trkpt>
      <trkpt lat="45.11527" lon="5.40598">
        <ele>998.47</ele>
        <time>2019-11-30T10:52:36Z</time>
      </trkpt>
      <trkpt lat="45.11511" lon="5.40609">
        <ele>998.95</ele>
        <time>2019-11-30T10:52:50Z</time>
      </trkpt>
      <trkpt lat="45.11502" lon="5.40612">
        <ele>999.91</ele>
        <time>2019-11-30T10:53:01Z</time>
      </trkpt>
      <trkpt lat="45.11488" lon="5.40613">
        <ele>999.91</ele>
        <time>2019-11-30T10:53:14Z</time>
      </trkpt>
      <trkpt lat="45.11476" lon="5.40615">
        <ele>999.91</ele>
        <time>2019-11-30T10:53:26Z</time>
      </trkpt>
      <trkpt lat="45.11461" lon="5.40617">
        <ele>999.43</ele>
        <time>2019-11-30T10:53:40Z</time>
      </trkpt>
      <trkpt lat="45.1145" lon="5.40619">
        <ele>998.95</ele>
        <time>2019-11-30T10:53:50Z</time>
      </trkpt>
      <trkpt lat="45.11445" lon="5.4062">
        <ele>999.43</ele>
        <time>2019-11-30T10:53:53Z</time>
      </trkpt>
      <trkpt lat="45.11429" lon="5.40622">
        <ele>999.91</ele>
        <time>2019-11-30T10:54:06Z</time>
      </trkpt>
      <trkpt lat="45.11419" lon="5.40621">
        <ele>1000.87</ele>
        <time>2019-11-30T10:54:17Z</time>
      </trkpt>
      <trkpt lat="45.11409" lon="5.40623">
        <ele>1000.87</ele>
        <time>2019-11-30T10:54:28Z</time>
      </trkpt>
      <trkpt lat="45.11404" lon="5.40623">
        <ele>1000.87</ele>
        <time>2019-11-30T10:54:32Z</time>
      </trkpt>
      <trkpt lat="45.11394" lon="5.40625">
        <ele>1000.87</ele>
        <time>2019-11-30T10:54:43Z</time>
      </trkpt>
      <trkpt lat="45.11382" lon="5.40632">
        <ele>999.43</ele>
        <time>2019-11-30T10:54:54Z</time>
      </trkpt>
      <trkpt lat="45.11372" lon="5.40638">
        <ele>1000.39</ele>
        <time>2019-11-30T10:55:05Z</time>
      </trkpt>
      <trkpt lat="45.11364" lon="5.40643">
        <ele>1001.83</ele>
        <time>2019-11-30T10:55:17Z</time>
      </trkpt>
      <trkpt lat="45.11357" lon="5.40646">
        <ele>1003.27</ele>
        <time>2019-11-30T10:55:27Z</time>
      </trkpt>
      <trkpt lat="45.11349" lon="5.40648">
        <ele>1004.72</ele>
        <time>2019-11-30T10:55:36Z</time>
      </trkpt>
      <trkpt lat="45.11346" lon="5.40648">
        <ele>1006.16</ele>
        <time>2019-11-30T10:55:39Z</time>
      </trkpt>
      <trkpt lat="45.11337" lon="5.4065">
        <ele>1007.12</ele>
        <time>2019-11-30T10:55:47Z</time>
      </trkpt>
      <trkpt lat="45.11337" lon="5.40652">
        <ele>1008.08</ele>
        <time>2019-11-30T10:55:50Z</time>
      </trkpt>
      <trkpt lat="45.11331" lon="5.40654">
        <ele>1010</ele>
        <time>2019-11-30T10:56:01Z</time>
      </trkpt>
      <trkpt lat="45.1132" lon="5.40663">
        <ele>1011.93</ele>
        <time>2019-11-30T10:56:11Z</time>
      </trkpt>
      <trkpt lat="45.11306" lon="5.40668">
        <ele>1012.89</ele>
        <time>2019-11-30T10:56:21Z</time>
      </trkpt>
      <trkpt lat="45.11292" lon="5.40677">
        <ele>1012.89</ele>
        <time>2019-11-30T10:56:28Z</time>
      </trkpt>
      <trkpt lat="45.11279" lon="5.40688">
        <ele>1012.89</ele>
        <time>2019-11-30T10:56:39Z</time>
      </trkpt>
      <trkpt lat="45.11275" lon="5.40693">
        <ele>1012.89</ele>
        <time>2019-11-30T10:56:43Z</time>
      </trkpt>
      <trkpt lat="45.11273" lon="5.40695">
        <ele>1013.37</ele>
        <time>2019-11-30T10:56:45Z</time>
      </trkpt>
      <trkpt lat="45.11264" lon="5.40699">
        <ele>1013.85</ele>
        <time>2019-11-30T10:56:55Z</time>
      </trkpt>
      <trkpt lat="45.1126" lon="5.40706">
        <ele>1015.29</ele>
        <time>2019-11-30T10:57:05Z</time>
      </trkpt>
      <trkpt lat="45.11251" lon="5.40709">
        <ele>1016.25</ele>
        <time>2019-11-30T10:57:15Z</time>
      </trkpt>
      <trkpt lat="45.1124" lon="5.40711">
        <ele>1016.73</ele>
        <time>2019-11-30T10:57:26Z</time>
      </trkpt>
      <trkpt lat="45.11234" lon="5.4071">
        <ele>1017.21</ele>
        <time>2019-11-30T10:57:35Z</time>
      </trkpt>
      <trkpt lat="45.11228" lon="5.40707">
        <ele>1017.21</ele>
        <time>2019-11-30T10:57:44Z</time>
      </trkpt>
      <trkpt lat="45.11219" lon="5.40705">
        <ele>1018.17</ele>
        <time>2019-11-30T10:57:54Z</time>
      </trkpt>
      <trkpt lat="45.11209" lon="5.40705">
        <ele>1018.65</ele>
        <time>2019-11-30T10:58:05Z</time>
      </trkpt>
      <trkpt lat="45.11195" lon="5.40703">
        <ele>1020.58</ele>
        <time>2019-11-30T10:58:17Z</time>
      </trkpt>
      <trkpt lat="45.11185" lon="5.40701">
        <ele>1021.54</ele>
        <time>2019-11-30T10:58:26Z</time>
      </trkpt>
      <trkpt lat="45.11171" lon="5.40702">
        <ele>1023.46</ele>
        <time>2019-11-30T10:58:37Z</time>
      </trkpt>
      <trkpt lat="45.1116" lon="5.40701">
        <ele>1024.42</ele>
        <time>2019-11-30T10:58:47Z</time>
      </trkpt>
      <trkpt lat="45.11153" lon="5.40701">
        <ele>1023.94</ele>
        <time>2019-11-30T10:58:56Z</time>
      </trkpt>
      <trkpt lat="45.11147" lon="5.40699">
        <ele>1025.38</ele>
        <time>2019-11-30T10:59:04Z</time>
      </trkpt>
      <trkpt lat="45.1114" lon="5.40696">
        <ele>1024.9</ele>
        <time>2019-11-30T10:59:09Z</time>
      </trkpt>
      <trkpt lat="45.11137" lon="5.40695">
        <ele>1024.9</ele>
        <time>2019-11-30T10:59:11Z</time>
      </trkpt>
      <trkpt lat="45.11127" lon="5.40692">
        <ele>1024.9</ele>
        <time>2019-11-30T10:59:19Z</time>
      </trkpt>
      <trkpt lat="45.1112" lon="5.40691">
        <ele>1024.9</ele>
        <time>2019-11-30T10:59:25Z</time>
      </trkpt>
      <trkpt lat="45.11117" lon="5.40692">
        <ele>1025.38</ele>
        <time>2019-11-30T10:59:27Z</time>
      </trkpt>
      <trkpt lat="45.11114" lon="5.40692">
        <ele>1025.38</ele>
        <time>2019-11-30T10:59:29Z</time>
      </trkpt>
      <trkpt lat="45.11109" lon="5.40689">
        <ele>1025.38</ele>
        <time>2019-11-30T10:59:33Z</time>
      </trkpt>
      <trkpt lat="45.11092" lon="5.4069">
        <ele>1025.86</ele>
        <time>2019-11-30T10:59:43Z</time>
      </trkpt>
      <trkpt lat="45.1109" lon="5.4069">
        <ele>1025.38</ele>
        <time>2019-11-30T10:59:45Z</time>
      </trkpt>
      <trkpt lat="45.11084" lon="5.4069">
        <ele>1025.38</ele>
        <time>2019-11-30T10:59:49Z</time>
      </trkpt>
      <trkpt lat="45.11069" lon="5.40692">
        <ele>1026.83</ele>
        <time>2019-11-30T11:00:00Z</time>
      </trkpt>
      <trkpt lat="45.11067" lon="5.40693">
        <ele>1027.31</ele>
        <time>2019-11-30T11:00:02Z</time>
      </trkpt>
      <trkpt lat="45.1106" lon="5.40695">
        <ele>1027.31</ele>
        <time>2019-11-30T11:00:08Z</time>
      </trkpt>
      <trkpt lat="45.1105" lon="5.40698">
        <ele>1028.27</ele>
        <time>2019-11-30T11:00:17Z</time>
      </trkpt>
      <trkpt lat="45.1104" lon="5.40702">
        <ele>1029.23</ele>
        <time>2019-11-30T11:00:28Z</time>
      </trkpt>
      <trkpt lat="45.11032" lon="5.40704">
        <ele>1030.67</ele>
        <time>2019-11-30T11:00:37Z</time>
      </trkpt>
      <trkpt lat="45.11028" lon="5.40702">
        <ele>1030.67</ele>
        <time>2019-11-30T11:00:42Z</time>
      </trkpt>
      <trkpt lat="45.11018" lon="5.40704">
        <ele>1031.15</ele>
        <time>2019-11-30T11:00:50Z</time>
      </trkpt>
      <trkpt lat="45.11014" lon="5.40707">
        <ele>1031.63</ele>
        <time>2019-11-30T11:00:56Z</time>
      </trkpt>
      <trkpt lat="45.11002" lon="5.40706">
        <ele>1032.59</ele>
        <time>2019-11-30T11:01:08Z</time>
      </trkpt>
      <trkpt lat="45.10995" lon="5.40705">
        <ele>1034.04</ele>
        <time>2019-11-30T11:01:16Z</time>
      </trkpt>
      <trkpt lat="45.10989" lon="5.40702">
        <ele>1034.52</ele>
        <time>2019-11-30T11:01:23Z</time>
      </trkpt>
      <trkpt lat="45.1098" lon="5.407">
        <ele>1035</ele>
        <time>2019-11-30T11:01:33Z</time>
      </trkpt>
      <trkpt lat="45.10975" lon="5.40698">
        <ele>1035.48</ele>
        <time>2019-11-30T11:01:38Z</time>
      </trkpt>
      <trkpt lat="45.10961" lon="5.407">
        <ele>1036.44</ele>
        <time>2019-11-30T11:01:47Z</time>
      </trkpt>
      <trkpt lat="45.10952" lon="5.40703">
        <ele>1037.4</ele>
        <time>2019-11-30T11:01:55Z</time>
      </trkpt>
      <trkpt lat="45.10943" lon="5.40703">
        <ele>1037.88</ele>
        <time>2019-11-30T11:02:02Z</time>
      </trkpt>
      <trkpt lat="45.10936" lon="5.40701">
        <ele>1038.84</ele>
        <time>2019-11-30T11:02:12Z</time>
      </trkpt>
      <trkpt lat="45.10928" lon="5.40698">
        <ele>1040.28</ele>
        <time>2019-11-30T11:02:17Z</time>
      </trkpt>
      <trkpt lat="45.10925" lon="5.40697">
        <ele>1040.76</ele>
        <time>2019-11-30T11:02:20Z</time>
      </trkpt>
      <trkpt lat="45.10918" lon="5.407">
        <ele>1041.73</ele>
        <time>2019-11-30T11:02:28Z</time>
      </trkpt>
      <trkpt lat="45.10905" lon="5.40701">
        <ele>1043.65</ele>
        <time>2019-11-30T11:02:38Z</time>
      </trkpt>
      <trkpt lat="45.10901" lon="5.40701">
        <ele>1044.61</ele>
        <time>2019-11-30T11:02:47Z</time>
      </trkpt>
      <trkpt lat="45.10894" lon="5.40698">
        <ele>1045.09</ele>
        <time>2019-11-30T11:02:55Z</time>
      </trkpt>
      <trkpt lat="45.10892" lon="5.40698">
        <ele>1045.09</ele>
        <time>2019-11-30T11:02:58Z</time>
      </trkpt>
      <trkpt lat="45.10882" lon="5.40699">
        <ele>1045.09</ele>
        <time>2019-11-30T11:03:08Z</time>
      </trkpt>
      <trkpt lat="45.10854" lon="5.4071">
        <ele>1045.57</ele>
        <time>2019-11-30T11:03:17Z</time>
      </trkpt>
      <trkpt lat="45.10846" lon="5.40708">
        <ele>1046.05</ele>
        <time>2019-11-30T11:03:24Z</time>
      </trkpt>
      <trkpt lat="45.10845" lon="5.40707">
        <ele>1045.57</ele>
        <time>2019-11-30T11:03:26Z</time>
      </trkpt>
      <trkpt lat="45.10841" lon="5.40705">
        <ele>1045.57</ele>
        <time>2019-11-30T11:03:30Z</time>
      </trkpt>
      <trkpt lat="45.10839" lon="5.40706">
        <ele>1045.57</ele>
        <time>2019-11-30T11:03:32Z</time>
      </trkpt>
      <trkpt lat="45.10835" lon="5.40704">
        <ele>1045.57</ele>
        <time>2019-11-30T11:03:37Z</time>
      </trkpt>
      <trkpt lat="45.10832" lon="5.40702">
        <ele>1045.57</ele>
        <time>2019-11-30T11:03:40Z</time>
      </trkpt>
      <trkpt lat="45.10824" lon="5.40697">
        <ele>1045.09</ele>
        <time>2019-11-30T11:03:47Z</time>
      </trkpt>
      <trkpt lat="45.10811" lon="5.40696">
        <ele>1046.53</ele>
        <time>2019-11-30T11:03:57Z</time>
      </trkpt>
      <trkpt lat="45.10802" lon="5.407">
        <ele>1048.45</ele>
        <time>2019-11-30T11:04:08Z</time>
      </trkpt>
      <trkpt lat="45.10793" lon="5.40705">
        <ele>1049.42</ele>
        <time>2019-11-30T11:04:17Z</time>
      </trkpt>
      <trkpt lat="45.10787" lon="5.40711">
        <ele>1051.34</ele>
        <time>2019-11-30T11:04:26Z</time>
      </trkpt>
      <trkpt lat="45.10782" lon="5.40718">
        <ele>1052.3</ele>
        <time>2019-11-30T11:04:36Z</time>
      </trkpt>
      <trkpt lat="45.10778" lon="5.40722">
        <ele>1054.22</ele>
        <time>2019-11-30T11:04:45Z</time>
      </trkpt>
      <trkpt lat="45.10773" lon="5.40727">
        <ele>1055.18</ele>
        <time>2019-11-30T11:04:54Z</time>
      </trkpt>
      <trkpt lat="45.10771" lon="5.40731">
        <ele>1056.15</ele>
        <time>2019-11-30T11:04:59Z</time>
      </trkpt>
      <trkpt lat="45.10768" lon="5.40735">
        <ele>1056.63</ele>
        <time>2019-11-30T11:05:03Z</time>
      </trkpt>
      <trkpt lat="45.10761" lon="5.4074">
        <ele>1058.07</ele>
        <time>2019-11-30T11:05:14Z</time>
      </trkpt>
      <trkpt lat="45.10755" lon="5.40741">
        <ele>1059.03</ele>
        <time>2019-11-30T11:05:23Z</time>
      </trkpt>
      <trkpt lat="45.10752" lon="5.40743">
        <ele>1059.51</ele>
        <time>2019-11-30T11:05:28Z</time>
      </trkpt>
      <trkpt lat="45.10746" lon="5.40745">
        <ele>1060.47</ele>
        <time>2019-11-30T11:05:36Z</time>
      </trkpt>
      <trkpt lat="45.10739" lon="5.40747">
        <ele>1059.51</ele>
        <time>2019-11-30T11:05:44Z</time>
      </trkpt>
      <trkpt lat="45.10737" lon="5.40748">
        <ele>1059.51</ele>
        <time>2019-11-30T11:05:50Z</time>
      </trkpt>
      <trkpt lat="45.10731" lon="5.40747">
        <ele>1061.43</ele>
        <time>2019-11-30T11:05:59Z</time>
      </trkpt>
      <trkpt lat="45.10721" lon="5.40747">
        <ele>1061.43</ele>
        <time>2019-11-30T11:06:05Z</time>
      </trkpt>
      <trkpt lat="45.10716" lon="5.40749">
        <ele>1061.91</ele>
        <time>2019-11-30T11:06:09Z</time>
      </trkpt>
      <trkpt lat="45.1071" lon="5.40747">
        <ele>1061.43</ele>
        <time>2019-11-30T11:06:14Z</time>
      </trkpt>
      <trkpt lat="45.10699" lon="5.40743">
        <ele>1062.87</ele>
        <time>2019-11-30T11:06:24Z</time>
      </trkpt>
      <trkpt lat="45.10692" lon="5.40737">
        <ele>1062.39</ele>
        <time>2019-11-30T11:06:32Z</time>
      </trkpt>
      <trkpt lat="45.1069" lon="5.40736">
        <ele>1062.87</ele>
        <time>2019-11-30T11:06:34Z</time>
      </trkpt>
      <trkpt lat="45.10684" lon="5.4073">
        <ele>1062.87</ele>
        <time>2019-11-30T11:06:44Z</time>
      </trkpt>
      <trkpt lat="45.10683" lon="5.40729">
        <ele>1063.84</ele>
        <time>2019-11-30T11:06:45Z</time>
      </trkpt>
      <trkpt lat="45.10676" lon="5.40722">
        <ele>1063.84</ele>
        <time>2019-11-30T11:06:55Z</time>
      </trkpt>
      <trkpt lat="45.10668" lon="5.40714">
        <ele>1066.24</ele>
        <time>2019-11-30T11:07:06Z</time>
      </trkpt>
      <trkpt lat="45.10661" lon="5.40707">
        <ele>1068.16</ele>
        <time>2019-11-30T11:07:16Z</time>
      </trkpt>
      <trkpt lat="45.10658" lon="5.40704">
        <ele>1067.68</ele>
        <time>2019-11-30T11:07:19Z</time>
      </trkpt>
      <trkpt lat="45.1065" lon="5.40702">
        <ele>1070.08</ele>
        <time>2019-11-30T11:07:29Z</time>
      </trkpt>
      <trkpt lat="45.10647" lon="5.40702">
        <ele>1071.05</ele>
        <time>2019-11-30T11:07:37Z</time>
      </trkpt>
      <trkpt lat="45.1064" lon="5.40702">
        <ele>1072.49</ele>
        <time>2019-11-30T11:07:46Z</time>
      </trkpt>
      <trkpt lat="45.10638" lon="5.40702">
        <ele>1073.93</ele>
        <time>2019-11-30T11:07:53Z</time>
      </trkpt>
      <trkpt lat="45.10635" lon="5.40703">
        <ele>1074.41</ele>
        <time>2019-11-30T11:08:00Z</time>
      </trkpt>
      <trkpt lat="45.10633" lon="5.40702">
        <ele>1074.89</ele>
        <time>2019-11-30T11:08:01Z</time>
      </trkpt>
      <trkpt lat="45.10626" lon="5.407">
        <ele>1075.85</ele>
        <time>2019-11-30T11:08:11Z</time>
      </trkpt>
      <trkpt lat="45.10624" lon="5.40699">
        <ele>1076.33</ele>
        <time>2019-11-30T11:08:15Z</time>
      </trkpt>
      <trkpt lat="45.10618" lon="5.40695">
        <ele>1077.78</ele>
        <time>2019-11-30T11:08:23Z</time>
      </trkpt>
      <trkpt lat="45.10614" lon="5.40694">
        <ele>1078.74</ele>
        <time>2019-11-30T11:08:31Z</time>
      </trkpt>
      <trkpt lat="45.10609" lon="5.40688">
        <ele>1078.74</ele>
        <time>2019-11-30T11:08:43Z</time>
      </trkpt>
      <trkpt lat="45.10604" lon="5.40686">
        <ele>1079.22</ele>
        <time>2019-11-30T11:08:59Z</time>
      </trkpt>
      <trkpt lat="45.10596" lon="5.40683">
        <ele>1080.66</ele>
        <time>2019-11-30T11:09:08Z</time>
      </trkpt>
      <trkpt lat="45.10589" lon="5.40683">
        <ele>1080.66</ele>
        <time>2019-11-30T11:09:15Z</time>
      </trkpt>
      <trkpt lat="45.10581" lon="5.40681">
        <ele>1082.58</ele>
        <time>2019-11-30T11:09:24Z</time>
      </trkpt>
      <trkpt lat="45.10571" lon="5.40682">
        <ele>1084.5</ele>
        <time>2019-11-30T11:09:34Z</time>
      </trkpt>
      <trkpt lat="45.10566" lon="5.40682">
        <ele>1084.99</ele>
        <time>2019-11-30T11:09:42Z</time>
      </trkpt>
      <trkpt lat="45.10562" lon="5.40683">
        <ele>1086.91</ele>
        <time>2019-11-30T11:09:48Z</time>
      </trkpt>
      <trkpt lat="45.10552" lon="5.40688">
        <ele>1087.87</ele>
        <time>2019-11-30T11:09:58Z</time>
      </trkpt>
      <trkpt lat="45.10542" lon="5.40698">
        <ele>1089.31</ele>
        <time>2019-11-30T11:10:07Z</time>
      </trkpt>
      <trkpt lat="45.10538" lon="5.40705">
        <ele>1091.23</ele>
        <time>2019-11-30T11:10:16Z</time>
      </trkpt>
      <trkpt lat="45.10539" lon="5.40709">
        <ele>1092.2</ele>
        <time>2019-11-30T11:10:26Z</time>
      </trkpt>
      <trkpt lat="45.10539" lon="5.40713">
        <ele>1093.64</ele>
        <time>2019-11-30T11:10:34Z</time>
      </trkpt>
      <trkpt lat="45.10539" lon="5.40715">
        <ele>1093.64</ele>
        <time>2019-11-30T11:10:38Z</time>
      </trkpt>
      <trkpt lat="45.10543" lon="5.40732">
        <ele>1095.56</ele>
        <time>2019-11-30T11:10:47Z</time>
      </trkpt>
      <trkpt lat="45.10545" lon="5.40734">
        <ele>1096.52</ele>
        <time>2019-11-30T11:10:57Z</time>
      </trkpt>
      <trkpt lat="45.10546" lon="5.40735">
        <ele>1096.04</ele>
        <time>2019-11-30T11:11:05Z</time>
      </trkpt>
      <trkpt lat="45.10549" lon="5.40738">
        <ele>1094.6</ele>
        <time>2019-11-30T11:11:15Z</time>
      </trkpt>
      <trkpt lat="45.10551" lon="5.4074">
        <ele>1093.64</ele>
        <time>2019-11-30T11:11:26Z</time>
      </trkpt>
      <trkpt lat="45.10554" lon="5.40741">
        <ele>1094.12</ele>
        <time>2019-11-30T11:11:32Z</time>
      </trkpt>
      <trkpt lat="45.10558" lon="5.40746">
        <ele>1095.56</ele>
        <time>2019-11-30T11:11:38Z</time>
      </trkpt>
      <trkpt lat="45.10564" lon="5.40752">
        <ele>1096.04</ele>
        <time>2019-11-30T11:11:45Z</time>
      </trkpt>
      <trkpt lat="45.10568" lon="5.40758">
        <ele>1097</ele>
        <time>2019-11-30T11:11:50Z</time>
      </trkpt>
      <trkpt lat="45.10572" lon="5.40763">
        <ele>1097.48</ele>
        <time>2019-11-30T11:11:55Z</time>
      </trkpt>
      <trkpt lat="45.10573" lon="5.40767">
        <ele>1098.44</ele>
        <time>2019-11-30T11:11:57Z</time>
      </trkpt>
      <trkpt lat="45.10579" lon="5.40777">
        <ele>1098.44</ele>
        <time>2019-11-30T11:12:05Z</time>
      </trkpt>
      <trkpt lat="45.10583" lon="5.40785">
        <ele>1099.4</ele>
        <time>2019-11-30T11:12:13Z</time>
      </trkpt>
      <trkpt lat="45.10587" lon="5.40792">
        <ele>1099.4</ele>
        <time>2019-11-30T11:12:23Z</time>
      </trkpt>
      <trkpt lat="45.1059" lon="5.40806">
        <ele>1099.89</ele>
        <time>2019-11-30T11:12:33Z</time>
      </trkpt>
      <trkpt lat="45.10586" lon="5.40811">
        <ele>1100.37</ele>
        <time>2019-11-30T11:12:45Z</time>
      </trkpt>
      <trkpt lat="45.10581" lon="5.40815">
        <ele>1101.33</ele>
        <time>2019-11-30T11:12:55Z</time>
      </trkpt>
      <trkpt lat="45.10578" lon="5.40815">
        <ele>1100.37</ele>
        <time>2019-11-30T11:13:13Z</time>
      </trkpt>
      <trkpt lat="45.10578" lon="5.40816">
        <ele>1101.33</ele>
        <time>2019-11-30T11:13:32Z</time>
      </trkpt>
      <trkpt lat="45.10578" lon="5.40817">
        <ele>1099.4</ele>
        <time>2019-11-30T11:13:49Z</time>
      </trkpt>
      <trkpt lat="45.10578" lon="5.40821">
        <ele>1099.89</ele>
        <time>2019-11-30T11:14:12Z</time>
      </trkpt>
      <trkpt lat="45.10577" lon="5.40822">
        <ele>1099.89</ele>
        <time>2019-11-30T11:14:33Z</time>
      </trkpt>
      <trkpt lat="45.10576" lon="5.40822">
        <ele>1100.37</ele>
        <time>2019-11-30T11:14:53Z</time>
      </trkpt>
      <trkpt lat="45.10576" lon="5.40823">
        <ele>1099.89</ele>
        <time>2019-11-30T11:15:19Z</time>
      </trkpt>
      <trkpt lat="45.10575" lon="5.40822">
        <ele>1099.4</ele>
        <time>2019-11-30T11:15:42Z</time>
      </trkpt>
      <trkpt lat="45.10576" lon="5.40823">
        <ele>1099.89</ele>
        <time>2019-11-30T11:16:07Z</time>
      </trkpt>
      <trkpt lat="45.10575" lon="5.40823">
        <ele>1099.4</ele>
        <time>2019-11-30T11:16:32Z</time>
      </trkpt>
      <trkpt lat="45.10575" lon="5.40823">
        <ele>1099.4</ele>
        <time>2019-11-30T11:16:58Z</time>
      </trkpt>
      <trkpt lat="45.10576" lon="5.40823">
        <ele>1098.92</ele>
        <time>2019-11-30T11:17:26Z</time>
      </trkpt>
      <trkpt lat="45.10575" lon="5.40824">
        <ele>1098.92</ele>
        <time>2019-11-30T11:17:54Z</time>
      </trkpt>
      <trkpt lat="45.10577" lon="5.40825">
        <ele>1098.92</ele>
        <time>2019-11-30T11:18:21Z</time>
      </trkpt>
      <trkpt lat="45.10578" lon="5.40825">
        <ele>1099.4</ele>
        <time>2019-11-30T11:18:45Z</time>
      </trkpt>
      <trkpt lat="45.10577" lon="5.40823">
        <ele>1098.92</ele>
        <time>2019-11-30T11:19:10Z</time>
      </trkpt>
      <trkpt lat="45.10577" lon="5.40821">
        <ele>1099.4</ele>
        <time>2019-11-30T11:19:40Z</time>
      </trkpt>
      <trkpt lat="45.10578" lon="5.40823">
        <ele>1098.92</ele>
        <time>2019-11-30T11:20:07Z</time>
      </trkpt>
      <trkpt lat="45.10578" lon="5.40823">
        <ele>1098.92</ele>
        <time>2019-11-30T11:20:33Z</time>
      </trkpt>
      <trkpt lat="45.10577" lon="5.40826">
        <ele>1098.44</ele>
        <time>2019-11-30T11:21:00Z</time>
      </trkpt>
      <trkpt lat="45.10577" lon="5.40826">
        <ele>1098.44</ele>
        <time>2019-11-30T11:21:29Z</time>
      </trkpt>
      <trkpt lat="45.10577" lon="5.40827">
        <ele>1098.44</ele>
        <time>2019-11-30T11:21:49Z</time>
      </trkpt>
      <trkpt lat="45.10577" lon="5.40826">
        <ele>1098.44</ele>
        <time>2019-11-30T11:22:15Z</time>
      </trkpt>
      <trkpt lat="45.10578" lon="5.40825">
        <ele>1098.92</ele>
        <time>2019-11-30T11:22:41Z</time>
      </trkpt>
      <trkpt lat="45.10578" lon="5.40825">
        <ele>1099.89</ele>
        <time>2019-11-30T11:23:00Z</time>
      </trkpt>
      <trkpt lat="45.10578" lon="5.40825">
        <ele>1099.4</ele>
        <time>2019-11-30T11:23:18Z</time>
      </trkpt>
      <trkpt lat="45.10578" lon="5.40825">
        <ele>1099.4</ele>
        <time>2019-11-30T11:23:42Z</time>
      </trkpt>
      <trkpt lat="45.1058" lon="5.40824">
        <ele>1098.92</ele>
        <time>2019-11-30T11:24:01Z</time>
      </trkpt>
      <trkpt lat="45.10583" lon="5.40823">
        <ele>1099.4</ele>
        <time>2019-11-30T11:24:12Z</time>
      </trkpt>
      <trkpt lat="45.10589" lon="5.40818">
        <ele>1098.92</ele>
        <time>2019-11-30T11:24:23Z</time>
      </trkpt>
      <trkpt lat="45.10593" lon="5.40817">
        <ele>1098.44</ele>
        <time>2019-11-30T11:24:39Z</time>
      </trkpt>
      <trkpt lat="45.10594" lon="5.40816">
        <ele>1098.92</ele>
        <time>2019-11-30T11:24:56Z</time>
      </trkpt>
      <trkpt lat="45.10593" lon="5.40816">
        <ele>1098.92</ele>
        <time>2019-11-30T11:25:07Z</time>
      </trkpt>
      <trkpt lat="45.10594" lon="5.40817">
        <ele>1097.96</ele>
        <time>2019-11-30T11:25:21Z</time>
      </trkpt>
      <trkpt lat="45.10594" lon="5.40817">
        <ele>1097.48</ele>
        <time>2019-11-30T11:25:47Z</time>
      </trkpt>
      <trkpt lat="45.10593" lon="5.40818">
        <ele>1097.96</ele>
        <time>2019-11-30T11:26:09Z</time>
      </trkpt>
      <trkpt lat="45.10594" lon="5.40817">
        <ele>1097.48</ele>
        <time>2019-11-30T11:26:34Z</time>
      </trkpt>
      <trkpt lat="45.10595" lon="5.40817">
        <ele>1097</ele>
        <time>2019-11-30T11:26:54Z</time>
      </trkpt>
      <trkpt lat="45.10596" lon="5.40816">
        <ele>1097.48</ele>
        <time>2019-11-30T11:27:13Z</time>
      </trkpt>
      <trkpt lat="45.10596" lon="5.40817">
        <ele>1097.48</ele>
        <time>2019-11-30T11:27:27Z</time>
      </trkpt>
      <trkpt lat="45.10596" lon="5.40816">
        <ele>1097.48</ele>
        <time>2019-11-30T11:27:52Z</time>
      </trkpt>
      <trkpt lat="45.10598" lon="5.40816">
        <ele>1097</ele>
        <time>2019-11-30T11:28:20Z</time>
      </trkpt>
      <trkpt lat="45.10598" lon="5.40817">
        <ele>1097.96</ele>
        <time>2019-11-30T11:28:48Z</time>
      </trkpt>
      <trkpt lat="45.10598" lon="5.40818">
        <ele>1097.48</ele>
        <time>2019-11-30T11:29:10Z</time>
      </trkpt>
      <trkpt lat="45.10599" lon="5.40818">
        <ele>1097</ele>
        <time>2019-11-30T11:29:35Z</time>
      </trkpt>
      <trkpt lat="45.10599" lon="5.40818">
        <ele>1096.52</ele>
        <time>2019-11-30T11:29:57Z</time>
      </trkpt>
      <trkpt lat="45.10599" lon="5.40818">
        <ele>1097</ele>
        <time>2019-11-30T11:30:19Z</time>
      </trkpt>
      <trkpt lat="45.10599" lon="5.40818">
        <ele>1096.52</ele>
        <time>2019-11-30T11:30:45Z</time>
      </trkpt>
      <trkpt lat="45.10599" lon="5.40817">
        <ele>1096.52</ele>
        <time>2019-11-30T11:31:12Z</time>
      </trkpt>
      <trkpt lat="45.10598" lon="5.40816">
        <ele>1096.04</ele>
        <time>2019-11-30T11:31:37Z</time>
      </trkpt>
      <trkpt lat="45.10596" lon="5.40818">
        <ele>1096.04</ele>
        <time>2019-11-30T11:32:03Z</time>
      </trkpt>
      <trkpt lat="45.10596" lon="5.4082">
        <ele>1095.56</ele>
        <time>2019-11-30T11:32:29Z</time>
      </trkpt>
      <trkpt lat="45.10597" lon="5.4082">
        <ele>1095.56</ele>
        <time>2019-11-30T11:32:55Z</time>
      </trkpt>
      <trkpt lat="45.10597" lon="5.40821">
        <ele>1095.56</ele>
        <time>2019-11-30T11:33:21Z</time>
      </trkpt>
      <trkpt lat="45.10598" lon="5.40821">
        <ele>1095.56</ele>
        <time>2019-11-30T11:33:48Z</time>
      </trkpt>
      <trkpt lat="45.10598" lon="5.40819">
        <ele>1095.08</ele>
        <time>2019-11-30T11:34:12Z</time>
      </trkpt>
      <trkpt lat="45.10598" lon="5.4082">
        <ele>1095.08</ele>
        <time>2019-11-30T11:34:40Z</time>
      </trkpt>
      <trkpt lat="45.10596" lon="5.40823">
        <ele>1095.08</ele>
        <time>2019-11-30T11:35:08Z</time>
      </trkpt>
      <trkpt lat="45.10596" lon="5.40822">
        <ele>1095.08</ele>
        <time>2019-11-30T11:35:37Z</time>
      </trkpt>
      <trkpt lat="45.10595" lon="5.40819">
        <ele>1094.6</ele>
        <time>2019-11-30T11:36:06Z</time>
      </trkpt>
      <trkpt lat="45.10596" lon="5.40818">
        <ele>1094.12</ele>
        <time>2019-11-30T11:36:33Z</time>
      </trkpt>
      <trkpt lat="45.10596" lon="5.40819">
        <ele>1094.12</ele>
        <time>2019-11-30T11:36:58Z</time>
      </trkpt>
      <trkpt lat="45.10596" lon="5.40819">
        <ele>1094.12</ele>
        <time>2019-11-30T11:37:22Z</time>
      </trkpt>
      <trkpt lat="45.10597" lon="5.40819">
        <ele>1093.64</ele>
        <time>2019-11-30T11:37:50Z</time>
      </trkpt>
      <trkpt lat="45.10597" lon="5.40821">
        <ele>1093.64</ele>
        <time>2019-11-30T11:38:16Z</time>
      </trkpt>
      <trkpt lat="45.10598" lon="5.40821">
        <ele>1093.64</ele>
        <time>2019-11-30T11:38:45Z</time>
      </trkpt>
      <trkpt lat="45.10598" lon="5.40822">
        <ele>1092.68</ele>
        <time>2019-11-30T11:39:14Z</time>
      </trkpt>
      <trkpt lat="45.10597" lon="5.40821">
        <ele>1093.16</ele>
        <time>2019-11-30T11:39:42Z</time>
      </trkpt>
      <trkpt lat="45.10598" lon="5.4082">
        <ele>1093.16</ele>
        <time>2019-11-30T11:40:11Z</time>
      </trkpt>
      <trkpt lat="45.10598" lon="5.4082">
        <ele>1092.68</ele>
        <time>2019-11-30T11:40:36Z</time>
      </trkpt>
      <trkpt lat="45.10599" lon="5.4082">
        <ele>1092.68</ele>
        <time>2019-11-30T11:41:03Z</time>
      </trkpt>
      <trkpt lat="45.10598" lon="5.40819">
        <ele>1092.68</ele>
        <time>2019-11-30T11:41:27Z</time>
      </trkpt>
      <trkpt lat="45.10597" lon="5.4082">
        <ele>1092.2</ele>
        <time>2019-11-30T11:41:59Z</time>
      </trkpt>
      <trkpt lat="45.10597" lon="5.40819">
        <ele>1092.2</ele>
        <time>2019-11-30T11:42:28Z</time>
      </trkpt>
      <trkpt lat="45.10596" lon="5.40821">
        <ele>1092.2</ele>
        <time>2019-11-30T11:42:58Z</time>
      </trkpt>
      <trkpt lat="45.10597" lon="5.40821">
        <ele>1091.23</ele>
        <time>2019-11-30T11:43:31Z</time>
      </trkpt>
      <trkpt lat="45.10598" lon="5.40821">
        <ele>1091.71</ele>
        <time>2019-11-30T11:43:59Z</time>
      </trkpt>
      <trkpt lat="45.10597" lon="5.4082">
        <ele>1091.71</ele>
        <time>2019-11-30T11:44:30Z</time>
      </trkpt>
      <trkpt lat="45.10598" lon="5.40819">
        <ele>1091.71</ele>
        <time>2019-11-30T11:45:02Z</time>
      </trkpt>
      <trkpt lat="45.10598" lon="5.40818">
        <ele>1091.71</ele>
        <time>2019-11-30T11:45:33Z</time>
      </trkpt>
      <trkpt lat="45.10597" lon="5.40818">
        <ele>1091.71</ele>
        <time>2019-11-30T11:46:06Z</time>
      </trkpt>
      <trkpt lat="45.10596" lon="5.40818">
        <ele>1091.71</ele>
        <time>2019-11-30T11:46:37Z</time>
      </trkpt>
      <trkpt lat="45.10597" lon="5.40818">
        <ele>1091.71</ele>
        <time>2019-11-30T11:47:03Z</time>
      </trkpt>
      <trkpt lat="45.10597" lon="5.40817">
        <ele>1092.2</ele>
        <time>2019-11-30T11:47:27Z</time>
      </trkpt>
      <trkpt lat="45.10597" lon="5.40818">
        <ele>1091.71</ele>
        <time>2019-11-30T11:47:53Z</time>
      </trkpt>
      <trkpt lat="45.10597" lon="5.40819">
        <ele>1091.23</ele>
        <time>2019-11-30T11:48:20Z</time>
      </trkpt>
      <trkpt lat="45.10596" lon="5.40819">
        <ele>1091.71</ele>
        <time>2019-11-30T11:48:47Z</time>
      </trkpt>
      <trkpt lat="45.10595" lon="5.40818">
        <ele>1091.71</ele>
        <time>2019-11-30T11:49:17Z</time>
      </trkpt>
      <trkpt lat="45.10596" lon="5.40818">
        <ele>1091.71</ele>
        <time>2019-11-30T11:49:45Z</time>
      </trkpt>
      <trkpt lat="45.10596" lon="5.40819">
        <ele>1090.75</ele>
        <time>2019-11-30T11:50:11Z</time>
      </trkpt>
      <trkpt lat="45.10596" lon="5.40819">
        <ele>1091.23</ele>
        <time>2019-11-30T11:50:38Z</time>
      </trkpt>
      <trkpt lat="45.10597" lon="5.40819">
        <ele>1091.23</ele>
        <time>2019-11-30T11:51:04Z</time>
      </trkpt>
      <trkpt lat="45.10597" lon="5.40819">
        <ele>1091.23</ele>
        <time>2019-11-30T11:51:33Z</time>
      </trkpt>
      <trkpt lat="45.10596" lon="5.4082">
        <ele>1091.23</ele>
        <time>2019-11-30T11:51:59Z</time>
      </trkpt>
      <trkpt lat="45.10596" lon="5.4082">
        <ele>1091.23</ele>
        <time>2019-11-30T11:52:28Z</time>
      </trkpt>
      <trkpt lat="45.10597" lon="5.40819">
        <ele>1091.23</ele>
        <time>2019-11-30T11:52:54Z</time>
      </trkpt>
      <trkpt lat="45.10597" lon="5.4082">
        <ele>1091.23</ele>
        <time>2019-11-30T11:53:20Z</time>
      </trkpt>
      <trkpt lat="45.10597" lon="5.4082">
        <ele>1091.23</ele>
        <time>2019-11-30T11:53:43Z</time>
      </trkpt>
      <trkpt lat="45.10597" lon="5.4082">
        <ele>1092.2</ele>
        <time>2019-11-30T11:54:04Z</time>
      </trkpt>
      <trkpt lat="45.10597" lon="5.4082">
        <ele>1091.71</ele>
        <time>2019-11-30T11:54:29Z</time>
      </trkpt>
      <trkpt lat="45.10596" lon="5.40819">
        <ele>1092.2</ele>
        <time>2019-11-30T11:55:00Z</time>
      </trkpt>
      <trkpt lat="45.10596" lon="5.40819">
        <ele>1092.2</ele>
        <time>2019-11-30T11:55:27Z</time>
      </trkpt>
      <trkpt lat="45.10598" lon="5.40819">
        <ele>1092.2</ele>
        <time>2019-11-30T11:55:56Z</time>
      </trkpt>
      <trkpt lat="45.10599" lon="5.40818">
        <ele>1092.2</ele>
        <time>2019-11-30T11:56:22Z</time>
      </trkpt>
      <trkpt lat="45.10599" lon="5.40819">
        <ele>1092.2</ele>
        <time>2019-11-30T11:56:50Z</time>
      </trkpt>
      <trkpt lat="45.10599" lon="5.40818">
        <ele>1092.2</ele>
        <time>2019-11-30T11:57:19Z</time>
      </trkpt>
      <trkpt lat="45.10598" lon="5.40818">
        <ele>1091.71</ele>
        <time>2019-11-30T11:57:41Z</time>
      </trkpt>
      <trkpt lat="45.10598" lon="5.40817">
        <ele>1092.2</ele>
        <time>2019-11-30T11:58:09Z</time>
      </trkpt>
      <trkpt lat="45.10598" lon="5.40816">
        <ele>1092.2</ele>
        <time>2019-11-30T11:58:36Z</time>
      </trkpt>
      <trkpt lat="45.10599" lon="5.40817">
        <ele>1091.71</ele>
        <time>2019-11-30T11:59:04Z</time>
      </trkpt>
      <trkpt lat="45.10598" lon="5.40817">
        <ele>1092.2</ele>
        <time>2019-11-30T11:59:33Z</time>
      </trkpt>
      <trkpt lat="45.10598" lon="5.40818">
        <ele>1092.2</ele>
        <time>2019-11-30T12:00:02Z</time>
      </trkpt>
      <trkpt lat="45.10598" lon="5.40819">
        <ele>1092.2</ele>
        <time>2019-11-30T12:00:36Z</time>
      </trkpt>
      <trkpt lat="45.10597" lon="5.4082">
        <ele>1092.68</ele>
        <time>2019-11-30T12:01:07Z</time>
      </trkpt>
      <trkpt lat="45.10597" lon="5.40821">
        <ele>1092.68</ele>
        <time>2019-11-30T12:01:38Z</time>
      </trkpt>
      <trkpt lat="45.10598" lon="5.4082">
        <ele>1093.16</ele>
        <time>2019-11-30T12:02:07Z</time>
      </trkpt>
      <trkpt lat="45.10598" lon="5.40819">
        <ele>1092.2</ele>
        <time>2019-11-30T12:02:36Z</time>
      </trkpt>
      <trkpt lat="45.10598" lon="5.40819">
        <ele>1093.16</ele>
        <time>2019-11-30T12:03:05Z</time>
      </trkpt>
      <trkpt lat="45.10598" lon="5.40818">
        <ele>1093.16</ele>
        <time>2019-11-30T12:03:36Z</time>
      </trkpt>
      <trkpt lat="45.10599" lon="5.40819">
        <ele>1093.16</ele>
        <time>2019-11-30T12:04:00Z</time>
      </trkpt>
      <trkpt lat="45.106" lon="5.40818">
        <ele>1092.68</ele>
        <time>2019-11-30T12:04:24Z</time>
      </trkpt>
      <trkpt lat="45.106" lon="5.40817">
        <ele>1093.64</ele>
        <time>2019-11-30T12:04:49Z</time>
      </trkpt>
      <trkpt lat="45.106" lon="5.40817">
        <ele>1093.16</ele>
        <time>2019-11-30T12:05:03Z</time>
      </trkpt>
      <trkpt lat="45.10601" lon="5.40816">
        <ele>1094.6</ele>
        <time>2019-11-30T12:05:18Z</time>
      </trkpt>
      <trkpt lat="45.10602" lon="5.40815">
        <ele>1094.12</ele>
        <time>2019-11-30T12:05:38Z</time>
      </trkpt>
      <trkpt lat="45.10601" lon="5.40815">
        <ele>1094.12</ele>
        <time>2019-11-30T12:05:58Z</time>
      </trkpt>
      <trkpt lat="45.10601" lon="5.40815">
        <ele>1094.6</ele>
        <time>2019-11-30T12:06:16Z</time>
      </trkpt>
      <trkpt lat="45.10601" lon="5.40814">
        <ele>1094.6</ele>
        <time>2019-11-30T12:06:31Z</time>
      </trkpt>
      <trkpt lat="45.10601" lon="5.40808">
        <ele>1094.6</ele>
        <time>2019-11-30T12:06:41Z</time>
      </trkpt>
      <trkpt lat="45.10601" lon="5.40798">
        <ele>1094.12</ele>
        <time>2019-11-30T12:06:52Z</time>
      </trkpt>
      <trkpt lat="45.10593" lon="5.40786">
        <ele>1093.64</ele>
        <time>2019-11-30T12:07:02Z</time>
      </trkpt>
      <trkpt lat="45.1059" lon="5.40774">
        <ele>1093.16</ele>
        <time>2019-11-30T12:07:12Z</time>
      </trkpt>
      <trkpt lat="45.10586" lon="5.40764">
        <ele>1092.68</ele>
        <time>2019-11-30T12:07:21Z</time>
      </trkpt>
      <trkpt lat="45.10576" lon="5.40753">
        <ele>1091.23</ele>
        <time>2019-11-30T12:07:33Z</time>
      </trkpt>
      <trkpt lat="45.10572" lon="5.40748">
        <ele>1089.79</ele>
        <time>2019-11-30T12:07:41Z</time>
      </trkpt>
      <trkpt lat="45.10566" lon="5.40742">
        <ele>1087.39</ele>
        <time>2019-11-30T12:07:51Z</time>
      </trkpt>
      <trkpt lat="45.10558" lon="5.40734">
        <ele>1087.87</ele>
        <time>2019-11-30T12:08:00Z</time>
      </trkpt>
      <trkpt lat="45.10552" lon="5.40738">
        <ele>1089.31</ele>
        <time>2019-11-30T12:08:10Z</time>
      </trkpt>
      <trkpt lat="45.10548" lon="5.40738">
        <ele>1091.23</ele>
        <time>2019-11-30T12:08:19Z</time>
      </trkpt>
      <trkpt lat="45.10546" lon="5.40741">
        <ele>1092.2</ele>
        <time>2019-11-30T12:08:22Z</time>
      </trkpt>
      <trkpt lat="45.10543" lon="5.40747">
        <ele>1093.64</ele>
        <time>2019-11-30T12:08:31Z</time>
      </trkpt>
      <trkpt lat="45.10541" lon="5.40756">
        <ele>1096.04</ele>
        <time>2019-11-30T12:08:42Z</time>
      </trkpt>
      <trkpt lat="45.10536" lon="5.40767">
        <ele>1097.48</ele>
        <time>2019-11-30T12:08:53Z</time>
      </trkpt>
      <trkpt lat="45.10532" lon="5.40779">
        <ele>1099.89</ele>
        <time>2019-11-30T12:09:04Z</time>
      </trkpt>
      <trkpt lat="45.10528" lon="5.40787">
        <ele>1101.33</ele>
        <time>2019-11-30T12:09:14Z</time>
      </trkpt>
      <trkpt lat="45.10527" lon="5.40798">
        <ele>1102.77</ele>
        <time>2019-11-30T12:09:25Z</time>
      </trkpt>
      <trkpt lat="45.10527" lon="5.4081">
        <ele>1104.69</ele>
        <time>2019-11-30T12:09:35Z</time>
      </trkpt>
      <trkpt lat="45.10523" lon="5.40819">
        <ele>1105.65</ele>
        <time>2019-11-30T12:09:44Z</time>
      </trkpt>
      <trkpt lat="45.10517" lon="5.40826">
        <ele>1106.61</ele>
        <time>2019-11-30T12:09:53Z</time>
      </trkpt>
      <trkpt lat="45.10516" lon="5.40836">
        <ele>1108.54</ele>
        <time>2019-11-30T12:10:03Z</time>
      </trkpt>
      <trkpt lat="45.10515" lon="5.40847">
        <ele>1109.98</ele>
        <time>2019-11-30T12:10:13Z</time>
      </trkpt>
      <trkpt lat="45.10515" lon="5.40853">
        <ele>1110.94</ele>
        <time>2019-11-30T12:10:23Z</time>
      </trkpt>
      <trkpt lat="45.10514" lon="5.40863">
        <ele>1112.38</ele>
        <time>2019-11-30T12:10:33Z</time>
      </trkpt>
      <trkpt lat="45.10515" lon="5.40877">
        <ele>1114.79</ele>
        <time>2019-11-30T12:10:43Z</time>
      </trkpt>
      <trkpt lat="45.10516" lon="5.40886">
        <ele>1115.75</ele>
        <time>2019-11-30T12:10:52Z</time>
      </trkpt>
      <trkpt lat="45.10518" lon="5.40899">
        <ele>1117.67</ele>
        <time>2019-11-30T12:11:02Z</time>
      </trkpt>
      <trkpt lat="45.10518" lon="5.40907">
        <ele>1118.63</ele>
        <time>2019-11-30T12:11:11Z</time>
      </trkpt>
      <trkpt lat="45.10517" lon="5.40916">
        <ele>1120.07</ele>
        <time>2019-11-30T12:11:22Z</time>
      </trkpt>
      <trkpt lat="45.10517" lon="5.40921">
        <ele>1120.55</ele>
        <time>2019-11-30T12:11:36Z</time>
      </trkpt>
      <trkpt lat="45.10518" lon="5.40925">
        <ele>1120.55</ele>
        <time>2019-11-30T12:12:02Z</time>
      </trkpt>
      <trkpt lat="45.10518" lon="5.40938">
        <ele>1122.48</ele>
        <time>2019-11-30T12:12:14Z</time>
      </trkpt>
      <trkpt lat="45.1052" lon="5.40948">
        <ele>1123.92</ele>
        <time>2019-11-30T12:12:24Z</time>
      </trkpt>
      <trkpt lat="45.10522" lon="5.40957">
        <ele>1124.88</ele>
        <time>2019-11-30T12:12:33Z</time>
      </trkpt>
      <trkpt lat="45.10521" lon="5.40964">
        <ele>1125.84</ele>
        <time>2019-11-30T12:12:43Z</time>
      </trkpt>
      <trkpt lat="45.1052" lon="5.40971">
        <ele>1126.32</ele>
        <time>2019-11-30T12:12:49Z</time>
      </trkpt>
      <trkpt lat="45.10518" lon="5.40982">
        <ele>1127.28</ele>
        <time>2019-11-30T12:13:00Z</time>
      </trkpt>
      <trkpt lat="45.10517" lon="5.40996">
        <ele>1128.24</ele>
        <time>2019-11-30T12:13:11Z</time>
      </trkpt>
      <trkpt lat="45.10515" lon="5.41008">
        <ele>1128.24</ele>
        <time>2019-11-30T12:13:21Z</time>
      </trkpt>
      <trkpt lat="45.10514" lon="5.41016">
        <ele>1129.69</ele>
        <time>2019-11-30T12:13:31Z</time>
      </trkpt>
      <trkpt lat="45.10512" lon="5.41029">
        <ele>1130.17</ele>
        <time>2019-11-30T12:13:40Z</time>
      </trkpt>
      <trkpt lat="45.10509" lon="5.4104">
        <ele>1130.17</ele>
        <time>2019-11-30T12:13:50Z</time>
      </trkpt>
      <trkpt lat="45.10506" lon="5.41052">
        <ele>1131.13</ele>
        <time>2019-11-30T12:13:59Z</time>
      </trkpt>
      <trkpt lat="45.10503" lon="5.41069">
        <ele>1132.09</ele>
        <time>2019-11-30T12:14:10Z</time>
      </trkpt>
      <trkpt lat="45.10503" lon="5.41073">
        <ele>1132.09</ele>
        <time>2019-11-30T12:14:13Z</time>
      </trkpt>
      <trkpt lat="45.10503" lon="5.4109">
        <ele>1132.57</ele>
        <time>2019-11-30T12:14:23Z</time>
      </trkpt>
      <trkpt lat="45.10502" lon="5.41103">
        <ele>1132.09</ele>
        <time>2019-11-30T12:14:33Z</time>
      </trkpt>
      <trkpt lat="45.10501" lon="5.41112">
        <ele>1132.57</ele>
        <time>2019-11-30T12:14:39Z</time>
      </trkpt>
      <trkpt lat="45.10502" lon="5.4113">
        <ele>1132.57</ele>
        <time>2019-11-30T12:14:50Z</time>
      </trkpt>
      <trkpt lat="45.10503" lon="5.41133">
        <ele>1133.05</ele>
        <time>2019-11-30T12:14:53Z</time>
      </trkpt>
      <trkpt lat="45.10509" lon="5.41148">
        <ele>1133.05</ele>
        <time>2019-11-30T12:15:04Z</time>
      </trkpt>
      <trkpt lat="45.10511" lon="5.41154">
        <ele>1133.53</ele>
        <time>2019-11-30T12:15:09Z</time>
      </trkpt>
      <trkpt lat="45.10514" lon="5.41166">
        <ele>1134.01</ele>
        <time>2019-11-30T12:15:18Z</time>
      </trkpt>
      <trkpt lat="45.1052" lon="5.41177">
        <ele>1134.49</ele>
        <time>2019-11-30T12:15:28Z</time>
      </trkpt>
      <trkpt lat="45.10522" lon="5.41181">
        <ele>1134.49</ele>
        <time>2019-11-30T12:15:33Z</time>
      </trkpt>
      <trkpt lat="45.10525" lon="5.4119">
        <ele>1135.45</ele>
        <time>2019-11-30T12:15:41Z</time>
      </trkpt>
      <trkpt lat="45.10526" lon="5.41197">
        <ele>1135.94</ele>
        <time>2019-11-30T12:15:49Z</time>
      </trkpt>
      <trkpt lat="45.10526" lon="5.41207">
        <ele>1136.42</ele>
        <time>2019-11-30T12:15:59Z</time>
      </trkpt>
      <trkpt lat="45.10525" lon="5.41214">
        <ele>1135.94</ele>
        <time>2019-11-30T12:16:06Z</time>
      </trkpt>
      <trkpt lat="45.10524" lon="5.41224">
        <ele>1135.45</ele>
        <time>2019-11-30T12:16:13Z</time>
      </trkpt>
      <trkpt lat="45.10525" lon="5.41243">
        <ele>1135.45</ele>
        <time>2019-11-30T12:16:24Z</time>
      </trkpt>
      <trkpt lat="45.10521" lon="5.41258">
        <ele>1134.49</ele>
        <time>2019-11-30T12:16:35Z</time>
      </trkpt>
      <trkpt lat="45.1052" lon="5.41269">
        <ele>1134.01</ele>
        <time>2019-11-30T12:16:42Z</time>
      </trkpt>
      <trkpt lat="45.1052" lon="5.41281">
        <ele>1133.53</ele>
        <time>2019-11-30T12:16:51Z</time>
      </trkpt>
      <trkpt lat="45.10519" lon="5.41289">
        <ele>1133.53</ele>
        <time>2019-11-30T12:16:55Z</time>
      </trkpt>
      <trkpt lat="45.10519" lon="5.41303">
        <ele>1133.53</ele>
        <time>2019-11-30T12:17:05Z</time>
      </trkpt>
      <trkpt lat="45.10518" lon="5.41314">
        <ele>1132.57</ele>
        <time>2019-11-30T12:17:13Z</time>
      </trkpt>
      <trkpt lat="45.10516" lon="5.41328">
        <ele>1131.61</ele>
        <time>2019-11-30T12:17:24Z</time>
      </trkpt>
      <trkpt lat="45.10516" lon="5.41332">
        <ele>1131.13</ele>
        <time>2019-11-30T12:17:29Z</time>
      </trkpt>
      <trkpt lat="45.10514" lon="5.41347">
        <ele>1130.65</ele>
        <time>2019-11-30T12:17:39Z</time>
      </trkpt>
      <trkpt lat="45.10515" lon="5.41351">
        <ele>1131.13</ele>
        <time>2019-11-30T12:17:42Z</time>
      </trkpt>
      <trkpt lat="45.10514" lon="5.41365">
        <ele>1132.09</ele>
        <time>2019-11-30T12:17:51Z</time>
      </trkpt>
      <trkpt lat="45.10513" lon="5.41379">
        <ele>1132.09</ele>
        <time>2019-11-30T12:18:01Z</time>
      </trkpt>
      <trkpt lat="45.10513" lon="5.41387">
        <ele>1133.05</ele>
        <time>2019-11-30T12:18:07Z</time>
      </trkpt>
      <trkpt lat="45.10511" lon="5.414">
        <ele>1132.09</ele>
        <time>2019-11-30T12:18:16Z</time>
      </trkpt>
      <trkpt lat="45.10509" lon="5.41409">
        <ele>1130.65</ele>
        <time>2019-11-30T12:18:24Z</time>
      </trkpt>
      <trkpt lat="45.10507" lon="5.4142">
        <ele>1129.69</ele>
        <time>2019-11-30T12:18:34Z</time>
      </trkpt>
      <trkpt lat="45.10506" lon="5.41422">
        <ele>1129.21</ele>
        <time>2019-11-30T12:18:35Z</time>
      </trkpt>
      <trkpt lat="45.10501" lon="5.4144">
        <ele>1127.76</ele>
        <time>2019-11-30T12:18:47Z</time>
      </trkpt>
      <trkpt lat="45.10496" lon="5.41449">
        <ele>1126.32</ele>
        <time>2019-11-30T12:18:56Z</time>
      </trkpt>
      <trkpt lat="45.1049" lon="5.41463">
        <ele>1124.88</ele>
        <time>2019-11-30T12:19:07Z</time>
      </trkpt>
      <trkpt lat="45.1049" lon="5.41464">
        <ele>1125.36</ele>
        <time>2019-11-30T12:19:08Z</time>
      </trkpt>
      <trkpt lat="45.10485" lon="5.41475">
        <ele>1123.92</ele>
        <time>2019-11-30T12:19:18Z</time>
      </trkpt>
      <trkpt lat="45.10484" lon="5.41479">
        <ele>1123.44</ele>
        <time>2019-11-30T12:19:28Z</time>
      </trkpt>
      <trkpt lat="45.10485" lon="5.4148">
        <ele>1123.44</ele>
        <time>2019-11-30T12:19:42Z</time>
      </trkpt>
      <trkpt lat="45.10484" lon="5.41477">
        <ele>1121.52</ele>
        <time>2019-11-30T12:19:52Z</time>
      </trkpt>
      <trkpt lat="45.10482" lon="5.41468">
        <ele>1120.07</ele>
        <time>2019-11-30T12:20:03Z</time>
      </trkpt>
      <trkpt lat="45.10479" lon="5.4146">
        <ele>1118.15</ele>
        <time>2019-11-30T12:20:15Z</time>
      </trkpt>
      <trkpt lat="45.10476" lon="5.41451">
        <ele>1116.23</ele>
        <time>2019-11-30T12:20:26Z</time>
      </trkpt>
      <trkpt lat="45.10473" lon="5.4144">
        <ele>1113.34</ele>
        <time>2019-11-30T12:20:37Z</time>
      </trkpt>
      <trkpt lat="45.1047" lon="5.41432">
        <ele>1111.42</ele>
        <time>2019-11-30T12:20:48Z</time>
      </trkpt>
      <trkpt lat="45.10465" lon="5.41421">
        <ele>1109.02</ele>
        <time>2019-11-30T12:20:59Z</time>
      </trkpt>
      <trkpt lat="45.10462" lon="5.41415">
        <ele>1107.58</ele>
        <time>2019-11-30T12:21:08Z</time>
      </trkpt>
      <trkpt lat="45.10455" lon="5.41401">
        <ele>1106.61</ele>
        <time>2019-11-30T12:21:18Z</time>
      </trkpt>
      <trkpt lat="45.10453" lon="5.4138">
        <ele>1106.13</ele>
        <time>2019-11-30T12:21:29Z</time>
      </trkpt>
      <trkpt lat="45.10453" lon="5.41378">
        <ele>1105.17</ele>
        <time>2019-11-30T12:21:30Z</time>
      </trkpt>
      <trkpt lat="45.10452" lon="5.41359">
        <ele>1105.65</ele>
        <time>2019-11-30T12:21:40Z</time>
      </trkpt>
      <trkpt lat="45.10452" lon="5.41353">
        <ele>1104.69</ele>
        <time>2019-11-30T12:21:49Z</time>
      </trkpt>
      <trkpt lat="45.10453" lon="5.41342">
        <ele>1103.73</ele>
        <time>2019-11-30T12:21:56Z</time>
      </trkpt>
      <trkpt lat="45.10449" lon="5.41331">
        <ele>1102.29</ele>
        <time>2019-11-30T12:22:06Z</time>
      </trkpt>
      <trkpt lat="45.10443" lon="5.41316">
        <ele>1100.85</ele>
        <time>2019-11-30T12:22:18Z</time>
      </trkpt>
      <trkpt lat="45.10435" lon="5.41299">
        <ele>1099.4</ele>
        <time>2019-11-30T12:22:29Z</time>
      </trkpt>
      <trkpt lat="45.10432" lon="5.41293">
        <ele>1097</ele>
        <time>2019-11-30T12:22:40Z</time>
      </trkpt>
      <trkpt lat="45.10428" lon="5.41283">
        <ele>1096.04</ele>
        <time>2019-11-30T12:22:52Z</time>
      </trkpt>
      <trkpt lat="45.10422" lon="5.41279">
        <ele>1094.12</ele>
        <time>2019-11-30T12:23:03Z</time>
      </trkpt>
      <trkpt lat="45.10416" lon="5.41276">
        <ele>1092.2</ele>
        <time>2019-11-30T12:23:13Z</time>
      </trkpt>
      <trkpt lat="45.1041" lon="5.41272">
        <ele>1090.27</ele>
        <time>2019-11-30T12:23:24Z</time>
      </trkpt>
      <trkpt lat="45.10403" lon="5.41268">
        <ele>1089.31</ele>
        <time>2019-11-30T12:23:36Z</time>
      </trkpt>
      <trkpt lat="45.10399" lon="5.41265">
        <ele>1087.87</ele>
        <time>2019-11-30T12:23:49Z</time>
      </trkpt>
      <trkpt lat="45.10394" lon="5.41262">
        <ele>1085.95</ele>
        <time>2019-11-30T12:23:57Z</time>
      </trkpt>
      <trkpt lat="45.10387" lon="5.41259">
        <ele>1084.5</ele>
        <time>2019-11-30T12:24:05Z</time>
      </trkpt>
      <trkpt lat="45.10383" lon="5.41255">
        <ele>1083.54</ele>
        <time>2019-11-30T12:24:14Z</time>
      </trkpt>
      <trkpt lat="45.10379" lon="5.4125">
        <ele>1081.62</ele>
        <time>2019-11-30T12:24:23Z</time>
      </trkpt>
      <trkpt lat="45.10369" lon="5.41241">
        <ele>1079.7</ele>
        <time>2019-11-30T12:24:34Z</time>
      </trkpt>
      <trkpt lat="45.10365" lon="5.41234">
        <ele>1078.26</ele>
        <time>2019-11-30T12:24:43Z</time>
      </trkpt>
      <trkpt lat="45.10361" lon="5.41223">
        <ele>1075.85</ele>
        <time>2019-11-30T12:24:55Z</time>
      </trkpt>
      <trkpt lat="45.10358" lon="5.41218">
        <ele>1073.93</ele>
        <time>2019-11-30T12:25:05Z</time>
      </trkpt>
      <trkpt lat="45.10352" lon="5.41209">
        <ele>1072.01</ele>
        <time>2019-11-30T12:25:15Z</time>
      </trkpt>
      <trkpt lat="45.10344" lon="5.41196">
        <ele>1069.6</ele>
        <time>2019-11-30T12:25:28Z</time>
      </trkpt>
      <trkpt lat="45.10341" lon="5.41182">
        <ele>1068.16</ele>
        <time>2019-11-30T12:25:39Z</time>
      </trkpt>
      <trkpt lat="45.10339" lon="5.41168">
        <ele>1067.2</ele>
        <time>2019-11-30T12:25:50Z</time>
      </trkpt>
      <trkpt lat="45.10336" lon="5.41163">
        <ele>1066.72</ele>
        <time>2019-11-30T12:25:54Z</time>
      </trkpt>
      <trkpt lat="45.10331" lon="5.41152">
        <ele>1065.76</ele>
        <time>2019-11-30T12:26:02Z</time>
      </trkpt>
      <trkpt lat="45.10323" lon="5.41135">
        <ele>1064.32</ele>
        <time>2019-11-30T12:26:14Z</time>
      </trkpt>
      <trkpt lat="45.10315" lon="5.41124">
        <ele>1062.39</ele>
        <time>2019-11-30T12:26:26Z</time>
      </trkpt>
      <trkpt lat="45.10309" lon="5.41118">
        <ele>1060.47</ele>
        <time>2019-11-30T12:26:36Z</time>
      </trkpt>
      <trkpt lat="45.10302" lon="5.41111">
        <ele>1059.03</ele>
        <time>2019-11-30T12:26:47Z</time>
      </trkpt>
      <trkpt lat="45.10293" lon="5.41102">
        <ele>1057.11</ele>
        <time>2019-11-30T12:26:58Z</time>
      </trkpt>
      <trkpt lat="45.10287" lon="5.41095">
        <ele>1056.63</ele>
        <time>2019-11-30T12:27:07Z</time>
      </trkpt>
      <trkpt lat="45.10281" lon="5.41089">
        <ele>1054.7</ele>
        <time>2019-11-30T12:27:16Z</time>
      </trkpt>
      <trkpt lat="45.10276" lon="5.4108">
        <ele>1052.3</ele>
        <time>2019-11-30T12:27:27Z</time>
      </trkpt>
      <trkpt lat="45.10267" lon="5.41072">
        <ele>1050.38</ele>
        <time>2019-11-30T12:27:38Z</time>
      </trkpt>
      <trkpt lat="45.1026" lon="5.41062">
        <ele>1048.94</ele>
        <time>2019-11-30T12:27:48Z</time>
      </trkpt>
      <trkpt lat="45.10253" lon="5.41057">
        <ele>1047.01</ele>
        <time>2019-11-30T12:27:58Z</time>
      </trkpt>
      <trkpt lat="45.10245" lon="5.41049">
        <ele>1044.61</ele>
        <time>2019-11-30T12:28:10Z</time>
      </trkpt>
      <trkpt lat="45.1024" lon="5.41043">
        <ele>1043.17</ele>
        <time>2019-11-30T12:28:18Z</time>
      </trkpt>
      <trkpt lat="45.10235" lon="5.41039">
        <ele>1041.73</ele>
        <time>2019-11-30T12:28:27Z</time>
      </trkpt>
      <trkpt lat="45.10227" lon="5.41027">
        <ele>1040.76</ele>
        <time>2019-11-30T12:28:40Z</time>
      </trkpt>
      <trkpt lat="45.10226" lon="5.41025">
        <ele>1040.28</ele>
        <time>2019-11-30T12:28:42Z</time>
      </trkpt>
      <trkpt lat="45.10221" lon="5.41013">
        <ele>1039.32</ele>
        <time>2019-11-30T12:28:50Z</time>
      </trkpt>
      <trkpt lat="45.10219" lon="5.41006">
        <ele>1038.36</ele>
        <time>2019-11-30T12:28:59Z</time>
      </trkpt>
      <trkpt lat="45.10213" lon="5.40989">
        <ele>1037.88</ele>
        <time>2019-11-30T12:29:09Z</time>
      </trkpt>
      <trkpt lat="45.10204" lon="5.40976">
        <ele>1036.44</ele>
        <time>2019-11-30T12:29:20Z</time>
      </trkpt>
      <trkpt lat="45.102" lon="5.4097">
        <ele>1035.48</ele>
        <time>2019-11-30T12:29:27Z</time>
      </trkpt>
      <trkpt lat="45.10187" lon="5.40958">
        <ele>1034.04</ele>
        <time>2019-11-30T12:29:40Z</time>
      </trkpt>
      <trkpt lat="45.10187" lon="5.40957">
        <ele>1034.04</ele>
        <time>2019-11-30T12:29:52Z</time>
      </trkpt>
      <trkpt lat="45.10182" lon="5.40952">
        <ele>1033.55</ele>
        <time>2019-11-30T12:30:01Z</time>
      </trkpt>
      <trkpt lat="45.10177" lon="5.40943">
        <ele>1032.11</ele>
        <time>2019-11-30T12:30:12Z</time>
      </trkpt>
      <trkpt lat="45.10169" lon="5.40933">
        <ele>1030.67</ele>
        <time>2019-11-30T12:30:24Z</time>
      </trkpt>
      <trkpt lat="45.10162" lon="5.40924">
        <ele>1029.71</ele>
        <time>2019-11-30T12:30:35Z</time>
      </trkpt>
      <trkpt lat="45.10157" lon="5.40918">
        <ele>1028.75</ele>
        <time>2019-11-30T12:30:45Z</time>
      </trkpt>
      <trkpt lat="45.1015" lon="5.40911">
        <ele>1027.31</ele>
        <time>2019-11-30T12:30:53Z</time>
      </trkpt>
      <trkpt lat="45.10145" lon="5.40905">
        <ele>1027.31</ele>
        <time>2019-11-30T12:30:59Z</time>
      </trkpt>
      <trkpt lat="45.10141" lon="5.40895">
        <ele>1026.34</ele>
        <time>2019-11-30T12:31:10Z</time>
      </trkpt>
      <trkpt lat="45.10141" lon="5.40887">
        <ele>1025.38</ele>
        <time>2019-11-30T12:31:19Z</time>
      </trkpt>
      <trkpt lat="45.10136" lon="5.40877">
        <ele>1025.38</ele>
        <time>2019-11-30T12:31:29Z</time>
      </trkpt>
      <trkpt lat="45.10133" lon="5.40868">
        <ele>1024.9</ele>
        <time>2019-11-30T12:31:37Z</time>
      </trkpt>
      <trkpt lat="45.10131" lon="5.40859">
        <ele>1023.94</ele>
        <time>2019-11-30T12:31:47Z</time>
      </trkpt>
      <trkpt lat="45.10126" lon="5.40844">
        <ele>1023.94</ele>
        <time>2019-11-30T12:31:59Z</time>
      </trkpt>
      <trkpt lat="45.10122" lon="5.4083">
        <ele>1022.5</ele>
        <time>2019-11-30T12:32:11Z</time>
      </trkpt>
      <trkpt lat="45.1012" lon="5.40823">
        <ele>1021.54</ele>
        <time>2019-11-30T12:32:19Z</time>
      </trkpt>
      <trkpt lat="45.10117" lon="5.40808">
        <ele>1021.54</ele>
        <time>2019-11-30T12:32:31Z</time>
      </trkpt>
      <trkpt lat="45.10117" lon="5.40795">
        <ele>1021.54</ele>
        <time>2019-11-30T12:32:42Z</time>
      </trkpt>
      <trkpt lat="45.10115" lon="5.40779">
        <ele>1020.58</ele>
        <time>2019-11-30T12:32:54Z</time>
      </trkpt>
      <trkpt lat="45.10116" lon="5.40777">
        <ele>1020.58</ele>
        <time>2019-11-30T12:33:01Z</time>
      </trkpt>
      <trkpt lat="45.10113" lon="5.40768">
        <ele>1020.1</ele>
        <time>2019-11-30T12:33:11Z</time>
      </trkpt>
      <trkpt lat="45.10108" lon="5.40757">
        <ele>1018.65</ele>
        <time>2019-11-30T12:33:22Z</time>
      </trkpt>
      <trkpt lat="45.10102" lon="5.40751">
        <ele>1017.21</ele>
        <time>2019-11-30T12:33:32Z</time>
      </trkpt>
      <trkpt lat="45.10099" lon="5.40747">
        <ele>1016.73</ele>
        <time>2019-11-30T12:33:43Z</time>
      </trkpt>
      <trkpt lat="45.10093" lon="5.40737">
        <ele>1014.81</ele>
        <time>2019-11-30T12:33:53Z</time>
      </trkpt>
      <trkpt lat="45.10086" lon="5.40723">
        <ele>1013.37</ele>
        <time>2019-11-30T12:34:05Z</time>
      </trkpt>
      <trkpt lat="45.10082" lon="5.40718">
        <ele>1012.41</ele>
        <time>2019-11-30T12:34:15Z</time>
      </trkpt>
      <trkpt lat="45.10078" lon="5.40711">
        <ele>1011.93</ele>
        <time>2019-11-30T12:34:24Z</time>
      </trkpt>
      <trkpt lat="45.10077" lon="5.40709">
        <ele>1010.96</ele>
        <time>2019-11-30T12:34:26Z</time>
      </trkpt>
      <trkpt lat="45.10073" lon="5.40701">
        <ele>1010</ele>
        <time>2019-11-30T12:34:36Z</time>
      </trkpt>
      <trkpt lat="45.10071" lon="5.40689">
        <ele>1008.08</ele>
        <time>2019-11-30T12:34:46Z</time>
      </trkpt>
      <trkpt lat="45.10067" lon="5.40675">
        <ele>1006.16</ele>
        <time>2019-11-30T12:34:59Z</time>
      </trkpt>
      <trkpt lat="45.10064" lon="5.40666">
        <ele>1005.2</ele>
        <time>2019-11-30T12:35:10Z</time>
      </trkpt>
      <trkpt lat="45.10061" lon="5.40658">
        <ele>1003.75</ele>
        <time>2019-11-30T12:35:18Z</time>
      </trkpt>
      <trkpt lat="45.10059" lon="5.40652">
        <ele>1002.31</ele>
        <time>2019-11-30T12:35:29Z</time>
      </trkpt>
      <trkpt lat="45.10053" lon="5.40644">
        <ele>1000.39</ele>
        <time>2019-11-30T12:35:38Z</time>
      </trkpt>
      <trkpt lat="45.10049" lon="5.40638">
        <ele>998.47</ele>
        <time>2019-11-30T12:35:48Z</time>
      </trkpt>
      <trkpt lat="45.10043" lon="5.4063">
        <ele>997.02</ele>
        <time>2019-11-30T12:35:55Z</time>
      </trkpt>
      <trkpt lat="45.10037" lon="5.40623">
        <ele>995.58</ele>
        <time>2019-11-30T12:36:02Z</time>
      </trkpt>
      <trkpt lat="45.10029" lon="5.40618">
        <ele>993.18</ele>
        <time>2019-11-30T12:36:14Z</time>
      </trkpt>
      <trkpt lat="45.10022" lon="5.40615">
        <ele>992.22</ele>
        <time>2019-11-30T12:36:22Z</time>
      </trkpt>
      <trkpt lat="45.10015" lon="5.40612">
        <ele>991.26</ele>
        <time>2019-11-30T12:36:31Z</time>
      </trkpt>
      <trkpt lat="45.10011" lon="5.40607">
        <ele>989.81</ele>
        <time>2019-11-30T12:36:40Z</time>
      </trkpt>
      <trkpt lat="45.10004" lon="5.40602">
        <ele>988.37</ele>
        <time>2019-11-30T12:36:51Z</time>
      </trkpt>
      <trkpt lat="45.09995" lon="5.40591">
        <ele>987.41</ele>
        <time>2019-11-30T12:37:01Z</time>
      </trkpt>
      <trkpt lat="45.09991" lon="5.40582">
        <ele>986.93</ele>
        <time>2019-11-30T12:37:13Z</time>
      </trkpt>
      <trkpt lat="45.09986" lon="5.40568">
        <ele>985.49</ele>
        <time>2019-11-30T12:37:24Z</time>
      </trkpt>
      <trkpt lat="45.09984" lon="5.40562">
        <ele>985.01</ele>
        <time>2019-11-30T12:37:28Z</time>
      </trkpt>
      <trkpt lat="45.09984" lon="5.40549">
        <ele>983.57</ele>
        <time>2019-11-30T12:37:36Z</time>
      </trkpt>
      <trkpt lat="45.09983" lon="5.40534">
        <ele>982.12</ele>
        <time>2019-11-30T12:37:47Z</time>
      </trkpt>
      <trkpt lat="45.09981" lon="5.40526">
        <ele>980.68</ele>
        <time>2019-11-30T12:37:55Z</time>
      </trkpt>
      <trkpt lat="45.0998" lon="5.40511">
        <ele>979.24</ele>
        <time>2019-11-30T12:38:05Z</time>
      </trkpt>
      <trkpt lat="45.09979" lon="5.40498">
        <ele>977.32</ele>
        <time>2019-11-30T12:38:15Z</time>
      </trkpt>
      <trkpt lat="45.0998" lon="5.40495">
        <ele>976.84</ele>
        <time>2019-11-30T12:38:17Z</time>
      </trkpt>
      <trkpt lat="45.09977" lon="5.40482">
        <ele>975.39</ele>
        <time>2019-11-30T12:38:29Z</time>
      </trkpt>
      <trkpt lat="45.09977" lon="5.4048">
        <ele>974.91</ele>
        <time>2019-11-30T12:38:32Z</time>
      </trkpt>
      <trkpt lat="45.09977" lon="5.40469">
        <ele>972.51</ele>
        <time>2019-11-30T12:38:42Z</time>
      </trkpt>
      <trkpt lat="45.09976" lon="5.4046">
        <ele>971.55</ele>
        <time>2019-11-30T12:38:50Z</time>
      </trkpt>
      <trkpt lat="45.09976" lon="5.40452">
        <ele>969.63</ele>
        <time>2019-11-30T12:39:00Z</time>
      </trkpt>
      <trkpt lat="45.09976" lon="5.40444">
        <ele>968.18</ele>
        <time>2019-11-30T12:39:10Z</time>
      </trkpt>
      <trkpt lat="45.09978" lon="5.4043">
        <ele>965.78</ele>
        <time>2019-11-30T12:39:22Z</time>
      </trkpt>
      <trkpt lat="45.09978" lon="5.40418">
        <ele>964.34</ele>
        <time>2019-11-30T12:39:33Z</time>
      </trkpt>
      <trkpt lat="45.09978" lon="5.40408">
        <ele>962.9</ele>
        <time>2019-11-30T12:39:42Z</time>
      </trkpt>
      <trkpt lat="45.09979" lon="5.40389">
        <ele>960.98</ele>
        <time>2019-11-30T12:39:54Z</time>
      </trkpt>
      <trkpt lat="45.09978" lon="5.40381">
        <ele>960.49</ele>
        <time>2019-11-30T12:40:07Z</time>
      </trkpt>
      <trkpt lat="45.09979" lon="5.40372">
        <ele>959.05</ele>
        <time>2019-11-30T12:40:15Z</time>
      </trkpt>
      <trkpt lat="45.09978" lon="5.40364">
        <ele>958.57</ele>
        <time>2019-11-30T12:40:21Z</time>
      </trkpt>
      <trkpt lat="45.09979" lon="5.40348">
        <ele>957.13</ele>
        <time>2019-11-30T12:40:31Z</time>
      </trkpt>
      <trkpt lat="45.09979" lon="5.40343">
        <ele>957.13</ele>
        <time>2019-11-30T12:40:35Z</time>
      </trkpt>
      <trkpt lat="45.0998" lon="5.40332">
        <ele>956.17</ele>
        <time>2019-11-30T12:40:40Z</time>
      </trkpt>
      <trkpt lat="45.09979" lon="5.40323">
        <ele>956.17</ele>
        <time>2019-11-30T12:40:46Z</time>
      </trkpt>
      <trkpt lat="45.0998" lon="5.40309">
        <ele>955.21</ele>
        <time>2019-11-30T12:40:56Z</time>
      </trkpt>
      <trkpt lat="45.09979" lon="5.40305">
        <ele>955.21</ele>
        <time>2019-11-30T12:41:08Z</time>
      </trkpt>
      <trkpt lat="45.09978" lon="5.403">
        <ele>954.73</ele>
        <time>2019-11-30T12:41:27Z</time>
      </trkpt>
      <trkpt lat="45.0998" lon="5.40292">
        <ele>954.25</ele>
        <time>2019-11-30T12:41:40Z</time>
      </trkpt>
      <trkpt lat="45.09988" lon="5.40278">
        <ele>954.73</ele>
        <time>2019-11-30T12:41:51Z</time>
      </trkpt>
      <trkpt lat="45.09988" lon="5.40277">
        <ele>954.25</ele>
        <time>2019-11-30T12:41:52Z</time>
      </trkpt>
      <trkpt lat="45.09991" lon="5.4027">
        <ele>954.73</ele>
        <time>2019-11-30T12:41:58Z</time>
      </trkpt>
      <trkpt lat="45.09994" lon="5.40265">
        <ele>954.73</ele>
        <time>2019-11-30T12:42:09Z</time>
      </trkpt>
      <trkpt lat="45.0999" lon="5.40256">
        <ele>954.25</ele>
        <time>2019-11-30T12:42:19Z</time>
      </trkpt>
      <trkpt lat="45.09987" lon="5.40249">
        <ele>953.77</ele>
        <time>2019-11-30T12:42:25Z</time>
      </trkpt>
      <trkpt lat="45.09981" lon="5.40238">
        <ele>953.77</ele>
        <time>2019-11-30T12:42:34Z</time>
      </trkpt>
      <trkpt lat="45.09976" lon="5.40232">
        <ele>952.8</ele>
        <time>2019-11-30T12:42:39Z</time>
      </trkpt>
      <trkpt lat="45.09972" lon="5.40218">
        <ele>951.84</ele>
        <time>2019-11-30T12:42:48Z</time>
      </trkpt>
      <trkpt lat="45.09972" lon="5.40215">
        <ele>952.8</ele>
        <time>2019-11-30T12:42:50Z</time>
      </trkpt>
      <trkpt lat="45.09972" lon="5.40212">
        <ele>952.32</ele>
        <time>2019-11-30T12:42:52Z</time>
      </trkpt>
      <trkpt lat="45.09972" lon="5.40198">
        <ele>951.84</ele>
        <time>2019-11-30T12:43:01Z</time>
      </trkpt>
      <trkpt lat="45.09971" lon="5.40194">
        <ele>951.36</ele>
        <time>2019-11-30T12:43:04Z</time>
      </trkpt>
      <trkpt lat="45.0997" lon="5.40187">
        <ele>950.88</ele>
        <time>2019-11-30T12:43:09Z</time>
      </trkpt>
      <trkpt lat="45.09964" lon="5.40174">
        <ele>948.48</ele>
        <time>2019-11-30T12:43:20Z</time>
      </trkpt>
      <trkpt lat="45.09956" lon="5.40165">
        <ele>947.52</ele>
        <time>2019-11-30T12:43:30Z</time>
      </trkpt>
      <trkpt lat="45.09945" lon="5.40151">
        <ele>947.52</ele>
        <time>2019-11-30T12:43:43Z</time>
      </trkpt>
      <trkpt lat="45.09944" lon="5.40149">
        <ele>947.52</ele>
        <time>2019-11-30T12:43:44Z</time>
      </trkpt>
      <trkpt lat="45.09932" lon="5.40134">
        <ele>948.96</ele>
        <time>2019-11-30T12:43:58Z</time>
      </trkpt>
      <trkpt lat="45.09919" lon="5.40121">
        <ele>949.44</ele>
        <time>2019-11-30T12:44:10Z</time>
      </trkpt>
      <trkpt lat="45.09905" lon="5.40114">
        <ele>948.96</ele>
        <time>2019-11-30T12:44:22Z</time>
      </trkpt>
      <trkpt lat="45.09887" lon="5.40106">
        <ele>947.52</ele>
        <time>2019-11-30T12:44:37Z</time>
      </trkpt>
      <trkpt lat="45.09873" lon="5.40096">
        <ele>947.04</ele>
        <time>2019-11-30T12:44:50Z</time>
      </trkpt>
      <trkpt lat="45.09863" lon="5.4009">
        <ele>946.56</ele>
        <time>2019-11-30T12:45:00Z</time>
      </trkpt>
      <trkpt lat="45.0985" lon="5.40084">
        <ele>945.11</ele>
        <time>2019-11-30T12:45:13Z</time>
      </trkpt>
      <trkpt lat="45.09838" lon="5.40074">
        <ele>943.67</ele>
        <time>2019-11-30T12:45:28Z</time>
      </trkpt>
      <trkpt lat="45.09832" lon="5.4007">
        <ele>943.67</ele>
        <time>2019-11-30T12:45:35Z</time>
      </trkpt>
      <trkpt lat="45.09825" lon="5.40066">
        <ele>943.19</ele>
        <time>2019-11-30T12:45:42Z</time>
      </trkpt>
      <trkpt lat="45.09822" lon="5.40062">
        <ele>943.19</ele>
        <time>2019-11-30T12:45:46Z</time>
      </trkpt>
      <trkpt lat="45.09815" lon="5.40058">
        <ele>942.23</ele>
        <time>2019-11-30T12:45:52Z</time>
      </trkpt>
      <trkpt lat="45.09804" lon="5.40049">
        <ele>942.23</ele>
        <time>2019-11-30T12:46:03Z</time>
      </trkpt>
      <trkpt lat="45.09802" lon="5.40046">
        <ele>941.75</ele>
        <time>2019-11-30T12:46:06Z</time>
      </trkpt>
      <trkpt lat="45.0979" lon="5.40033">
        <ele>940.31</ele>
        <time>2019-11-30T12:46:21Z</time>
      </trkpt>
      <trkpt lat="45.09784" lon="5.4002">
        <ele>938.86</ele>
        <time>2019-11-30T12:46:32Z</time>
      </trkpt>
      <trkpt lat="45.09783" lon="5.40019">
        <ele>938.86</ele>
        <time>2019-11-30T12:46:33Z</time>
      </trkpt>
      <trkpt lat="45.09779" lon="5.40011">
        <ele>936.94</ele>
        <time>2019-11-30T12:46:40Z</time>
      </trkpt>
      <trkpt lat="45.09776" lon="5.40008">
        <ele>936.94</ele>
        <time>2019-11-30T12:46:44Z</time>
      </trkpt>
      <trkpt lat="45.09774" lon="5.40003">
        <ele>935.98</ele>
        <time>2019-11-30T12:46:47Z</time>
      </trkpt>
      <trkpt lat="45.09768" lon="5.39985">
        <ele>935.02</ele>
        <time>2019-11-30T12:46:58Z</time>
      </trkpt>
      <trkpt lat="45.09769" lon="5.39965">
        <ele>935.02</ele>
        <time>2019-11-30T12:47:10Z</time>
      </trkpt>
      <trkpt lat="45.0977" lon="5.39945">
        <ele>935.02</ele>
        <time>2019-11-30T12:47:21Z</time>
      </trkpt>
      <trkpt lat="45.09769" lon="5.39923">
        <ele>935.98</ele>
        <time>2019-11-30T12:47:33Z</time>
      </trkpt>
      <trkpt lat="45.09769" lon="5.3992">
        <ele>935.5</ele>
        <time>2019-11-30T12:47:35Z</time>
      </trkpt>
      <trkpt lat="45.0977" lon="5.399">
        <ele>936.46</ele>
        <time>2019-11-30T12:47:47Z</time>
      </trkpt>
      <trkpt lat="45.09772" lon="5.3988">
        <ele>935.98</ele>
        <time>2019-11-30T12:47:58Z</time>
      </trkpt>
      <trkpt lat="45.09773" lon="5.39863">
        <ele>935.98</ele>
        <time>2019-11-30T12:48:08Z</time>
      </trkpt>
      <trkpt lat="45.0977" lon="5.39849">
        <ele>935.02</ele>
        <time>2019-11-30T12:48:20Z</time>
      </trkpt>
      <trkpt lat="45.09768" lon="5.39835">
        <ele>934.54</ele>
        <time>2019-11-30T12:48:30Z</time>
      </trkpt>
      <trkpt lat="45.09766" lon="5.3982">
        <ele>932.62</ele>
        <time>2019-11-30T12:48:42Z</time>
      </trkpt>
      <trkpt lat="45.09764" lon="5.39816">
        <ele>932.14</ele>
        <time>2019-11-30T12:48:46Z</time>
      </trkpt>
      <trkpt lat="45.09765" lon="5.39805">
        <ele>930.69</ele>
        <time>2019-11-30T12:48:53Z</time>
      </trkpt>
      <trkpt lat="45.09762" lon="5.39787">
        <ele>929.25</ele>
        <time>2019-11-30T12:49:05Z</time>
      </trkpt>
      <trkpt lat="45.09761" lon="5.39784">
        <ele>928.29</ele>
        <time>2019-11-30T12:49:07Z</time>
      </trkpt>
      <trkpt lat="45.09755" lon="5.39769">
        <ele>928.29</ele>
        <time>2019-11-30T12:49:18Z</time>
      </trkpt>
      <trkpt lat="45.09749" lon="5.39756">
        <ele>928.29</ele>
        <time>2019-11-30T12:49:28Z</time>
      </trkpt>
      <trkpt lat="45.09745" lon="5.39746">
        <ele>926.85</ele>
        <time>2019-11-30T12:49:38Z</time>
      </trkpt>
      <trkpt lat="45.09744" lon="5.39737">
        <ele>925.89</ele>
        <time>2019-11-30T12:49:48Z</time>
      </trkpt>
      <trkpt lat="45.09744" lon="5.39734">
        <ele>925.89</ele>
        <time>2019-11-30T12:49:50Z</time>
      </trkpt>
      <trkpt lat="45.09741" lon="5.39723">
        <ele>923.48</ele>
        <time>2019-11-30T12:49:59Z</time>
      </trkpt>
      <trkpt lat="45.09738" lon="5.39711">
        <ele>922.52</ele>
        <time>2019-11-30T12:50:09Z</time>
      </trkpt>
      <trkpt lat="45.09739" lon="5.39708">
        <ele>921.56</ele>
        <time>2019-11-30T12:50:11Z</time>
      </trkpt>
      <trkpt lat="45.09735" lon="5.397">
        <ele>920.12</ele>
        <time>2019-11-30T12:50:19Z</time>
      </trkpt>
      <trkpt lat="45.09733" lon="5.39697">
        <ele>920.6</ele>
        <time>2019-11-30T12:50:35Z</time>
      </trkpt>
      <trkpt lat="45.09731" lon="5.39691">
        <ele>918.68</ele>
        <time>2019-11-30T12:50:45Z</time>
      </trkpt>
      <trkpt lat="45.09731" lon="5.39676">
        <ele>916.27</ele>
        <time>2019-11-30T12:50:55Z</time>
      </trkpt>
      <trkpt lat="45.0973" lon="5.39668">
        <ele>915.79</ele>
        <time>2019-11-30T12:51:02Z</time>
      </trkpt>
      <trkpt lat="45.09732" lon="5.39654">
        <ele>913.87</ele>
        <time>2019-11-30T12:51:12Z</time>
      </trkpt>
      <trkpt lat="45.09733" lon="5.39646">
        <ele>912.91</ele>
        <time>2019-11-30T12:51:22Z</time>
      </trkpt>
      <trkpt lat="45.09735" lon="5.39638">
        <ele>911.47</ele>
        <time>2019-11-30T12:51:31Z</time>
      </trkpt>
      <trkpt lat="45.09738" lon="5.39624">
        <ele>909.54</ele>
        <time>2019-11-30T12:51:42Z</time>
      </trkpt>
      <trkpt lat="45.09738" lon="5.39616">
        <ele>908.58</ele>
        <time>2019-11-30T12:51:48Z</time>
      </trkpt>
      <trkpt lat="45.09742" lon="5.39604">
        <ele>907.62</ele>
        <time>2019-11-30T12:51:58Z</time>
      </trkpt>
      <trkpt lat="45.09742" lon="5.39589">
        <ele>905.7</ele>
        <time>2019-11-30T12:52:10Z</time>
      </trkpt>
      <trkpt lat="45.09746" lon="5.3958">
        <ele>905.7</ele>
        <time>2019-11-30T12:52:18Z</time>
      </trkpt>
      <trkpt lat="45.09748" lon="5.39577">
        <ele>904.74</ele>
        <time>2019-11-30T12:52:20Z</time>
      </trkpt>
      <trkpt lat="45.09752" lon="5.39566">
        <ele>903.78</ele>
        <time>2019-11-30T12:52:29Z</time>
      </trkpt>
      <trkpt lat="45.09752" lon="5.39561">
        <ele>903.3</ele>
        <time>2019-11-30T12:52:32Z</time>
      </trkpt>
      <trkpt lat="45.09751" lon="5.39545">
        <ele>901.85</ele>
        <time>2019-11-30T12:52:42Z</time>
      </trkpt>
      <trkpt lat="45.09752" lon="5.39528">
        <ele>900.89</ele>
        <time>2019-11-30T12:52:52Z</time>
      </trkpt>
      <trkpt lat="45.09752" lon="5.39516">
        <ele>900.41</ele>
        <time>2019-11-30T12:52:59Z</time>
      </trkpt>
      <trkpt lat="45.09753" lon="5.39506">
        <ele>899.93</ele>
        <time>2019-11-30T12:53:04Z</time>
      </trkpt>
      <trkpt lat="45.09752" lon="5.3949">
        <ele>899.93</ele>
        <time>2019-11-30T12:53:15Z</time>
      </trkpt>
      <trkpt lat="45.09756" lon="5.39481">
        <ele>898.49</ele>
        <time>2019-11-30T12:53:23Z</time>
      </trkpt>
      <trkpt lat="45.09758" lon="5.39472">
        <ele>898.01</ele>
        <time>2019-11-30T12:53:29Z</time>
      </trkpt>
      <trkpt lat="45.0976" lon="5.39464">
        <ele>897.53</ele>
        <time>2019-11-30T12:53:35Z</time>
      </trkpt>
      <trkpt lat="45.09757" lon="5.39449">
        <ele>896.09</ele>
        <time>2019-11-30T12:53:45Z</time>
      </trkpt>
      <trkpt lat="45.09757" lon="5.39447">
        <ele>896.09</ele>
        <time>2019-11-30T12:53:47Z</time>
      </trkpt>
      <trkpt lat="45.09756" lon="5.39441">
        <ele>895.61</ele>
        <time>2019-11-30T12:53:53Z</time>
      </trkpt>
      <trkpt lat="45.0975" lon="5.39429">
        <ele>895.12</ele>
        <time>2019-11-30T12:54:03Z</time>
      </trkpt>
      <trkpt lat="45.09744" lon="5.39419">
        <ele>895.12</ele>
        <time>2019-11-30T12:54:12Z</time>
      </trkpt>
      <trkpt lat="45.09741" lon="5.39411">
        <ele>894.16</ele>
        <time>2019-11-30T12:54:18Z</time>
      </trkpt>
      <trkpt lat="45.09736" lon="5.39403">
        <ele>895.12</ele>
        <time>2019-11-30T12:54:24Z</time>
      </trkpt>
      <trkpt lat="45.09732" lon="5.39397">
        <ele>894.16</ele>
        <time>2019-11-30T12:54:28Z</time>
      </trkpt>
      <trkpt lat="45.09729" lon="5.39391">
        <ele>894.64</ele>
        <time>2019-11-30T12:54:33Z</time>
      </trkpt>
      <trkpt lat="45.09725" lon="5.39386">
        <ele>894.64</ele>
        <time>2019-11-30T12:54:37Z</time>
      </trkpt>
      <trkpt lat="45.0972" lon="5.39374">
        <ele>894.16</ele>
        <time>2019-11-30T12:54:45Z</time>
      </trkpt>
      <trkpt lat="45.0972" lon="5.39365">
        <ele>894.64</ele>
        <time>2019-11-30T12:54:52Z</time>
      </trkpt>
      <trkpt lat="45.09723" lon="5.3935">
        <ele>894.16</ele>
        <time>2019-11-30T12:55:03Z</time>
      </trkpt>
      <trkpt lat="45.09724" lon="5.39334">
        <ele>894.16</ele>
        <time>2019-11-30T12:55:13Z</time>
      </trkpt>
      <trkpt lat="45.09725" lon="5.3933">
        <ele>894.64</ele>
        <time>2019-11-30T12:55:16Z</time>
      </trkpt>
      <trkpt lat="45.09724" lon="5.39317">
        <ele>894.64</ele>
        <time>2019-11-30T12:55:27Z</time>
      </trkpt>
      <trkpt lat="45.09713" lon="5.39304">
        <ele>896.09</ele>
        <time>2019-11-30T12:55:38Z</time>
      </trkpt>
      <trkpt lat="45.0971" lon="5.39297">
        <ele>897.05</ele>
        <time>2019-11-30T12:55:45Z</time>
      </trkpt>
      <trkpt lat="45.09704" lon="5.39284">
        <ele>897.53</ele>
        <time>2019-11-30T12:55:54Z</time>
      </trkpt>
      <trkpt lat="45.09698" lon="5.39273">
        <ele>898.49</ele>
        <time>2019-11-30T12:56:03Z</time>
      </trkpt>
      <trkpt lat="45.09695" lon="5.39268">
        <ele>898.97</ele>
        <time>2019-11-30T12:56:07Z</time>
      </trkpt>
      <trkpt lat="45.09694" lon="5.39254">
        <ele>899.45</ele>
        <time>2019-11-30T12:56:17Z</time>
      </trkpt>
      <trkpt lat="45.09693" lon="5.39249">
        <ele>898.97</ele>
        <time>2019-11-30T12:56:25Z</time>
      </trkpt>
      <trkpt lat="45.09691" lon="5.39247">
        <ele>898.97</ele>
        <time>2019-11-30T12:56:27Z</time>
      </trkpt>
      <trkpt lat="45.09691" lon="5.39241">
        <ele>899.45</ele>
        <time>2019-11-30T12:56:32Z</time>
      </trkpt>
      <trkpt lat="45.0969" lon="5.39228">
        <ele>899.93</ele>
        <time>2019-11-30T12:56:44Z</time>
      </trkpt>
      <trkpt lat="45.09675" lon="5.39216">
        <ele>900.89</ele>
        <time>2019-11-30T12:56:55Z</time>
      </trkpt>
      <trkpt lat="45.09667" lon="5.39203">
        <ele>901.85</ele>
        <time>2019-11-30T12:57:06Z</time>
      </trkpt>
      <trkpt lat="45.09662" lon="5.39195">
        <ele>901.85</ele>
        <time>2019-11-30T12:57:15Z</time>
      </trkpt>
      <trkpt lat="45.09656" lon="5.39187">
        <ele>902.33</ele>
        <time>2019-11-30T12:57:25Z</time>
      </trkpt>
      <trkpt lat="45.09655" lon="5.39186">
        <ele>902.82</ele>
        <time>2019-11-30T12:57:26Z</time>
      </trkpt>
      <trkpt lat="45.09644" lon="5.39176">
        <ele>902.82</ele>
        <time>2019-11-30T12:57:37Z</time>
      </trkpt>
      <trkpt lat="45.09642" lon="5.39172">
        <ele>902.82</ele>
        <time>2019-11-30T12:57:42Z</time>
      </trkpt>
      <trkpt lat="45.09639" lon="5.39163">
        <ele>903.78</ele>
        <time>2019-11-30T12:57:49Z</time>
      </trkpt>
      <trkpt lat="45.09638" lon="5.3916">
        <ele>903.78</ele>
        <time>2019-11-30T12:57:51Z</time>
      </trkpt>
      <trkpt lat="45.09636" lon="5.3915">
        <ele>903.78</ele>
        <time>2019-11-30T12:57:57Z</time>
      </trkpt>
      <trkpt lat="45.09635" lon="5.39144">
        <ele>903.78</ele>
        <time>2019-11-30T12:58:01Z</time>
      </trkpt>
      <trkpt lat="45.09634" lon="5.39134">
        <ele>903.3</ele>
        <time>2019-11-30T12:58:07Z</time>
      </trkpt>
      <trkpt lat="45.09633" lon="5.3913">
        <ele>903.78</ele>
        <time>2019-11-30T12:58:10Z</time>
      </trkpt>
      <trkpt lat="45.09633" lon="5.39122">
        <ele>904.26</ele>
        <time>2019-11-30T12:58:15Z</time>
      </trkpt>
      <trkpt lat="45.09634" lon="5.39118">
        <ele>904.26</ele>
        <time>2019-11-30T12:58:17Z</time>
      </trkpt>
      <trkpt lat="45.09633" lon="5.39114">
        <ele>903.78</ele>
        <time>2019-11-30T12:58:20Z</time>
      </trkpt>
      <trkpt lat="45.09633" lon="5.3911">
        <ele>903.78</ele>
        <time>2019-11-30T12:58:23Z</time>
      </trkpt>
      <trkpt lat="45.09635" lon="5.39097">
        <ele>903.78</ele>
        <time>2019-11-30T12:58:32Z</time>
      </trkpt>
      <trkpt lat="45.09638" lon="5.3909">
        <ele>902.33</ele>
        <time>2019-11-30T12:58:37Z</time>
      </trkpt>
      <trkpt lat="45.09638" lon="5.39078">
        <ele>901.37</ele>
        <time>2019-11-30T12:58:48Z</time>
      </trkpt>
      <trkpt lat="45.09643" lon="5.39067">
        <ele>899.45</ele>
        <time>2019-11-30T12:58:57Z</time>
      </trkpt>
      <trkpt lat="45.09644" lon="5.39064">
        <ele>899.45</ele>
        <time>2019-11-30T12:59:00Z</time>
      </trkpt>
      <trkpt lat="45.09646" lon="5.39061">
        <ele>899.45</ele>
        <time>2019-11-30T12:59:02Z</time>
      </trkpt>
      <trkpt lat="45.09653" lon="5.39052">
        <ele>897.53</ele>
        <time>2019-11-30T12:59:13Z</time>
      </trkpt>
      <trkpt lat="45.09653" lon="5.39039">
        <ele>895.61</ele>
        <time>2019-11-30T12:59:25Z</time>
      </trkpt>
      <trkpt lat="45.09654" lon="5.39031">
        <ele>895.12</ele>
        <time>2019-11-30T12:59:30Z</time>
      </trkpt>
      <trkpt lat="45.09654" lon="5.39021">
        <ele>894.64</ele>
        <time>2019-11-30T12:59:36Z</time>
      </trkpt>
      <trkpt lat="45.09654" lon="5.39007">
        <ele>894.64</ele>
        <time>2019-11-30T12:59:45Z</time>
      </trkpt>
      <trkpt lat="45.09648" lon="5.39002">
        <ele>894.64</ele>
        <time>2019-11-30T12:59:54Z</time>
      </trkpt>
      <trkpt lat="45.09647" lon="5.39001">
        <ele>894.64</ele>
        <time>2019-11-30T12:59:55Z</time>
      </trkpt>
      <trkpt lat="45.0964" lon="5.38995">
        <ele>894.64</ele>
        <time>2019-11-30T13:00:03Z</time>
      </trkpt>
      <trkpt lat="45.09629" lon="5.3899">
        <ele>895.12</ele>
        <time>2019-11-30T13:00:12Z</time>
      </trkpt>
      <trkpt lat="45.09622" lon="5.38984">
        <ele>896.09</ele>
        <time>2019-11-30T13:00:22Z</time>
      </trkpt>
      <trkpt lat="45.09619" lon="5.38982">
        <ele>897.05</ele>
        <time>2019-11-30T13:00:31Z</time>
      </trkpt>
      <trkpt lat="45.09616" lon="5.38978">
        <ele>898.01</ele>
        <time>2019-11-30T13:00:39Z</time>
      </trkpt>
      <trkpt lat="45.09607" lon="5.3897">
        <ele>898.97</ele>
        <time>2019-11-30T13:00:48Z</time>
      </trkpt>
      <trkpt lat="45.09602" lon="5.38961">
        <ele>900.41</ele>
        <time>2019-11-30T13:00:58Z</time>
      </trkpt>
      <trkpt lat="45.096" lon="5.38961">
        <ele>900.41</ele>
        <time>2019-11-30T13:01:12Z</time>
      </trkpt>
      <trkpt lat="45.096" lon="5.3896">
        <ele>899.93</ele>
        <time>2019-11-30T13:01:29Z</time>
      </trkpt>
      <trkpt lat="45.09593" lon="5.38956">
        <ele>899.93</ele>
        <time>2019-11-30T13:01:40Z</time>
      </trkpt>
      <trkpt lat="45.09582" lon="5.38945">
        <ele>898.49</ele>
        <time>2019-11-30T13:01:50Z</time>
      </trkpt>
      <trkpt lat="45.09571" lon="5.38941">
        <ele>895.61</ele>
        <time>2019-11-30T13:01:59Z</time>
      </trkpt>
      <trkpt lat="45.09558" lon="5.38939">
        <ele>894.64</ele>
        <time>2019-11-30T13:02:09Z</time>
      </trkpt>
      <trkpt lat="45.09551" lon="5.38937">
        <ele>894.16</ele>
        <time>2019-11-30T13:02:18Z</time>
      </trkpt>
      <trkpt lat="45.09546" lon="5.38934">
        <ele>893.68</ele>
        <time>2019-11-30T13:02:25Z</time>
      </trkpt>
      <trkpt lat="45.09542" lon="5.3893">
        <ele>892.24</ele>
        <time>2019-11-30T13:02:34Z</time>
      </trkpt>
      <trkpt lat="45.09532" lon="5.38918">
        <ele>892.24</ele>
        <time>2019-11-30T13:02:44Z</time>
      </trkpt>
      <trkpt lat="45.09522" lon="5.38909">
        <ele>891.28</ele>
        <time>2019-11-30T13:02:55Z</time>
      </trkpt>
      <trkpt lat="45.09512" lon="5.389">
        <ele>889.84</ele>
        <time>2019-11-30T13:03:05Z</time>
      </trkpt>
      <trkpt lat="45.09503" lon="5.38895">
        <ele>888.4</ele>
        <time>2019-11-30T13:03:15Z</time>
      </trkpt>
      <trkpt lat="45.09494" lon="5.38888">
        <ele>887.91</ele>
        <time>2019-11-30T13:03:24Z</time>
      </trkpt>
      <trkpt lat="45.09486" lon="5.38882">
        <ele>886.47</ele>
        <time>2019-11-30T13:03:32Z</time>
      </trkpt>
      <trkpt lat="45.09478" lon="5.38879">
        <ele>885.99</ele>
        <time>2019-11-30T13:03:41Z</time>
      </trkpt>
      <trkpt lat="45.09468" lon="5.38877">
        <ele>884.55</ele>
        <time>2019-11-30T13:03:51Z</time>
      </trkpt>
      <trkpt lat="45.09458" lon="5.38877">
        <ele>882.63</ele>
        <time>2019-11-30T13:04:03Z</time>
      </trkpt>
      <trkpt lat="45.09449" lon="5.38876">
        <ele>881.67</ele>
        <time>2019-11-30T13:04:12Z</time>
      </trkpt>
      <trkpt lat="45.09441" lon="5.38876">
        <ele>881.19</ele>
        <time>2019-11-30T13:04:18Z</time>
      </trkpt>
      <trkpt lat="45.09432" lon="5.38874">
        <ele>879.74</ele>
        <time>2019-11-30T13:04:25Z</time>
      </trkpt>
      <trkpt lat="45.09428" lon="5.38874">
        <ele>879.74</ele>
        <time>2019-11-30T13:04:28Z</time>
      </trkpt>
      <trkpt lat="45.0942" lon="5.38872">
        <ele>878.78</ele>
        <time>2019-11-30T13:04:38Z</time>
      </trkpt>
      <trkpt lat="45.09415" lon="5.3887">
        <ele>878.3</ele>
        <time>2019-11-30T13:04:44Z</time>
      </trkpt>
      <trkpt lat="45.09412" lon="5.38869">
        <ele>878.3</ele>
        <time>2019-11-30T13:04:46Z</time>
      </trkpt>
      <trkpt lat="45.09402" lon="5.38869">
        <ele>876.86</ele>
        <time>2019-11-30T13:04:56Z</time>
      </trkpt>
      <trkpt lat="45.0939" lon="5.38868">
        <ele>875.42</ele>
        <time>2019-11-30T13:05:08Z</time>
      </trkpt>
      <trkpt lat="45.09384" lon="5.3886">
        <ele>873.98</ele>
        <time>2019-11-30T13:05:17Z</time>
      </trkpt>
      <trkpt lat="45.0938" lon="5.38852">
        <ele>873.5</ele>
        <time>2019-11-30T13:05:26Z</time>
      </trkpt>
      <trkpt lat="45.09377" lon="5.38844">
        <ele>872.05</ele>
        <time>2019-11-30T13:05:36Z</time>
      </trkpt>
      <trkpt lat="45.09367" lon="5.38832">
        <ele>871.57</ele>
        <time>2019-11-30T13:05:47Z</time>
      </trkpt>
      <trkpt lat="45.09361" lon="5.3882">
        <ele>870.13</ele>
        <time>2019-11-30T13:05:58Z</time>
      </trkpt>
      <trkpt lat="45.09354" lon="5.38812">
        <ele>869.17</ele>
        <time>2019-11-30T13:06:03Z</time>
      </trkpt>
      <trkpt lat="45.09342" lon="5.38799">
        <ele>868.69</ele>
        <time>2019-11-30T13:06:16Z</time>
      </trkpt>
      <trkpt lat="45.09337" lon="5.38793">
        <ele>867.73</ele>
        <time>2019-11-30T13:06:22Z</time>
      </trkpt>
      <trkpt lat="45.0933" lon="5.38786">
        <ele>866.77</ele>
        <time>2019-11-30T13:06:33Z</time>
      </trkpt>
      <trkpt lat="45.09321" lon="5.38777">
        <ele>866.77</ele>
        <time>2019-11-30T13:06:44Z</time>
      </trkpt>
      <trkpt lat="45.09315" lon="5.38767">
        <ele>865.32</ele>
        <time>2019-11-30T13:06:53Z</time>
      </trkpt>
      <trkpt lat="45.09303" lon="5.38756">
        <ele>863.4</ele>
        <time>2019-11-30T13:07:06Z</time>
      </trkpt>
      <trkpt lat="45.093" lon="5.38747">
        <ele>862.44</ele>
        <time>2019-11-30T13:07:17Z</time>
      </trkpt>
      <trkpt lat="45.09294" lon="5.3874">
        <ele>860.52</ele>
        <time>2019-11-30T13:07:28Z</time>
      </trkpt>
      <trkpt lat="45.09287" lon="5.38731">
        <ele>859.56</ele>
        <time>2019-11-30T13:07:36Z</time>
      </trkpt>
      <trkpt lat="45.09278" lon="5.38721">
        <ele>858.11</ele>
        <time>2019-11-30T13:07:46Z</time>
      </trkpt>
      <trkpt lat="45.0927" lon="5.3871">
        <ele>857.63</ele>
        <time>2019-11-30T13:07:56Z</time>
      </trkpt>
      <trkpt lat="45.09268" lon="5.38707">
        <ele>857.15</ele>
        <time>2019-11-30T13:07:59Z</time>
      </trkpt>
      <trkpt lat="45.09265" lon="5.38701">
        <ele>857.15</ele>
        <time>2019-11-30T13:08:03Z</time>
      </trkpt>
      <trkpt lat="45.09262" lon="5.38697">
        <ele>857.15</ele>
        <time>2019-11-30T13:08:06Z</time>
      </trkpt>
      <trkpt lat="45.09261" lon="5.38694">
        <ele>857.15</ele>
        <time>2019-11-30T13:08:09Z</time>
      </trkpt>
      <trkpt lat="45.09258" lon="5.38687">
        <ele>856.67</ele>
        <time>2019-11-30T13:08:13Z</time>
      </trkpt>
      <trkpt lat="45.09251" lon="5.38677">
        <ele>857.15</ele>
        <time>2019-11-30T13:08:24Z</time>
      </trkpt>
      <trkpt lat="45.09245" lon="5.3867">
        <ele>857.63</ele>
        <time>2019-11-30T13:08:31Z</time>
      </trkpt>
      <trkpt lat="45.09239" lon="5.38663">
        <ele>857.63</ele>
        <time>2019-11-30T13:08:37Z</time>
      </trkpt>
      <trkpt lat="45.0923" lon="5.38651">
        <ele>858.59</ele>
        <time>2019-11-30T13:08:49Z</time>
      </trkpt>
      <trkpt lat="45.09228" lon="5.38647">
        <ele>862.92</ele>
        <time>2019-11-30T13:09:00Z</time>
      </trkpt>
      <trkpt lat="45.09228" lon="5.38647">
        <ele>858.59</ele>
        <time>2019-11-30T13:09:01Z</time>
      </trkpt>
      <trkpt lat="45.09228" lon="5.38647">
        <ele>858.59</ele>
        <time>2019-11-30T13:09:19Z</time>
      </trkpt>
      <trkpt lat="45.09228" lon="5.38648">
        <ele>858.59</ele>
        <time>2019-11-30T13:09:35Z</time>
      </trkpt>
      <trkpt lat="45.09228" lon="5.38648">
        <ele>858.59</ele>
        <time>2019-11-30T13:09:47Z</time>
      </trkpt>
      <trkpt lat="45.09228" lon="5.38647">
        <ele>858.59</ele>
        <time>2019-11-30T13:10:04Z</time>
      </trkpt>
      <trkpt lat="45.09228" lon="5.38648">
        <ele>858.59</ele>
        <time>2019-11-30T13:10:23Z</time>
      </trkpt>
      <trkpt lat="45.09228" lon="5.38648">
        <ele>850.42</ele>
        <time>2019-11-30T13:10:27Z</time>
      </trkpt>
      <trkpt lat="45.09228" lon="5.38648">
        <ele>860.04</ele>
        <time>2019-11-30T13:10:28Z</time>
      </trkpt>
      <trkpt lat="45.09227" lon="5.38646">
        <ele>859.08</ele>
        <time>2019-11-30T13:10:43Z</time>
      </trkpt>
      <trkpt lat="45.09224" lon="5.38641">
        <ele>859.08</ele>
        <time>2019-11-30T13:10:51Z</time>
      </trkpt>
      <trkpt lat="45.09215" lon="5.38634">
        <ele>859.08</ele>
        <time>2019-11-30T13:11:01Z</time>
      </trkpt>
      <trkpt lat="45.09204" lon="5.38631">
        <ele>858.11</ele>
        <time>2019-11-30T13:11:13Z</time>
      </trkpt>
      <trkpt lat="45.092" lon="5.38628">
        <ele>857.63</ele>
        <time>2019-11-30T13:11:25Z</time>
      </trkpt>
      <trkpt lat="45.09194" lon="5.38627">
        <ele>858.11</ele>
        <time>2019-11-30T13:11:37Z</time>
      </trkpt>
      <trkpt lat="45.09193" lon="5.38626">
        <ele>858.11</ele>
        <time>2019-11-30T13:11:38Z</time>
      </trkpt>
      <trkpt lat="45.0919" lon="5.38623">
        <ele>858.59</ele>
        <time>2019-11-30T13:11:41Z</time>
      </trkpt>
      <trkpt lat="45.09182" lon="5.38612">
        <ele>858.59</ele>
        <time>2019-11-30T13:11:51Z</time>
      </trkpt>
      <trkpt lat="45.0918" lon="5.38603">
        <ele>859.08</ele>
        <time>2019-11-30T13:11:57Z</time>
      </trkpt>
      <trkpt lat="45.09174" lon="5.38586">
        <ele>859.08</ele>
        <time>2019-11-30T13:12:10Z</time>
      </trkpt>
      <trkpt lat="45.09168" lon="5.38572">
        <ele>858.59</ele>
        <time>2019-11-30T13:12:21Z</time>
      </trkpt>
      <trkpt lat="45.09166" lon="5.38567">
        <ele>857.63</ele>
        <time>2019-11-30T13:12:33Z</time>
      </trkpt>
      <trkpt lat="45.09165" lon="5.38568">
        <ele>858.59</ele>
        <time>2019-11-30T13:12:45Z</time>
      </trkpt>
      <trkpt lat="45.09165" lon="5.38563">
        <ele>857.63</ele>
        <time>2019-11-30T13:12:52Z</time>
      </trkpt>
      <trkpt lat="45.09166" lon="5.38554">
        <ele>857.15</ele>
        <time>2019-11-30T13:12:58Z</time>
      </trkpt>
      <trkpt lat="45.09171" lon="5.38545">
        <ele>856.67</ele>
        <time>2019-11-30T13:13:06Z</time>
      </trkpt>
      <trkpt lat="45.09172" lon="5.38534">
        <ele>854.75</ele>
        <time>2019-11-30T13:13:19Z</time>
      </trkpt>
      <trkpt lat="45.09174" lon="5.38525">
        <ele>854.75</ele>
        <time>2019-11-30T13:13:32Z</time>
      </trkpt>
      <trkpt lat="45.09172" lon="5.38517">
        <ele>853.79</ele>
        <time>2019-11-30T13:13:39Z</time>
      </trkpt>
      <trkpt lat="45.09164" lon="5.38504">
        <ele>853.31</ele>
        <time>2019-11-30T13:13:48Z</time>
      </trkpt>
      <trkpt lat="45.09159" lon="5.38489">
        <ele>853.31</ele>
        <time>2019-11-30T13:13:59Z</time>
      </trkpt>
      <trkpt lat="45.09158" lon="5.38478">
        <ele>853.79</ele>
        <time>2019-11-30T13:14:05Z</time>
      </trkpt>
      <trkpt lat="45.09156" lon="5.38464">
        <ele>854.27</ele>
        <time>2019-11-30T13:14:12Z</time>
      </trkpt>
      <trkpt lat="45.09158" lon="5.38445">
        <ele>854.27</ele>
        <time>2019-11-30T13:14:25Z</time>
      </trkpt>
      <trkpt lat="45.09157" lon="5.38429">
        <ele>855.71</ele>
        <time>2019-11-30T13:14:35Z</time>
      </trkpt>
      <trkpt lat="45.09151" lon="5.38414">
        <ele>857.15</ele>
        <time>2019-11-30T13:14:45Z</time>
      </trkpt>
      <trkpt lat="45.09149" lon="5.38401">
        <ele>858.59</ele>
        <time>2019-11-30T13:14:56Z</time>
      </trkpt>
      <trkpt lat="45.09142" lon="5.38383">
        <ele>861</ele>
        <time>2019-11-30T13:15:07Z</time>
      </trkpt>
      <trkpt lat="45.09141" lon="5.38366">
        <ele>861.96</ele>
        <time>2019-11-30T13:15:18Z</time>
      </trkpt>
      <trkpt lat="45.09144" lon="5.38345">
        <ele>862.92</ele>
        <time>2019-11-30T13:15:32Z</time>
      </trkpt>
      <trkpt lat="45.09145" lon="5.38319">
        <ele>862.92</ele>
        <time>2019-11-30T13:15:46Z</time>
      </trkpt>
      <trkpt lat="45.09143" lon="5.38296">
        <ele>864.36</ele>
        <time>2019-11-30T13:15:59Z</time>
      </trkpt>
      <trkpt lat="45.09141" lon="5.38279">
        <ele>865.32</ele>
        <time>2019-11-30T13:16:10Z</time>
      </trkpt>
      <trkpt lat="45.09141" lon="5.38266">
        <ele>865.8</ele>
        <time>2019-11-30T13:16:19Z</time>
      </trkpt>
      <trkpt lat="45.09147" lon="5.38256">
        <ele>866.29</ele>
        <time>2019-11-30T13:16:30Z</time>
      </trkpt>
      <trkpt lat="45.09147" lon="5.38254">
        <ele>866.29</ele>
        <time>2019-11-30T13:16:43Z</time>
      </trkpt>
      <trkpt lat="45.0915" lon="5.38254">
        <ele>867.25</ele>
        <time>2019-11-30T13:16:59Z</time>
      </trkpt>
      <trkpt lat="45.09155" lon="5.38252">
        <ele>868.21</ele>
        <time>2019-11-30T13:17:12Z</time>
      </trkpt>
      <trkpt lat="45.09158" lon="5.38254">
        <ele>868.21</ele>
        <time>2019-11-30T13:17:17Z</time>
      </trkpt>
      <trkpt lat="45.09164" lon="5.38257">
        <ele>869.17</ele>
        <time>2019-11-30T13:17:22Z</time>
      </trkpt>
      <trkpt lat="45.09176" lon="5.3825">
        <ele>868.21</ele>
        <time>2019-11-30T13:17:33Z</time>
      </trkpt>
      <trkpt lat="45.09176" lon="5.38238">
        <ele>867.25</ele>
        <time>2019-11-30T13:17:45Z</time>
      </trkpt>
      <trkpt lat="45.09177" lon="5.38235">
        <ele>867.25</ele>
        <time>2019-11-30T13:17:49Z</time>
      </trkpt>
      <trkpt lat="45.09181" lon="5.38217">
        <ele>866.29</ele>
        <time>2019-11-30T13:18:01Z</time>
      </trkpt>
      <trkpt lat="45.09181" lon="5.38214">
        <ele>866.29</ele>
        <time>2019-11-30T13:18:03Z</time>
      </trkpt>
      <trkpt lat="45.0918" lon="5.3819">
        <ele>866.29</ele>
        <time>2019-11-30T13:18:16Z</time>
      </trkpt>
      <trkpt lat="45.09181" lon="5.38175">
        <ele>866.29</ele>
        <time>2019-11-30T13:18:26Z</time>
      </trkpt>
      <trkpt lat="45.09182" lon="5.38153">
        <ele>867.73</ele>
        <time>2019-11-30T13:18:40Z</time>
      </trkpt>
      <trkpt lat="45.09182" lon="5.3814">
        <ele>868.69</ele>
        <time>2019-11-30T13:18:47Z</time>
      </trkpt>
      <trkpt lat="45.0918" lon="5.38124">
        <ele>869.65</ele>
        <time>2019-11-30T13:18:58Z</time>
      </trkpt>
      <trkpt lat="45.09179" lon="5.38121">
        <ele>870.61</ele>
        <time>2019-11-30T13:19:01Z</time>
      </trkpt>
      <trkpt lat="45.09177" lon="5.38116">
        <ele>870.61</ele>
        <time>2019-11-30T13:19:04Z</time>
      </trkpt>
      <trkpt lat="45.09177" lon="5.38112">
        <ele>871.09</ele>
        <time>2019-11-30T13:19:06Z</time>
      </trkpt>
      <trkpt lat="45.09177" lon="5.38107">
        <ele>871.09</ele>
        <time>2019-11-30T13:19:09Z</time>
      </trkpt>
      <trkpt lat="45.09173" lon="5.38093">
        <ele>873.01</ele>
        <time>2019-11-30T13:19:20Z</time>
      </trkpt>
      <trkpt lat="45.09172" lon="5.38092">
        <ele>873.01</ele>
        <time>2019-11-30T13:19:21Z</time>
      </trkpt>
      <trkpt lat="45.09174" lon="5.38081">
        <ele>874.94</ele>
        <time>2019-11-30T13:19:32Z</time>
      </trkpt>
      <trkpt lat="45.09175" lon="5.38073">
        <ele>876.38</ele>
        <time>2019-11-30T13:19:42Z</time>
      </trkpt>
      <trkpt lat="45.09178" lon="5.38067">
        <ele>877.34</ele>
        <time>2019-11-30T13:19:52Z</time>
      </trkpt>
      <trkpt lat="45.09181" lon="5.38059">
        <ele>878.78</ele>
        <time>2019-11-30T13:20:00Z</time>
      </trkpt>
      <trkpt lat="45.09181" lon="5.38054">
        <ele>878.78</ele>
        <time>2019-11-30T13:20:05Z</time>
      </trkpt>
      <trkpt lat="45.09176" lon="5.38047">
        <ele>881.19</ele>
        <time>2019-11-30T13:20:14Z</time>
      </trkpt>
      <trkpt lat="45.09177" lon="5.38037">
        <ele>882.63</ele>
        <time>2019-11-30T13:20:23Z</time>
      </trkpt>
      <trkpt lat="45.09177" lon="5.38031">
        <ele>884.55</ele>
        <time>2019-11-30T13:20:29Z</time>
      </trkpt>
      <trkpt lat="45.09178" lon="5.38024">
        <ele>885.51</ele>
        <time>2019-11-30T13:20:37Z</time>
      </trkpt>
      <trkpt lat="45.0918" lon="5.38019">
        <ele>886.95</ele>
        <time>2019-11-30T13:20:48Z</time>
      </trkpt>
      <trkpt lat="45.0918" lon="5.38018">
        <ele>887.91</ele>
        <time>2019-11-30T13:20:51Z</time>
      </trkpt>
      <trkpt lat="45.09181" lon="5.38014">
        <ele>889.36</ele>
        <time>2019-11-30T13:21:01Z</time>
      </trkpt>
      <trkpt lat="45.09186" lon="5.38006">
        <ele>891.28</ele>
        <time>2019-11-30T13:21:10Z</time>
      </trkpt>
      <trkpt lat="45.09189" lon="5.37995">
        <ele>892.72</ele>
        <time>2019-11-30T13:21:21Z</time>
      </trkpt>
      <trkpt lat="45.0919" lon="5.37993">
        <ele>893.2</ele>
        <time>2019-11-30T13:21:37Z</time>
      </trkpt>
      <trkpt lat="45.09192" lon="5.3799">
        <ele>898.97</ele>
        <time>2019-11-30T13:21:46Z</time>
      </trkpt>
      <trkpt lat="45.09192" lon="5.3799">
        <ele>893.68</ele>
        <time>2019-11-30T13:21:47Z</time>
      </trkpt>
      <trkpt lat="45.09192" lon="5.3799">
        <ele>893.2</ele>
        <time>2019-11-30T13:21:49Z</time>
      </trkpt>
      <trkpt lat="45.09191" lon="5.37988">
        <ele>893.2</ele>
        <time>2019-11-30T13:22:12Z</time>
      </trkpt>
      <trkpt lat="45.09191" lon="5.37987">
        <ele>893.2</ele>
        <time>2019-11-30T13:22:27Z</time>
      </trkpt>
      <trkpt lat="45.09191" lon="5.37987">
        <ele>893.2</ele>
        <time>2019-11-30T13:22:28Z</time>
      </trkpt>
      <trkpt lat="45.0919" lon="5.37987">
        <ele>892.72</ele>
        <time>2019-11-30T13:22:44Z</time>
      </trkpt>
      <trkpt lat="45.09189" lon="5.37986">
        <ele>892.72</ele>
        <time>2019-11-30T13:22:56Z</time>
      </trkpt>
      <trkpt lat="45.09189" lon="5.37986">
        <ele>892.72</ele>
        <time>2019-11-30T13:23:21Z</time>
      </trkpt>
      <trkpt lat="45.09189" lon="5.37986">
        <ele>892.72</ele>
        <time>2019-11-30T13:23:46Z</time>
      </trkpt>
      <trkpt lat="45.09189" lon="5.37988">
        <ele>893.68</ele>
        <time>2019-11-30T13:23:55Z</time>
      </trkpt>
      <trkpt lat="45.09192" lon="5.37985">
        <ele>893.68</ele>
        <time>2019-11-30T13:24:00Z</time>
      </trkpt>
      <trkpt lat="45.09194" lon="5.37983">
        <ele>893.68</ele>
        <time>2019-11-30T13:24:02Z</time>
      </trkpt>
      <trkpt lat="45.09197" lon="5.37978">
        <ele>894.16</ele>
        <time>2019-11-30T13:24:06Z</time>
      </trkpt>
      <trkpt lat="45.09206" lon="5.37962">
        <ele>896.09</ele>
        <time>2019-11-30T13:24:17Z</time>
      </trkpt>
      <trkpt lat="45.09211" lon="5.37954">
        <ele>897.53</ele>
        <time>2019-11-30T13:24:25Z</time>
      </trkpt>
      <trkpt lat="45.09213" lon="5.37948">
        <ele>898.01</ele>
        <time>2019-11-30T13:24:29Z</time>
      </trkpt>
      <trkpt lat="45.09218" lon="5.37941">
        <ele>898.49</ele>
        <time>2019-11-30T13:24:34Z</time>
      </trkpt>
      <trkpt lat="45.09221" lon="5.37935">
        <ele>899.93</ele>
        <time>2019-11-30T13:24:38Z</time>
      </trkpt>
      <trkpt lat="45.0923" lon="5.37919">
        <ele>902.82</ele>
        <time>2019-11-30T13:24:50Z</time>
      </trkpt>
      <trkpt lat="45.09231" lon="5.37917">
        <ele>902.82</ele>
        <time>2019-11-30T13:24:52Z</time>
      </trkpt>
      <trkpt lat="45.09234" lon="5.37912">
        <ele>903.78</ele>
        <time>2019-11-30T13:24:56Z</time>
      </trkpt>
      <trkpt lat="45.09239" lon="5.37904">
        <ele>906.66</ele>
        <time>2019-11-30T13:25:07Z</time>
      </trkpt>
      <trkpt lat="45.09243" lon="5.37898">
        <ele>907.62</ele>
        <time>2019-11-30T13:25:15Z</time>
      </trkpt>
      <trkpt lat="45.09244" lon="5.37898">
        <ele>908.1</ele>
        <time>2019-11-30T13:25:17Z</time>
      </trkpt>
      <trkpt lat="45.09246" lon="5.37895">
        <ele>908.58</ele>
        <time>2019-11-30T13:25:20Z</time>
      </trkpt>
      <trkpt lat="45.09252" lon="5.37892">
        <ele>910.03</ele>
        <time>2019-11-30T13:25:29Z</time>
      </trkpt>
      <trkpt lat="45.09253" lon="5.3789">
        <ele>911.95</ele>
        <time>2019-11-30T13:25:37Z</time>
      </trkpt>
      <trkpt lat="45.09253" lon="5.37886">
        <ele>913.39</ele>
        <time>2019-11-30T13:25:44Z</time>
      </trkpt>
      <trkpt lat="45.09255" lon="5.37883">
        <ele>914.35</ele>
        <time>2019-11-30T13:25:52Z</time>
      </trkpt>
      <trkpt lat="45.09255" lon="5.37881">
        <ele>916.75</ele>
        <time>2019-11-30T13:26:01Z</time>
      </trkpt>
      <trkpt lat="45.09256" lon="5.37877">
        <ele>919.16</ele>
        <time>2019-11-30T13:26:11Z</time>
      </trkpt>
      <trkpt lat="45.09261" lon="5.37865">
        <ele>920.6</ele>
        <time>2019-11-30T13:26:20Z</time>
      </trkpt>
      <trkpt lat="45.09261" lon="5.37862">
        <ele>922.04</ele>
        <time>2019-11-30T13:26:24Z</time>
      </trkpt>
      <trkpt lat="45.09264" lon="5.37856">
        <ele>922.04</ele>
        <time>2019-11-30T13:26:27Z</time>
      </trkpt>
      <trkpt lat="45.09269" lon="5.37848">
        <ele>923</ele>
        <time>2019-11-30T13:26:32Z</time>
      </trkpt>
      <trkpt lat="45.09276" lon="5.37839">
        <ele>924.93</ele>
        <time>2019-11-30T13:26:41Z</time>
      </trkpt>
      <trkpt lat="45.09283" lon="5.37829">
        <ele>925.89</ele>
        <time>2019-11-30T13:26:48Z</time>
      </trkpt>
      <trkpt lat="45.09289" lon="5.37815">
        <ele>927.33</ele>
        <time>2019-11-30T13:26:57Z</time>
      </trkpt>
      <trkpt lat="45.09294" lon="5.37807">
        <ele>928.77</ele>
        <time>2019-11-30T13:27:05Z</time>
      </trkpt>
      <trkpt lat="45.09299" lon="5.37797">
        <ele>930.21</ele>
        <time>2019-11-30T13:27:11Z</time>
      </trkpt>
      <trkpt lat="45.09306" lon="5.37786">
        <ele>931.17</ele>
        <time>2019-11-30T13:27:19Z</time>
      </trkpt>
      <trkpt lat="45.0931" lon="5.37778">
        <ele>933.1</ele>
        <time>2019-11-30T13:27:28Z</time>
      </trkpt>
      <trkpt lat="45.09311" lon="5.37773">
        <ele>934.06</ele>
        <time>2019-11-30T13:27:35Z</time>
      </trkpt>
      <trkpt lat="45.09311" lon="5.37767">
        <ele>935.5</ele>
        <time>2019-11-30T13:27:43Z</time>
      </trkpt>
      <trkpt lat="45.09314" lon="5.3776">
        <ele>936.46</ele>
        <time>2019-11-30T13:27:48Z</time>
      </trkpt>
      <trkpt lat="45.09323" lon="5.37748">
        <ele>937.42</ele>
        <time>2019-11-30T13:27:58Z</time>
      </trkpt>
      <trkpt lat="45.09326" lon="5.37744">
        <ele>938.38</ele>
        <time>2019-11-30T13:28:01Z</time>
      </trkpt>
      <trkpt lat="45.09337" lon="5.37721">
        <ele>940.31</ele>
        <time>2019-11-30T13:28:11Z</time>
      </trkpt>
      <trkpt lat="45.0934" lon="5.37715">
        <ele>941.27</ele>
        <time>2019-11-30T13:28:18Z</time>
      </trkpt>
      <trkpt lat="45.0934" lon="5.37713">
        <ele>943.19</ele>
        <time>2019-11-30T13:28:26Z</time>
      </trkpt>
      <trkpt lat="45.09342" lon="5.37711">
        <ele>945.11</ele>
        <time>2019-11-30T13:28:33Z</time>
      </trkpt>
      <trkpt lat="45.09343" lon="5.37709">
        <ele>945.59</ele>
        <time>2019-11-30T13:28:37Z</time>
      </trkpt>
      <trkpt lat="45.09348" lon="5.37701">
        <ele>947.52</ele>
        <time>2019-11-30T13:28:45Z</time>
      </trkpt>
      <trkpt lat="45.09352" lon="5.37697">
        <ele>948.96</ele>
        <time>2019-11-30T13:28:52Z</time>
      </trkpt>
      <trkpt lat="45.09352" lon="5.37696">
        <ele>949.92</ele>
        <time>2019-11-30T13:28:56Z</time>
      </trkpt>
      <trkpt lat="45.09354" lon="5.37692">
        <ele>951.36</ele>
        <time>2019-11-30T13:29:04Z</time>
      </trkpt>
      <trkpt lat="45.09352" lon="5.37691">
        <ele>952.8</ele>
        <time>2019-11-30T13:29:11Z</time>
      </trkpt>
      <trkpt lat="45.09353" lon="5.37689">
        <ele>955.21</ele>
        <time>2019-11-30T13:29:21Z</time>
      </trkpt>
      <trkpt lat="45.09353" lon="5.37686">
        <ele>956.65</ele>
        <time>2019-11-30T13:29:29Z</time>
      </trkpt>
      <trkpt lat="45.09358" lon="5.37682">
        <ele>959.05</ele>
        <time>2019-11-30T13:29:37Z</time>
      </trkpt>
      <trkpt lat="45.09362" lon="5.37673">
        <ele>960.01</ele>
        <time>2019-11-30T13:29:44Z</time>
      </trkpt>
      <trkpt lat="45.09362" lon="5.37671">
        <ele>960.49</ele>
        <time>2019-11-30T13:29:45Z</time>
      </trkpt>
      <trkpt lat="45.09364" lon="5.37665">
        <ele>961.94</ele>
        <time>2019-11-30T13:29:48Z</time>
      </trkpt>
      <trkpt lat="45.09368" lon="5.37649">
        <ele>963.86</ele>
        <time>2019-11-30T13:29:57Z</time>
      </trkpt>
      <trkpt lat="45.09372" lon="5.37644">
        <ele>965.3</ele>
        <time>2019-11-30T13:30:02Z</time>
      </trkpt>
      <trkpt lat="45.09374" lon="5.37641">
        <ele>965.3</ele>
        <time>2019-11-30T13:30:03Z</time>
      </trkpt>
      <trkpt lat="45.09379" lon="5.37631">
        <ele>966.74</ele>
        <time>2019-11-30T13:30:09Z</time>
      </trkpt>
      <trkpt lat="45.0938" lon="5.3763">
        <ele>967.22</ele>
        <time>2019-11-30T13:30:11Z</time>
      </trkpt>
      <trkpt lat="45.09382" lon="5.37625">
        <ele>968.67</ele>
        <time>2019-11-30T13:30:19Z</time>
      </trkpt>
      <trkpt lat="45.09389" lon="5.3761">
        <ele>970.11</ele>
        <time>2019-11-30T13:30:27Z</time>
      </trkpt>
      <trkpt lat="45.09392" lon="5.37601">
        <ele>972.03</ele>
        <time>2019-11-30T13:30:35Z</time>
      </trkpt>
      <trkpt lat="45.09394" lon="5.37594">
        <ele>973.95</ele>
        <time>2019-11-30T13:30:43Z</time>
      </trkpt>
      <trkpt lat="45.09396" lon="5.37587">
        <ele>974.91</ele>
        <time>2019-11-30T13:30:50Z</time>
      </trkpt>
      <trkpt lat="45.09397" lon="5.37572">
        <ele>977.32</ele>
        <time>2019-11-30T13:30:59Z</time>
      </trkpt>
      <trkpt lat="45.09402" lon="5.37557">
        <ele>977.32</ele>
        <time>2019-11-30T13:31:03Z</time>
      </trkpt>
      <trkpt lat="45.09406" lon="5.37539">
        <ele>978.76</ele>
        <time>2019-11-30T13:31:08Z</time>
      </trkpt>
      <trkpt lat="45.0941" lon="5.37533">
        <ele>978.76</ele>
        <time>2019-11-30T13:31:10Z</time>
      </trkpt>
      <trkpt lat="45.09412" lon="5.37529">
        <ele>978.76</ele>
        <time>2019-11-30T13:31:13Z</time>
      </trkpt>
      <trkpt lat="45.09413" lon="5.37514">
        <ele>981.16</ele>
        <time>2019-11-30T13:31:23Z</time>
      </trkpt>
      <trkpt lat="45.09417" lon="5.37503">
        <ele>982.12</ele>
        <time>2019-11-30T13:31:31Z</time>
      </trkpt>
      <trkpt lat="45.0942" lon="5.37492">
        <ele>984.05</ele>
        <time>2019-11-30T13:31:38Z</time>
      </trkpt>
      <trkpt lat="45.09421" lon="5.37488">
        <ele>984.53</ele>
        <time>2019-11-30T13:31:41Z</time>
      </trkpt>
      <trkpt lat="45.09424" lon="5.37479">
        <ele>985.49</ele>
        <time>2019-11-30T13:31:51Z</time>
      </trkpt>
      <trkpt lat="45.09427" lon="5.37469">
        <ele>987.41</ele>
        <time>2019-11-30T13:31:59Z</time>
      </trkpt>
      <trkpt lat="45.09427" lon="5.37463">
        <ele>987.89</ele>
        <time>2019-11-30T13:32:03Z</time>
      </trkpt>
      <trkpt lat="45.09424" lon="5.37449">
        <ele>988.85</ele>
        <time>2019-11-30T13:32:09Z</time>
      </trkpt>
      <trkpt lat="45.09421" lon="5.37434">
        <ele>990.3</ele>
        <time>2019-11-30T13:32:21Z</time>
      </trkpt>
      <trkpt lat="45.09424" lon="5.37424">
        <ele>991.26</ele>
        <time>2019-11-30T13:32:31Z</time>
      </trkpt>
      <trkpt lat="45.09427" lon="5.37418">
        <ele>991.74</ele>
        <time>2019-11-30T13:32:36Z</time>
      </trkpt>
      <trkpt lat="45.0943" lon="5.37407">
        <ele>992.22</ele>
        <time>2019-11-30T13:32:45Z</time>
      </trkpt>
      <trkpt lat="45.09431" lon="5.37403">
        <ele>992.22</ele>
        <time>2019-11-30T13:32:53Z</time>
      </trkpt>
      <trkpt lat="45.09432" lon="5.37401">
        <ele>991.74</ele>
        <time>2019-11-30T13:33:08Z</time>
      </trkpt>
      <trkpt lat="45.09433" lon="5.37398">
        <ele>991.74</ele>
        <time>2019-11-30T13:33:22Z</time>
      </trkpt>
      <trkpt lat="45.09431" lon="5.37395">
        <ele>991.74</ele>
        <time>2019-11-30T13:33:34Z</time>
      </trkpt>
      <trkpt lat="45.09428" lon="5.37393">
        <ele>991.74</ele>
        <time>2019-11-30T13:33:48Z</time>
      </trkpt>
      <trkpt lat="45.09426" lon="5.37393">
        <ele>991.26</ele>
        <time>2019-11-30T13:34:11Z</time>
      </trkpt>
      <trkpt lat="45.09426" lon="5.37393">
        <ele>991.74</ele>
        <time>2019-11-30T13:34:35Z</time>
      </trkpt>
      <trkpt lat="45.09426" lon="5.37393">
        <ele>991.26</ele>
        <time>2019-11-30T13:34:47Z</time>
      </trkpt>
      <trkpt lat="45.09427" lon="5.37393">
        <ele>991.26</ele>
        <time>2019-11-30T13:34:58Z</time>
      </trkpt>
      <trkpt lat="45.09436" lon="5.37391">
        <ele>992.22</ele>
        <time>2019-11-30T13:35:08Z</time>
      </trkpt>
      <trkpt lat="45.09441" lon="5.37384">
        <ele>992.22</ele>
        <time>2019-11-30T13:35:18Z</time>
      </trkpt>
      <trkpt lat="45.09444" lon="5.37379">
        <ele>993.18</ele>
        <time>2019-11-30T13:35:24Z</time>
      </trkpt>
      <trkpt lat="45.09449" lon="5.37372">
        <ele>993.66</ele>
        <time>2019-11-30T13:35:33Z</time>
      </trkpt>
      <trkpt lat="45.09454" lon="5.37369">
        <ele>994.14</ele>
        <time>2019-11-30T13:35:41Z</time>
      </trkpt>
      <trkpt lat="45.09463" lon="5.37359">
        <ele>996.06</ele>
        <time>2019-11-30T13:35:52Z</time>
      </trkpt>
      <trkpt lat="45.09464" lon="5.37358">
        <ele>996.06</ele>
        <time>2019-11-30T13:35:53Z</time>
      </trkpt>
      <trkpt lat="45.0947" lon="5.37347">
        <ele>997.51</ele>
        <time>2019-11-30T13:36:02Z</time>
      </trkpt>
      <trkpt lat="45.09474" lon="5.37338">
        <ele>998.47</ele>
        <time>2019-11-30T13:36:11Z</time>
      </trkpt>
      <trkpt lat="45.09477" lon="5.37334">
        <ele>999.43</ele>
        <time>2019-11-30T13:36:16Z</time>
      </trkpt>
      <trkpt lat="45.09483" lon="5.37327">
        <ele>1000.87</ele>
        <time>2019-11-30T13:36:24Z</time>
      </trkpt>
      <trkpt lat="45.09487" lon="5.37321">
        <ele>1002.31</ele>
        <time>2019-11-30T13:36:32Z</time>
      </trkpt>
      <trkpt lat="45.09488" lon="5.3732">
        <ele>1002.79</ele>
        <time>2019-11-30T13:36:36Z</time>
      </trkpt>
      <trkpt lat="45.09491" lon="5.37318">
        <ele>1003.75</ele>
        <time>2019-11-30T13:36:40Z</time>
      </trkpt>
      <trkpt lat="45.09497" lon="5.37309">
        <ele>1005.68</ele>
        <time>2019-11-30T13:36:50Z</time>
      </trkpt>
      <trkpt lat="45.09501" lon="5.37302">
        <ele>1007.6</ele>
        <time>2019-11-30T13:36:58Z</time>
      </trkpt>
      <trkpt lat="45.09504" lon="5.373">
        <ele>1008.56</ele>
        <time>2019-11-30T13:37:03Z</time>
      </trkpt>
      <trkpt lat="45.09507" lon="5.37288">
        <ele>1010</ele>
        <time>2019-11-30T13:37:12Z</time>
      </trkpt>
      <trkpt lat="45.09509" lon="5.37284">
        <ele>1011.44</ele>
        <time>2019-11-30T13:37:20Z</time>
      </trkpt>
      <trkpt lat="45.09511" lon="5.37279">
        <ele>1012.41</ele>
        <time>2019-11-30T13:37:28Z</time>
      </trkpt>
      <trkpt lat="45.09511" lon="5.37274">
        <ele>1014.33</ele>
        <time>2019-11-30T13:37:36Z</time>
      </trkpt>
      <trkpt lat="45.0952" lon="5.37244">
        <ele>1016.25</ele>
        <time>2019-11-30T13:37:46Z</time>
      </trkpt>
      <trkpt lat="45.09521" lon="5.37241">
        <ele>1016.25</ele>
        <time>2019-11-30T13:37:49Z</time>
      </trkpt>
      <trkpt lat="45.09523" lon="5.37226">
        <ele>1018.65</ele>
        <time>2019-11-30T13:37:59Z</time>
      </trkpt>
      <trkpt lat="45.09522" lon="5.37204">
        <ele>1018.65</ele>
        <time>2019-11-30T13:38:09Z</time>
      </trkpt>
      <trkpt lat="45.09522" lon="5.37198">
        <ele>1019.13</ele>
        <time>2019-11-30T13:38:17Z</time>
      </trkpt>
      <trkpt lat="45.09517" lon="5.3719">
        <ele>1018.65</ele>
        <time>2019-11-30T13:38:29Z</time>
      </trkpt>
      <trkpt lat="45.09514" lon="5.37187">
        <ele>1018.65</ele>
        <time>2019-11-30T13:38:46Z</time>
      </trkpt>
      <trkpt lat="45.09514" lon="5.37183">
        <ele>1019.13</ele>
        <time>2019-11-30T13:38:59Z</time>
      </trkpt>
      <trkpt lat="45.09514" lon="5.37183">
        <ele>1019.13</ele>
        <time>2019-11-30T13:39:11Z</time>
      </trkpt>
      <trkpt lat="45.09514" lon="5.37183">
        <ele>1019.13</ele>
        <time>2019-11-30T13:39:34Z</time>
      </trkpt>
      <trkpt lat="45.09515" lon="5.37182">
        <ele>1018.65</ele>
        <time>2019-11-30T13:39:53Z</time>
      </trkpt>
      <trkpt lat="45.09515" lon="5.37182">
        <ele>1018.17</ele>
        <time>2019-11-30T13:40:15Z</time>
      </trkpt>
      <trkpt lat="45.09515" lon="5.37182">
        <ele>1018.17</ele>
        <time>2019-11-30T13:40:39Z</time>
      </trkpt>
      <trkpt lat="45.09515" lon="5.37182">
        <ele>1017.69</ele>
        <time>2019-11-30T13:41:05Z</time>
      </trkpt>
      <trkpt lat="45.09515" lon="5.37181">
        <ele>1017.21</ele>
        <time>2019-11-30T13:41:23Z</time>
      </trkpt>
      <trkpt lat="45.09514" lon="5.3718">
        <ele>1016.25</ele>
        <time>2019-11-30T13:41:44Z</time>
      </trkpt>
      <trkpt lat="45.09514" lon="5.37177">
        <ele>1017.21</ele>
        <time>2019-11-30T13:41:57Z</time>
      </trkpt>
      <trkpt lat="45.09513" lon="5.37177">
        <ele>1016.73</ele>
        <time>2019-11-30T13:42:14Z</time>
      </trkpt>
      <trkpt lat="45.09512" lon="5.37177">
        <ele>1016.73</ele>
        <time>2019-11-30T13:42:34Z</time>
      </trkpt>
      <trkpt lat="45.09511" lon="5.37178">
        <ele>1016.25</ele>
        <time>2019-11-30T13:42:59Z</time>
      </trkpt>
      <trkpt lat="45.09509" lon="5.37176">
        <ele>1016.25</ele>
        <time>2019-11-30T13:43:24Z</time>
      </trkpt>
      <trkpt lat="45.09509" lon="5.37177">
        <ele>1016.25</ele>
        <time>2019-11-30T13:43:43Z</time>
      </trkpt>
      <trkpt lat="45.09509" lon="5.37178">
        <ele>1016.25</ele>
        <time>2019-11-30T13:44:05Z</time>
      </trkpt>
      <trkpt lat="45.0951" lon="5.37178">
        <ele>1015.29</ele>
        <time>2019-11-30T13:44:28Z</time>
      </trkpt>
      <trkpt lat="45.0951" lon="5.37178">
        <ele>1016.25</ele>
        <time>2019-11-30T13:44:44Z</time>
      </trkpt>
      <trkpt lat="45.09512" lon="5.3718">
        <ele>1015.77</ele>
        <time>2019-11-30T13:44:59Z</time>
      </trkpt>
      <trkpt lat="45.09513" lon="5.37181">
        <ele>1015.77</ele>
        <time>2019-11-30T13:45:14Z</time>
      </trkpt>
      <trkpt lat="45.09511" lon="5.37179">
        <ele>1014.81</ele>
        <time>2019-11-30T13:45:34Z</time>
      </trkpt>
      <trkpt lat="45.09512" lon="5.37181">
        <ele>1015.29</ele>
        <time>2019-11-30T13:45:42Z</time>
      </trkpt>
      <trkpt lat="45.09512" lon="5.37187">
        <ele>1015.29</ele>
        <time>2019-11-30T13:45:51Z</time>
      </trkpt>
      <trkpt lat="45.09513" lon="5.37193">
        <ele>1015.29</ele>
        <time>2019-11-30T13:46:01Z</time>
      </trkpt>
      <trkpt lat="45.09514" lon="5.37202">
        <ele>1013.37</ele>
        <time>2019-11-30T13:46:10Z</time>
      </trkpt>
      <trkpt lat="45.09517" lon="5.37214">
        <ele>1011.44</ele>
        <time>2019-11-30T13:46:20Z</time>
      </trkpt>
      <trkpt lat="45.09516" lon="5.37232">
        <ele>1009.52</ele>
        <time>2019-11-30T13:46:31Z</time>
      </trkpt>
      <trkpt lat="45.09517" lon="5.37245">
        <ele>1007.6</ele>
        <time>2019-11-30T13:46:42Z</time>
      </trkpt>
      <trkpt lat="45.09513" lon="5.3726">
        <ele>1006.16</ele>
        <time>2019-11-30T13:46:54Z</time>
      </trkpt>
      <trkpt lat="45.09509" lon="5.37274">
        <ele>1003.75</ele>
        <time>2019-11-30T13:47:05Z</time>
      </trkpt>
      <trkpt lat="45.09506" lon="5.37277">
        <ele>1002.31</ele>
        <time>2019-11-30T13:47:13Z</time>
      </trkpt>
      <trkpt lat="45.095" lon="5.3729">
        <ele>999.91</ele>
        <time>2019-11-30T13:47:24Z</time>
      </trkpt>
      <trkpt lat="45.09492" lon="5.37303">
        <ele>997.51</ele>
        <time>2019-11-30T13:47:35Z</time>
      </trkpt>
      <trkpt lat="45.09485" lon="5.37312">
        <ele>995.1</ele>
        <time>2019-11-30T13:47:44Z</time>
      </trkpt>
      <trkpt lat="45.09475" lon="5.37322">
        <ele>994.62</ele>
        <time>2019-11-30T13:47:53Z</time>
      </trkpt>
      <trkpt lat="45.09472" lon="5.37327">
        <ele>993.66</ele>
        <time>2019-11-30T13:47:57Z</time>
      </trkpt>
      <trkpt lat="45.09458" lon="5.37347">
        <ele>992.22</ele>
        <time>2019-11-30T13:48:10Z</time>
      </trkpt>
      <trkpt lat="45.09457" lon="5.37349">
        <ele>991.74</ele>
        <time>2019-11-30T13:48:12Z</time>
      </trkpt>
      <trkpt lat="45.09451" lon="5.37358">
        <ele>990.3</ele>
        <time>2019-11-30T13:48:23Z</time>
      </trkpt>
      <trkpt lat="45.09447" lon="5.37364">
        <ele>989.81</ele>
        <time>2019-11-30T13:48:29Z</time>
      </trkpt>
      <trkpt lat="45.09444" lon="5.37368">
        <ele>989.33</ele>
        <time>2019-11-30T13:48:34Z</time>
      </trkpt>
      <trkpt lat="45.09439" lon="5.37378">
        <ele>988.85</ele>
        <time>2019-11-30T13:48:40Z</time>
      </trkpt>
      <trkpt lat="45.09437" lon="5.37381">
        <ele>988.37</ele>
        <time>2019-11-30T13:48:43Z</time>
      </trkpt>
      <trkpt lat="45.09433" lon="5.37379">
        <ele>987.89</ele>
        <time>2019-11-30T13:48:47Z</time>
      </trkpt>
      <trkpt lat="45.09433" lon="5.37376">
        <ele>987.89</ele>
        <time>2019-11-30T13:48:51Z</time>
      </trkpt>
      <trkpt lat="45.0944" lon="5.37365">
        <ele>985.97</ele>
        <time>2019-11-30T13:49:02Z</time>
      </trkpt>
      <trkpt lat="45.09443" lon="5.37357">
        <ele>986.45</ele>
        <time>2019-11-30T13:49:13Z</time>
      </trkpt>
      <trkpt lat="45.09446" lon="5.37349">
        <ele>985.49</ele>
        <time>2019-11-30T13:49:24Z</time>
      </trkpt>
      <trkpt lat="45.09448" lon="5.37346">
        <ele>985.49</ele>
        <time>2019-11-30T13:49:26Z</time>
      </trkpt>
      <trkpt lat="45.09453" lon="5.3733">
        <ele>983.57</ele>
        <time>2019-11-30T13:49:37Z</time>
      </trkpt>
      <trkpt lat="45.09455" lon="5.37323">
        <ele>982.12</ele>
        <time>2019-11-30T13:49:43Z</time>
      </trkpt>
      <trkpt lat="45.09458" lon="5.37305">
        <ele>979.24</ele>
        <time>2019-11-30T13:49:56Z</time>
      </trkpt>
      <trkpt lat="45.09458" lon="5.37292">
        <ele>977.8</ele>
        <time>2019-11-30T13:50:04Z</time>
      </trkpt>
      <trkpt lat="45.09456" lon="5.3728">
        <ele>976.36</ele>
        <time>2019-11-30T13:50:10Z</time>
      </trkpt>
      <trkpt lat="45.09457" lon="5.37273">
        <ele>975.39</ele>
        <time>2019-11-30T13:50:16Z</time>
      </trkpt>
      <trkpt lat="45.09454" lon="5.37248">
        <ele>973.95</ele>
        <time>2019-11-30T13:50:28Z</time>
      </trkpt>
      <trkpt lat="45.09451" lon="5.3723">
        <ele>972.51</ele>
        <time>2019-11-30T13:50:39Z</time>
      </trkpt>
      <trkpt lat="45.09447" lon="5.37212">
        <ele>972.03</ele>
        <time>2019-11-30T13:50:49Z</time>
      </trkpt>
      <trkpt lat="45.09444" lon="5.3719">
        <ele>970.59</ele>
        <time>2019-11-30T13:51:02Z</time>
      </trkpt>
      <trkpt lat="45.09442" lon="5.37167">
        <ele>968.67</ele>
        <time>2019-11-30T13:51:14Z</time>
      </trkpt>
      <trkpt lat="45.09443" lon="5.37148">
        <ele>968.18</ele>
        <time>2019-11-30T13:51:25Z</time>
      </trkpt>
      <trkpt lat="45.09441" lon="5.37128">
        <ele>966.74</ele>
        <time>2019-11-30T13:51:36Z</time>
      </trkpt>
      <trkpt lat="45.0944" lon="5.3712">
        <ele>966.26</ele>
        <time>2019-11-30T13:51:40Z</time>
      </trkpt>
      <trkpt lat="45.09437" lon="5.37109">
        <ele>966.26</ele>
        <time>2019-11-30T13:51:46Z</time>
      </trkpt>
      <trkpt lat="45.09436" lon="5.37105">
        <ele>965.78</ele>
        <time>2019-11-30T13:51:48Z</time>
      </trkpt>
      <trkpt lat="45.09434" lon="5.37085">
        <ele>962.9</ele>
        <time>2019-11-30T13:52:00Z</time>
      </trkpt>
      <trkpt lat="45.09433" lon="5.37081">
        <ele>962.42</ele>
        <time>2019-11-30T13:52:02Z</time>
      </trkpt>
      <trkpt lat="45.0943" lon="5.37073">
        <ele>962.42</ele>
        <time>2019-11-30T13:52:07Z</time>
      </trkpt>
      <trkpt lat="45.09429" lon="5.37068">
        <ele>961.46</ele>
        <time>2019-11-30T13:52:10Z</time>
      </trkpt>
      <trkpt lat="45.09427" lon="5.37059">
        <ele>960.98</ele>
        <time>2019-11-30T13:52:15Z</time>
      </trkpt>
      <trkpt lat="45.09423" lon="5.37049">
        <ele>960.01</ele>
        <time>2019-11-30T13:52:21Z</time>
      </trkpt>
      <trkpt lat="45.0942" lon="5.37039">
        <ele>959.53</ele>
        <time>2019-11-30T13:52:26Z</time>
      </trkpt>
      <trkpt lat="45.0941" lon="5.37026">
        <ele>957.61</ele>
        <time>2019-11-30T13:52:37Z</time>
      </trkpt>
      <trkpt lat="45.09403" lon="5.37016">
        <ele>956.17</ele>
        <time>2019-11-30T13:52:45Z</time>
      </trkpt>
      <trkpt lat="45.09398" lon="5.37011">
        <ele>956.17</ele>
        <time>2019-11-30T13:52:49Z</time>
      </trkpt>
      <trkpt lat="45.09397" lon="5.37006">
        <ele>955.69</ele>
        <time>2019-11-30T13:52:52Z</time>
      </trkpt>
      <trkpt lat="45.0939" lon="5.36987">
        <ele>955.69</ele>
        <time>2019-11-30T13:53:03Z</time>
      </trkpt>
      <trkpt lat="45.09386" lon="5.36973">
        <ele>956.17</ele>
        <time>2019-11-30T13:53:14Z</time>
      </trkpt>
      <trkpt lat="45.09386" lon="5.36971">
        <ele>956.17</ele>
        <time>2019-11-30T13:53:15Z</time>
      </trkpt>
      <trkpt lat="45.09375" lon="5.3696">
        <ele>955.21</ele>
        <time>2019-11-30T13:53:27Z</time>
      </trkpt>
      <trkpt lat="45.09373" lon="5.36956">
        <ele>954.73</ele>
        <time>2019-11-30T13:53:32Z</time>
      </trkpt>
      <trkpt lat="45.09371" lon="5.36953">
        <ele>954.73</ele>
        <time>2019-11-30T13:53:35Z</time>
      </trkpt>
      <trkpt lat="45.09362" lon="5.36941">
        <ele>952.8</ele>
        <time>2019-11-30T13:53:45Z</time>
      </trkpt>
      <trkpt lat="45.09359" lon="5.36937">
        <ele>952.32</ele>
        <time>2019-11-30T13:53:54Z</time>
      </trkpt>
      <trkpt lat="45.09357" lon="5.36937">
        <ele>951.84</ele>
        <time>2019-11-30T13:54:09Z</time>
      </trkpt>
      <trkpt lat="45.09357" lon="5.36936">
        <ele>951.36</ele>
        <time>2019-11-30T13:54:27Z</time>
      </trkpt>
      <trkpt lat="45.09352" lon="5.36925">
        <ele>949.92</ele>
        <time>2019-11-30T13:54:37Z</time>
      </trkpt>
      <trkpt lat="45.0935" lon="5.36918">
        <ele>947.04</ele>
        <time>2019-11-30T13:54:47Z</time>
      </trkpt>
      <trkpt lat="45.09351" lon="5.36901">
        <ele>944.15</ele>
        <time>2019-11-30T13:54:57Z</time>
      </trkpt>
      <trkpt lat="45.09351" lon="5.36899">
        <ele>944.15</ele>
        <time>2019-11-30T13:54:58Z</time>
      </trkpt>
      <trkpt lat="45.09348" lon="5.36885">
        <ele>940.79</ele>
        <time>2019-11-30T13:55:10Z</time>
      </trkpt>
      <trkpt lat="45.0935" lon="5.36876">
        <ele>937.9</ele>
        <time>2019-11-30T13:55:19Z</time>
      </trkpt>
      <trkpt lat="45.09348" lon="5.36863">
        <ele>935.5</ele>
        <time>2019-11-30T13:55:30Z</time>
      </trkpt>
      <trkpt lat="45.09347" lon="5.36855">
        <ele>934.06</ele>
        <time>2019-11-30T13:55:34Z</time>
      </trkpt>
      <trkpt lat="45.09347" lon="5.36844">
        <ele>933.1</ele>
        <time>2019-11-30T13:55:40Z</time>
      </trkpt>
      <trkpt lat="45.09342" lon="5.3683">
        <ele>930.69</ele>
        <time>2019-11-30T13:55:52Z</time>
      </trkpt>
      <trkpt lat="45.0934" lon="5.36814">
        <ele>928.29</ele>
        <time>2019-11-30T13:56:03Z</time>
      </trkpt>
      <trkpt lat="45.09337" lon="5.36803">
        <ele>926.37</ele>
        <time>2019-11-30T13:56:13Z</time>
      </trkpt>
      <trkpt lat="45.09335" lon="5.36797">
        <ele>926.37</ele>
        <time>2019-11-30T13:56:19Z</time>
      </trkpt>
      <trkpt lat="45.09331" lon="5.36785">
        <ele>925.41</ele>
        <time>2019-11-30T13:56:27Z</time>
      </trkpt>
      <trkpt lat="45.09327" lon="5.36778">
        <ele>924.45</ele>
        <time>2019-11-30T13:56:31Z</time>
      </trkpt>
      <trkpt lat="45.09323" lon="5.36763">
        <ele>923</ele>
        <time>2019-11-30T13:56:42Z</time>
      </trkpt>
      <trkpt lat="45.09322" lon="5.3676">
        <ele>922.52</ele>
        <time>2019-11-30T13:56:46Z</time>
      </trkpt>
      <trkpt lat="45.09316" lon="5.36745">
        <ele>921.08</ele>
        <time>2019-11-30T13:56:56Z</time>
      </trkpt>
      <trkpt lat="45.09306" lon="5.36732">
        <ele>920.12</ele>
        <time>2019-11-30T13:57:06Z</time>
      </trkpt>
      <trkpt lat="45.093" lon="5.36721">
        <ele>919.16</ele>
        <time>2019-11-30T13:57:15Z</time>
      </trkpt>
      <trkpt lat="45.09291" lon="5.36706">
        <ele>919.16</ele>
        <time>2019-11-30T13:57:25Z</time>
      </trkpt>
      <trkpt lat="45.09289" lon="5.367">
        <ele>918.68</ele>
        <time>2019-11-30T13:57:28Z</time>
      </trkpt>
      <trkpt lat="45.09282" lon="5.36685">
        <ele>917.72</ele>
        <time>2019-11-30T13:57:37Z</time>
      </trkpt>
      <trkpt lat="45.09278" lon="5.36676">
        <ele>916.27</ele>
        <time>2019-11-30T13:57:45Z</time>
      </trkpt>
      <trkpt lat="45.09269" lon="5.36664">
        <ele>915.31</ele>
        <time>2019-11-30T13:57:56Z</time>
      </trkpt>
      <trkpt lat="45.09265" lon="5.3666">
        <ele>914.83</ele>
        <time>2019-11-30T13:58:01Z</time>
      </trkpt>
      <trkpt lat="45.09259" lon="5.36649">
        <ele>913.87</ele>
        <time>2019-11-30T13:58:11Z</time>
      </trkpt>
      <trkpt lat="45.09252" lon="5.3664">
        <ele>913.39</ele>
        <time>2019-11-30T13:58:20Z</time>
      </trkpt>
      <trkpt lat="45.09251" lon="5.3664">
        <ele>913.39</ele>
        <time>2019-11-30T13:58:23Z</time>
      </trkpt>
      <trkpt lat="45.09241" lon="5.36633">
        <ele>912.91</ele>
        <time>2019-11-30T13:58:31Z</time>
      </trkpt>
      <trkpt lat="45.09233" lon="5.36627">
        <ele>912.91</ele>
        <time>2019-11-30T13:58:37Z</time>
      </trkpt>
      <trkpt lat="45.09218" lon="5.36622">
        <ele>911.95</ele>
        <time>2019-11-30T13:58:47Z</time>
      </trkpt>
      <trkpt lat="45.09205" lon="5.36617">
        <ele>911.47</ele>
        <time>2019-11-30T13:58:56Z</time>
      </trkpt>
      <trkpt lat="45.092" lon="5.36613">
        <ele>911.47</ele>
        <time>2019-11-30T13:59:03Z</time>
      </trkpt>
      <trkpt lat="45.09193" lon="5.36611">
        <ele>910.99</ele>
        <time>2019-11-30T13:59:12Z</time>
      </trkpt>
      <trkpt lat="45.09186" lon="5.36608">
        <ele>910.51</ele>
        <time>2019-11-30T13:59:22Z</time>
      </trkpt>
      <trkpt lat="45.09182" lon="5.36604">
        <ele>909.06</ele>
        <time>2019-11-30T13:59:27Z</time>
      </trkpt>
      <trkpt lat="45.09177" lon="5.366">
        <ele>908.58</ele>
        <time>2019-11-30T13:59:32Z</time>
      </trkpt>
      <trkpt lat="45.09168" lon="5.36588">
        <ele>905.7</ele>
        <time>2019-11-30T13:59:42Z</time>
      </trkpt>
      <trkpt lat="45.09165" lon="5.36575">
        <ele>903.3</ele>
        <time>2019-11-30T13:59:52Z</time>
      </trkpt>
      <trkpt lat="45.09158" lon="5.36571">
        <ele>902.82</ele>
        <time>2019-11-30T13:59:56Z</time>
      </trkpt>
      <trkpt lat="45.09139" lon="5.36568">
        <ele>900.89</ele>
        <time>2019-11-30T14:00:07Z</time>
      </trkpt>
      <trkpt lat="45.09127" lon="5.36565">
        <ele>898.97</ele>
        <time>2019-11-30T14:00:17Z</time>
      </trkpt>
      <trkpt lat="45.09122" lon="5.36559">
        <ele>897.05</ele>
        <time>2019-11-30T14:00:27Z</time>
      </trkpt>
      <trkpt lat="45.09115" lon="5.36554">
        <ele>894.64</ele>
        <time>2019-11-30T14:00:39Z</time>
      </trkpt>
      <trkpt lat="45.09109" lon="5.36547">
        <ele>892.72</ele>
        <time>2019-11-30T14:00:50Z</time>
      </trkpt>
      <trkpt lat="45.09108" lon="5.36546">
        <ele>892.72</ele>
        <time>2019-11-30T14:00:52Z</time>
      </trkpt>
      <trkpt lat="45.09097" lon="5.36541">
        <ele>890.8</ele>
        <time>2019-11-30T14:01:02Z</time>
      </trkpt>
      <trkpt lat="45.09094" lon="5.36528">
        <ele>888.88</ele>
        <time>2019-11-30T14:01:14Z</time>
      </trkpt>
      <trkpt lat="45.09095" lon="5.36519">
        <ele>887.43</ele>
        <time>2019-11-30T14:01:19Z</time>
      </trkpt>
      <trkpt lat="45.09094" lon="5.36506">
        <ele>885.99</ele>
        <time>2019-11-30T14:01:26Z</time>
      </trkpt>
      <trkpt lat="45.09094" lon="5.36494">
        <ele>884.07</ele>
        <time>2019-11-30T14:01:35Z</time>
      </trkpt>
      <trkpt lat="45.09094" lon="5.36489">
        <ele>883.59</ele>
        <time>2019-11-30T14:01:38Z</time>
      </trkpt>
      <trkpt lat="45.09092" lon="5.36478">
        <ele>882.63</ele>
        <time>2019-11-30T14:01:45Z</time>
      </trkpt>
      <trkpt lat="45.09096" lon="5.36464">
        <ele>880.71</ele>
        <time>2019-11-30T14:01:53Z</time>
      </trkpt>
      <trkpt lat="45.09096" lon="5.36462">
        <ele>881.19</ele>
        <time>2019-11-30T14:01:54Z</time>
      </trkpt>
      <trkpt lat="45.09098" lon="5.36449">
        <ele>879.26</ele>
        <time>2019-11-30T14:02:03Z</time>
      </trkpt>
      <trkpt lat="45.09096" lon="5.36442">
        <ele>878.3</ele>
        <time>2019-11-30T14:02:09Z</time>
      </trkpt>
      <trkpt lat="45.09091" lon="5.36434">
        <ele>877.34</ele>
        <time>2019-11-30T14:02:18Z</time>
      </trkpt>
      <trkpt lat="45.09092" lon="5.36427">
        <ele>875.9</ele>
        <time>2019-11-30T14:02:26Z</time>
      </trkpt>
      <trkpt lat="45.09093" lon="5.36418">
        <ele>874.94</ele>
        <time>2019-11-30T14:02:35Z</time>
      </trkpt>
      <trkpt lat="45.09095" lon="5.36413">
        <ele>873.98</ele>
        <time>2019-11-30T14:02:41Z</time>
      </trkpt>
      <trkpt lat="45.09096" lon="5.36407">
        <ele>873.98</ele>
        <time>2019-11-30T14:02:44Z</time>
      </trkpt>
      <trkpt lat="45.09098" lon="5.36396">
        <ele>872.53</ele>
        <time>2019-11-30T14:02:53Z</time>
      </trkpt>
      <trkpt lat="45.09097" lon="5.36392">
        <ele>872.05</ele>
        <time>2019-11-30T14:03:00Z</time>
      </trkpt>
      <trkpt lat="45.09097" lon="5.36383">
        <ele>870.61</ele>
        <time>2019-11-30T14:03:08Z</time>
      </trkpt>
      <trkpt lat="45.09097" lon="5.36372">
        <ele>870.13</ele>
        <time>2019-11-30T14:03:17Z</time>
      </trkpt>
      <trkpt lat="45.09096" lon="5.36368">
        <ele>869.65</ele>
        <time>2019-11-30T14:03:20Z</time>
      </trkpt>
      <trkpt lat="45.09098" lon="5.36357">
        <ele>868.69</ele>
        <time>2019-11-30T14:03:30Z</time>
      </trkpt>
      <trkpt lat="45.09097" lon="5.36341">
        <ele>867.25</ele>
        <time>2019-11-30T14:03:39Z</time>
      </trkpt>
      <trkpt lat="45.09098" lon="5.36328">
        <ele>865.32</ele>
        <time>2019-11-30T14:03:48Z</time>
      </trkpt>
      <trkpt lat="45.09095" lon="5.36322">
        <ele>863.4</ele>
        <time>2019-11-30T14:03:55Z</time>
      </trkpt>
      <trkpt lat="45.09095" lon="5.36317">
        <ele>861.96</ele>
        <time>2019-11-30T14:04:00Z</time>
      </trkpt>
      <trkpt lat="45.09096" lon="5.36307">
        <ele>860.52</ele>
        <time>2019-11-30T14:04:07Z</time>
      </trkpt>
      <trkpt lat="45.09099" lon="5.363">
        <ele>859.08</ele>
        <time>2019-11-30T14:04:15Z</time>
      </trkpt>
      <trkpt lat="45.091" lon="5.36298">
        <ele>858.59</ele>
        <time>2019-11-30T14:04:17Z</time>
      </trkpt>
      <trkpt lat="45.09102" lon="5.36288">
        <ele>858.11</ele>
        <time>2019-11-30T14:04:22Z</time>
      </trkpt>
      <trkpt lat="45.09101" lon="5.36285">
        <ele>857.15</ele>
        <time>2019-11-30T14:04:24Z</time>
      </trkpt>
      <trkpt lat="45.091" lon="5.36278">
        <ele>856.19</ele>
        <time>2019-11-30T14:04:31Z</time>
      </trkpt>
      <trkpt lat="45.09106" lon="5.36268">
        <ele>854.75</ele>
        <time>2019-11-30T14:04:39Z</time>
      </trkpt>
      <trkpt lat="45.09109" lon="5.36255">
        <ele>852.35</ele>
        <time>2019-11-30T14:04:48Z</time>
      </trkpt>
      <trkpt lat="45.0911" lon="5.36249">
        <ele>851.87</ele>
        <time>2019-11-30T14:04:51Z</time>
      </trkpt>
      <trkpt lat="45.09111" lon="5.36243">
        <ele>849.94</ele>
        <time>2019-11-30T14:04:59Z</time>
      </trkpt>
      <trkpt lat="45.09116" lon="5.36225">
        <ele>848.5</ele>
        <time>2019-11-30T14:05:09Z</time>
      </trkpt>
      <trkpt lat="45.09121" lon="5.36218">
        <ele>848.02</ele>
        <time>2019-11-30T14:05:17Z</time>
      </trkpt>
      <trkpt lat="45.09127" lon="5.36207">
        <ele>845.62</ele>
        <time>2019-11-30T14:05:26Z</time>
      </trkpt>
      <trkpt lat="45.09129" lon="5.362">
        <ele>844.18</ele>
        <time>2019-11-30T14:05:32Z</time>
      </trkpt>
      <trkpt lat="45.0913" lon="5.36194">
        <ele>843.21</ele>
        <time>2019-11-30T14:05:39Z</time>
      </trkpt>
      <trkpt lat="45.09133" lon="5.36189">
        <ele>842.73</ele>
        <time>2019-11-30T14:05:41Z</time>
      </trkpt>
      <trkpt lat="45.09136" lon="5.36182">
        <ele>840.81</ele>
        <time>2019-11-30T14:05:49Z</time>
      </trkpt>
      <trkpt lat="45.09138" lon="5.3618">
        <ele>840.81</ele>
        <time>2019-11-30T14:05:51Z</time>
      </trkpt>
      <trkpt lat="45.09149" lon="5.36161">
        <ele>838.41</ele>
        <time>2019-11-30T14:06:02Z</time>
      </trkpt>
      <trkpt lat="45.09149" lon="5.3616">
        <ele>838.41</ele>
        <time>2019-11-30T14:06:03Z</time>
      </trkpt>
      <trkpt lat="45.09145" lon="5.36152">
        <ele>836.96</ele>
        <time>2019-11-30T14:06:10Z</time>
      </trkpt>
      <trkpt lat="45.09147" lon="5.3614">
        <ele>835.52</ele>
        <time>2019-11-30T14:06:17Z</time>
      </trkpt>
      <trkpt lat="45.09152" lon="5.36129">
        <ele>833.6</ele>
        <time>2019-11-30T14:06:26Z</time>
      </trkpt>
      <trkpt lat="45.09155" lon="5.36121">
        <ele>830.24</ele>
        <time>2019-11-30T14:06:36Z</time>
      </trkpt>
      <trkpt lat="45.09158" lon="5.36112">
        <ele>829.27</ele>
        <time>2019-11-30T14:06:43Z</time>
      </trkpt>
      <trkpt lat="45.0916" lon="5.36098">
        <ele>826.39</ele>
        <time>2019-11-30T14:06:53Z</time>
      </trkpt>
      <trkpt lat="45.09161" lon="5.36092">
        <ele>825.43</ele>
        <time>2019-11-30T14:06:58Z</time>
      </trkpt>
      <trkpt lat="45.09165" lon="5.36081">
        <ele>823.03</ele>
        <time>2019-11-30T14:07:08Z</time>
      </trkpt>
      <trkpt lat="45.09163" lon="5.36071">
        <ele>822.06</ele>
        <time>2019-11-30T14:07:16Z</time>
      </trkpt>
      <trkpt lat="45.09163" lon="5.36066">
        <ele>820.62</ele>
        <time>2019-11-30T14:07:19Z</time>
      </trkpt>
      <trkpt lat="45.09164" lon="5.36062">
        <ele>821.1</ele>
        <time>2019-11-30T14:07:21Z</time>
      </trkpt>
      <trkpt lat="45.09169" lon="5.36048">
        <ele>820.14</ele>
        <time>2019-11-30T14:07:32Z</time>
      </trkpt>
      <trkpt lat="45.09171" lon="5.36037">
        <ele>821.1</ele>
        <time>2019-11-30T14:07:45Z</time>
      </trkpt>
      <trkpt lat="45.09173" lon="5.36032">
        <ele>820.14</ele>
        <time>2019-11-30T14:08:02Z</time>
      </trkpt>
      <trkpt lat="45.09175" lon="5.36024">
        <ele>818.22</ele>
        <time>2019-11-30T14:08:12Z</time>
      </trkpt>
      <trkpt lat="45.09176" lon="5.36016">
        <ele>815.34</ele>
        <time>2019-11-30T14:08:22Z</time>
      </trkpt>
      <trkpt lat="45.09173" lon="5.36012">
        <ele>814.37</ele>
        <time>2019-11-30T14:08:29Z</time>
      </trkpt>
      <trkpt lat="45.09172" lon="5.36003">
        <ele>812.93</ele>
        <time>2019-11-30T14:08:37Z</time>
      </trkpt>
      <trkpt lat="45.09171" lon="5.36001">
        <ele>811.49</ele>
        <time>2019-11-30T14:08:43Z</time>
      </trkpt>
      <trkpt lat="45.0917" lon="5.35999">
        <ele>810.53</ele>
        <time>2019-11-30T14:08:47Z</time>
      </trkpt>
      <trkpt lat="45.09169" lon="5.35996">
        <ele>811.01</ele>
        <time>2019-11-30T14:08:48Z</time>
      </trkpt>
      <trkpt lat="45.09167" lon="5.35979">
        <ele>809.57</ele>
        <time>2019-11-30T14:09:00Z</time>
      </trkpt>
      <trkpt lat="45.09171" lon="5.35965">
        <ele>808.61</ele>
        <time>2019-11-30T14:09:08Z</time>
      </trkpt>
      <trkpt lat="45.0917" lon="5.35947">
        <ele>807.16</ele>
        <time>2019-11-30T14:09:19Z</time>
      </trkpt>
      <trkpt lat="45.09166" lon="5.35934">
        <ele>806.2</ele>
        <time>2019-11-30T14:09:29Z</time>
      </trkpt>
      <trkpt lat="45.09163" lon="5.35918">
        <ele>805.72</ele>
        <time>2019-11-30T14:09:38Z</time>
      </trkpt>
      <trkpt lat="45.09166" lon="5.35905">
        <ele>803.32</ele>
        <time>2019-11-30T14:09:48Z</time>
      </trkpt>
      <trkpt lat="45.0917" lon="5.35891">
        <ele>799.95</ele>
        <time>2019-11-30T14:09:58Z</time>
      </trkpt>
      <trkpt lat="45.09171" lon="5.35882">
        <ele>797.07</ele>
        <time>2019-11-30T14:10:09Z</time>
      </trkpt>
      <trkpt lat="45.09172" lon="5.35861">
        <ele>794.19</ele>
        <time>2019-11-30T14:10:21Z</time>
      </trkpt>
      <trkpt lat="45.09095" lon="5.35849">
        <ele>792.26</ele>
        <time>2019-11-30T14:10:33Z</time>
      </trkpt>
      <trkpt lat="45.09092" lon="5.35849">
        <ele>788.9</ele>
        <time>2019-11-30T14:10:45Z</time>
      </trkpt>
      <trkpt lat="45.09089" lon="5.35841">
        <ele>786.02</ele>
        <time>2019-11-30T14:10:58Z</time>
      </trkpt>
      <trkpt lat="45.09084" lon="5.35833">
        <ele>783.13</ele>
        <time>2019-11-30T14:11:10Z</time>
      </trkpt>
      <trkpt lat="45.0908" lon="5.35823">
        <ele>781.69</ele>
        <time>2019-11-30T14:11:21Z</time>
      </trkpt>
      <trkpt lat="45.09076" lon="5.35807">
        <ele>779.29</ele>
        <time>2019-11-30T14:11:31Z</time>
      </trkpt>
      <trkpt lat="45.09067" lon="5.35798">
        <ele>776.88</ele>
        <time>2019-11-30T14:11:43Z</time>
      </trkpt>
      <trkpt lat="45.09061" lon="5.35786">
        <ele>774</ele>
        <time>2019-11-30T14:11:55Z</time>
      </trkpt>
      <trkpt lat="45.09055" lon="5.35774">
        <ele>771.11</ele>
        <time>2019-11-30T14:12:05Z</time>
      </trkpt>
      <trkpt lat="45.09052" lon="5.35771">
        <ele>770.63</ele>
        <time>2019-11-30T14:12:09Z</time>
      </trkpt>
      <trkpt lat="45.09045" lon="5.35758">
        <ele>768.23</ele>
        <time>2019-11-30T14:12:20Z</time>
      </trkpt>
      <trkpt lat="45.09038" lon="5.35745">
        <ele>764.87</ele>
        <time>2019-11-30T14:12:33Z</time>
      </trkpt>
      <trkpt lat="45.09035" lon="5.35734">
        <ele>763.42</ele>
        <time>2019-11-30T14:12:43Z</time>
      </trkpt>
      <trkpt lat="45.09034" lon="5.3573">
        <ele>762.46</ele>
        <time>2019-11-30T14:12:46Z</time>
      </trkpt>
      <trkpt lat="45.0903" lon="5.35722">
        <ele>760.54</ele>
        <time>2019-11-30T14:12:58Z</time>
      </trkpt>
      <trkpt lat="45.09026" lon="5.3571">
        <ele>757.66</ele>
        <time>2019-11-30T14:13:09Z</time>
      </trkpt>
      <trkpt lat="45.09019" lon="5.35694">
        <ele>754.29</ele>
        <time>2019-11-30T14:13:25Z</time>
      </trkpt>
      <trkpt lat="45.09015" lon="5.35688">
        <ele>753.33</ele>
        <time>2019-11-30T14:13:33Z</time>
      </trkpt>
      <trkpt lat="45.0901" lon="5.35678">
        <ele>749.97</ele>
        <time>2019-11-30T14:13:44Z</time>
      </trkpt>
      <trkpt lat="45.09005" lon="5.35668">
        <ele>747.56</ele>
        <time>2019-11-30T14:13:56Z</time>
      </trkpt>
      <trkpt lat="45.08999" lon="5.35661">
        <ele>744.68</ele>
        <time>2019-11-30T14:14:06Z</time>
      </trkpt>
      <trkpt lat="45.08991" lon="5.35654">
        <ele>740.83</ele>
        <time>2019-11-30T14:14:18Z</time>
      </trkpt>
      <trkpt lat="45.08979" lon="5.35646">
        <ele>737.95</ele>
        <time>2019-11-30T14:14:30Z</time>
      </trkpt>
      <trkpt lat="45.08968" lon="5.35639">
        <ele>735.07</ele>
        <time>2019-11-30T14:14:44Z</time>
      </trkpt>
      <trkpt lat="45.08959" lon="5.35628">
        <ele>731.7</ele>
        <time>2019-11-30T14:14:57Z</time>
      </trkpt>
      <trkpt lat="45.08951" lon="5.35623">
        <ele>727.86</ele>
        <time>2019-11-30T14:15:10Z</time>
      </trkpt>
      <trkpt lat="45.08941" lon="5.35617">
        <ele>725.93</ele>
        <time>2019-11-30T14:15:23Z</time>
      </trkpt>
      <trkpt lat="45.08933" lon="5.35612">
        <ele>723.05</ele>
        <time>2019-11-30T14:15:33Z</time>
      </trkpt>
      <trkpt lat="45.08927" lon="5.35608">
        <ele>721.13</ele>
        <time>2019-11-30T14:15:43Z</time>
      </trkpt>
      <trkpt lat="45.08919" lon="5.35603">
        <ele>719.2</ele>
        <time>2019-11-30T14:15:55Z</time>
      </trkpt>
      <trkpt lat="45.08913" lon="5.35601">
        <ele>716.8</ele>
        <time>2019-11-30T14:16:03Z</time>
      </trkpt>
      <trkpt lat="45.08906" lon="5.35596">
        <ele>713.92</ele>
        <time>2019-11-30T14:16:14Z</time>
      </trkpt>
      <trkpt lat="45.08894" lon="5.35594">
        <ele>711.51</ele>
        <time>2019-11-30T14:16:27Z</time>
      </trkpt>
      <trkpt lat="45.08886" lon="5.35591">
        <ele>708.63</ele>
        <time>2019-11-30T14:16:37Z</time>
      </trkpt>
      <trkpt lat="45.08878" lon="5.35587">
        <ele>706.23</ele>
        <time>2019-11-30T14:16:46Z</time>
      </trkpt>
      <trkpt lat="45.0887" lon="5.35583">
        <ele>704.78</ele>
        <time>2019-11-30T14:16:58Z</time>
      </trkpt>
      <trkpt lat="45.0886" lon="5.35575">
        <ele>702.38</ele>
        <time>2019-11-30T14:17:10Z</time>
      </trkpt>
      <trkpt lat="45.08858" lon="5.35572">
        <ele>700.94</ele>
        <time>2019-11-30T14:17:14Z</time>
      </trkpt>
      <trkpt lat="45.08848" lon="5.35571">
        <ele>698.05</ele>
        <time>2019-11-30T14:17:27Z</time>
      </trkpt>
      <trkpt lat="45.08841" lon="5.35564">
        <ele>695.65</ele>
        <time>2019-11-30T14:17:37Z</time>
      </trkpt>
      <trkpt lat="45.08835" lon="5.35557">
        <ele>693.73</ele>
        <time>2019-11-30T14:17:47Z</time>
      </trkpt>
      <trkpt lat="45.08826" lon="5.35549">
        <ele>690.84</ele>
        <time>2019-11-30T14:17:58Z</time>
      </trkpt>
      <trkpt lat="45.08819" lon="5.3554">
        <ele>690.36</ele>
        <time>2019-11-30T14:18:06Z</time>
      </trkpt>
      <trkpt lat="45.08813" lon="5.35528">
        <ele>687.48</ele>
        <time>2019-11-30T14:18:17Z</time>
      </trkpt>
      <trkpt lat="45.08805" lon="5.35515">
        <ele>685.56</ele>
        <time>2019-11-30T14:18:28Z</time>
      </trkpt>
      <trkpt lat="45.08805" lon="5.35513">
        <ele>685.56</ele>
        <time>2019-11-30T14:18:29Z</time>
      </trkpt>
      <trkpt lat="45.08802" lon="5.35506">
        <ele>684.12</ele>
        <time>2019-11-30T14:18:35Z</time>
      </trkpt>
      <trkpt lat="45.08789" lon="5.35489">
        <ele>680.75</ele>
        <time>2019-11-30T14:18:49Z</time>
      </trkpt>
      <trkpt lat="45.0878" lon="5.35478">
        <ele>678.83</ele>
        <time>2019-11-30T14:19:01Z</time>
      </trkpt>
      <trkpt lat="45.08776" lon="5.35473">
        <ele>676.42</ele>
        <time>2019-11-30T14:19:11Z</time>
      </trkpt>
      <trkpt lat="45.08764" lon="5.35462">
        <ele>673.54</ele>
        <time>2019-11-30T14:19:25Z</time>
      </trkpt>
      <trkpt lat="45.08758" lon="5.35455">
        <ele>671.62</ele>
        <time>2019-11-30T14:19:37Z</time>
      </trkpt>
      <trkpt lat="45.0875" lon="5.35452">
        <ele>668.73</ele>
        <time>2019-11-30T14:19:48Z</time>
      </trkpt>
      <trkpt lat="45.08743" lon="5.35449">
        <ele>666.33</ele>
        <time>2019-11-30T14:20:00Z</time>
      </trkpt>
      <trkpt lat="45.08733" lon="5.35443">
        <ele>663.93</ele>
        <time>2019-11-30T14:20:14Z</time>
      </trkpt>
      <trkpt lat="45.08724" lon="5.35437">
        <ele>662.01</ele>
        <time>2019-11-30T14:20:24Z</time>
      </trkpt>
      <trkpt lat="45.08713" lon="5.35434">
        <ele>659.6</ele>
        <time>2019-11-30T14:20:35Z</time>
      </trkpt>
      <trkpt lat="45.08702" lon="5.35427">
        <ele>657.68</ele>
        <time>2019-11-30T14:20:47Z</time>
      </trkpt>
      <trkpt lat="45.08697" lon="5.35424">
        <ele>656.72</ele>
        <time>2019-11-30T14:20:52Z</time>
      </trkpt>
      <trkpt lat="45.08687" lon="5.35415">
        <ele>654.8</ele>
        <time>2019-11-30T14:21:03Z</time>
      </trkpt>
      <trkpt lat="45.08681" lon="5.35408">
        <ele>651.91</ele>
        <time>2019-11-30T14:21:14Z</time>
      </trkpt>
      <trkpt lat="45.08674" lon="5.35403">
        <ele>649.99</ele>
        <time>2019-11-30T14:21:26Z</time>
      </trkpt>
      <trkpt lat="45.08667" lon="5.35398">
        <ele>647.1</ele>
        <time>2019-11-30T14:21:35Z</time>
      </trkpt>
      <trkpt lat="45.08658" lon="5.35397">
        <ele>645.18</ele>
        <time>2019-11-30T14:21:46Z</time>
      </trkpt>
      <trkpt lat="45.08649" lon="5.35395">
        <ele>643.26</ele>
        <time>2019-11-30T14:21:56Z</time>
      </trkpt>
      <trkpt lat="45.08637" lon="5.35394">
        <ele>640.86</ele>
        <time>2019-11-30T14:22:09Z</time>
      </trkpt>
      <trkpt lat="45.08619" lon="5.35389">
        <ele>638.93</ele>
        <time>2019-11-30T14:22:20Z</time>
      </trkpt>
      <trkpt lat="45.08616" lon="5.35386">
        <ele>637.97</ele>
        <time>2019-11-30T14:22:23Z</time>
      </trkpt>
      <trkpt lat="45.08606" lon="5.35377">
        <ele>636.53</ele>
        <time>2019-11-30T14:22:32Z</time>
      </trkpt>
      <trkpt lat="45.08595" lon="5.35364">
        <ele>635.09</ele>
        <time>2019-11-30T14:22:44Z</time>
      </trkpt>
      <trkpt lat="45.08585" lon="5.35357">
        <ele>632.68</ele>
        <time>2019-11-30T14:22:54Z</time>
      </trkpt>
      <trkpt lat="45.08585" lon="5.35355">
        <ele>633.17</ele>
        <time>2019-11-30T14:22:56Z</time>
      </trkpt>
      <trkpt lat="45.08577" lon="5.35346">
        <ele>630.28</ele>
        <time>2019-11-30T14:23:07Z</time>
      </trkpt>
      <trkpt lat="45.08567" lon="5.35342">
        <ele>626.44</ele>
        <time>2019-11-30T14:23:20Z</time>
      </trkpt>
      <trkpt lat="45.08561" lon="5.35339">
        <ele>624.51</ele>
        <time>2019-11-30T14:23:32Z</time>
      </trkpt>
      <trkpt lat="45.08552" lon="5.35336">
        <ele>622.11</ele>
        <time>2019-11-30T14:23:44Z</time>
      </trkpt>
      <trkpt lat="45.0855" lon="5.35334">
        <ele>621.15</ele>
        <time>2019-11-30T14:23:47Z</time>
      </trkpt>
      <trkpt lat="45.08539" lon="5.35329">
        <ele>619.23</ele>
        <time>2019-11-30T14:24:00Z</time>
      </trkpt>
      <trkpt lat="45.08528" lon="5.35323">
        <ele>616.34</ele>
        <time>2019-11-30T14:24:11Z</time>
      </trkpt>
      <trkpt lat="45.0852" lon="5.35321">
        <ele>614.42</ele>
        <time>2019-11-30T14:24:20Z</time>
      </trkpt>
      <trkpt lat="45.08511" lon="5.35315">
        <ele>612.02</ele>
        <time>2019-11-30T14:24:32Z</time>
      </trkpt>
      <trkpt lat="45.08503" lon="5.35308">
        <ele>610.57</ele>
        <time>2019-11-30T14:24:42Z</time>
      </trkpt>
      <trkpt lat="45.08493" lon="5.35301">
        <ele>606.73</ele>
        <time>2019-11-30T14:24:55Z</time>
      </trkpt>
      <trkpt lat="45.08479" lon="5.35298">
        <ele>604.33</ele>
        <time>2019-11-30T14:25:09Z</time>
      </trkpt>
      <trkpt lat="45.0847" lon="5.35298">
        <ele>600.96</ele>
        <time>2019-11-30T14:25:20Z</time>
      </trkpt>
      <trkpt lat="45.08463" lon="5.35297">
        <ele>598.56</ele>
        <time>2019-11-30T14:25:33Z</time>
      </trkpt>
      <trkpt lat="45.08456" lon="5.35299">
        <ele>596.64</ele>
        <time>2019-11-30T14:25:40Z</time>
      </trkpt>
      <trkpt lat="45.08445" lon="5.35301">
        <ele>594.23</ele>
        <time>2019-11-30T14:25:49Z</time>
      </trkpt>
      <trkpt lat="45.08439" lon="5.35302">
        <ele>593.75</ele>
        <time>2019-11-30T14:25:57Z</time>
      </trkpt>
      <trkpt lat="45.08428" lon="5.35306">
        <ele>590.87</ele>
        <time>2019-11-30T14:26:08Z</time>
      </trkpt>
      <trkpt lat="45.08419" lon="5.35311">
        <ele>588.46</ele>
        <time>2019-11-30T14:26:17Z</time>
      </trkpt>
      <trkpt lat="45.08408" lon="5.35315">
        <ele>585.58</ele>
        <time>2019-11-30T14:26:29Z</time>
      </trkpt>
      <trkpt lat="45.084" lon="5.35314">
        <ele>583.18</ele>
        <time>2019-11-30T14:26:41Z</time>
      </trkpt>
      <trkpt lat="45.08394" lon="5.35313">
        <ele>582.22</ele>
        <time>2019-11-30T14:26:52Z</time>
      </trkpt>
      <trkpt lat="45.08388" lon="5.3531">
        <ele>580.29</ele>
        <time>2019-11-30T14:27:03Z</time>
      </trkpt>
      <trkpt lat="45.0838" lon="5.35311">
        <ele>578.37</ele>
        <time>2019-11-30T14:27:15Z</time>
      </trkpt>
      <trkpt lat="45.08377" lon="5.35313">
        <ele>577.41</ele>
        <time>2019-11-30T14:27:25Z</time>
      </trkpt>
      <trkpt lat="45.08374" lon="5.35312">
        <ele>575.97</ele>
        <time>2019-11-30T14:27:38Z</time>
      </trkpt>
      <trkpt lat="45.08373" lon="5.35311">
        <ele>576.45</ele>
        <time>2019-11-30T14:27:41Z</time>
      </trkpt>
      <trkpt lat="45.08365" lon="5.35307">
        <ele>574.04</ele>
        <time>2019-11-30T14:27:52Z</time>
      </trkpt>
      <trkpt lat="45.0836" lon="5.353">
        <ele>571.64</ele>
        <time>2019-11-30T14:28:01Z</time>
      </trkpt>
      <trkpt lat="45.08352" lon="5.35293">
        <ele>569.72</ele>
        <time>2019-11-30T14:28:12Z</time>
      </trkpt>
      <trkpt lat="45.08351" lon="5.35293">
        <ele>569.72</ele>
        <time>2019-11-30T14:28:13Z</time>
      </trkpt>
      <trkpt lat="45.08339" lon="5.35282">
        <ele>567.32</ele>
        <time>2019-11-30T14:28:28Z</time>
      </trkpt>
      <trkpt lat="45.0833" lon="5.3527">
        <ele>564.43</ele>
        <time>2019-11-30T14:28:41Z</time>
      </trkpt>
      <trkpt lat="45.08319" lon="5.3526">
        <ele>562.51</ele>
        <time>2019-11-30T14:28:55Z</time>
      </trkpt>
      <trkpt lat="45.08307" lon="5.35252">
        <ele>560.11</ele>
        <time>2019-11-30T14:29:06Z</time>
      </trkpt>
      <trkpt lat="45.08298" lon="5.35247">
        <ele>558.66</ele>
        <time>2019-11-30T14:29:17Z</time>
      </trkpt>
      <trkpt lat="45.08296" lon="5.35245">
        <ele>557.7</ele>
        <time>2019-11-30T14:29:19Z</time>
      </trkpt>
      <trkpt lat="45.08289" lon="5.35239">
        <ele>556.26</ele>
        <time>2019-11-30T14:29:27Z</time>
      </trkpt>
      <trkpt lat="45.08287" lon="5.35238">
        <ele>555.78</ele>
        <time>2019-11-30T14:29:29Z</time>
      </trkpt>
      <trkpt lat="45.08278" lon="5.35231">
        <ele>554.34</ele>
        <time>2019-11-30T14:29:39Z</time>
      </trkpt>
      <trkpt lat="45.08271" lon="5.35225">
        <ele>551.45</ele>
        <time>2019-11-30T14:29:52Z</time>
      </trkpt>
      <trkpt lat="45.08269" lon="5.35225">
        <ele>551.93</ele>
        <time>2019-11-30T14:29:56Z</time>
      </trkpt>
      <trkpt lat="45.08259" lon="5.35219">
        <ele>550.01</ele>
        <time>2019-11-30T14:30:07Z</time>
      </trkpt>
      <trkpt lat="45.0825" lon="5.35213">
        <ele>549.05</ele>
        <time>2019-11-30T14:30:20Z</time>
      </trkpt>
      <trkpt lat="45.08245" lon="5.35209">
        <ele>548.57</ele>
        <time>2019-11-30T14:30:28Z</time>
      </trkpt>
      <trkpt lat="45.08236" lon="5.35205">
        <ele>545.69</ele>
        <time>2019-11-30T14:30:39Z</time>
      </trkpt>
      <trkpt lat="45.08222" lon="5.35197">
        <ele>544.24</ele>
        <time>2019-11-30T14:30:51Z</time>
      </trkpt>
      <trkpt lat="45.08211" lon="5.3519">
        <ele>542.32</ele>
        <time>2019-11-30T14:31:03Z</time>
      </trkpt>
      <trkpt lat="45.08203" lon="5.35185">
        <ele>541.36</ele>
        <time>2019-11-30T14:31:15Z</time>
      </trkpt>
      <trkpt lat="45.08196" lon="5.35172">
        <ele>539.44</ele>
        <time>2019-11-30T14:31:26Z</time>
      </trkpt>
      <trkpt lat="45.08187" lon="5.35165">
        <ele>537.99</ele>
        <time>2019-11-30T14:31:34Z</time>
      </trkpt>
      <trkpt lat="45.08176" lon="5.35151">
        <ele>535.59</ele>
        <time>2019-11-30T14:31:47Z</time>
      </trkpt>
      <trkpt lat="45.08173" lon="5.35148">
        <ele>535.59</ele>
        <time>2019-11-30T14:31:50Z</time>
      </trkpt>
      <trkpt lat="45.0817" lon="5.35146">
        <ele>535.11</ele>
        <time>2019-11-30T14:31:53Z</time>
      </trkpt>
      <trkpt lat="45.08158" lon="5.35134">
        <ele>532.71</ele>
        <time>2019-11-30T14:32:06Z</time>
      </trkpt>
      <trkpt lat="45.08149" lon="5.35124">
        <ele>530.3</ele>
        <time>2019-11-30T14:32:18Z</time>
      </trkpt>
      <trkpt lat="45.0814" lon="5.35117">
        <ele>528.38</ele>
        <time>2019-11-30T14:32:29Z</time>
      </trkpt>
      <trkpt lat="45.0813" lon="5.3511">
        <ele>525.5</ele>
        <time>2019-11-30T14:32:41Z</time>
      </trkpt>
      <trkpt lat="45.08126" lon="5.35106">
        <ele>524.06</ele>
        <time>2019-11-30T14:32:48Z</time>
      </trkpt>
      <trkpt lat="45.08123" lon="5.35105">
        <ele>523.09</ele>
        <time>2019-11-30T14:32:50Z</time>
      </trkpt>
      <trkpt lat="45.08116" lon="5.35101">
        <ele>521.65</ele>
        <time>2019-11-30T14:32:57Z</time>
      </trkpt>
      <trkpt lat="45.08106" lon="5.35094">
        <ele>519.73</ele>
        <time>2019-11-30T14:33:09Z</time>
      </trkpt>
      <trkpt lat="45.08101" lon="5.3509">
        <ele>518.77</ele>
        <time>2019-11-30T14:33:13Z</time>
      </trkpt>
      <trkpt lat="45.08093" lon="5.35085">
        <ele>517.81</ele>
        <time>2019-11-30T14:33:22Z</time>
      </trkpt>
      <trkpt lat="45.08089" lon="5.35081">
        <ele>516.37</ele>
        <time>2019-11-30T14:33:29Z</time>
      </trkpt>
      <trkpt lat="45.08081" lon="5.35077">
        <ele>515.88</ele>
        <time>2019-11-30T14:33:37Z</time>
      </trkpt>
      <trkpt lat="45.08078" lon="5.35076">
        <ele>514.92</ele>
        <time>2019-11-30T14:33:39Z</time>
      </trkpt>
      <trkpt lat="45.0807" lon="5.3507">
        <ele>513.96</ele>
        <time>2019-11-30T14:33:48Z</time>
      </trkpt>
      <trkpt lat="45.08056" lon="5.35062">
        <ele>513.48</ele>
        <time>2019-11-30T14:33:59Z</time>
      </trkpt>
      <trkpt lat="45.08051" lon="5.35057">
        <ele>512.52</ele>
        <time>2019-11-30T14:34:04Z</time>
      </trkpt>
      <trkpt lat="45.08048" lon="5.35055">
        <ele>513</ele>
        <time>2019-11-30T14:34:07Z</time>
      </trkpt>
      <trkpt lat="45.08034" lon="5.35043">
        <ele>511.56</ele>
        <time>2019-11-30T14:34:20Z</time>
      </trkpt>
      <trkpt lat="45.08029" lon="5.35039">
        <ele>511.56</ele>
        <time>2019-11-30T14:34:27Z</time>
      </trkpt>
      <trkpt lat="45.08022" lon="5.35032">
        <ele>510.12</ele>
        <time>2019-11-30T14:34:36Z</time>
      </trkpt>
      <trkpt lat="45.08017" lon="5.35023">
        <ele>510.12</ele>
        <time>2019-11-30T14:34:43Z</time>
      </trkpt>
      <trkpt lat="45.0801" lon="5.35018">
        <ele>510.12</ele>
        <time>2019-11-30T14:34:48Z</time>
      </trkpt>
      <trkpt lat="45.08007" lon="5.3501">
        <ele>508.67</ele>
        <time>2019-11-30T14:34:53Z</time>
      </trkpt>
      <trkpt lat="45.08004" lon="5.35006">
        <ele>508.67</ele>
        <time>2019-11-30T14:34:56Z</time>
      </trkpt>
      <trkpt lat="45.07994" lon="5.34994">
        <ele>507.71</ele>
        <time>2019-11-30T14:35:07Z</time>
      </trkpt>
      <trkpt lat="45.07987" lon="5.34986">
        <ele>505.79</ele>
        <time>2019-11-30T14:35:18Z</time>
      </trkpt>
      <trkpt lat="45.07985" lon="5.34982">
        <ele>505.31</ele>
        <time>2019-11-30T14:35:21Z</time>
      </trkpt>
      <trkpt lat="45.07983" lon="5.34981">
        <ele>505.79</ele>
        <time>2019-11-30T14:35:22Z</time>
      </trkpt>
      <trkpt lat="45.07981" lon="5.3498">
        <ele>504.83</ele>
        <time>2019-11-30T14:35:24Z</time>
      </trkpt>
      <trkpt lat="45.07975" lon="5.34973">
        <ele>503.87</ele>
        <time>2019-11-30T14:35:33Z</time>
      </trkpt>
      <trkpt lat="45.07972" lon="5.34972">
        <ele>502.91</ele>
        <time>2019-11-30T14:35:36Z</time>
      </trkpt>
      <trkpt lat="45.07966" lon="5.34969">
        <ele>501.95</ele>
        <time>2019-11-30T14:35:43Z</time>
      </trkpt>
      <trkpt lat="45.07956" lon="5.34965">
        <ele>499.54</ele>
        <time>2019-11-30T14:35:54Z</time>
      </trkpt>
      <trkpt lat="45.07951" lon="5.34963">
        <ele>497.62</ele>
        <time>2019-11-30T14:36:00Z</time>
      </trkpt>
      <trkpt lat="45.07939" lon="5.34958">
        <ele>496.18</ele>
        <time>2019-11-30T14:36:14Z</time>
      </trkpt>
      <trkpt lat="45.07937" lon="5.34957">
        <ele>495.22</ele>
        <time>2019-11-30T14:36:16Z</time>
      </trkpt>
      <trkpt lat="45.07927" lon="5.34949">
        <ele>493.77</ele>
        <time>2019-11-30T14:36:28Z</time>
      </trkpt>
      <trkpt lat="45.07924" lon="5.34942">
        <ele>491.85</ele>
        <time>2019-11-30T14:36:35Z</time>
      </trkpt>
      <trkpt lat="45.0792" lon="5.34937">
        <ele>491.37</ele>
        <time>2019-11-30T14:36:41Z</time>
      </trkpt>
      <trkpt lat="45.07914" lon="5.34922">
        <ele>489.45</ele>
        <time>2019-11-30T14:36:53Z</time>
      </trkpt>
      <trkpt lat="45.07912" lon="5.34915">
        <ele>488.49</ele>
        <time>2019-11-30T14:36:59Z</time>
      </trkpt>
      <trkpt lat="45.07906" lon="5.34905">
        <ele>486.56</ele>
        <time>2019-11-30T14:37:10Z</time>
      </trkpt>
      <trkpt lat="45.07904" lon="5.34902">
        <ele>486.08</ele>
        <time>2019-11-30T14:37:14Z</time>
      </trkpt>
      <trkpt lat="45.07902" lon="5.34899">
        <ele>485.12</ele>
        <time>2019-11-30T14:37:17Z</time>
      </trkpt>
      <trkpt lat="45.07898" lon="5.34887">
        <ele>484.16</ele>
        <time>2019-11-30T14:37:26Z</time>
      </trkpt>
      <trkpt lat="45.07893" lon="5.34875">
        <ele>482.72</ele>
        <time>2019-11-30T14:37:37Z</time>
      </trkpt>
      <trkpt lat="45.07888" lon="5.34864">
        <ele>481.28</ele>
        <time>2019-11-30T14:37:49Z</time>
      </trkpt>
      <trkpt lat="45.07886" lon="5.34854">
        <ele>480.8</ele>
        <time>2019-11-30T14:37:59Z</time>
      </trkpt>
      <trkpt lat="45.07886" lon="5.34852">
        <ele>480.32</ele>
        <time>2019-11-30T14:38:14Z</time>
      </trkpt>
      <trkpt lat="45.07884" lon="5.3485">
        <ele>479.84</ele>
        <time>2019-11-30T14:38:19Z</time>
      </trkpt>
      <trkpt lat="45.07882" lon="5.3484">
        <ele>479.84</ele>
        <time>2019-11-30T14:38:27Z</time>
      </trkpt>
      <trkpt lat="45.07879" lon="5.34833">
        <ele>478.87</ele>
        <time>2019-11-30T14:38:33Z</time>
      </trkpt>
      <trkpt lat="45.0787" lon="5.34815">
        <ele>478.87</ele>
        <time>2019-11-30T14:38:47Z</time>
      </trkpt>
      <trkpt lat="45.07862" lon="5.34799">
        <ele>477.43</ele>
        <time>2019-11-30T14:38:59Z</time>
      </trkpt>
      <trkpt lat="45.07856" lon="5.34788">
        <ele>474.55</ele>
        <time>2019-11-30T14:39:09Z</time>
      </trkpt>
      <trkpt lat="45.07857" lon="5.34772">
        <ele>472.14</ele>
        <time>2019-11-30T14:39:21Z</time>
      </trkpt>
      <trkpt lat="45.0786" lon="5.34764">
        <ele>470.7</ele>
        <time>2019-11-30T14:39:27Z</time>
      </trkpt>
      <trkpt lat="45.07864" lon="5.34753">
        <ele>468.78</ele>
        <time>2019-11-30T14:39:39Z</time>
      </trkpt>
      <trkpt lat="45.07871" lon="5.34744">
        <ele>467.82</ele>
        <time>2019-11-30T14:39:50Z</time>
      </trkpt>
      <trkpt lat="45.07881" lon="5.34734">
        <ele>464.93</ele>
        <time>2019-11-30T14:40:03Z</time>
      </trkpt>
      <trkpt lat="45.07887" lon="5.3473">
        <ele>464.45</ele>
        <time>2019-11-30T14:40:10Z</time>
      </trkpt>
      <trkpt lat="45.07893" lon="5.34726">
        <ele>463.97</ele>
        <time>2019-11-30T14:40:19Z</time>
      </trkpt>
      <trkpt lat="45.07899" lon="5.3472">
        <ele>461.57</ele>
        <time>2019-11-30T14:40:31Z</time>
      </trkpt>
      <trkpt lat="45.07907" lon="5.34713">
        <ele>460.13</ele>
        <time>2019-11-30T14:40:41Z</time>
      </trkpt>
      <trkpt lat="45.07908" lon="5.34711">
        <ele>460.13</ele>
        <time>2019-11-30T14:40:43Z</time>
      </trkpt>
      <trkpt lat="45.07923" lon="5.34707">
        <ele>457.72</ele>
        <time>2019-11-30T14:40:54Z</time>
      </trkpt>
      <trkpt lat="45.07929" lon="5.34704">
        <ele>456.76</ele>
        <time>2019-11-30T14:40:59Z</time>
      </trkpt>
      <trkpt lat="45.07941" lon="5.34691">
        <ele>454.84</ele>
        <time>2019-11-30T14:41:12Z</time>
      </trkpt>
      <trkpt lat="45.07949" lon="5.34683">
        <ele>453.4</ele>
        <time>2019-11-30T14:41:22Z</time>
      </trkpt>
      <trkpt lat="45.07952" lon="5.34676">
        <ele>452.44</ele>
        <time>2019-11-30T14:41:36Z</time>
      </trkpt>
      <trkpt lat="45.07953" lon="5.34678">
        <ele>451.96</ele>
        <time>2019-11-30T14:41:54Z</time>
      </trkpt>
      <trkpt lat="45.07954" lon="5.34676">
        <ele>451.96</ele>
        <time>2019-11-30T14:42:10Z</time>
      </trkpt>
      <trkpt lat="45.07955" lon="5.34669">
        <ele>452.44</ele>
        <time>2019-11-30T14:42:21Z</time>
      </trkpt>
      <trkpt lat="45.07951" lon="5.34665">
        <ele>451.96</ele>
        <time>2019-11-30T14:42:35Z</time>
      </trkpt>
      <trkpt lat="45.0795" lon="5.34664">
        <ele>451.48</ele>
        <time>2019-11-30T14:42:56Z</time>
      </trkpt>
      <trkpt lat="45.0795" lon="5.34663">
        <ele>451.96</ele>
        <time>2019-11-30T14:43:17Z</time>
      </trkpt>
      <trkpt lat="45.07951" lon="5.34662">
        <ele>451.48</ele>
        <time>2019-11-30T14:43:37Z</time>
      </trkpt>
      <trkpt lat="45.07952" lon="5.3466">
        <ele>451.48</ele>
        <time>2019-11-30T14:43:39Z</time>
      </trkpt>
      <trkpt lat="45.07955" lon="5.34651">
        <ele>450.03</ele>
        <time>2019-11-30T14:43:48Z</time>
      </trkpt>
      <trkpt lat="45.07954" lon="5.34644">
        <ele>449.07</ele>
        <time>2019-11-30T14:43:53Z</time>
      </trkpt>
      <trkpt lat="45.07952" lon="5.34629">
        <ele>447.15</ele>
        <time>2019-11-30T14:44:04Z</time>
      </trkpt>
      <trkpt lat="45.07948" lon="5.34616">
        <ele>444.27</ele>
        <time>2019-11-30T14:44:14Z</time>
      </trkpt>
      <trkpt lat="45.07947" lon="5.34615">
        <ele>444.27</ele>
        <time>2019-11-30T14:44:15Z</time>
      </trkpt>
      <trkpt lat="45.07945" lon="5.34606">
        <ele>441.38</ele>
        <time>2019-11-30T14:44:26Z</time>
      </trkpt>
      <trkpt lat="45.07941" lon="5.34599">
        <ele>439.94</ele>
        <time>2019-11-30T14:44:34Z</time>
      </trkpt>
      <trkpt lat="45.07936" lon="5.34589">
        <ele>437.54</ele>
        <time>2019-11-30T14:44:44Z</time>
      </trkpt>
      <trkpt lat="45.07932" lon="5.34578">
        <ele>435.61</ele>
        <time>2019-11-30T14:44:54Z</time>
      </trkpt>
      <trkpt lat="45.07928" lon="5.34563">
        <ele>434.65</ele>
        <time>2019-11-30T14:45:01Z</time>
      </trkpt>
      <trkpt lat="45.07926" lon="5.34538">
        <ele>433.69</ele>
        <time>2019-11-30T14:45:14Z</time>
      </trkpt>
      <trkpt lat="45.07923" lon="5.34518">
        <ele>433.21</ele>
        <time>2019-11-30T14:45:24Z</time>
      </trkpt>
      <trkpt lat="45.07923" lon="5.34505">
        <ele>433.21</ele>
        <time>2019-11-30T14:45:32Z</time>
      </trkpt>
      <trkpt lat="45.07925" lon="5.34484">
        <ele>432.73</ele>
        <time>2019-11-30T14:45:42Z</time>
      </trkpt>
      <trkpt lat="45.07925" lon="5.34471">
        <ele>432.25</ele>
        <time>2019-11-30T14:45:47Z</time>
      </trkpt>
      <trkpt lat="45.07931" lon="5.34443">
        <ele>431.77</ele>
        <time>2019-11-30T14:46:02Z</time>
      </trkpt>
      <trkpt lat="45.0794" lon="5.34428">
        <ele>430.81</ele>
        <time>2019-11-30T14:46:14Z</time>
      </trkpt>
      <trkpt lat="45.07943" lon="5.34427">
        <ele>430.33</ele>
        <time>2019-11-30T14:46:16Z</time>
      </trkpt>
      <trkpt lat="45.07956" lon="5.34418">
        <ele>429.37</ele>
        <time>2019-11-30T14:46:28Z</time>
      </trkpt>
      <trkpt lat="45.07969" lon="5.34411">
        <ele>428.89</ele>
        <time>2019-11-30T14:46:39Z</time>
      </trkpt>
      <trkpt lat="45.07979" lon="5.34404">
        <ele>427.92</ele>
        <time>2019-11-30T14:46:49Z</time>
      </trkpt>
      <trkpt lat="45.07989" lon="5.34396">
        <ele>427.44</ele>
        <time>2019-11-30T14:47:00Z</time>
      </trkpt>
      <trkpt lat="45.07997" lon="5.34387">
        <ele>427.92</ele>
        <time>2019-11-30T14:47:11Z</time>
      </trkpt>
      <trkpt lat="45.08005" lon="5.34375">
        <ele>428.4</ele>
        <time>2019-11-30T14:47:22Z</time>
      </trkpt>
      <trkpt lat="45.08011" lon="5.34368">
        <ele>427.92</ele>
        <time>2019-11-30T14:47:25Z</time>
      </trkpt>
      <trkpt lat="45.08027" lon="5.34351">
        <ele>427.92</ele>
        <time>2019-11-30T14:47:39Z</time>
      </trkpt>
      <trkpt lat="45.08033" lon="5.34347">
        <ele>427.44</ele>
        <time>2019-11-30T14:47:45Z</time>
      </trkpt>
      <trkpt lat="45.08046" lon="5.34341">
        <ele>426.48</ele>
        <time>2019-11-30T14:47:59Z</time>
      </trkpt>
      <trkpt lat="45.0806" lon="5.34348">
        <ele>425.52</ele>
        <time>2019-11-30T14:48:12Z</time>
      </trkpt>
      <trkpt lat="45.08059" lon="5.34349">
        <ele>425.04</ele>
        <time>2019-11-30T14:48:24Z</time>
      </trkpt>
      <trkpt lat="45.0806" lon="5.34349">
        <ele>426.48</ele>
        <time>2019-11-30T14:48:27Z</time>
      </trkpt>
      <trkpt lat="45.0806" lon="5.3435">
        <ele>426</ele>
        <time>2019-11-30T14:48:48Z</time>
      </trkpt>
      <trkpt lat="45.0806" lon="5.34349">
        <ele>426</ele>
        <time>2019-11-30T14:49:07Z</time>
      </trkpt>
      <trkpt lat="45.08061" lon="5.34349">
        <ele>425.52</ele>
        <time>2019-11-30T14:49:08Z</time>
      </trkpt>
      <trkpt lat="45.08064" lon="5.34348">
        <ele>425.52</ele>
        <time>2019-11-30T14:49:12Z</time>
      </trkpt>
      <trkpt lat="45.08071" lon="5.34349">
        <ele>424.56</ele>
        <time>2019-11-30T14:49:18Z</time>
      </trkpt>
      <trkpt lat="45.08075" lon="5.3435">
        <ele>424.56</ele>
        <time>2019-11-30T14:49:21Z</time>
      </trkpt>
      <trkpt lat="45.08084" lon="5.34353">
        <ele>422.64</ele>
        <time>2019-11-30T14:49:29Z</time>
      </trkpt>
      <trkpt lat="45.08097" lon="5.34354">
        <ele>421.68</ele>
        <time>2019-11-30T14:49:37Z</time>
      </trkpt>
      <trkpt lat="45.08107" lon="5.34355">
        <ele>420.71</ele>
        <time>2019-11-30T14:49:44Z</time>
      </trkpt>
      <trkpt lat="45.08123" lon="5.34353">
        <ele>418.79</ele>
        <time>2019-11-30T14:49:56Z</time>
      </trkpt>
      <trkpt lat="45.08138" lon="5.34344">
        <ele>416.87</ele>
        <time>2019-11-30T14:50:08Z</time>
      </trkpt>
      <trkpt lat="45.08149" lon="5.34326">
        <ele>415.43</ele>
        <time>2019-11-30T14:50:19Z</time>
      </trkpt>
      <trkpt lat="45.0815" lon="5.34325">
        <ele>414.95</ele>
        <time>2019-11-30T14:50:20Z</time>
      </trkpt>
      <trkpt lat="45.08159" lon="5.34314">
        <ele>413.02</ele>
        <time>2019-11-30T14:50:30Z</time>
      </trkpt>
      <trkpt lat="45.08167" lon="5.34304">
        <ele>411.58</ele>
        <time>2019-11-30T14:50:39Z</time>
      </trkpt>
      <trkpt lat="45.08174" lon="5.34298">
        <ele>410.62</ele>
        <time>2019-11-30T14:50:45Z</time>
      </trkpt>
      <trkpt lat="45.08181" lon="5.34286">
        <ele>409.18</ele>
        <time>2019-11-30T14:50:55Z</time>
      </trkpt>
      <trkpt lat="45.08182" lon="5.34283">
        <ele>409.18</ele>
        <time>2019-11-30T14:50:58Z</time>
      </trkpt>
      <trkpt lat="45.08191" lon="5.34277">
        <ele>407.26</ele>
        <time>2019-11-30T14:51:06Z</time>
      </trkpt>
      <trkpt lat="45.082" lon="5.34263">
        <ele>406.29</ele>
        <time>2019-11-30T14:51:17Z</time>
      </trkpt>
      <trkpt lat="45.08211" lon="5.34256">
        <ele>404.37</ele>
        <time>2019-11-30T14:51:28Z</time>
      </trkpt>
      <trkpt lat="45.08215" lon="5.34252">
        <ele>403.41</ele>
        <time>2019-11-30T14:51:33Z</time>
      </trkpt>
      <trkpt lat="45.08228" lon="5.34242">
        <ele>401.97</ele>
        <time>2019-11-30T14:51:45Z</time>
      </trkpt>
      <trkpt lat="45.08242" lon="5.34238">
        <ele>401.01</ele>
        <time>2019-11-30T14:51:58Z</time>
      </trkpt>
      <trkpt lat="45.08248" lon="5.34239">
        <ele>400.05</ele>
        <time>2019-11-30T14:52:02Z</time>
      </trkpt>
      <trkpt lat="45.08251" lon="5.34239">
        <ele>400.53</ele>
        <time>2019-11-30T14:52:07Z</time>
      </trkpt>
      <trkpt lat="45.08258" lon="5.3424">
        <ele>400.05</ele>
        <time>2019-11-30T14:52:11Z</time>
      </trkpt>
      <trkpt lat="45.08261" lon="5.34241">
        <ele>400.05</ele>
        <time>2019-11-30T14:52:13Z</time>
      </trkpt>
      <trkpt lat="45.08266" lon="5.34244">
        <ele>400.05</ele>
        <time>2019-11-30T14:52:18Z</time>
      </trkpt>
      <trkpt lat="45.08273" lon="5.34246">
        <ele>399.57</ele>
        <time>2019-11-30T14:52:25Z</time>
      </trkpt>
      <trkpt lat="45.0829" lon="5.34235">
        <ele>397.64</ele>
        <time>2019-11-30T14:52:37Z</time>
      </trkpt>
      <trkpt lat="45.08293" lon="5.34232">
        <ele>397.64</ele>
        <time>2019-11-30T14:52:40Z</time>
      </trkpt>
      <trkpt lat="45.08297" lon="5.34228">
        <ele>397.16</ele>
        <time>2019-11-30T14:52:43Z</time>
      </trkpt>
      <trkpt lat="45.08301" lon="5.34223">
        <ele>396.68</ele>
        <time>2019-11-30T14:52:48Z</time>
      </trkpt>
      <trkpt lat="45.08306" lon="5.34214">
        <ele>396.2</ele>
        <time>2019-11-30T14:52:53Z</time>
      </trkpt>
      <trkpt lat="45.08313" lon="5.34199">
        <ele>394.76</ele>
        <time>2019-11-30T14:53:03Z</time>
      </trkpt>
      <trkpt lat="45.08322" lon="5.34183">
        <ele>394.28</ele>
        <time>2019-11-30T14:53:15Z</time>
      </trkpt>
      <trkpt lat="45.08332" lon="5.34167">
        <ele>393.32</ele>
        <time>2019-11-30T14:53:27Z</time>
      </trkpt>
      <trkpt lat="45.08333" lon="5.34166">
        <ele>393.32</ele>
        <time>2019-11-30T14:53:28Z</time>
      </trkpt>
      <trkpt lat="45.08335" lon="5.34164">
        <ele>392.84</ele>
        <time>2019-11-30T14:53:30Z</time>
      </trkpt>
      <trkpt lat="45.08345" lon="5.34152">
        <ele>392.36</ele>
        <time>2019-11-30T14:53:42Z</time>
      </trkpt>
      <trkpt lat="45.08346" lon="5.34151">
        <ele>391.87</ele>
        <time>2019-11-30T14:53:43Z</time>
      </trkpt>
      <trkpt lat="45.08357" lon="5.34142">
        <ele>390.43</ele>
        <time>2019-11-30T14:53:54Z</time>
      </trkpt>
      <trkpt lat="45.08369" lon="5.34133">
        <ele>388.99</ele>
        <time>2019-11-30T14:54:05Z</time>
      </trkpt>
      <trkpt lat="45.0838" lon="5.34125">
        <ele>388.03</ele>
        <time>2019-11-30T14:54:15Z</time>
      </trkpt>
      <trkpt lat="45.08391" lon="5.3412">
        <ele>387.55</ele>
        <time>2019-11-30T14:54:25Z</time>
      </trkpt>
      <trkpt lat="45.08409" lon="5.34117">
        <ele>386.11</ele>
        <time>2019-11-30T14:54:39Z</time>
      </trkpt>
      <trkpt lat="45.08422" lon="5.34116">
        <ele>385.15</ele>
        <time>2019-11-30T14:54:51Z</time>
      </trkpt>
      <trkpt lat="45.08435" lon="5.34115">
        <ele>384.66</ele>
        <time>2019-11-30T14:55:02Z</time>
      </trkpt>
      <trkpt lat="45.08448" lon="5.34114">
        <ele>383.7</ele>
        <time>2019-11-30T14:55:13Z</time>
      </trkpt>
      <trkpt lat="45.08449" lon="5.34114">
        <ele>383.7</ele>
        <time>2019-11-30T14:55:14Z</time>
      </trkpt>
      <trkpt lat="45.08455" lon="5.34116">
        <ele>383.22</ele>
        <time>2019-11-30T14:55:19Z</time>
      </trkpt>
      <trkpt lat="45.08471" lon="5.34115">
        <ele>382.26</ele>
        <time>2019-11-30T14:55:33Z</time>
      </trkpt>
      <trkpt lat="45.08482" lon="5.34114">
        <ele>381.3</ele>
        <time>2019-11-30T14:55:42Z</time>
      </trkpt>
      <trkpt lat="45.08494" lon="5.34112">
        <ele>380.82</ele>
        <time>2019-11-30T14:55:53Z</time>
      </trkpt>
      <trkpt lat="45.08495" lon="5.3411">
        <ele>380.82</ele>
        <time>2019-11-30T14:55:55Z</time>
      </trkpt>
      <trkpt lat="45.08503" lon="5.34105">
        <ele>380.34</ele>
        <time>2019-11-30T14:56:02Z</time>
      </trkpt>
      <trkpt lat="45.08517" lon="5.34095">
        <ele>380.34</ele>
        <time>2019-11-30T14:56:13Z</time>
      </trkpt>
      <trkpt lat="45.0852" lon="5.34092">
        <ele>380.82</ele>
        <time>2019-11-30T14:56:17Z</time>
      </trkpt>
      <trkpt lat="45.08527" lon="5.34085">
        <ele>379.86</ele>
        <time>2019-11-30T14:56:24Z</time>
      </trkpt>
      <trkpt lat="45.08535" lon="5.34079">
        <ele>380.34</ele>
        <time>2019-11-30T14:56:31Z</time>
      </trkpt>
      <trkpt lat="45.08539" lon="5.34076">
        <ele>379.86</ele>
        <time>2019-11-30T14:56:34Z</time>
      </trkpt>
      <trkpt lat="45.08552" lon="5.34067">
        <ele>380.34</ele>
        <time>2019-11-30T14:56:47Z</time>
      </trkpt>
      <trkpt lat="45.08558" lon="5.34062">
        <ele>380.82</ele>
        <time>2019-11-30T14:56:53Z</time>
      </trkpt>
      <trkpt lat="45.0857" lon="5.34052">
        <ele>381.3</ele>
        <time>2019-11-30T14:57:05Z</time>
      </trkpt>
      <trkpt lat="45.08582" lon="5.3404">
        <ele>381.3</ele>
        <time>2019-11-30T14:57:16Z</time>
      </trkpt>
      <trkpt lat="45.08586" lon="5.34029">
        <ele>381.3</ele>
        <time>2019-11-30T14:57:23Z</time>
      </trkpt>
      <trkpt lat="45.08587" lon="5.34026">
        <ele>380.82</ele>
        <time>2019-11-30T14:57:25Z</time>
      </trkpt>
      <trkpt lat="45.08588" lon="5.34003">
        <ele>379.38</ele>
        <time>2019-11-30T14:57:38Z</time>
      </trkpt>
      <trkpt lat="45.08592" lon="5.33986">
        <ele>379.38</ele>
        <time>2019-11-30T14:57:50Z</time>
      </trkpt>
      <trkpt lat="45.08596" lon="5.3397">
        <ele>376.97</ele>
        <time>2019-11-30T14:58:03Z</time>
      </trkpt>
      <trkpt lat="45.086" lon="5.33971">
        <ele>376.97</ele>
        <time>2019-11-30T14:58:11Z</time>
      </trkpt>
      <trkpt lat="45.08602" lon="5.33975">
        <ele>375.53</ele>
        <time>2019-11-30T14:58:13Z</time>
      </trkpt>
      <trkpt lat="45.08605" lon="5.3398">
        <ele>376.01</ele>
        <time>2019-11-30T14:58:17Z</time>
      </trkpt>
      <trkpt lat="45.08613" lon="5.33992">
        <ele>376.01</ele>
        <time>2019-11-30T14:58:27Z</time>
      </trkpt>
      <trkpt lat="45.08616" lon="5.33997">
        <ele>376.01</ele>
        <time>2019-11-30T14:58:38Z</time>
      </trkpt>
      <trkpt lat="45.08617" lon="5.33998">
        <ele>376.01</ele>
        <time>2019-11-30T14:58:53Z</time>
      </trkpt>
      <trkpt lat="45.08618" lon="5.33998">
        <ele>375.05</ele>
        <time>2019-11-30T14:59:06Z</time>
      </trkpt>
      <trkpt lat="45.08618" lon="5.33998">
        <ele>366.88</ele>
        <time>2019-11-30T14:59:22Z</time>
      </trkpt>
      <trkpt lat="45.08618" lon="5.33998">
        <ele>376.97</ele>
        <time>2019-11-30T14:59:23Z</time>
      </trkpt>
      <trkpt lat="45.08618" lon="5.33998">
        <ele>373.61</ele>
        <time>2019-11-30T14:59:25Z</time>
      </trkpt>
      <trkpt lat="45.08618" lon="5.33998">
        <ele>376.97</ele>
        <time>2019-11-30T14:59:26Z</time>
      </trkpt>
      <trkpt lat="45.0862" lon="5.33998">
        <ele>370.24</ele>
        <time>2019-11-30T14:59:36Z</time>
      </trkpt>
      <trkpt lat="45.0862" lon="5.33998">
        <ele>381.3</ele>
        <time>2019-11-30T14:59:37Z</time>
      </trkpt>
      <trkpt lat="45.0862" lon="5.33998">
        <ele>371.69</ele>
        <time>2019-11-30T14:59:38Z</time>
      </trkpt>
      <trkpt lat="45.0862" lon="5.33998">
        <ele>376.49</ele>
        <time>2019-11-30T14:59:39Z</time>
      </trkpt>
      <trkpt lat="45.0862" lon="5.33998">
        <ele>365.92</ele>
        <time>2019-11-30T14:59:43Z</time>
      </trkpt>
      <trkpt lat="45.0862" lon="5.33998">
        <ele>377.94</ele>
        <time>2019-11-30T14:59:44Z</time>
      </trkpt>
    </trkseg>
  </trk>
</gpx>